<?xml version="1.0" encoding="UTF-8"?>
<gpx creator="Garmin Connect" version="1.1"
  xsi:schemaLocation="http://www.topografix.com/GPX/1/1 http://www.topografix.com/GPX/11.xsd"
  xmlns:ns3="http://www.garmin.com/xmlschemas/TrackPointExtension/v1"
  xmlns="http://www.topografix.com/GPX/1/1"
  xmlns:xsi="http://www.w3.org/2001/XMLSchema-instance" xmlns:ns2="http://www.garmin.com/xmlschemas/GpxExtensions/v3">
  <metadata>
    <link href="connect.garmin.com">
      <text>Garmin Connect</text>
    </link>
    <time>2019-08-30T06:49:05.000Z</time>
  </metadata>
  <trk>
    <name>Camerino Corsa</name>
    <type>running</type>
    <trkseg>
      <trkpt lat="43.1469213031232357025146484375" lon="13.0579362809658050537109375">
        <ele>465</ele>
        <time>2019-08-30T06:49:05.000Z</time>
        <extensions>
          <ns3:TrackPointExtension/>
        </extensions>
      </trkpt>
      <trkpt lat="43.1469293497502803802490234375" lon="13.05791775695979595184326171875">
        <ele>464.79998779296875</ele>
        <time>2019-08-30T06:49:06.000Z</time>
        <extensions>
          <ns3:TrackPointExtension/>
        </extensions>
      </trkpt>
      <trkpt lat="43.14698274247348308563232421875" lon="13.0578492768108844757080078125">
        <ele>464.399993896484375</ele>
        <time>2019-08-30T06:49:10.000Z</time>
        <extensions>
          <ns3:TrackPointExtension/>
        </extensions>
      </trkpt>
      <trkpt lat="43.14700369723141193389892578125" lon="13.0578328482806682586669921875">
        <ele>464.399993896484375</ele>
        <time>2019-08-30T06:49:11.000Z</time>
        <extensions>
          <ns3:TrackPointExtension/>
        </extensions>
      </trkpt>
      <trkpt lat="43.14715172164142131805419921875" lon="13.0576866678893566131591796875">
        <ele>462.600006103515625</ele>
        <time>2019-08-30T06:49:17.000Z</time>
        <extensions>
          <ns3:TrackPointExtension/>
        </extensions>
      </trkpt>
      <trkpt lat="43.1472240574657917022705078125" lon="13.057408891618251800537109375">
        <ele>460.399993896484375</ele>
        <time>2019-08-30T06:49:21.000Z</time>
        <extensions>
          <ns3:TrackPointExtension/>
        </extensions>
      </trkpt>
      <trkpt lat="43.14727979712188243865966796875" lon="13.05715651251375675201416015625">
        <ele>458.600006103515625</ele>
        <time>2019-08-30T06:49:25.000Z</time>
        <extensions>
          <ns3:TrackPointExtension/>
        </extensions>
      </trkpt>
      <trkpt lat="43.14744207076728343963623046875" lon="13.0569827556610107421875">
        <ele>456.600006103515625</ele>
        <time>2019-08-30T06:49:29.000Z</time>
        <extensions>
          <ns3:TrackPointExtension/>
        </extensions>
      </trkpt>
      <trkpt lat="43.147495128214359283447265625" lon="13.05695132352411746978759765625">
        <ele>456.20001220703125</ele>
        <time>2019-08-30T06:49:30.000Z</time>
        <extensions>
          <ns3:TrackPointExtension/>
        </extensions>
      </trkpt>
      <trkpt lat="43.1475465930998325347900390625" lon="13.05691813118755817413330078125">
        <ele>455.600006103515625</ele>
        <time>2019-08-30T06:49:31.000Z</time>
        <extensions>
          <ns3:TrackPointExtension/>
        </extensions>
      </trkpt>
      <trkpt lat="43.1477494351565837860107421875" lon="13.0567710287868976593017578125">
        <ele>453.20001220703125</ele>
        <time>2019-08-30T06:49:35.000Z</time>
        <extensions>
          <ns3:TrackPointExtension/>
        </extensions>
      </trkpt>
      <trkpt lat="43.14784758724272251129150390625" lon="13.0566855333745479583740234375">
        <ele>451.79998779296875</ele>
        <time>2019-08-30T06:49:37.000Z</time>
        <extensions>
          <ns3:TrackPointExtension/>
        </extensions>
      </trkpt>
      <trkpt lat="43.14793861471116542816162109375" lon="13.0565893091261386871337890625">
        <ele>450.600006103515625</ele>
        <time>2019-08-30T06:49:39.000Z</time>
        <extensions>
          <ns3:TrackPointExtension/>
        </extensions>
      </trkpt>
      <trkpt lat="43.148116059601306915283203125" lon="13.05636509321630001068115234375">
        <ele>447.79998779296875</ele>
        <time>2019-08-30T06:49:43.000Z</time>
        <extensions>
          <ns3:TrackPointExtension/>
        </extensions>
      </trkpt>
      <trkpt lat="43.14824924804270267486572265625" lon="13.056174404919147491455078125">
        <ele>445</ele>
        <time>2019-08-30T06:49:46.000Z</time>
        <extensions>
          <ns3:TrackPointExtension/>
        </extensions>
      </trkpt>
      <trkpt lat="43.14838184975087642669677734375" lon="13.055983968079090118408203125">
        <ele>442</ele>
        <time>2019-08-30T06:49:49.000Z</time>
        <extensions>
          <ns3:TrackPointExtension/>
        </extensions>
      </trkpt>
      <trkpt lat="43.14849458634853363037109375" lon="13.0557672120630741119384765625">
        <ele>440.20001220703125</ele>
        <time>2019-08-30T06:49:52.000Z</time>
        <extensions>
          <ns3:TrackPointExtension/>
        </extensions>
      </trkpt>
      <trkpt lat="43.14852870069444179534912109375" lon="13.05569051764905452728271484375">
        <ele>439.79998779296875</ele>
        <time>2019-08-30T06:49:53.000Z</time>
        <extensions>
          <ns3:TrackPointExtension/>
        </extensions>
      </trkpt>
      <trkpt lat="43.14859785139560699462890625" lon="13.05553436279296875">
        <ele>438.79998779296875</ele>
        <time>2019-08-30T06:49:55.000Z</time>
        <extensions>
          <ns3:TrackPointExtension/>
        </extensions>
      </trkpt>
      <trkpt lat="43.1487271003425121307373046875" lon="13.0553209595382213592529296875">
        <ele>436.79998779296875</ele>
        <time>2019-08-30T06:49:58.000Z</time>
        <extensions>
          <ns3:TrackPointExtension/>
        </extensions>
      </trkpt>
      <trkpt lat="43.1487737037241458892822265625" lon="13.0552555806934833526611328125">
        <ele>435.600006103515625</ele>
        <time>2019-08-30T06:49:59.000Z</time>
        <extensions>
          <ns3:TrackPointExtension/>
        </extensions>
      </trkpt>
      <trkpt lat="43.148822151124477386474609375" lon="13.05518961511552333831787109375">
        <ele>434.399993896484375</ele>
        <time>2019-08-30T06:50:00.000Z</time>
        <extensions>
          <ns3:TrackPointExtension/>
        </extensions>
      </trkpt>
      <trkpt lat="43.14899004064500331878662109375" lon="13.0549987591803073883056640625">
        <ele>430.20001220703125</ele>
        <time>2019-08-30T06:50:03.000Z</time>
        <extensions>
          <ns3:TrackPointExtension/>
        </extensions>
      </trkpt>
      <trkpt lat="43.14904980361461639404296875" lon="13.0549340508878231048583984375">
        <ele>428.79998779296875</ele>
        <time>2019-08-30T06:50:04.000Z</time>
        <extensions>
          <ns3:TrackPointExtension/>
        </extensions>
      </trkpt>
      <trkpt lat="43.14911149442195892333984375" lon="13.05486741475760936737060546875">
        <ele>427.20001220703125</ele>
        <time>2019-08-30T06:50:05.000Z</time>
        <extensions>
          <ns3:TrackPointExtension/>
        </extensions>
      </trkpt>
      <trkpt lat="43.14922842197120189666748046875" lon="13.0547372438013553619384765625">
        <ele>424.20001220703125</ele>
        <time>2019-08-30T06:50:07.000Z</time>
        <extensions>
          <ns3:TrackPointExtension/>
        </extensions>
      </trkpt>
      <trkpt lat="43.149361945688724517822265625" lon="13.0545030534267425537109375">
        <ele>419.79998779296875</ele>
        <time>2019-08-30T06:50:10.000Z</time>
        <extensions>
          <ns3:TrackPointExtension/>
        </extensions>
      </trkpt>
      <trkpt lat="43.14949295483529567718505859375" lon="13.0541944317519664764404296875">
        <ele>415.600006103515625</ele>
        <time>2019-08-30T06:50:13.000Z</time>
        <extensions>
          <ns3:TrackPointExtension/>
        </extensions>
      </trkpt>
      <trkpt lat="43.14961097203195095062255859375" lon="13.0540041625499725341796875">
        <ele>412.399993896484375</ele>
        <time>2019-08-30T06:50:15.000Z</time>
        <extensions>
          <ns3:TrackPointExtension/>
        </extensions>
      </trkpt>
      <trkpt lat="43.1497872434556484222412109375" lon="13.05373661220073699951171875">
        <ele>407.399993896484375</ele>
        <time>2019-08-30T06:50:18.000Z</time>
        <extensions>
          <ns3:TrackPointExtension/>
        </extensions>
      </trkpt>
      <trkpt lat="43.149848096072673797607421875" lon="13.05365036241710186004638671875">
        <ele>405.399993896484375</ele>
        <time>2019-08-30T06:50:19.000Z</time>
        <extensions>
          <ns3:TrackPointExtension/>
        </extensions>
      </trkpt>
      <trkpt lat="43.150033839046955108642578125" lon="13.0533934570848941802978515625">
        <ele>399.79998779296875</ele>
        <time>2019-08-30T06:50:22.000Z</time>
        <extensions>
          <ns3:TrackPointExtension/>
        </extensions>
      </trkpt>
      <trkpt lat="43.15018462948501110076904296875" lon="13.05311341769993305206298828125">
        <ele>393.600006103515625</ele>
        <time>2019-08-30T06:50:25.000Z</time>
        <extensions>
          <ns3:TrackPointExtension/>
        </extensions>
      </trkpt>
      <trkpt lat="43.150267191231250762939453125" lon="13.05276221595704555511474609375">
        <ele>387.79998779296875</ele>
        <time>2019-08-30T06:50:28.000Z</time>
        <extensions>
          <ns3:TrackPointExtension/>
        </extensions>
      </trkpt>
      <trkpt lat="43.1503176502883434295654296875" lon="13.05252333171665668487548828125">
        <ele>385</ele>
        <time>2019-08-30T06:50:30.000Z</time>
        <extensions>
          <ns3:TrackPointExtension/>
        </extensions>
      </trkpt>
      <trkpt lat="43.15036567859351634979248046875" lon="13.0522821843624114990234375">
        <ele>382.20001220703125</ele>
        <time>2019-08-30T06:50:32.000Z</time>
        <extensions>
          <ns3:TrackPointExtension/>
        </extensions>
      </trkpt>
      <trkpt lat="43.15043918788433074951171875" lon="13.0519442260265350341796875">
        <ele>378.79998779296875</ele>
        <time>2019-08-30T06:50:35.000Z</time>
        <extensions>
          <ns3:TrackPointExtension/>
        </extensions>
      </trkpt>
      <trkpt lat="43.15050129778683185577392578125" lon="13.0517271347343921661376953125">
        <ele>377</ele>
        <time>2019-08-30T06:50:37.000Z</time>
        <extensions>
          <ns3:TrackPointExtension/>
        </extensions>
      </trkpt>
      <trkpt lat="43.150614537298679351806640625" lon="13.05142396129667758941650390625">
        <ele>375.600006103515625</ele>
        <time>2019-08-30T06:50:40.000Z</time>
        <extensions>
          <ns3:TrackPointExtension/>
        </extensions>
      </trkpt>
      <trkpt lat="43.150656111538410186767578125" lon="13.05133008398115634918212890625">
        <ele>374.600006103515625</ele>
        <time>2019-08-30T06:50:41.000Z</time>
        <extensions>
          <ns3:TrackPointExtension/>
        </extensions>
      </trkpt>
      <trkpt lat="43.1507806666195392608642578125" lon="13.0510430037975311279296875">
        <ele>372.20001220703125</ele>
        <time>2019-08-30T06:50:44.000Z</time>
        <extensions>
          <ns3:TrackPointExtension/>
        </extensions>
      </trkpt>
      <trkpt lat="43.15082316286861896514892578125" lon="13.0509412474930286407470703125">
        <ele>371.20001220703125</ele>
        <time>2019-08-30T06:50:45.000Z</time>
        <extensions>
          <ns3:TrackPointExtension/>
        </extensions>
      </trkpt>
      <trkpt lat="43.1509637273848056793212890625" lon="13.050628602504730224609375">
        <ele>368.600006103515625</ele>
        <time>2019-08-30T06:50:48.000Z</time>
        <extensions>
          <ns3:TrackPointExtension/>
        </extensions>
      </trkpt>
      <trkpt lat="43.15100303851068019866943359375" lon="13.05051871575415134429931640625">
        <ele>368</ele>
        <time>2019-08-30T06:50:49.000Z</time>
        <extensions>
          <ns3:TrackPointExtension/>
        </extensions>
      </trkpt>
      <trkpt lat="43.1510431878268718719482421875" lon="13.050168268382549285888671875">
        <ele>366.399993896484375</ele>
        <time>2019-08-30T06:50:52.000Z</time>
        <extensions>
          <ns3:TrackPointExtension/>
        </extensions>
      </trkpt>
      <trkpt lat="43.15101242624223232269287109375" lon="13.04993365891277790069580078125">
        <ele>366.79998779296875</ele>
        <time>2019-08-30T06:50:54.000Z</time>
        <extensions>
          <ns3:TrackPointExtension/>
        </extensions>
      </trkpt>
      <trkpt lat="43.15099172294139862060546875" lon="13.0498231016099452972412109375">
        <ele>366.79998779296875</ele>
        <time>2019-08-30T06:50:55.000Z</time>
        <extensions>
          <ns3:TrackPointExtension/>
        </extensions>
      </trkpt>
      <trkpt lat="43.15090052783489227294921875" lon="13.049529902637004852294921875">
        <ele>367.399993896484375</ele>
        <time>2019-08-30T06:50:58.000Z</time>
        <extensions>
          <ns3:TrackPointExtension/>
        </extensions>
      </trkpt>
      <trkpt lat="43.1507920660078525543212890625" lon="13.04928523488342761993408203125">
        <ele>368.20001220703125</ele>
        <time>2019-08-30T06:51:01.000Z</time>
        <extensions>
          <ns3:TrackPointExtension/>
        </extensions>
      </trkpt>
      <trkpt lat="43.15074068494141101837158203125" lon="13.049122877418994903564453125">
        <ele>368.79998779296875</ele>
        <time>2019-08-30T06:51:03.000Z</time>
        <extensions>
          <ns3:TrackPointExtension/>
        </extensions>
      </trkpt>
      <trkpt lat="43.150718472898006439208984375" lon="13.049046099185943603515625">
        <ele>369</ele>
        <time>2019-08-30T06:51:04.000Z</time>
        <extensions>
          <ns3:TrackPointExtension/>
        </extensions>
      </trkpt>
      <trkpt lat="43.150656111538410186767578125" lon="13.04876706562936305999755859375">
        <ele>370.600006103515625</ele>
        <time>2019-08-30T06:51:08.000Z</time>
        <extensions>
          <ns3:TrackPointExtension/>
        </extensions>
      </trkpt>
      <trkpt lat="43.15064580179750919342041015625" lon="13.048703782260417938232421875">
        <ele>371</ele>
        <time>2019-08-30T06:51:09.000Z</time>
        <extensions>
          <ns3:TrackPointExtension/>
        </extensions>
      </trkpt>
      <trkpt lat="43.15061914734542369842529296875" lon="13.04846364073455333709716796875">
        <ele>372.399993896484375</ele>
        <time>2019-08-30T06:51:13.000Z</time>
        <extensions>
          <ns3:TrackPointExtension/>
        </extensions>
      </trkpt>
      <trkpt lat="43.15059919841587543487548828125" lon="13.04817597381770610809326171875">
        <ele>373.79998779296875</ele>
        <time>2019-08-30T06:51:18.000Z</time>
        <extensions>
          <ns3:TrackPointExtension/>
        </extensions>
      </trkpt>
      <trkpt lat="43.15057069994509220123291015625" lon="13.04789098910987377166748046875">
        <ele>374.600006103515625</ele>
        <time>2019-08-30T06:51:23.000Z</time>
        <extensions>
          <ns3:TrackPointExtension/>
        </extensions>
      </trkpt>
      <trkpt lat="43.1506012938916683197021484375" lon="13.04763995110988616943359375">
        <ele>374.79998779296875</ele>
        <time>2019-08-30T06:51:28.000Z</time>
        <extensions>
          <ns3:TrackPointExtension/>
        </extensions>
      </trkpt>
      <trkpt lat="43.1506452150642871856689453125" lon="13.0474014021456241607666015625">
        <ele>375.399993896484375</ele>
        <time>2019-08-30T06:51:33.000Z</time>
        <extensions>
          <ns3:TrackPointExtension/>
        </extensions>
      </trkpt>
      <trkpt lat="43.15067748539149761199951171875" lon="13.047144412994384765625">
        <ele>376</ele>
        <time>2019-08-30T06:51:39.000Z</time>
        <extensions>
          <ns3:TrackPointExtension/>
        </extensions>
      </trkpt>
      <trkpt lat="43.1505828537046909332275390625" lon="13.04688851349055767059326171875">
        <ele>377</ele>
        <time>2019-08-30T06:51:44.000Z</time>
        <extensions>
          <ns3:TrackPointExtension/>
        </extensions>
      </trkpt>
      <trkpt lat="43.1505627371370792388916015625" lon="13.04682984016835689544677734375">
        <ele>377.20001220703125</ele>
        <time>2019-08-30T06:51:45.000Z</time>
        <extensions>
          <ns3:TrackPointExtension/>
        </extensions>
      </trkpt>
      <trkpt lat="43.15052242018282413482666015625" lon="13.04670922458171844482421875">
        <ele>377.20001220703125</ele>
        <time>2019-08-30T06:51:47.000Z</time>
        <extensions>
          <ns3:TrackPointExtension/>
        </extensions>
      </trkpt>
      <trkpt lat="43.15045033581554889678955078125" lon="13.04646321572363376617431640625">
        <ele>376</ele>
        <time>2019-08-30T06:51:51.000Z</time>
        <extensions>
          <ns3:TrackPointExtension/>
        </extensions>
      </trkpt>
      <trkpt lat="43.1504323147237300872802734375" lon="13.04640403948724269866943359375">
        <ele>375.79998779296875</ele>
        <time>2019-08-30T06:51:52.000Z</time>
        <extensions>
          <ns3:TrackPointExtension/>
        </extensions>
      </trkpt>
      <trkpt lat="43.1504135392606258392333984375" lon="13.04634620435535907745361328125">
        <ele>375.399993896484375</ele>
        <time>2019-08-30T06:51:53.000Z</time>
        <extensions>
          <ns3:TrackPointExtension/>
        </extensions>
      </trkpt>
      <trkpt lat="43.15034137107431888580322265625" lon="13.0461206473410129547119140625">
        <ele>374.600006103515625</ele>
        <time>2019-08-30T06:51:57.000Z</time>
        <extensions>
          <ns3:TrackPointExtension/>
        </extensions>
      </trkpt>
      <trkpt lat="43.1503231823444366455078125" lon="13.04606490768492221832275390625">
        <ele>374.600006103515625</ele>
        <time>2019-08-30T06:51:58.000Z</time>
        <extensions>
          <ns3:TrackPointExtension/>
        </extensions>
      </trkpt>
      <trkpt lat="43.1502412073314189910888671875" lon="13.04584446363151073455810546875">
        <ele>374.600006103515625</ele>
        <time>2019-08-30T06:52:02.000Z</time>
        <extensions>
          <ns3:TrackPointExtension/>
        </extensions>
      </trkpt>
      <trkpt lat="43.15009729005396366119384765625" lon="13.04562971927225589752197265625">
        <ele>374.20001220703125</ele>
        <time>2019-08-30T06:52:07.000Z</time>
        <extensions>
          <ns3:TrackPointExtension/>
        </extensions>
      </trkpt>
      <trkpt lat="43.14988841302692890167236328125" lon="13.0455372668802738189697265625">
        <ele>376.600006103515625</ele>
        <time>2019-08-30T06:52:12.000Z</time>
        <extensions>
          <ns3:TrackPointExtension/>
        </extensions>
      </trkpt>
      <trkpt lat="43.14967584796249866485595703125" lon="13.04552343674004077911376953125">
        <ele>379.20001220703125</ele>
        <time>2019-08-30T06:52:17.000Z</time>
        <extensions>
          <ns3:TrackPointExtension/>
        </extensions>
      </trkpt>
      <trkpt lat="43.1494903564453125" lon="13.045429475605487823486328125">
        <ele>381.399993896484375</ele>
        <time>2019-08-30T06:52:22.000Z</time>
        <extensions>
          <ns3:TrackPointExtension/>
        </extensions>
      </trkpt>
      <trkpt lat="43.14931727014482021331787109375" lon="13.0453042499721050262451171875">
        <ele>383.399993896484375</ele>
        <time>2019-08-30T06:52:27.000Z</time>
        <extensions>
          <ns3:TrackPointExtension/>
        </extensions>
      </trkpt>
      <trkpt lat="43.149288855493068695068359375" lon="13.04526812396943569183349609375">
        <ele>383.79998779296875</ele>
        <time>2019-08-30T06:52:28.000Z</time>
        <extensions>
          <ns3:TrackPointExtension/>
        </extensions>
      </trkpt>
      <trkpt lat="43.1492464430630207061767578125" lon="13.04500401020050048828125">
        <ele>384</ele>
        <time>2019-08-30T06:52:33.000Z</time>
        <extensions>
          <ns3:TrackPointExtension/>
        </extensions>
      </trkpt>
      <trkpt lat="43.149207718670368194580078125" lon="13.04473972879350185394287109375">
        <ele>383.79998779296875</ele>
        <time>2019-08-30T06:52:38.000Z</time>
        <extensions>
          <ns3:TrackPointExtension/>
        </extensions>
      </trkpt>
      <trkpt lat="43.14917184412479400634765625" lon="13.044465221464633941650390625">
        <ele>383.600006103515625</ele>
        <time>2019-08-30T06:52:44.000Z</time>
        <extensions>
          <ns3:TrackPointExtension/>
        </extensions>
      </trkpt>
      <trkpt lat="43.149148710072040557861328125" lon="13.0442940630018711090087890625">
        <ele>383.399993896484375</ele>
        <time>2019-08-30T06:52:48.000Z</time>
        <extensions>
          <ns3:TrackPointExtension/>
        </extensions>
      </trkpt>
      <trkpt lat="43.14914376474916934967041015625" lon="13.0442518182098865509033203125">
        <ele>383.399993896484375</ele>
        <time>2019-08-30T06:52:49.000Z</time>
        <extensions>
          <ns3:TrackPointExtension/>
        </extensions>
      </trkpt>
      <trkpt lat="43.14913722686469554901123046875" lon="13.0441609583795070648193359375">
        <ele>383.79998779296875</ele>
        <time>2019-08-30T06:52:51.000Z</time>
        <extensions>
          <ns3:TrackPointExtension/>
        </extensions>
      </trkpt>
      <trkpt lat="43.1491233967244625091552734375" lon="13.044028021395206451416015625">
        <ele>384.20001220703125</ele>
        <time>2019-08-30T06:52:54.000Z</time>
        <extensions>
          <ns3:TrackPointExtension/>
        </extensions>
      </trkpt>
      <trkpt lat="43.14910956658422946929931640625" lon="13.04389231838285923004150390625">
        <ele>384.79998779296875</ele>
        <time>2019-08-30T06:52:57.000Z</time>
        <extensions>
          <ns3:TrackPointExtension/>
        </extensions>
      </trkpt>
      <trkpt lat="43.1490918807685375213623046875" lon="13.0437140353024005889892578125">
        <ele>385.399993896484375</ele>
        <time>2019-08-30T06:53:01.000Z</time>
        <extensions>
          <ns3:TrackPointExtension/>
        </extensions>
      </trkpt>
      <trkpt lat="43.14902164041996002197265625" lon="13.04346618242561817169189453125">
        <ele>386.399993896484375</ele>
        <time>2019-08-30T06:53:07.000Z</time>
        <extensions>
          <ns3:TrackPointExtension/>
        </extensions>
      </trkpt>
      <trkpt lat="43.1488960795104503631591796875" lon="13.04327926598489284515380859375">
        <ele>387.20001220703125</ele>
        <time>2019-08-30T06:53:12.000Z</time>
        <extensions>
          <ns3:TrackPointExtension/>
        </extensions>
      </trkpt>
      <trkpt lat="43.1487448699772357940673828125" lon="13.04308581165969371795654296875">
        <ele>388</ele>
        <time>2019-08-30T06:53:17.000Z</time>
        <extensions>
          <ns3:TrackPointExtension/>
        </extensions>
      </trkpt>
      <trkpt lat="43.14871662296354770660400390625" lon="13.04304909892380237579345703125">
        <ele>388.20001220703125</ele>
        <time>2019-08-30T06:53:18.000Z</time>
        <extensions>
          <ns3:TrackPointExtension/>
        </extensions>
      </trkpt>
      <trkpt lat="43.14868904650211334228515625" lon="13.04301305674016475677490234375">
        <ele>388.399993896484375</ele>
        <time>2019-08-30T06:53:19.000Z</time>
        <extensions>
          <ns3:TrackPointExtension/>
        </extensions>
      </trkpt>
      <trkpt lat="43.14863682724535465240478515625" lon="13.042940385639667510986328125">
        <ele>388.600006103515625</ele>
        <time>2019-08-30T06:53:21.000Z</time>
        <extensions>
          <ns3:TrackPointExtension/>
        </extensions>
      </trkpt>
      <trkpt lat="43.14850221388041973114013671875" lon="13.04275028407573699951171875">
        <ele>389.399993896484375</ele>
        <time>2019-08-30T06:53:26.000Z</time>
        <extensions>
          <ns3:TrackPointExtension/>
        </extensions>
      </trkpt>
      <trkpt lat="43.1484478153288364410400390625" lon="13.0426691472530364990234375">
        <ele>389.79998779296875</ele>
        <time>2019-08-30T06:53:28.000Z</time>
        <extensions>
          <ns3:TrackPointExtension/>
        </extensions>
      </trkpt>
      <trkpt lat="43.148388974368572235107421875" lon="13.0425886809825897216796875">
        <ele>390</ele>
        <time>2019-08-30T06:53:30.000Z</time>
        <extensions>
          <ns3:TrackPointExtension/>
        </extensions>
      </trkpt>
      <trkpt lat="43.1483009643852710723876953125" lon="13.0424684844911098480224609375">
        <ele>390.399993896484375</ele>
        <time>2019-08-30T06:53:33.000Z</time>
        <extensions>
          <ns3:TrackPointExtension/>
        </extensions>
      </trkpt>
      <trkpt lat="43.1482436321675777435302734375" lon="13.04238726384937763214111328125">
        <ele>390.79998779296875</ele>
        <time>2019-08-30T06:53:35.000Z</time>
        <extensions>
          <ns3:TrackPointExtension/>
        </extensions>
      </trkpt>
      <trkpt lat="43.14813391305506229400634765625" lon="13.04222457110881805419921875">
        <ele>391.20001220703125</ele>
        <time>2019-08-30T06:53:39.000Z</time>
        <extensions>
          <ns3:TrackPointExtension/>
        </extensions>
      </trkpt>
      <trkpt lat="43.1480485014617443084716796875" lon="13.04211099632084369659423828125">
        <ele>391.600006103515625</ele>
        <time>2019-08-30T06:53:42.000Z</time>
        <extensions>
          <ns3:TrackPointExtension/>
        </extensions>
      </trkpt>
      <trkpt lat="43.14791615121066570281982421875" lon="13.0419246666133403778076171875">
        <ele>392</ele>
        <time>2019-08-30T06:53:47.000Z</time>
        <extensions>
          <ns3:TrackPointExtension/>
        </extensions>
      </trkpt>
      <trkpt lat="43.1478882394731044769287109375" lon="13.0418881215155124664306640625">
        <ele>392.20001220703125</ele>
        <time>2019-08-30T06:53:48.000Z</time>
        <extensions>
          <ns3:TrackPointExtension/>
        </extensions>
      </trkpt>
      <trkpt lat="43.14783182926476001739501953125" lon="13.0418130196630954742431640625">
        <ele>392.399993896484375</ele>
        <time>2019-08-30T06:53:50.000Z</time>
        <extensions>
          <ns3:TrackPointExtension/>
        </extensions>
      </trkpt>
      <trkpt lat="43.147693611681461334228515625" lon="13.0416386760771274566650390625">
        <ele>393</ele>
        <time>2019-08-30T06:53:55.000Z</time>
        <extensions>
          <ns3:TrackPointExtension/>
        </extensions>
      </trkpt>
      <trkpt lat="43.147542066872119903564453125" lon="13.041481263935565948486328125">
        <ele>393.600006103515625</ele>
        <time>2019-08-30T06:54:00.000Z</time>
        <extensions>
          <ns3:TrackPointExtension/>
        </extensions>
      </trkpt>
      <trkpt lat="43.14750946126878261566162109375" lon="13.041452430188655853271484375">
        <ele>393.79998779296875</ele>
        <time>2019-08-30T06:54:01.000Z</time>
        <extensions>
          <ns3:TrackPointExtension/>
        </extensions>
      </trkpt>
      <trkpt lat="43.14738105051219463348388671875" lon="13.04133969359099864959716796875">
        <ele>394</ele>
        <time>2019-08-30T06:54:05.000Z</time>
        <extensions>
          <ns3:TrackPointExtension/>
        </extensions>
      </trkpt>
      <trkpt lat="43.1473179347813129425048828125" lon="13.0412896536290645599365234375">
        <ele>394.20001220703125</ele>
        <time>2019-08-30T06:54:07.000Z</time>
        <extensions>
          <ns3:TrackPointExtension/>
        </extensions>
      </trkpt>
      <trkpt lat="43.1472528912127017974853515625" lon="13.04124556481838226318359375">
        <ele>394.20001220703125</ele>
        <time>2019-08-30T06:54:09.000Z</time>
        <extensions>
          <ns3:TrackPointExtension/>
        </extensions>
      </trkpt>
      <trkpt lat="43.14718390814960002899169921875" lon="13.041204325854778289794921875">
        <ele>394.399993896484375</ele>
        <time>2019-08-30T06:54:11.000Z</time>
        <extensions>
          <ns3:TrackPointExtension/>
        </extensions>
      </trkpt>
      <trkpt lat="43.1470423378050327301025390625" lon="13.04110701195895671844482421875">
        <ele>394.600006103515625</ele>
        <time>2019-08-30T06:54:15.000Z</time>
        <extensions>
          <ns3:TrackPointExtension/>
        </extensions>
      </trkpt>
      <trkpt lat="43.14700872637331485748291015625" lon="13.04108723066747188568115234375">
        <ele>394.600006103515625</ele>
        <time>2019-08-30T06:54:16.000Z</time>
        <extensions>
          <ns3:TrackPointExtension/>
        </extensions>
      </trkpt>
      <trkpt lat="43.1468612886965274810791015625" lon="13.04100215435028076171875">
        <ele>394.79998779296875</ele>
        <time>2019-08-30T06:54:20.000Z</time>
        <extensions>
          <ns3:TrackPointExtension/>
        </extensions>
      </trkpt>
      <trkpt lat="43.14667646773159503936767578125" lon="13.04088614881038665771484375">
        <ele>395.20001220703125</ele>
        <time>2019-08-30T06:54:25.000Z</time>
        <extensions>
          <ns3:TrackPointExtension/>
        </extensions>
      </trkpt>
      <trkpt lat="43.14650329761207103729248046875" lon="13.04076008498668670654296875">
        <ele>396</ele>
        <time>2019-08-30T06:54:30.000Z</time>
        <extensions>
          <ns3:TrackPointExtension/>
        </extensions>
      </trkpt>
      <trkpt lat="43.14636432565748691558837890625" lon="13.040547855198383331298828125">
        <ele>397.20001220703125</ele>
        <time>2019-08-30T06:54:35.000Z</time>
        <extensions>
          <ns3:TrackPointExtension/>
        </extensions>
      </trkpt>
      <trkpt lat="43.14630716107785701751708984375" lon="13.040289022028446197509765625">
        <ele>398.399993896484375</ele>
        <time>2019-08-30T06:54:40.000Z</time>
        <extensions>
          <ns3:TrackPointExtension/>
        </extensions>
      </trkpt>
      <trkpt lat="43.14628603868186473846435546875" lon="13.04013068787753582000732421875">
        <ele>399</ele>
        <time>2019-08-30T06:54:43.000Z</time>
        <extensions>
          <ns3:TrackPointExtension/>
        </extensions>
      </trkpt>
      <trkpt lat="43.14627195708453655242919921875" lon="13.040026165544986724853515625">
        <ele>399.20001220703125</ele>
        <time>2019-08-30T06:54:45.000Z</time>
        <extensions>
          <ns3:TrackPointExtension/>
        </extensions>
      </trkpt>
      <trkpt lat="43.14624262042343616485595703125" lon="13.0397698469460010528564453125">
        <ele>398.79998779296875</ele>
        <time>2019-08-30T06:54:50.000Z</time>
        <extensions>
          <ns3:TrackPointExtension/>
        </extensions>
      </trkpt>
      <trkpt lat="43.14623616635799407958984375" lon="13.0397205613553524017333984375">
        <ele>398.79998779296875</ele>
        <time>2019-08-30T06:54:51.000Z</time>
        <extensions>
          <ns3:TrackPointExtension/>
        </extensions>
      </trkpt>
      <trkpt lat="43.14617405645549297332763671875" lon="13.03943532519042491912841796875">
        <ele>398.600006103515625</ele>
        <time>2019-08-30T06:54:57.000Z</time>
        <extensions>
          <ns3:TrackPointExtension/>
        </extensions>
      </trkpt>
      <trkpt lat="43.14615678973495960235595703125" lon="13.03938855417072772979736328125">
        <ele>398.600006103515625</ele>
        <time>2019-08-30T06:54:58.000Z</time>
        <extensions>
          <ns3:TrackPointExtension/>
        </extensions>
      </trkpt>
      <trkpt lat="43.14613734371960163116455078125" lon="13.0393406935036182403564453125">
        <ele>398.399993896484375</ele>
        <time>2019-08-30T06:54:59.000Z</time>
        <extensions>
          <ns3:TrackPointExtension/>
        </extensions>
      </trkpt>
      <trkpt lat="43.1460960209369659423828125" lon="13.039245307445526123046875">
        <ele>398.399993896484375</ele>
        <time>2019-08-30T06:55:01.000Z</time>
        <extensions>
          <ns3:TrackPointExtension/>
        </extensions>
      </trkpt>
      <trkpt lat="43.14601111225783824920654296875" lon="13.0390456505119800567626953125">
        <ele>398.20001220703125</ele>
        <time>2019-08-30T06:55:05.000Z</time>
        <extensions>
          <ns3:TrackPointExtension/>
        </extensions>
      </trkpt>
      <trkpt lat="43.145990408957004547119140625" lon="13.03899644874036312103271484375">
        <ele>398.20001220703125</ele>
        <time>2019-08-30T06:55:06.000Z</time>
        <extensions>
          <ns3:TrackPointExtension/>
        </extensions>
      </trkpt>
      <trkpt lat="43.14594875089824199676513671875" lon="13.03889234550297260284423828125">
        <ele>398</ele>
        <time>2019-08-30T06:55:08.000Z</time>
        <extensions>
          <ns3:TrackPointExtension/>
        </extensions>
      </trkpt>
      <trkpt lat="43.14587214030325412750244140625" lon="13.03869671188294887542724609375">
        <ele>398.399993896484375</ele>
        <time>2019-08-30T06:55:12.000Z</time>
        <extensions>
          <ns3:TrackPointExtension/>
        </extensions>
      </trkpt>
      <trkpt lat="43.14585470594465732574462890625" lon="13.0386557243764400482177734375">
        <ele>398.399993896484375</ele>
        <time>2019-08-30T06:55:13.000Z</time>
        <extensions>
          <ns3:TrackPointExtension/>
        </extensions>
      </trkpt>
      <trkpt lat="43.1458360143005847930908203125" lon="13.03861490450799465179443359375">
        <ele>398.600006103515625</ele>
        <time>2019-08-30T06:55:14.000Z</time>
        <extensions>
          <ns3:TrackPointExtension/>
        </extensions>
      </trkpt>
      <trkpt lat="43.14576703123748302459716796875" lon="13.0384334363043308258056640625">
        <ele>399</ele>
        <time>2019-08-30T06:55:18.000Z</time>
        <extensions>
          <ns3:TrackPointExtension/>
        </extensions>
      </trkpt>
      <trkpt lat="43.145750351250171661376953125" lon="13.03838792257010936737060546875">
        <ele>399</ele>
        <time>2019-08-30T06:55:19.000Z</time>
        <extensions>
          <ns3:TrackPointExtension/>
        </extensions>
      </trkpt>
      <trkpt lat="43.14571447670459747314453125" lon="13.0382976494729518890380859375">
        <ele>399.20001220703125</ele>
        <time>2019-08-30T06:55:21.000Z</time>
        <extensions>
          <ns3:TrackPointExtension/>
        </extensions>
      </trkpt>
      <trkpt lat="43.14565739594399929046630859375" lon="13.0381541512906551361083984375">
        <ele>399.399993896484375</ele>
        <time>2019-08-30T06:55:24.000Z</time>
        <extensions>
          <ns3:TrackPointExtension/>
        </extensions>
      </trkpt>
      <trkpt lat="43.14556159079074859619140625" lon="13.0379070527851581573486328125">
        <ele>400</ele>
        <time>2019-08-30T06:55:29.000Z</time>
        <extensions>
          <ns3:TrackPointExtension/>
        </extensions>
      </trkpt>
      <trkpt lat="43.1454501114785671234130859375" lon="13.0376586131751537322998046875">
        <ele>400.79998779296875</ele>
        <time>2019-08-30T06:55:34.000Z</time>
        <extensions>
          <ns3:TrackPointExtension/>
        </extensions>
      </trkpt>
      <trkpt lat="43.14542622305452823638916015625" lon="13.0376123450696468353271484375">
        <ele>401</ele>
        <time>2019-08-30T06:55:35.000Z</time>
        <extensions>
          <ns3:TrackPointExtension/>
        </extensions>
      </trkpt>
      <trkpt lat="43.14540342427790164947509765625" lon="13.03756850771605968475341796875">
        <ele>401</ele>
        <time>2019-08-30T06:55:36.000Z</time>
        <extensions>
          <ns3:TrackPointExtension/>
        </extensions>
      </trkpt>
      <trkpt lat="43.145297057926654815673828125" lon="13.03740598261356353759765625">
        <ele>401.600006103515625</ele>
        <time>2019-08-30T06:55:40.000Z</time>
        <extensions>
          <ns3:TrackPointExtension/>
        </extensions>
      </trkpt>
      <trkpt lat="43.1451661325991153717041015625" lon="13.0372113548219203948974609375">
        <ele>402</ele>
        <time>2019-08-30T06:55:44.000Z</time>
        <extensions>
          <ns3:TrackPointExtension/>
        </extensions>
      </trkpt>
      <trkpt lat="43.1450571678578853607177734375" lon="13.03700457327067852020263671875">
        <ele>402.600006103515625</ele>
        <time>2019-08-30T06:55:47.000Z</time>
        <extensions>
          <ns3:TrackPointExtension/>
        </extensions>
      </trkpt>
      <trkpt lat="43.14496873877942562103271484375" lon="13.03671455942094326019287109375">
        <ele>402.399993896484375</ele>
        <time>2019-08-30T06:55:50.000Z</time>
        <extensions>
          <ns3:TrackPointExtension/>
        </extensions>
      </trkpt>
      <trkpt lat="43.144990615546703338623046875" lon="13.036470226943492889404296875">
        <ele>401.20001220703125</ele>
        <time>2019-08-30T06:55:52.000Z</time>
        <extensions>
          <ns3:TrackPointExtension/>
        </extensions>
      </trkpt>
      <trkpt lat="43.14514123834669589996337890625" lon="13.03619387559592723846435546875">
        <ele>400.20001220703125</ele>
        <time>2019-08-30T06:55:55.000Z</time>
        <extensions>
          <ns3:TrackPointExtension/>
        </extensions>
      </trkpt>
      <trkpt lat="43.14528825692832469940185546875" lon="13.03603176958858966827392578125">
        <ele>399.79998779296875</ele>
        <time>2019-08-30T06:55:58.000Z</time>
        <extensions>
          <ns3:TrackPointExtension/>
        </extensions>
      </trkpt>
      <trkpt lat="43.14539571292698383331298828125" lon="13.03581300191581249237060546875">
        <ele>400.79998779296875</ele>
        <time>2019-08-30T06:56:03.000Z</time>
        <extensions>
          <ns3:TrackPointExtension/>
        </extensions>
      </trkpt>
      <trkpt lat="43.145442903041839599609375" lon="13.03555928170680999755859375">
        <ele>401.20001220703125</ele>
        <time>2019-08-30T06:56:10.000Z</time>
        <extensions>
          <ns3:TrackPointExtension/>
        </extensions>
      </trkpt>
      <trkpt lat="43.145392946898937225341796875" lon="13.03533322177827358245849609375">
        <ele>401.399993896484375</ele>
        <time>2019-08-30T06:56:15.000Z</time>
        <extensions>
          <ns3:TrackPointExtension/>
        </extensions>
      </trkpt>
      <trkpt lat="43.14537492580711841583251953125" lon="13.035294748842716217041015625">
        <ele>401.399993896484375</ele>
        <time>2019-08-30T06:56:16.000Z</time>
        <extensions>
          <ns3:TrackPointExtension/>
        </extensions>
      </trkpt>
      <trkpt lat="43.14524131827056407928466796875" lon="13.03507003001868724822998046875">
        <ele>401.20001220703125</ele>
        <time>2019-08-30T06:56:22.000Z</time>
        <extensions>
          <ns3:TrackPointExtension/>
        </extensions>
      </trkpt>
      <trkpt lat="43.1451741792261600494384765625" lon="13.0350119434297084808349609375">
        <ele>401.399993896484375</ele>
        <time>2019-08-30T06:56:24.000Z</time>
        <extensions>
          <ns3:TrackPointExtension/>
        </extensions>
      </trkpt>
      <trkpt lat="43.14513956196606159210205078125" lon="13.03498202003538608551025390625">
        <ele>401.399993896484375</ele>
        <time>2019-08-30T06:56:25.000Z</time>
        <extensions>
          <ns3:TrackPointExtension/>
        </extensions>
      </trkpt>
      <trkpt lat="43.14495214261114597320556640625" lon="13.03484874777495861053466796875">
        <ele>401.399993896484375</ele>
        <time>2019-08-30T06:56:30.000Z</time>
        <extensions>
          <ns3:TrackPointExtension/>
        </extensions>
      </trkpt>
      <trkpt lat="43.14480093307793140411376953125" lon="13.03475989960134029388427734375">
        <ele>401.399993896484375</ele>
        <time>2019-08-30T06:56:34.000Z</time>
        <extensions>
          <ns3:TrackPointExtension/>
        </extensions>
      </trkpt>
      <trkpt lat="43.14472516067326068878173828125" lon="13.034719415009021759033203125">
        <ele>401.399993896484375</ele>
        <time>2019-08-30T06:56:36.000Z</time>
        <extensions>
          <ns3:TrackPointExtension/>
        </extensions>
      </trkpt>
      <trkpt lat="43.14464838244020938873291015625" lon="13.03467289544641971588134765625">
        <ele>401.399993896484375</ele>
        <time>2019-08-30T06:56:38.000Z</time>
        <extensions>
          <ns3:TrackPointExtension/>
        </extensions>
      </trkpt>
      <trkpt lat="43.1445354782044887542724609375" lon="13.03461246192455291748046875">
        <ele>401.600006103515625</ele>
        <time>2019-08-30T06:56:41.000Z</time>
        <extensions>
          <ns3:TrackPointExtension/>
        </extensions>
      </trkpt>
      <trkpt lat="43.144421316683292388916015625" lon="13.034565187990665435791015625">
        <ele>401.600006103515625</ele>
        <time>2019-08-30T06:56:44.000Z</time>
        <extensions>
          <ns3:TrackPointExtension/>
        </extensions>
      </trkpt>
      <trkpt lat="43.14426583237946033477783203125" lon="13.03450793959200382232666015625">
        <ele>401.79998779296875</ele>
        <time>2019-08-30T06:56:48.000Z</time>
        <extensions>
          <ns3:TrackPointExtension/>
        </extensions>
      </trkpt>
      <trkpt lat="43.14422626979649066925048828125" lon="13.03449050523340702056884765625">
        <ele>401.79998779296875</ele>
        <time>2019-08-30T06:56:49.000Z</time>
        <extensions>
          <ns3:TrackPointExtension/>
        </extensions>
      </trkpt>
      <trkpt lat="43.1440322287380695343017578125" lon="13.034400232136249542236328125">
        <ele>402.399993896484375</ele>
        <time>2019-08-30T06:56:54.000Z</time>
        <extensions>
          <ns3:TrackPointExtension/>
        </extensions>
      </trkpt>
      <trkpt lat="43.14386467449367046356201171875" lon="13.0342910997569561004638671875">
        <ele>403</ele>
        <time>2019-08-30T06:56:59.000Z</time>
        <extensions>
          <ns3:TrackPointExtension/>
        </extensions>
      </trkpt>
      <trkpt lat="43.1436972878873348236083984375" lon="13.0341502837836742401123046875">
        <ele>403.600006103515625</ele>
        <time>2019-08-30T06:57:04.000Z</time>
        <extensions>
          <ns3:TrackPointExtension/>
        </extensions>
      </trkpt>
      <trkpt lat="43.14366619102656841278076171875" lon="13.034113235771656036376953125">
        <ele>403.600006103515625</ele>
        <time>2019-08-30T06:57:05.000Z</time>
        <extensions>
          <ns3:TrackPointExtension/>
        </extensions>
      </trkpt>
      <trkpt lat="43.14351481385529041290283203125" lon="13.03388482891023159027099609375">
        <ele>404.20001220703125</ele>
        <time>2019-08-30T06:57:10.000Z</time>
        <extensions>
          <ns3:TrackPointExtension/>
        </extensions>
      </trkpt>
      <trkpt lat="43.1433754228055477142333984375" lon="13.0337226390838623046875">
        <ele>404.600006103515625</ele>
        <time>2019-08-30T06:57:14.000Z</time>
        <extensions>
          <ns3:TrackPointExtension/>
        </extensions>
      </trkpt>
      <trkpt lat="43.14325380139052867889404296875" lon="13.03362968377768993377685546875">
        <ele>404.600006103515625</ele>
        <time>2019-08-30T06:57:17.000Z</time>
        <extensions>
          <ns3:TrackPointExtension/>
        </extensions>
      </trkpt>
      <trkpt lat="43.1432118080556392669677734375" lon="13.03360420279204845428466796875">
        <ele>404.600006103515625</ele>
        <time>2019-08-30T06:57:18.000Z</time>
        <extensions>
          <ns3:TrackPointExtension/>
        </extensions>
      </trkpt>
      <trkpt lat="43.1431320123374462127685546875" lon="13.03355609066784381866455078125">
        <ele>404.399993896484375</ele>
        <time>2019-08-30T06:57:20.000Z</time>
        <extensions>
          <ns3:TrackPointExtension/>
        </extensions>
      </trkpt>
      <trkpt lat="43.1429489515721797943115234375" lon="13.0334182083606719970703125">
        <ele>404.399993896484375</ele>
        <time>2019-08-30T06:57:25.000Z</time>
        <extensions>
          <ns3:TrackPointExtension/>
        </extensions>
      </trkpt>
      <trkpt lat="43.1429122388362884521484375" lon="13.033387362957000732421875">
        <ele>404.399993896484375</ele>
        <time>2019-08-30T06:57:26.000Z</time>
        <extensions>
          <ns3:TrackPointExtension/>
        </extensions>
      </trkpt>
      <trkpt lat="43.1427298486232757568359375" lon="13.033239841461181640625">
        <ele>404.600006103515625</ele>
        <time>2019-08-30T06:57:31.000Z</time>
        <extensions>
          <ns3:TrackPointExtension/>
        </extensions>
      </trkpt>
      <trkpt lat="43.14261174760758876800537109375" lon="13.03314889781177043914794921875">
        <ele>404.600006103515625</ele>
        <time>2019-08-30T06:57:34.000Z</time>
        <extensions>
          <ns3:TrackPointExtension/>
        </extensions>
      </trkpt>
      <trkpt lat="43.142569921910762786865234375" lon="13.033121488988399505615234375">
        <ele>404.79998779296875</ele>
        <time>2019-08-30T06:57:35.000Z</time>
        <extensions>
          <ns3:TrackPointExtension/>
        </extensions>
      </trkpt>
      <trkpt lat="43.14238845370709896087646484375" lon="13.033018894493579864501953125">
        <ele>405.20001220703125</ele>
        <time>2019-08-30T06:57:39.000Z</time>
        <extensions>
          <ns3:TrackPointExtension/>
        </extensions>
      </trkpt>
      <trkpt lat="43.14223238267004489898681640625" lon="13.03298880346119403839111328125">
        <ele>405.399993896484375</ele>
        <time>2019-08-30T06:57:42.000Z</time>
        <extensions>
          <ns3:TrackPointExtension/>
        </extensions>
      </trkpt>
      <trkpt lat="43.14218175597488880157470703125" lon="13.03298729471862316131591796875">
        <ele>405.600006103515625</ele>
        <time>2019-08-30T06:57:43.000Z</time>
        <extensions>
          <ns3:TrackPointExtension/>
        </extensions>
      </trkpt>
      <trkpt lat="43.14207798801362514495849609375" lon="13.032990396022796630859375">
        <ele>405.79998779296875</ele>
        <time>2019-08-30T06:57:45.000Z</time>
        <extensions>
          <ns3:TrackPointExtension/>
        </extensions>
      </trkpt>
      <trkpt lat="43.141871877014636993408203125" lon="13.0329917371273040771484375">
        <ele>406.20001220703125</ele>
        <time>2019-08-30T06:57:49.000Z</time>
        <extensions>
          <ns3:TrackPointExtension/>
        </extensions>
      </trkpt>
      <trkpt lat="43.14182166941463947296142578125" lon="13.03299349732697010040283203125">
        <ele>406.399993896484375</ele>
        <time>2019-08-30T06:57:50.000Z</time>
        <extensions>
          <ns3:TrackPointExtension/>
        </extensions>
      </trkpt>
      <trkpt lat="43.1416849605739116668701171875" lon="13.0329997837543487548828125">
        <ele>407</ele>
        <time>2019-08-30T06:57:53.000Z</time>
        <extensions>
          <ns3:TrackPointExtension/>
        </extensions>
      </trkpt>
      <trkpt lat="43.1415575556457042694091796875" lon="13.0329965986311435699462890625">
        <ele>407.79998779296875</ele>
        <time>2019-08-30T06:57:56.000Z</time>
        <extensions>
          <ns3:TrackPointExtension/>
        </extensions>
      </trkpt>
      <trkpt lat="43.141372986137866973876953125" lon="13.03298444487154483795166015625">
        <ele>409</ele>
        <time>2019-08-30T06:58:01.000Z</time>
        <extensions>
          <ns3:TrackPointExtension/>
        </extensions>
      </trkpt>
      <trkpt lat="43.1413376145064830780029296875" lon="13.0329825170338153839111328125">
        <ele>409.20001220703125</ele>
        <time>2019-08-30T06:58:02.000Z</time>
        <extensions>
          <ns3:TrackPointExtension/>
        </extensions>
      </trkpt>
      <trkpt lat="43.14127047546207904815673828125" lon="13.0329784937202930450439453125">
        <ele>409.399993896484375</ele>
        <time>2019-08-30T06:58:04.000Z</time>
        <extensions>
          <ns3:TrackPointExtension/>
        </extensions>
      </trkpt>
      <trkpt lat="43.14109294675290584564208984375" lon="13.03295041434466838836669921875">
        <ele>410.399993896484375</ele>
        <time>2019-08-30T06:58:09.000Z</time>
        <extensions>
          <ns3:TrackPointExtension/>
        </extensions>
      </trkpt>
      <trkpt lat="43.14105539582669734954833984375" lon="13.03294303826987743377685546875">
        <ele>410.600006103515625</ele>
        <time>2019-08-30T06:58:10.000Z</time>
        <extensions>
          <ns3:TrackPointExtension/>
        </extensions>
      </trkpt>
      <trkpt lat="43.1409379653632640838623046875" lon="13.032927028834819793701171875">
        <ele>411.20001220703125</ele>
        <time>2019-08-30T06:58:13.000Z</time>
        <extensions>
          <ns3:TrackPointExtension/>
        </extensions>
      </trkpt>
      <trkpt lat="43.14085909165441989898681640625" lon="13.032908923923969268798828125">
        <ele>411.399993896484375</ele>
        <time>2019-08-30T06:58:15.000Z</time>
        <extensions>
          <ns3:TrackPointExtension/>
        </extensions>
      </trkpt>
      <trkpt lat="43.14069899730384349822998046875" lon="13.03285385482013225555419921875">
        <ele>412</ele>
        <time>2019-08-30T06:58:19.000Z</time>
        <extensions>
          <ns3:TrackPointExtension/>
        </extensions>
      </trkpt>
      <trkpt lat="43.14066094346344470977783203125" lon="13.0328346602618694305419921875">
        <ele>412</ele>
        <time>2019-08-30T06:58:20.000Z</time>
        <extensions>
          <ns3:TrackPointExtension/>
        </extensions>
      </trkpt>
      <trkpt lat="43.14046078361570835113525390625" lon="13.0327307246625423431396484375">
        <ele>412.79998779296875</ele>
        <time>2019-08-30T06:58:25.000Z</time>
        <extensions>
          <ns3:TrackPointExtension/>
        </extensions>
      </trkpt>
      <trkpt lat="43.14041912555694580078125" lon="13.03270683623850345611572265625">
        <ele>413</ele>
        <time>2019-08-30T06:58:26.000Z</time>
        <extensions>
          <ns3:TrackPointExtension/>
        </extensions>
      </trkpt>
      <trkpt lat="43.14026179723441600799560546875" lon="13.032585717737674713134765625">
        <ele>413.600006103515625</ele>
        <time>2019-08-30T06:58:30.000Z</time>
        <extensions>
          <ns3:TrackPointExtension/>
        </extensions>
      </trkpt>
      <trkpt lat="43.14009868539869785308837890625" lon="13.03241430781781673431396484375">
        <ele>414.20001220703125</ele>
        <time>2019-08-30T06:58:35.000Z</time>
        <extensions>
          <ns3:TrackPointExtension/>
        </extensions>
      </trkpt>
      <trkpt lat="43.13991830684244632720947265625" lon="13.03229771554470062255859375">
        <ele>415</ele>
        <time>2019-08-30T06:58:41.000Z</time>
        <extensions>
          <ns3:TrackPointExtension/>
        </extensions>
      </trkpt>
      <trkpt lat="43.13989005982875823974609375" lon="13.03228841163218021392822265625">
        <ele>415.20001220703125</ele>
        <time>2019-08-30T06:58:42.000Z</time>
        <extensions>
          <ns3:TrackPointExtension/>
        </extensions>
      </trkpt>
      <trkpt lat="43.13986181281507015228271484375" lon="13.03227701224386692047119140625">
        <ele>415.20001220703125</ele>
        <time>2019-08-30T06:58:43.000Z</time>
        <extensions>
          <ns3:TrackPointExtension/>
        </extensions>
      </trkpt>
      <trkpt lat="43.139682523906230926513671875" lon="13.03219755180180072784423828125">
        <ele>416</ele>
        <time>2019-08-30T06:58:50.000Z</time>
        <extensions>
          <ns3:TrackPointExtension/>
        </extensions>
      </trkpt>
      <trkpt lat="43.1395435519516468048095703125" lon="13.03215555846691131591796875">
        <ele>416.399993896484375</ele>
        <time>2019-08-30T06:58:54.000Z</time>
        <extensions>
          <ns3:TrackPointExtension/>
        </extensions>
      </trkpt>
      <trkpt lat="43.13950558193027973175048828125" lon="13.0321468412876129150390625">
        <ele>416.600006103515625</ele>
        <time>2019-08-30T06:58:55.000Z</time>
        <extensions>
          <ns3:TrackPointExtension/>
        </extensions>
      </trkpt>
      <trkpt lat="43.1393945217132568359375" lon="13.03211423568427562713623046875">
        <ele>416.79998779296875</ele>
        <time>2019-08-30T06:58:58.000Z</time>
        <extensions>
          <ns3:TrackPointExtension/>
        </extensions>
      </trkpt>
      <trkpt lat="43.13924976624548435211181640625" lon="13.0320705659687519073486328125">
        <ele>417.20001220703125</ele>
        <time>2019-08-30T06:59:02.000Z</time>
        <extensions>
          <ns3:TrackPointExtension/>
        </extensions>
      </trkpt>
      <trkpt lat="43.13917659223079681396484375" lon="13.03204701282083988189697265625">
        <ele>417.399993896484375</ele>
        <time>2019-08-30T06:59:04.000Z</time>
        <extensions>
          <ns3:TrackPointExtension/>
        </extensions>
      </trkpt>
      <trkpt lat="43.13906854949891567230224609375" lon="13.03201608359813690185546875">
        <ele>417.600006103515625</ele>
        <time>2019-08-30T06:59:07.000Z</time>
        <extensions>
          <ns3:TrackPointExtension/>
        </extensions>
      </trkpt>
      <trkpt lat="43.13892153091728687286376953125" lon="13.031977526843547821044921875">
        <ele>417.79998779296875</ele>
        <time>2019-08-30T06:59:11.000Z</time>
        <extensions>
          <ns3:TrackPointExtension/>
        </extensions>
      </trkpt>
      <trkpt lat="43.1388448365032672882080078125" lon="13.03196151740849018096923828125">
        <ele>418</ele>
        <time>2019-08-30T06:59:13.000Z</time>
        <extensions>
          <ns3:TrackPointExtension/>
        </extensions>
      </trkpt>
      <trkpt lat="43.13868935219943523406982421875" lon="13.03192757070064544677734375">
        <ele>418.20001220703125</ele>
        <time>2019-08-30T06:59:17.000Z</time>
        <extensions>
          <ns3:TrackPointExtension/>
        </extensions>
      </trkpt>
      <trkpt lat="43.1386507116258144378662109375" lon="13.03191742859780788421630859375">
        <ele>418.399993896484375</ele>
        <time>2019-08-30T06:59:18.000Z</time>
        <extensions>
          <ns3:TrackPointExtension/>
        </extensions>
      </trkpt>
      <trkpt lat="43.1385058723390102386474609375" lon="13.03186546079814434051513671875">
        <ele>418.600006103515625</ele>
        <time>2019-08-30T06:59:22.000Z</time>
        <extensions>
          <ns3:TrackPointExtension/>
        </extensions>
      </trkpt>
      <trkpt lat="43.1384731829166412353515625" lon="13.03184735588729381561279296875">
        <ele>418.600006103515625</ele>
        <time>2019-08-30T06:59:23.000Z</time>
        <extensions>
          <ns3:TrackPointExtension/>
        </extensions>
      </trkpt>
      <trkpt lat="43.1384052895009517669677734375" lon="13.03181449882686138153076171875">
        <ele>418.79998779296875</ele>
        <time>2019-08-30T06:59:25.000Z</time>
        <extensions>
          <ns3:TrackPointExtension/>
        </extensions>
      </trkpt>
      <trkpt lat="43.13822851516306400299072265625" lon="13.03173051215708255767822265625">
        <ele>419.79998779296875</ele>
        <time>2019-08-30T06:59:30.000Z</time>
        <extensions>
          <ns3:TrackPointExtension/>
        </extensions>
      </trkpt>
      <trkpt lat="43.13805987127125263214111328125" lon="13.0316286720335483551025390625">
        <ele>421.20001220703125</ele>
        <time>2019-08-30T06:59:35.000Z</time>
        <extensions>
          <ns3:TrackPointExtension/>
        </extensions>
      </trkpt>
      <trkpt lat="43.1378919817507266998291015625" lon="13.0314695835113525390625">
        <ele>423.399993896484375</ele>
        <time>2019-08-30T06:59:42.000Z</time>
        <extensions>
          <ns3:TrackPointExtension/>
        </extensions>
      </trkpt>
      <trkpt lat="43.13787211664021015167236328125" lon="13.03145525045692920684814453125">
        <ele>423.600006103515625</ele>
        <time>2019-08-30T06:59:43.000Z</time>
        <extensions>
          <ns3:TrackPointExtension/>
        </extensions>
      </trkpt>
      <trkpt lat="43.1378510780632495880126953125" lon="13.0314439348876476287841796875">
        <ele>423.79998779296875</ele>
        <time>2019-08-30T06:59:44.000Z</time>
        <extensions>
          <ns3:TrackPointExtension/>
        </extensions>
      </trkpt>
      <trkpt lat="43.13765569590032100677490234375" lon="13.0314462818205356597900390625">
        <ele>424.20001220703125</ele>
        <time>2019-08-30T06:59:50.000Z</time>
        <extensions>
          <ns3:TrackPointExtension/>
        </extensions>
      </trkpt>
      <trkpt lat="43.13747079111635684967041015625" lon="13.031502775847911834716796875">
        <ele>423.399993896484375</ele>
        <time>2019-08-30T06:59:54.000Z</time>
        <extensions>
          <ns3:TrackPointExtension/>
        </extensions>
      </trkpt>
      <trkpt lat="43.13742284663021564483642578125" lon="13.0315140075981616973876953125">
        <ele>423.20001220703125</ele>
        <time>2019-08-30T06:59:55.000Z</time>
        <extensions>
          <ns3:TrackPointExtension/>
        </extensions>
      </trkpt>
      <trkpt lat="43.13728689216077327728271484375" lon="13.03153806366026401519775390625">
        <ele>422.79998779296875</ele>
        <time>2019-08-30T06:59:58.000Z</time>
        <extensions>
          <ns3:TrackPointExtension/>
        </extensions>
      </trkpt>
      <trkpt lat="43.13711908645927906036376953125" lon="13.0315136723220348358154296875">
        <ele>423</ele>
        <time>2019-08-30T07:00:02.000Z</time>
        <extensions>
          <ns3:TrackPointExtension/>
        </extensions>
      </trkpt>
      <trkpt lat="43.13707918860018253326416015625" lon="13.0315002612769603729248046875">
        <ele>423.20001220703125</ele>
        <time>2019-08-30T07:00:03.000Z</time>
        <extensions>
          <ns3:TrackPointExtension/>
        </extensions>
      </trkpt>
      <trkpt lat="43.13688439317047595977783203125" lon="13.03143479861319065093994140625">
        <ele>423.600006103515625</ele>
        <time>2019-08-30T07:00:08.000Z</time>
        <extensions>
          <ns3:TrackPointExtension/>
        </extensions>
      </trkpt>
      <trkpt lat="43.13668339513242244720458984375" lon="13.03136237896978855133056640625">
        <ele>424</ele>
        <time>2019-08-30T07:00:14.000Z</time>
        <extensions>
          <ns3:TrackPointExtension/>
        </extensions>
      </trkpt>
      <trkpt lat="43.136520199477672576904296875" lon="13.03130605258047580718994140625">
        <ele>424.20001220703125</ele>
        <time>2019-08-30T07:00:18.000Z</time>
        <extensions>
          <ns3:TrackPointExtension/>
        </extensions>
      </trkpt>
      <trkpt lat="43.13647703267633914947509765625" lon="13.031289540231227874755859375">
        <ele>424.20001220703125</ele>
        <time>2019-08-30T07:00:19.000Z</time>
        <extensions>
          <ns3:TrackPointExtension/>
        </extensions>
      </trkpt>
      <trkpt lat="43.13630101270973682403564453125" lon="13.03122592158615589141845703125">
        <ele>424.399993896484375</ele>
        <time>2019-08-30T07:00:23.000Z</time>
        <extensions>
          <ns3:TrackPointExtension/>
        </extensions>
      </trkpt>
      <trkpt lat="43.13625558279454708099365234375" lon="13.0312109179794788360595703125">
        <ele>424.399993896484375</ele>
        <time>2019-08-30T07:00:24.000Z</time>
        <extensions>
          <ns3:TrackPointExtension/>
        </extensions>
      </trkpt>
      <trkpt lat="43.136050142347812652587890625" lon="13.0311421863734722137451171875">
        <ele>424.79998779296875</ele>
        <time>2019-08-30T07:00:29.000Z</time>
        <extensions>
          <ns3:TrackPointExtension/>
        </extensions>
      </trkpt>
      <trkpt lat="43.1358397565782070159912109375" lon="13.0310794897377490997314453125">
        <ele>425.399993896484375</ele>
        <time>2019-08-30T07:00:34.000Z</time>
        <extensions>
          <ns3:TrackPointExtension/>
        </extensions>
      </trkpt>
      <trkpt lat="43.13579977490007877349853515625" lon="13.0310657434165477752685546875">
        <ele>425.399993896484375</ele>
        <time>2019-08-30T07:00:35.000Z</time>
        <extensions>
          <ns3:TrackPointExtension/>
        </extensions>
      </trkpt>
      <trkpt lat="43.13575937412679195404052734375" lon="13.03105459548532962799072265625">
        <ele>425.600006103515625</ele>
        <time>2019-08-30T07:00:36.000Z</time>
        <extensions>
          <ns3:TrackPointExtension/>
        </extensions>
      </trkpt>
      <trkpt lat="43.13560531474649906158447265625" lon="13.0310090817511081695556640625">
        <ele>426</ele>
        <time>2019-08-30T07:00:40.000Z</time>
        <extensions>
          <ns3:TrackPointExtension/>
        </extensions>
      </trkpt>
      <trkpt lat="43.13549484126269817352294921875" lon="13.03098351694643497467041015625">
        <ele>426.20001220703125</ele>
        <time>2019-08-30T07:00:43.000Z</time>
        <extensions>
          <ns3:TrackPointExtension/>
        </extensions>
      </trkpt>
      <trkpt lat="43.13544094562530517578125" lon="13.0309735424816608428955078125">
        <ele>426.399993896484375</ele>
        <time>2019-08-30T07:00:45.000Z</time>
        <extensions>
          <ns3:TrackPointExtension/>
        </extensions>
      </trkpt>
      <trkpt lat="43.13523969613015651702880859375" lon="13.03094395436346530914306640625">
        <ele>426.79998779296875</ele>
        <time>2019-08-30T07:00:51.000Z</time>
        <extensions>
          <ns3:TrackPointExtension/>
        </extensions>
      </trkpt>
      <trkpt lat="43.13510223291814327239990234375" lon="13.0309165455400943756103515625">
        <ele>427</ele>
        <time>2019-08-30T07:00:55.000Z</time>
        <extensions>
          <ns3:TrackPointExtension/>
        </extensions>
      </trkpt>
      <trkpt lat="43.13507038168609142303466796875" lon="13.0309095047414302825927734375">
        <ele>427</ele>
        <time>2019-08-30T07:00:56.000Z</time>
        <extensions>
          <ns3:TrackPointExtension/>
        </extensions>
      </trkpt>
      <trkpt lat="43.13487164676189422607421875" lon="13.03086005151271820068359375">
        <ele>427.20001220703125</ele>
        <time>2019-08-30T07:01:03.000Z</time>
        <extensions>
          <ns3:TrackPointExtension/>
        </extensions>
      </trkpt>
      <trkpt lat="43.134746253490447998046875" lon="13.0308347381651401519775390625">
        <ele>427.399993896484375</ele>
        <time>2019-08-30T07:01:07.000Z</time>
        <extensions>
          <ns3:TrackPointExtension/>
        </extensions>
      </trkpt>
      <trkpt lat="43.13468280248343944549560546875" lon="13.0308218300342559814453125">
        <ele>427.399993896484375</ele>
        <time>2019-08-30T07:01:09.000Z</time>
        <extensions>
          <ns3:TrackPointExtension/>
        </extensions>
      </trkpt>
      <trkpt lat="43.1345864944159984588623046875" lon="13.030800037086009979248046875">
        <ele>427.399993896484375</ele>
        <time>2019-08-30T07:01:12.000Z</time>
        <extensions>
          <ns3:TrackPointExtension/>
        </extensions>
      </trkpt>
      <trkpt lat="43.1343779526650905609130859375" lon="13.03077547810971736907958984375">
        <ele>427.399993896484375</ele>
        <time>2019-08-30T07:01:18.000Z</time>
        <extensions>
          <ns3:TrackPointExtension/>
        </extensions>
      </trkpt>
      <trkpt lat="43.1343425810337066650390625" lon="13.030769862234592437744140625">
        <ele>427.399993896484375</ele>
        <time>2019-08-30T07:01:19.000Z</time>
        <extensions>
          <ns3:TrackPointExtension/>
        </extensions>
      </trkpt>
      <trkpt lat="43.13413596712052822113037109375" lon="13.03074614144861698150634765625">
        <ele>427.20001220703125</ele>
        <time>2019-08-30T07:01:25.000Z</time>
        <extensions>
          <ns3:TrackPointExtension/>
        </extensions>
      </trkpt>
      <trkpt lat="43.13406589441001415252685546875" lon="13.03073977120220661163330078125">
        <ele>427.20001220703125</ele>
        <time>2019-08-30T07:01:27.000Z</time>
        <extensions>
          <ns3:TrackPointExtension/>
        </extensions>
      </trkpt>
      <trkpt lat="43.13399381004273891448974609375" lon="13.030734322965145111083984375">
        <ele>427.600006103515625</ele>
        <time>2019-08-30T07:01:29.000Z</time>
        <extensions>
          <ns3:TrackPointExtension/>
        </extensions>
      </trkpt>
      <trkpt lat="43.13385031186044216156005859375" lon="13.03073172457516193389892578125">
        <ele>428.20001220703125</ele>
        <time>2019-08-30T07:01:33.000Z</time>
        <extensions>
          <ns3:TrackPointExtension/>
        </extensions>
      </trkpt>
      <trkpt lat="43.1337784789502620697021484375" lon="13.03073264658451080322265625">
        <ele>428.600006103515625</ele>
        <time>2019-08-30T07:01:35.000Z</time>
        <extensions>
          <ns3:TrackPointExtension/>
        </extensions>
      </trkpt>
      <trkpt lat="43.1336031295359134674072265625" lon="13.0307252705097198486328125">
        <ele>429.399993896484375</ele>
        <time>2019-08-30T07:01:40.000Z</time>
        <extensions>
          <ns3:TrackPointExtension/>
        </extensions>
      </trkpt>
      <trkpt lat="43.13349491916596889495849609375" lon="13.03072736598551273345947265625">
        <ele>430</ele>
        <time>2019-08-30T07:01:43.000Z</time>
        <extensions>
          <ns3:TrackPointExtension/>
        </extensions>
      </trkpt>
      <trkpt lat="43.1333097629249095916748046875" lon="13.03074429742991924285888671875">
        <ele>430.600006103515625</ele>
        <time>2019-08-30T07:01:48.000Z</time>
        <extensions>
          <ns3:TrackPointExtension/>
        </extensions>
      </trkpt>
      <trkpt lat="43.1332353316247463226318359375" lon="13.0307547748088836669921875">
        <ele>430.600006103515625</ele>
        <time>2019-08-30T07:01:50.000Z</time>
        <extensions>
          <ns3:TrackPointExtension/>
        </extensions>
      </trkpt>
      <trkpt lat="43.1330898217856884002685546875" lon="13.0307747237384319305419921875">
        <ele>430.79998779296875</ele>
        <time>2019-08-30T07:01:54.000Z</time>
        <extensions>
          <ns3:TrackPointExtension/>
        </extensions>
      </trkpt>
      <trkpt lat="43.13305403105914592742919921875" lon="13.03077514283359050750732421875">
        <ele>430.79998779296875</ele>
        <time>2019-08-30T07:01:55.000Z</time>
        <extensions>
          <ns3:TrackPointExtension/>
        </extensions>
      </trkpt>
      <trkpt lat="43.13284465111792087554931640625" lon="13.0307911522686481475830078125">
        <ele>431</ele>
        <time>2019-08-30T07:02:01.000Z</time>
        <extensions>
          <ns3:TrackPointExtension/>
        </extensions>
      </trkpt>
      <trkpt lat="43.13274205662310123443603515625" lon="13.03079727105796337127685546875">
        <ele>431.20001220703125</ele>
        <time>2019-08-30T07:02:04.000Z</time>
        <extensions>
          <ns3:TrackPointExtension/>
        </extensions>
      </trkpt>
      <trkpt lat="43.1326707266271114349365234375" lon="13.0308018811047077178955078125">
        <ele>431.20001220703125</ele>
        <time>2019-08-30T07:02:06.000Z</time>
        <extensions>
          <ns3:TrackPointExtension/>
        </extensions>
      </trkpt>
      <trkpt lat="43.132527060806751251220703125" lon="13.03080732934176921844482421875">
        <ele>431.79998779296875</ele>
        <time>2019-08-30T07:02:10.000Z</time>
        <extensions>
          <ns3:TrackPointExtension/>
        </extensions>
      </trkpt>
      <trkpt lat="43.13241600058972835540771484375" lon="13.03081311285495758056640625">
        <ele>432.20001220703125</ele>
        <time>2019-08-30T07:02:13.000Z</time>
        <extensions>
          <ns3:TrackPointExtension/>
        </extensions>
      </trkpt>
      <trkpt lat="43.1323404796421527862548828125" lon="13.03082124330103397369384765625">
        <ele>432.399993896484375</ele>
        <time>2019-08-30T07:02:15.000Z</time>
        <extensions>
          <ns3:TrackPointExtension/>
        </extensions>
      </trkpt>
      <trkpt lat="43.13226319849491119384765625" lon="13.03083448670804500579833984375">
        <ele>432.600006103515625</ele>
        <time>2019-08-30T07:02:17.000Z</time>
        <extensions>
          <ns3:TrackPointExtension/>
        </extensions>
      </trkpt>
      <trkpt lat="43.132152557373046875" lon="13.0308486521244049072265625">
        <ele>433</ele>
        <time>2019-08-30T07:02:20.000Z</time>
        <extensions>
          <ns3:TrackPointExtension/>
        </extensions>
      </trkpt>
      <trkpt lat="43.13207988627254962921142578125" lon="13.0308575369417667388916015625">
        <ele>433.20001220703125</ele>
        <time>2019-08-30T07:02:22.000Z</time>
        <extensions>
          <ns3:TrackPointExtension/>
        </extensions>
      </trkpt>
      <trkpt lat="43.1318962387740612030029296875" lon="13.0308910645544528961181640625">
        <ele>433.79998779296875</ele>
        <time>2019-08-30T07:02:27.000Z</time>
        <extensions>
          <ns3:TrackPointExtension/>
        </extensions>
      </trkpt>
      <trkpt lat="43.1318261660635471343994140625" lon="13.03089818917214870452880859375">
        <ele>434</ele>
        <time>2019-08-30T07:02:29.000Z</time>
        <extensions>
          <ns3:TrackPointExtension/>
        </extensions>
      </trkpt>
      <trkpt lat="43.13161117024719715118408203125" lon="13.03093071095645427703857421875">
        <ele>434.399993896484375</ele>
        <time>2019-08-30T07:02:35.000Z</time>
        <extensions>
          <ns3:TrackPointExtension/>
        </extensions>
      </trkpt>
      <trkpt lat="43.131574876606464385986328125" lon="13.0309373326599597930908203125">
        <ele>434.600006103515625</ele>
        <time>2019-08-30T07:02:36.000Z</time>
        <extensions>
          <ns3:TrackPointExtension/>
        </extensions>
      </trkpt>
      <trkpt lat="43.131430037319660186767578125" lon="13.03096138872206211090087890625">
        <ele>435</ele>
        <time>2019-08-30T07:02:40.000Z</time>
        <extensions>
          <ns3:TrackPointExtension/>
        </extensions>
      </trkpt>
      <trkpt lat="43.13139307312667369842529296875" lon="13.0309651605784893035888671875">
        <ele>435.20001220703125</ele>
        <time>2019-08-30T07:02:41.000Z</time>
        <extensions>
          <ns3:TrackPointExtension/>
        </extensions>
      </trkpt>
      <trkpt lat="43.13123851083219051361083984375" lon="13.03096390329301357269287109375">
        <ele>435.399993896484375</ele>
        <time>2019-08-30T07:02:45.000Z</time>
        <extensions>
          <ns3:TrackPointExtension/>
        </extensions>
      </trkpt>
      <trkpt lat="43.13104069791734218597412109375" lon="13.030955605208873748779296875">
        <ele>436</ele>
        <time>2019-08-30T07:02:49.000Z</time>
        <extensions>
          <ns3:TrackPointExtension/>
        </extensions>
      </trkpt>
      <trkpt lat="43.1308206729590892791748046875" lon="13.0310033820569515228271484375">
        <ele>436</ele>
        <time>2019-08-30T07:02:53.000Z</time>
        <extensions>
          <ns3:TrackPointExtension/>
        </extensions>
      </trkpt>
      <trkpt lat="43.1306196749210357666015625" lon="13.0310644023120403289794921875">
        <ele>436.20001220703125</ele>
        <time>2019-08-30T07:02:57.000Z</time>
        <extensions>
          <ns3:TrackPointExtension/>
        </extensions>
      </trkpt>
      <trkpt lat="43.1305732391774654388427734375" lon="13.03108133375644683837890625">
        <ele>436.20001220703125</ele>
        <time>2019-08-30T07:02:58.000Z</time>
        <extensions>
          <ns3:TrackPointExtension/>
        </extensions>
      </trkpt>
      <trkpt lat="43.13037835992872714996337890625" lon="13.0311441980302333831787109375">
        <ele>436.399993896484375</ele>
        <time>2019-08-30T07:03:03.000Z</time>
        <extensions>
          <ns3:TrackPointExtension/>
        </extensions>
      </trkpt>
      <trkpt lat="43.1301893480122089385986328125" lon="13.03119725547730922698974609375">
        <ele>436.600006103515625</ele>
        <time>2019-08-30T07:03:08.000Z</time>
        <extensions>
          <ns3:TrackPointExtension/>
        </extensions>
      </trkpt>
      <trkpt lat="43.12999648042023181915283203125" lon="13.03125877864658832550048828125">
        <ele>437.20001220703125</ele>
        <time>2019-08-30T07:03:13.000Z</time>
        <extensions>
          <ns3:TrackPointExtension/>
        </extensions>
      </trkpt>
      <trkpt lat="43.1298959814012050628662109375" lon="13.0312893725931644439697265625">
        <ele>437.79998779296875</ele>
        <time>2019-08-30T07:03:16.000Z</time>
        <extensions>
          <ns3:TrackPointExtension/>
        </extensions>
      </trkpt>
      <trkpt lat="43.1298658065497875213623046875" lon="13.03130102343857288360595703125">
        <ele>438</ele>
        <time>2019-08-30T07:03:17.000Z</time>
        <extensions>
          <ns3:TrackPointExtension/>
        </extensions>
      </trkpt>
      <trkpt lat="43.12969959340989589691162109375" lon="13.03141267038881778717041015625">
        <ele>438.79998779296875</ele>
        <time>2019-08-30T07:03:23.000Z</time>
        <extensions>
          <ns3:TrackPointExtension/>
        </extensions>
      </trkpt>
      <trkpt lat="43.12966841273009777069091796875" lon="13.0314342118799686431884765625">
        <ele>438.79998779296875</ele>
        <time>2019-08-30T07:03:24.000Z</time>
        <extensions>
          <ns3:TrackPointExtension/>
        </extensions>
      </trkpt>
      <trkpt lat="43.1296063028275966644287109375" lon="13.03147737868130207061767578125">
        <ele>439</ele>
        <time>2019-08-30T07:03:26.000Z</time>
        <extensions>
          <ns3:TrackPointExtension/>
        </extensions>
      </trkpt>
      <trkpt lat="43.1294416822493076324462890625" lon="13.0315844155848026275634765625">
        <ele>439.600006103515625</ele>
        <time>2019-08-30T07:03:31.000Z</time>
        <extensions>
          <ns3:TrackPointExtension/>
        </extensions>
      </trkpt>
      <trkpt lat="43.1294098310172557830810546875" lon="13.03160193376243114471435546875">
        <ele>439.79998779296875</ele>
        <time>2019-08-30T07:03:32.000Z</time>
        <extensions>
          <ns3:TrackPointExtension/>
        </extensions>
      </trkpt>
      <trkpt lat="43.12937722541391849517822265625" lon="13.03161442279815673828125">
        <ele>439.79998779296875</ele>
        <time>2019-08-30T07:03:33.000Z</time>
        <extensions>
          <ns3:TrackPointExtension/>
        </extensions>
      </trkpt>
      <trkpt lat="43.12919047661125659942626953125" lon="13.031640909612178802490234375">
        <ele>440.399993896484375</ele>
        <time>2019-08-30T07:03:38.000Z</time>
        <extensions>
          <ns3:TrackPointExtension/>
        </extensions>
      </trkpt>
      <trkpt lat="43.12915728427469730377197265625" lon="13.0316417478024959564208984375">
        <ele>440.600006103515625</ele>
        <time>2019-08-30T07:03:39.000Z</time>
        <extensions>
          <ns3:TrackPointExtension/>
        </extensions>
      </trkpt>
      <trkpt lat="43.12895326875150203704833984375" lon="13.03164350800216197967529296875">
        <ele>441</ele>
        <time>2019-08-30T07:03:45.000Z</time>
        <extensions>
          <ns3:TrackPointExtension/>
        </extensions>
      </trkpt>
      <trkpt lat="43.12873969785869121551513671875" lon="13.0316504649817943572998046875">
        <ele>441.600006103515625</ele>
        <time>2019-08-30T07:03:51.000Z</time>
        <extensions>
          <ns3:TrackPointExtension/>
        </extensions>
      </trkpt>
      <trkpt lat="43.128552697598934173583984375" lon="13.03164769895374774932861328125">
        <ele>442</ele>
        <time>2019-08-30T07:03:56.000Z</time>
        <extensions>
          <ns3:TrackPointExtension/>
        </extensions>
      </trkpt>
      <trkpt lat="43.12836653552949428558349609375" lon="13.031651638448238372802734375">
        <ele>442.399993896484375</ele>
        <time>2019-08-30T07:04:01.000Z</time>
        <extensions>
          <ns3:TrackPointExtension/>
        </extensions>
      </trkpt>
      <trkpt lat="43.1282915174961090087890625" lon="13.03165021352469921112060546875">
        <ele>442.600006103515625</ele>
        <time>2019-08-30T07:04:03.000Z</time>
        <extensions>
          <ns3:TrackPointExtension/>
        </extensions>
      </trkpt>
      <trkpt lat="43.128253631293773651123046875" lon="13.0316524766385555267333984375">
        <ele>442.79998779296875</ele>
        <time>2019-08-30T07:04:04.000Z</time>
        <extensions>
          <ns3:TrackPointExtension/>
        </extensions>
      </trkpt>
      <trkpt lat="43.128071241080760955810546875" lon="13.03166781552135944366455078125">
        <ele>443.399993896484375</ele>
        <time>2019-08-30T07:04:09.000Z</time>
        <extensions>
          <ns3:TrackPointExtension/>
        </extensions>
      </trkpt>
      <trkpt lat="43.12799924053251743316650390625" lon="13.0316769517958164215087890625">
        <ele>443.600006103515625</ele>
        <time>2019-08-30T07:04:11.000Z</time>
        <extensions>
          <ns3:TrackPointExtension/>
        </extensions>
      </trkpt>
      <trkpt lat="43.12796403653919696807861328125" lon="13.0316806398332118988037109375">
        <ele>443.79998779296875</ele>
        <time>2019-08-30T07:04:12.000Z</time>
        <extensions>
          <ns3:TrackPointExtension/>
        </extensions>
      </trkpt>
      <trkpt lat="43.127854652702808380126953125" lon="13.0316762812435626983642578125">
        <ele>444.20001220703125</ele>
        <time>2019-08-30T07:04:15.000Z</time>
        <extensions>
          <ns3:TrackPointExtension/>
        </extensions>
      </trkpt>
      <trkpt lat="43.1277827359735965728759765625" lon="13.0316662229597568511962890625">
        <ele>444.399993896484375</ele>
        <time>2019-08-30T07:04:17.000Z</time>
        <extensions>
          <ns3:TrackPointExtension/>
        </extensions>
      </trkpt>
      <trkpt lat="43.127607218921184539794921875" lon="13.03159992210566997528076171875">
        <ele>445.20001220703125</ele>
        <time>2019-08-30T07:04:22.000Z</time>
        <extensions>
          <ns3:TrackPointExtension/>
        </extensions>
      </trkpt>
      <trkpt lat="43.127505294978618621826171875" lon="13.0315408296883106231689453125">
        <ele>445.399993896484375</ele>
        <time>2019-08-30T07:04:25.000Z</time>
        <extensions>
          <ns3:TrackPointExtension/>
        </extensions>
      </trkpt>
      <trkpt lat="43.12743782065808773040771484375" lon="13.031509481370449066162109375">
        <ele>445.600006103515625</ele>
        <time>2019-08-30T07:04:27.000Z</time>
        <extensions>
          <ns3:TrackPointExtension/>
        </extensions>
      </trkpt>
      <trkpt lat="43.12730555422604084014892578125" lon="13.03142524324357509613037109375">
        <ele>446.20001220703125</ele>
        <time>2019-08-30T07:04:31.000Z</time>
        <extensions>
          <ns3:TrackPointExtension/>
        </extensions>
      </trkpt>
      <trkpt lat="43.1272385828197002410888671875" lon="13.031381405889987945556640625">
        <ele>446.399993896484375</ele>
        <time>2019-08-30T07:04:33.000Z</time>
        <extensions>
          <ns3:TrackPointExtension/>
        </extensions>
      </trkpt>
      <trkpt lat="43.12709902413189411163330078125" lon="13.031301610171794891357421875">
        <ele>446.79998779296875</ele>
        <time>2019-08-30T07:04:37.000Z</time>
        <extensions>
          <ns3:TrackPointExtension/>
        </extensions>
      </trkpt>
      <trkpt lat="43.12699140049517154693603515625" lon="13.03124670870602130889892578125">
        <ele>447</ele>
        <time>2019-08-30T07:04:40.000Z</time>
        <extensions>
          <ns3:TrackPointExtension/>
        </extensions>
      </trkpt>
      <trkpt lat="43.12684555537998676300048828125" lon="13.0311971716582775115966796875">
        <ele>447.399993896484375</ele>
        <time>2019-08-30T07:04:44.000Z</time>
        <extensions>
          <ns3:TrackPointExtension/>
        </extensions>
      </trkpt>
      <trkpt lat="43.1268050707876682281494140625" lon="13.03119256161153316497802734375">
        <ele>447.600006103515625</ele>
        <time>2019-08-30T07:04:45.000Z</time>
        <extensions>
          <ns3:TrackPointExtension/>
        </extensions>
      </trkpt>
      <trkpt lat="43.12672351486980915069580078125" lon="13.03118367679417133331298828125">
        <ele>447.79998779296875</ele>
        <time>2019-08-30T07:04:47.000Z</time>
        <extensions>
          <ns3:TrackPointExtension/>
        </extensions>
      </trkpt>
      <trkpt lat="43.12651832588016986846923828125" lon="13.0311571061611175537109375">
        <ele>448</ele>
        <time>2019-08-30T07:04:52.000Z</time>
        <extensions>
          <ns3:TrackPointExtension/>
        </extensions>
      </trkpt>
      <trkpt lat="43.12647767364978790283203125" lon="13.0311525799334049224853515625">
        <ele>448</ele>
        <time>2019-08-30T07:04:53.000Z</time>
        <extensions>
          <ns3:TrackPointExtension/>
        </extensions>
      </trkpt>
      <trkpt lat="43.126276172697544097900390625" lon="13.0311317928135395050048828125">
        <ele>448.399993896484375</ele>
        <time>2019-08-30T07:04:58.000Z</time>
        <extensions>
          <ns3:TrackPointExtension/>
        </extensions>
      </trkpt>
      <trkpt lat="43.12607626430690288543701171875" lon="13.0311099998652935028076171875">
        <ele>448.399993896484375</ele>
        <time>2019-08-30T07:05:03.000Z</time>
        <extensions>
          <ns3:TrackPointExtension/>
        </extensions>
      </trkpt>
      <trkpt lat="43.1260386295616626739501953125" lon="13.03110790438950061798095703125">
        <ele>448.399993896484375</ele>
        <time>2019-08-30T07:05:04.000Z</time>
        <extensions>
          <ns3:TrackPointExtension/>
        </extensions>
      </trkpt>
      <trkpt lat="43.1260010786354541778564453125" lon="13.0311039648950099945068359375">
        <ele>448.20001220703125</ele>
        <time>2019-08-30T07:05:05.000Z</time>
        <extensions>
          <ns3:TrackPointExtension/>
        </extensions>
      </trkpt>
      <trkpt lat="43.1258116476237773895263671875" lon="13.03108728490769863128662109375">
        <ele>448</ele>
        <time>2019-08-30T07:05:10.000Z</time>
        <extensions>
          <ns3:TrackPointExtension/>
        </extensions>
      </trkpt>
      <trkpt lat="43.12565851025283336639404296875" lon="13.031053841114044189453125">
        <ele>447.600006103515625</ele>
        <time>2019-08-30T07:05:14.000Z</time>
        <extensions>
          <ns3:TrackPointExtension/>
        </extensions>
      </trkpt>
      <trkpt lat="43.1256178580224514007568359375" lon="13.03104101680219173431396484375">
        <ele>447.600006103515625</ele>
        <time>2019-08-30T07:05:15.000Z</time>
        <extensions>
          <ns3:TrackPointExtension/>
        </extensions>
      </trkpt>
      <trkpt lat="43.12549866735935211181640625" lon="13.03098234347999095916748046875">
        <ele>447.600006103515625</ele>
        <time>2019-08-30T07:05:18.000Z</time>
        <extensions>
          <ns3:TrackPointExtension/>
        </extensions>
      </trkpt>
      <trkpt lat="43.12532834708690643310546875" lon="13.03088486194610595703125">
        <ele>447.600006103515625</ele>
        <time>2019-08-30T07:05:22.000Z</time>
        <extensions>
          <ns3:TrackPointExtension/>
        </extensions>
      </trkpt>
      <trkpt lat="43.1252376548945903778076171875" lon="13.03082250058650970458984375">
        <ele>447.600006103515625</ele>
        <time>2019-08-30T07:05:24.000Z</time>
        <extensions>
          <ns3:TrackPointExtension/>
        </extensions>
      </trkpt>
      <trkpt lat="43.1250914745032787322998046875" lon="13.03071998991072177886962890625">
        <ele>447.79998779296875</ele>
        <time>2019-08-30T07:05:27.000Z</time>
        <extensions>
          <ns3:TrackPointExtension/>
        </extensions>
      </trkpt>
      <trkpt lat="43.12487228773534297943115234375" lon="13.03063885308802127838134765625">
        <ele>449.600006103515625</ele>
        <time>2019-08-30T07:05:31.000Z</time>
        <extensions>
          <ns3:TrackPointExtension/>
        </extensions>
      </trkpt>
      <trkpt lat="43.12467061914503574371337890625" lon="13.0306027270853519439697265625">
        <ele>451.20001220703125</ele>
        <time>2019-08-30T07:05:35.000Z</time>
        <extensions>
          <ns3:TrackPointExtension/>
        </extensions>
      </trkpt>
      <trkpt lat="43.12454723753035068511962890625" lon="13.0303955264389514923095703125">
        <ele>453</ele>
        <time>2019-08-30T07:05:41.000Z</time>
        <extensions>
          <ns3:TrackPointExtension/>
        </extensions>
      </trkpt>
      <trkpt lat="43.124444223940372467041015625" lon="13.030192852020263671875">
        <ele>454.399993896484375</ele>
        <time>2019-08-30T07:05:50.000Z</time>
        <extensions>
          <ns3:TrackPointExtension/>
        </extensions>
      </trkpt>
      <trkpt lat="43.12440097332000732421875" lon="13.03016108460724353790283203125">
        <ele>454.79998779296875</ele>
        <time>2019-08-30T07:05:52.000Z</time>
        <extensions>
          <ns3:TrackPointExtension/>
        </extensions>
      </trkpt>
      <trkpt lat="43.1243729777634143829345703125" lon="13.030142895877361297607421875">
        <ele>455</ele>
        <time>2019-08-30T07:05:53.000Z</time>
        <extensions>
          <ns3:TrackPointExtension/>
        </extensions>
      </trkpt>
      <trkpt lat="43.1243035756051540374755859375" lon="13.0300874076783657073974609375">
        <ele>455.79998779296875</ele>
        <time>2019-08-30T07:05:56.000Z</time>
        <extensions>
          <ns3:TrackPointExtension/>
        </extensions>
      </trkpt>
      <trkpt lat="43.12411808408796787261962890625" lon="13.02997902967035770416259765625">
        <ele>456.600006103515625</ele>
        <time>2019-08-30T07:06:03.000Z</time>
        <extensions>
          <ns3:TrackPointExtension/>
        </extensions>
      </trkpt>
      <trkpt lat="43.12409126199781894683837890625" lon="13.0299715697765350341796875">
        <ele>456.79998779296875</ele>
        <time>2019-08-30T07:06:04.000Z</time>
        <extensions>
          <ns3:TrackPointExtension/>
        </extensions>
      </trkpt>
      <trkpt lat="43.12390350736677646636962890625" lon="13.02990761585533618927001953125">
        <ele>457.600006103515625</ele>
        <time>2019-08-30T07:06:12.000Z</time>
        <extensions>
          <ns3:TrackPointExtension/>
        </extensions>
      </trkpt>
      <trkpt lat="43.12372581101953983306884765625" lon="13.02983720786869525909423828125">
        <ele>458.20001220703125</ele>
        <time>2019-08-30T07:06:20.000Z</time>
        <extensions>
          <ns3:TrackPointExtension/>
        </extensions>
      </trkpt>
      <trkpt lat="43.1236360408365726470947265625" lon="13.02962799556553363800048828125">
        <ele>458.79998779296875</ele>
        <time>2019-08-30T07:06:27.000Z</time>
        <extensions>
          <ns3:TrackPointExtension/>
        </extensions>
      </trkpt>
      <trkpt lat="43.123630173504352569580078125" lon="13.02950545214116573333740234375">
        <ele>459</ele>
        <time>2019-08-30T07:06:30.000Z</time>
        <extensions>
          <ns3:TrackPointExtension/>
        </extensions>
      </trkpt>
      <trkpt lat="43.12362019903957843780517578125" lon="13.02941434085369110107421875">
        <ele>459</ele>
        <time>2019-08-30T07:06:32.000Z</time>
        <extensions>
          <ns3:TrackPointExtension/>
        </extensions>
      </trkpt>
      <trkpt lat="43.12355582602322101593017578125" lon="13.0291523225605487823486328125">
        <ele>458.600006103515625</ele>
        <time>2019-08-30T07:06:37.000Z</time>
        <extensions>
          <ns3:TrackPointExtension/>
        </extensions>
      </trkpt>
      <trkpt lat="43.12349505722522735595703125" lon="13.02902583964169025421142578125">
        <ele>458.600006103515625</ele>
        <time>2019-08-30T07:06:40.000Z</time>
        <extensions>
          <ns3:TrackPointExtension/>
        </extensions>
      </trkpt>
      <trkpt lat="43.1234724260866641998291015625" lon="13.02898627705872058868408203125">
        <ele>458.79998779296875</ele>
        <time>2019-08-30T07:06:41.000Z</time>
        <extensions>
          <ns3:TrackPointExtension/>
        </extensions>
      </trkpt>
      <trkpt lat="43.12342339195311069488525390625" lon="13.02891016937792301177978515625">
        <ele>459</ele>
        <time>2019-08-30T07:06:43.000Z</time>
        <extensions>
          <ns3:TrackPointExtension/>
        </extensions>
      </trkpt>
      <trkpt lat="43.12330805696547031402587890625" lon="13.0286859534680843353271484375">
        <ele>459.399993896484375</ele>
        <time>2019-08-30T07:06:48.000Z</time>
        <extensions>
          <ns3:TrackPointExtension/>
        </extensions>
      </trkpt>
      <trkpt lat="43.12323580496013164520263671875" lon="13.028498031198978424072265625">
        <ele>459.399993896484375</ele>
        <time>2019-08-30T07:06:52.000Z</time>
        <extensions>
          <ns3:TrackPointExtension/>
        </extensions>
      </trkpt>
      <trkpt lat="43.1232223100960254669189453125" lon="13.02844229154288768768310546875">
        <ele>459.399993896484375</ele>
        <time>2019-08-30T07:06:53.000Z</time>
        <extensions>
          <ns3:TrackPointExtension/>
        </extensions>
      </trkpt>
      <trkpt lat="43.12320797704160213470458984375" lon="13.0283892340958118438720703125">
        <ele>459.20001220703125</ele>
        <time>2019-08-30T07:06:54.000Z</time>
        <extensions>
          <ns3:TrackPointExtension/>
        </extensions>
      </trkpt>
      <trkpt lat="43.1231753714382648468017578125" lon="13.02828085608780384063720703125">
        <ele>458.79998779296875</ele>
        <time>2019-08-30T07:06:56.000Z</time>
        <extensions>
          <ns3:TrackPointExtension/>
        </extensions>
      </trkpt>
      <trkpt lat="43.12308258377015590667724609375" lon="13.027987740933895111083984375">
        <ele>458.600006103515625</ele>
        <time>2019-08-30T07:07:01.000Z</time>
        <extensions>
          <ns3:TrackPointExtension/>
        </extensions>
      </trkpt>
      <trkpt lat="43.123044781386852264404296875" lon="13.0278973840177059173583984375">
        <ele>458.79998779296875</ele>
        <time>2019-08-30T07:07:02.000Z</time>
        <extensions>
          <ns3:TrackPointExtension/>
        </extensions>
      </trkpt>
      <trkpt lat="43.12301091849803924560546875" lon="13.02781079895794391632080078125">
        <ele>459.20001220703125</ele>
        <time>2019-08-30T07:07:03.000Z</time>
        <extensions>
          <ns3:TrackPointExtension/>
        </extensions>
      </trkpt>
      <trkpt lat="43.12292031012475490570068359375" lon="13.02757945843040943145751953125">
        <ele>460</ele>
        <time>2019-08-30T07:07:06.000Z</time>
        <extensions>
          <ns3:TrackPointExtension/>
        </extensions>
      </trkpt>
      <trkpt lat="43.12284101732075214385986328125" lon="13.0273180268704891204833984375">
        <ele>460.399993896484375</ele>
        <time>2019-08-30T07:07:10.000Z</time>
        <extensions>
          <ns3:TrackPointExtension/>
        </extensions>
      </trkpt>
      <trkpt lat="43.122826516628265380859375" lon="13.02726614288985729217529296875">
        <ele>460.399993896484375</ele>
        <time>2019-08-30T07:07:11.000Z</time>
        <extensions>
          <ns3:TrackPointExtension/>
        </extensions>
      </trkpt>
      <trkpt lat="43.12281251884996891021728515625" lon="13.02722121588885784149169921875">
        <ele>460.399993896484375</ele>
        <time>2019-08-30T07:07:12.000Z</time>
        <extensions>
          <ns3:TrackPointExtension/>
        </extensions>
      </trkpt>
      <trkpt lat="43.12274613417685031890869140625" lon="13.02696020342409610748291015625">
        <ele>460.79998779296875</ele>
        <time>2019-08-30T07:07:19.000Z</time>
        <extensions>
          <ns3:TrackPointExtension/>
        </extensions>
      </trkpt>
      <trkpt lat="43.12272266484797000885009765625" lon="13.02689231000840663909912109375">
        <ele>460.79998779296875</ele>
        <time>2019-08-30T07:07:21.000Z</time>
        <extensions>
          <ns3:TrackPointExtension/>
        </extensions>
      </trkpt>
      <trkpt lat="43.12270514667034149169921875" lon="13.02682676352560520172119140625">
        <ele>461.20001220703125</ele>
        <time>2019-08-30T07:07:23.000Z</time>
        <extensions>
          <ns3:TrackPointExtension/>
        </extensions>
      </trkpt>
      <trkpt lat="43.1226318888366222381591796875" lon="13.02659508772194385528564453125">
        <ele>462.79998779296875</ele>
        <time>2019-08-30T07:07:30.000Z</time>
        <extensions>
          <ns3:TrackPointExtension/>
        </extensions>
      </trkpt>
      <trkpt lat="43.12257229350507259368896484375" lon="13.02636106498539447784423828125">
        <ele>464.600006103515625</ele>
        <time>2019-08-30T07:07:37.000Z</time>
        <extensions>
          <ns3:TrackPointExtension/>
        </extensions>
      </trkpt>
      <trkpt lat="43.12252870760858058929443359375" lon="13.02620901726186275482177734375">
        <ele>465.79998779296875</ele>
        <time>2019-08-30T07:07:42.000Z</time>
        <extensions>
          <ns3:TrackPointExtension/>
        </extensions>
      </trkpt>
      <trkpt lat="43.122518397867679595947265625" lon="13.02617850713431835174560546875">
        <ele>466</ele>
        <time>2019-08-30T07:07:43.000Z</time>
        <extensions>
          <ns3:TrackPointExtension/>
        </extensions>
      </trkpt>
      <trkpt lat="43.1224816851317882537841796875" lon="13.02605311386287212371826171875">
        <ele>467</ele>
        <time>2019-08-30T07:07:47.000Z</time>
        <extensions>
          <ns3:TrackPointExtension/>
        </extensions>
      </trkpt>
      <trkpt lat="43.1224699504673480987548828125" lon="13.02599259652197360992431640625">
        <ele>467.600006103515625</ele>
        <time>2019-08-30T07:07:49.000Z</time>
        <extensions>
          <ns3:TrackPointExtension/>
        </extensions>
      </trkpt>
      <trkpt lat="43.122434914112091064453125" lon="13.02586820907890796661376953125">
        <ele>468.399993896484375</ele>
        <time>2019-08-30T07:07:53.000Z</time>
        <extensions>
          <ns3:TrackPointExtension/>
        </extensions>
      </trkpt>
      <trkpt lat="43.12241890467703342437744140625" lon="13.02580811083316802978515625">
        <ele>468.79998779296875</ele>
        <time>2019-08-30T07:07:55.000Z</time>
        <extensions>
          <ns3:TrackPointExtension/>
        </extensions>
      </trkpt>
      <trkpt lat="43.1223445571959018707275390625" lon="13.02556981332600116729736328125">
        <ele>470.79998779296875</ele>
        <time>2019-08-30T07:08:03.000Z</time>
        <extensions>
          <ns3:TrackPointExtension/>
        </extensions>
      </trkpt>
      <trkpt lat="43.1222707964479923248291015625" lon="13.025335036218166351318359375">
        <ele>472.79998779296875</ele>
        <time>2019-08-30T07:08:10.000Z</time>
        <extensions>
          <ns3:TrackPointExtension/>
        </extensions>
      </trkpt>
      <trkpt lat="43.12223433516919612884521484375" lon="13.02519648335874080657958984375">
        <ele>474.20001220703125</ele>
        <time>2019-08-30T07:08:14.000Z</time>
        <extensions>
          <ns3:TrackPointExtension/>
        </extensions>
      </trkpt>
      <trkpt lat="43.12221472151577472686767578125" lon="13.0251323617994785308837890625">
        <ele>474.79998779296875</ele>
        <time>2019-08-30T07:08:16.000Z</time>
        <extensions>
          <ns3:TrackPointExtension/>
        </extensions>
      </trkpt>
      <trkpt lat="43.12215529382228851318359375" lon="13.02493371069431304931640625">
        <ele>476.20001220703125</ele>
        <time>2019-08-30T07:08:22.000Z</time>
        <extensions>
          <ns3:TrackPointExtension/>
        </extensions>
      </trkpt>
      <trkpt lat="43.12213475815951824188232421875" lon="13.024866990745067596435546875">
        <ele>476.600006103515625</ele>
        <time>2019-08-30T07:08:24.000Z</time>
        <extensions>
          <ns3:TrackPointExtension/>
        </extensions>
      </trkpt>
      <trkpt lat="43.1220582313835620880126953125" lon="13.024632968008518218994140625">
        <ele>478.20001220703125</ele>
        <time>2019-08-30T07:08:31.000Z</time>
        <extensions>
          <ns3:TrackPointExtension/>
        </extensions>
      </trkpt>
      <trkpt lat="43.12204792164266109466552734375" lon="13.024600110948085784912109375">
        <ele>478.399993896484375</ele>
        <time>2019-08-30T07:08:32.000Z</time>
        <extensions>
          <ns3:TrackPointExtension/>
        </extensions>
      </trkpt>
      <trkpt lat="43.12203736044466495513916015625" lon="13.0245664156973361968994140625">
        <ele>478.600006103515625</ele>
        <time>2019-08-30T07:08:33.000Z</time>
        <extensions>
          <ns3:TrackPointExtension/>
        </extensions>
      </trkpt>
      <trkpt lat="43.12199293635785579681396484375" lon="13.0244301259517669677734375">
        <ele>479.600006103515625</ele>
        <time>2019-08-30T07:08:37.000Z</time>
        <extensions>
          <ns3:TrackPointExtension/>
        </extensions>
      </trkpt>
      <trkpt lat="43.1219834648072719573974609375" lon="13.024398274719715118408203125">
        <ele>479.79998779296875</ele>
        <time>2019-08-30T07:08:38.000Z</time>
        <extensions>
          <ns3:TrackPointExtension/>
        </extensions>
      </trkpt>
      <trkpt lat="43.121965192258358001708984375" lon="13.02433733828365802764892578125">
        <ele>480.399993896484375</ele>
        <time>2019-08-30T07:08:40.000Z</time>
        <extensions>
          <ns3:TrackPointExtension/>
        </extensions>
      </trkpt>
      <trkpt lat="43.121890090405941009521484375" lon="13.02412561140954494476318359375">
        <ele>481.600006103515625</ele>
        <time>2019-08-30T07:08:47.000Z</time>
        <extensions>
          <ns3:TrackPointExtension/>
        </extensions>
      </trkpt>
      <trkpt lat="43.12187911011278629302978515625" lon="13.02409610711038112640380859375">
        <ele>481.600006103515625</ele>
        <time>2019-08-30T07:08:48.000Z</time>
        <extensions>
          <ns3:TrackPointExtension/>
        </extensions>
      </trkpt>
      <trkpt lat="43.12181532382965087890625" lon="13.0238641798496246337890625">
        <ele>482.79998779296875</ele>
        <time>2019-08-30T07:08:55.000Z</time>
        <extensions>
          <ns3:TrackPointExtension/>
        </extensions>
      </trkpt>
      <trkpt lat="43.12180501408874988555908203125" lon="13.0237942747771739959716796875">
        <ele>483.20001220703125</ele>
        <time>2019-08-30T07:08:57.000Z</time>
        <extensions>
          <ns3:TrackPointExtension/>
        </extensions>
      </trkpt>
      <trkpt lat="43.1218005716800689697265625" lon="13.0237577296793460845947265625">
        <ele>483.600006103515625</ele>
        <time>2019-08-30T07:08:58.000Z</time>
        <extensions>
          <ns3:TrackPointExtension/>
        </extensions>
      </trkpt>
      <trkpt lat="43.1217960454523563385009765625" lon="13.02368924953043460845947265625">
        <ele>484</ele>
        <time>2019-08-30T07:09:00.000Z</time>
        <extensions>
          <ns3:TrackPointExtension/>
        </extensions>
      </trkpt>
      <trkpt lat="43.12179679982364177703857421875" lon="13.02361808717250823974609375">
        <ele>484.600006103515625</ele>
        <time>2019-08-30T07:09:02.000Z</time>
        <extensions>
          <ns3:TrackPointExtension/>
        </extensions>
      </trkpt>
      <trkpt lat="43.12181171961128711700439453125" lon="13.02347886376082897186279296875">
        <ele>486</ele>
        <time>2019-08-30T07:09:06.000Z</time>
        <extensions>
          <ns3:TrackPointExtension/>
        </extensions>
      </trkpt>
      <trkpt lat="43.121817670762538909912109375" lon="13.0234457552433013916015625">
        <ele>486.399993896484375</ele>
        <time>2019-08-30T07:09:07.000Z</time>
        <extensions>
          <ns3:TrackPointExtension/>
        </extensions>
      </trkpt>
      <trkpt lat="43.121837116777896881103515625" lon="13.02331793121993541717529296875">
        <ele>488</ele>
        <time>2019-08-30T07:09:11.000Z</time>
        <extensions>
          <ns3:TrackPointExtension/>
        </extensions>
      </trkpt>
      <trkpt lat="43.12187273986637592315673828125" lon="13.02305591292679309844970703125">
        <ele>490.600006103515625</ele>
        <time>2019-08-30T07:09:19.000Z</time>
        <extensions>
          <ns3:TrackPointExtension/>
        </extensions>
      </trkpt>
      <trkpt lat="43.12187902629375457763671875" lon="13.023024313151836395263671875">
        <ele>491</ele>
        <time>2019-08-30T07:09:20.000Z</time>
        <extensions>
          <ns3:TrackPointExtension/>
        </extensions>
      </trkpt>
      <trkpt lat="43.12203266657888889312744140625" lon="13.02288852632045745849609375">
        <ele>494.600006103515625</ele>
        <time>2019-08-30T07:09:28.000Z</time>
        <extensions>
          <ns3:TrackPointExtension/>
        </extensions>
      </trkpt>
      <trkpt lat="43.122171722352504730224609375" lon="13.02308441139757633209228515625">
        <ele>495</ele>
        <time>2019-08-30T07:09:35.000Z</time>
        <extensions>
          <ns3:TrackPointExtension/>
        </extensions>
      </trkpt>
      <trkpt lat="43.12229569070041179656982421875" lon="13.02326202392578125">
        <ele>495.600006103515625</ele>
        <time>2019-08-30T07:09:40.000Z</time>
        <extensions>
          <ns3:TrackPointExtension/>
        </extensions>
      </trkpt>
      <trkpt lat="43.12245444394648075103759765625" lon="13.02337928675115108489990234375">
        <ele>497</ele>
        <time>2019-08-30T07:09:45.000Z</time>
        <extensions>
          <ns3:TrackPointExtension/>
        </extensions>
      </trkpt>
      <trkpt lat="43.12248914502561092376708984375" lon="13.02339521236717700958251953125">
        <ele>497.399993896484375</ele>
        <time>2019-08-30T07:09:46.000Z</time>
        <extensions>
          <ns3:TrackPointExtension/>
        </extensions>
      </trkpt>
      <trkpt lat="43.12252342700958251953125" lon="13.0234090425074100494384765625">
        <ele>497.79998779296875</ele>
        <time>2019-08-30T07:09:47.000Z</time>
        <extensions>
          <ns3:TrackPointExtension/>
        </extensions>
      </trkpt>
      <trkpt lat="43.12271964736282825469970703125" lon="13.02345539443194866180419921875">
        <ele>499.600006103515625</ele>
        <time>2019-08-30T07:09:53.000Z</time>
        <extensions>
          <ns3:TrackPointExtension/>
        </extensions>
      </trkpt>
      <trkpt lat="43.12281117774546146392822265625" lon="13.023468218743801116943359375">
        <ele>500</ele>
        <time>2019-08-30T07:09:56.000Z</time>
        <extensions>
          <ns3:TrackPointExtension/>
        </extensions>
      </trkpt>
      <trkpt lat="43.12284252606332302093505859375" lon="13.0234720744192600250244140625">
        <ele>500.20001220703125</ele>
        <time>2019-08-30T07:09:57.000Z</time>
        <extensions>
          <ns3:TrackPointExtension/>
        </extensions>
      </trkpt>
      <trkpt lat="43.12293715775012969970703125" lon="13.0234844796359539031982421875">
        <ele>500.79998779296875</ele>
        <time>2019-08-30T07:10:00.000Z</time>
        <extensions>
          <ns3:TrackPointExtension/>
        </extensions>
      </trkpt>
      <trkpt lat="43.12313857488334178924560546875" lon="13.0234600044786930084228515625">
        <ele>502.399993896484375</ele>
        <time>2019-08-30T07:10:07.000Z</time>
        <extensions>
          <ns3:TrackPointExtension/>
        </extensions>
      </trkpt>
      <trkpt lat="43.12325290404260158538818359375" lon="13.02338683046400547027587890625">
        <ele>504</ele>
        <time>2019-08-30T07:10:12.000Z</time>
        <extensions>
          <ns3:TrackPointExtension/>
        </extensions>
      </trkpt>
      <trkpt lat="43.1232999265193939208984375" lon="13.02334978245198726654052734375">
        <ele>504.600006103515625</ele>
        <time>2019-08-30T07:10:14.000Z</time>
        <extensions>
          <ns3:TrackPointExtension/>
        </extensions>
      </trkpt>
      <trkpt lat="43.12343814410269260406494140625" lon="13.0232279933989048004150390625">
        <ele>506.20001220703125</ele>
        <time>2019-08-30T07:10:20.000Z</time>
        <extensions>
          <ns3:TrackPointExtension/>
        </extensions>
      </trkpt>
      <trkpt lat="43.12346077524125576019287109375" lon="13.023204021155834197998046875">
        <ele>506.399993896484375</ele>
        <time>2019-08-30T07:10:21.000Z</time>
        <extensions>
          <ns3:TrackPointExtension/>
        </extensions>
      </trkpt>
      <trkpt lat="43.12350444495677947998046875" lon="13.02315565757453441619873046875">
        <ele>506.79998779296875</ele>
        <time>2019-08-30T07:10:23.000Z</time>
        <extensions>
          <ns3:TrackPointExtension/>
        </extensions>
      </trkpt>
      <trkpt lat="43.12359404750168323516845703125" lon="13.02305943332612514495849609375">
        <ele>507.79998779296875</ele>
        <time>2019-08-30T07:10:27.000Z</time>
        <extensions>
          <ns3:TrackPointExtension/>
        </extensions>
      </trkpt>
      <trkpt lat="43.1237493641674518585205078125" lon="13.02289682440459728240966796875">
        <ele>509.20001220703125</ele>
        <time>2019-08-30T07:10:34.000Z</time>
        <extensions>
          <ns3:TrackPointExtension/>
        </extensions>
      </trkpt>
      <trkpt lat="43.1238978914916515350341796875" lon="13.0227483808994293212890625">
        <ele>510.600006103515625</ele>
        <time>2019-08-30T07:10:41.000Z</time>
        <extensions>
          <ns3:TrackPointExtension/>
        </extensions>
      </trkpt>
      <trkpt lat="43.12391884624958038330078125" lon="13.0227280966937541961669921875">
        <ele>510.79998779296875</ele>
        <time>2019-08-30T07:10:42.000Z</time>
        <extensions>
          <ns3:TrackPointExtension/>
        </extensions>
      </trkpt>
      <trkpt lat="43.12404893338680267333984375" lon="13.0226047150790691375732421875">
        <ele>512</ele>
        <time>2019-08-30T07:10:48.000Z</time>
        <extensions>
          <ns3:TrackPointExtension/>
        </extensions>
      </trkpt>
      <trkpt lat="43.1241285614669322967529296875" lon="13.02252014167606830596923828125">
        <ele>513.20001220703125</ele>
        <time>2019-08-30T07:10:52.000Z</time>
        <extensions>
          <ns3:TrackPointExtension/>
        </extensions>
      </trkpt>
      <trkpt lat="43.124228976666927337646484375" lon="13.02242022939026355743408203125">
        <ele>514.79998779296875</ele>
        <time>2019-08-30T07:10:57.000Z</time>
        <extensions>
          <ns3:TrackPointExtension/>
        </extensions>
      </trkpt>
      <trkpt lat="43.1242687068879604339599609375" lon="13.0223784036934375762939453125">
        <ele>515.20001220703125</ele>
        <time>2019-08-30T07:10:59.000Z</time>
        <extensions>
          <ns3:TrackPointExtension/>
        </extensions>
      </trkpt>
      <trkpt lat="43.12436266802251338958740234375" lon="13.0222687683999538421630859375">
        <ele>517</ele>
        <time>2019-08-30T07:11:04.000Z</time>
        <extensions>
          <ns3:TrackPointExtension/>
        </extensions>
      </trkpt>
      <trkpt lat="43.12438043765723705291748046875" lon="13.02224747836589813232421875">
        <ele>517.4000244140625</ele>
        <time>2019-08-30T07:11:05.000Z</time>
        <extensions>
          <ns3:TrackPointExtension/>
        </extensions>
      </trkpt>
      <trkpt lat="43.12442519702017307281494140625" lon="13.022174052894115447998046875">
        <ele>518.4000244140625</ele>
        <time>2019-08-30T07:11:08.000Z</time>
        <extensions>
          <ns3:TrackPointExtension/>
        </extensions>
      </trkpt>
      <trkpt lat="43.12450700439512729644775390625" lon="13.021951429545879364013671875">
        <ele>521.20001220703125</ele>
        <time>2019-08-30T07:11:16.000Z</time>
        <extensions>
          <ns3:TrackPointExtension/>
        </extensions>
      </trkpt>
      <trkpt lat="43.1245087645947933197021484375" lon="13.021700643002986907958984375">
        <ele>523.20001220703125</ele>
        <time>2019-08-30T07:11:24.000Z</time>
        <extensions>
          <ns3:TrackPointExtension/>
        </extensions>
      </trkpt>
      <trkpt lat="43.12450214289128780364990234375" lon="13.021639287471771240234375">
        <ele>523.5999755859375</ele>
        <time>2019-08-30T07:11:26.000Z</time>
        <extensions>
          <ns3:TrackPointExtension/>
        </extensions>
      </trkpt>
      <trkpt lat="43.12449795193970203399658203125" lon="13.02160467021167278289794921875">
        <ele>523.79998779296875</ele>
        <time>2019-08-30T07:11:27.000Z</time>
        <extensions>
          <ns3:TrackPointExtension/>
        </extensions>
      </trkpt>
      <trkpt lat="43.1244628317654132843017578125" lon="13.02133695222437381744384765625">
        <ele>525.5999755859375</ele>
        <time>2019-08-30T07:11:35.000Z</time>
        <extensions>
          <ns3:TrackPointExtension/>
        </extensions>
      </trkpt>
      <trkpt lat="43.1244574673473834991455078125" lon="13.02130275405943393707275390625">
        <ele>526</ele>
        <time>2019-08-30T07:11:36.000Z</time>
        <extensions>
          <ns3:TrackPointExtension/>
        </extensions>
      </trkpt>
      <trkpt lat="43.124452941119670867919921875" lon="13.0212696455419063568115234375">
        <ele>526.20001220703125</ele>
        <time>2019-08-30T07:11:37.000Z</time>
        <extensions>
          <ns3:TrackPointExtension/>
        </extensions>
      </trkpt>
      <trkpt lat="43.12443559058010578155517578125" lon="13.02113704383373260498046875">
        <ele>527</ele>
        <time>2019-08-30T07:11:41.000Z</time>
        <extensions>
          <ns3:TrackPointExtension/>
        </extensions>
      </trkpt>
      <trkpt lat="43.12443089671432971954345703125" lon="13.02110242657363414764404296875">
        <ele>527.20001220703125</ele>
        <time>2019-08-30T07:11:42.000Z</time>
        <extensions>
          <ns3:TrackPointExtension/>
        </extensions>
      </trkpt>
      <trkpt lat="43.12439032830297946929931640625" lon="13.0208398215472698211669921875">
        <ele>528.4000244140625</ele>
        <time>2019-08-30T07:11:50.000Z</time>
        <extensions>
          <ns3:TrackPointExtension/>
        </extensions>
      </trkpt>
      <trkpt lat="43.12438479624688625335693359375" lon="13.02077553234994411468505859375">
        <ele>529</ele>
        <time>2019-08-30T07:11:52.000Z</time>
        <extensions>
          <ns3:TrackPointExtension/>
        </extensions>
      </trkpt>
      <trkpt lat="43.1243820302188396453857421875" lon="13.02074133418500423431396484375">
        <ele>529.20001220703125</ele>
        <time>2019-08-30T07:11:53.000Z</time>
        <extensions>
          <ns3:TrackPointExtension/>
        </extensions>
      </trkpt>
      <trkpt lat="43.12437750399112701416015625" lon="13.0206037871539592742919921875">
        <ele>530.20001220703125</ele>
        <time>2019-08-30T07:11:57.000Z</time>
        <extensions>
          <ns3:TrackPointExtension/>
        </extensions>
      </trkpt>
      <trkpt lat="43.12437725253403186798095703125" lon="13.02056581713259220123291015625">
        <ele>530.4000244140625</ele>
        <time>2019-08-30T07:11:58.000Z</time>
        <extensions>
          <ns3:TrackPointExtension/>
        </extensions>
      </trkpt>
      <trkpt lat="43.12438462860882282257080078125" lon="13.0204549245536327362060546875">
        <ele>531.20001220703125</ele>
        <time>2019-08-30T07:12:01.000Z</time>
        <extensions>
          <ns3:TrackPointExtension/>
        </extensions>
      </trkpt>
      <trkpt lat="43.12440675683319568634033203125" lon="13.02027127705514430999755859375">
        <ele>532.5999755859375</ele>
        <time>2019-08-30T07:12:06.000Z</time>
        <extensions>
          <ns3:TrackPointExtension/>
        </extensions>
      </trkpt>
      <trkpt lat="43.124414719641208648681640625" lon="13.02023523487150669097900390625">
        <ele>532.79998779296875</ele>
        <time>2019-08-30T07:12:07.000Z</time>
        <extensions>
          <ns3:TrackPointExtension/>
        </extensions>
      </trkpt>
      <trkpt lat="43.12445126473903656005859375" lon="13.0201089195907115936279296875">
        <ele>533.20001220703125</ele>
        <time>2019-08-30T07:12:11.000Z</time>
        <extensions>
          <ns3:TrackPointExtension/>
        </extensions>
      </trkpt>
      <trkpt lat="43.1244688667356967926025390625" lon="13.0200432054698467254638671875">
        <ele>533.5999755859375</ele>
        <time>2019-08-30T07:12:13.000Z</time>
        <extensions>
          <ns3:TrackPointExtension/>
        </extensions>
      </trkpt>
      <trkpt lat="43.1244913302361965179443359375" lon="13.0199057422578334808349609375">
        <ele>534.20001220703125</ele>
        <time>2019-08-30T07:12:17.000Z</time>
        <extensions>
          <ns3:TrackPointExtension/>
        </extensions>
      </trkpt>
      <trkpt lat="43.12449526973068714141845703125" lon="13.01983457989990711212158203125">
        <ele>534.79998779296875</ele>
        <time>2019-08-30T07:12:19.000Z</time>
        <extensions>
          <ns3:TrackPointExtension/>
        </extensions>
      </trkpt>
      <trkpt lat="43.12449778430163860321044921875" lon="13.01979987882077693939208984375">
        <ele>535</ele>
        <time>2019-08-30T07:12:20.000Z</time>
        <extensions>
          <ns3:TrackPointExtension/>
        </extensions>
      </trkpt>
      <trkpt lat="43.12449015676975250244140625" lon="13.019549511373043060302734375">
        <ele>536.4000244140625</ele>
        <time>2019-08-30T07:12:27.000Z</time>
        <extensions>
          <ns3:TrackPointExtension/>
        </extensions>
      </trkpt>
      <trkpt lat="43.124479092657566070556640625" lon="13.01936921663582324981689453125">
        <ele>537.5999755859375</ele>
        <time>2019-08-30T07:12:32.000Z</time>
        <extensions>
          <ns3:TrackPointExtension/>
        </extensions>
      </trkpt>
      <trkpt lat="43.124476410448551177978515625" lon="13.01933401264250278472900390625">
        <ele>538</ele>
        <time>2019-08-30T07:12:33.000Z</time>
        <extensions>
          <ns3:TrackPointExtension/>
        </extensions>
      </trkpt>
      <trkpt lat="43.124468028545379638671875" lon="13.01916352473199367523193359375">
        <ele>539.20001220703125</ele>
        <time>2019-08-30T07:12:38.000Z</time>
        <extensions>
          <ns3:TrackPointExtension/>
        </extensions>
      </trkpt>
      <trkpt lat="43.124432824552059173583984375" lon="13.018904440104961395263671875">
        <ele>541.5999755859375</ele>
        <time>2019-08-30T07:12:45.000Z</time>
        <extensions>
          <ns3:TrackPointExtension/>
        </extensions>
      </trkpt>
      <trkpt lat="43.12442804686725139617919921875" lon="13.01882975734770298004150390625">
        <ele>542.20001220703125</ele>
        <time>2019-08-30T07:12:47.000Z</time>
        <extensions>
          <ns3:TrackPointExtension/>
        </extensions>
      </trkpt>
      <trkpt lat="43.1244232691824436187744140625" lon="13.01879488863050937652587890625">
        <ele>542.4000244140625</ele>
        <time>2019-08-30T07:12:48.000Z</time>
        <extensions>
          <ns3:TrackPointExtension/>
        </extensions>
      </trkpt>
      <trkpt lat="43.12440357170999050140380859375" lon="13.01864803768694400787353515625">
        <ele>543.79998779296875</ele>
        <time>2019-08-30T07:12:52.000Z</time>
        <extensions>
          <ns3:TrackPointExtension/>
        </extensions>
      </trkpt>
      <trkpt lat="43.124393932521343231201171875" lon="13.018576204776763916015625">
        <ele>544.4000244140625</ele>
        <time>2019-08-30T07:12:54.000Z</time>
        <extensions>
          <ns3:TrackPointExtension/>
        </extensions>
      </trkpt>
      <trkpt lat="43.12438555061817169189453125" lon="13.01850722171366214752197265625">
        <ele>545</ele>
        <time>2019-08-30T07:12:56.000Z</time>
        <extensions>
          <ns3:TrackPointExtension/>
        </extensions>
      </trkpt>
      <trkpt lat="43.1243669427931308746337890625" lon="13.0183329619467258453369140625">
        <ele>546.4000244140625</ele>
        <time>2019-08-30T07:13:01.000Z</time>
        <extensions>
          <ns3:TrackPointExtension/>
        </extensions>
      </trkpt>
      <trkpt lat="43.12436384148895740509033203125" lon="13.01826062612235546112060546875">
        <ele>547</ele>
        <time>2019-08-30T07:13:03.000Z</time>
        <extensions>
          <ns3:TrackPointExtension/>
        </extensions>
      </trkpt>
      <trkpt lat="43.124339617788791656494140625" lon="13.018011264503002166748046875">
        <ele>548.79998779296875</ele>
        <time>2019-08-30T07:13:10.000Z</time>
        <extensions>
          <ns3:TrackPointExtension/>
        </extensions>
      </trkpt>
      <trkpt lat="43.12433701939880847930908203125" lon="13.01797765307128429412841796875">
        <ele>549</ele>
        <time>2019-08-30T07:13:11.000Z</time>
        <extensions>
          <ns3:TrackPointExtension/>
        </extensions>
      </trkpt>
      <trkpt lat="43.1243330799043178558349609375" lon="13.01794328726828098297119140625">
        <ele>549.20001220703125</ele>
        <time>2019-08-30T07:13:12.000Z</time>
        <extensions>
          <ns3:TrackPointExtension/>
        </extensions>
      </trkpt>
      <trkpt lat="43.12432478182017803192138671875" lon="13.01767674274742603302001953125">
        <ele>551.20001220703125</ele>
        <time>2019-08-30T07:13:20.000Z</time>
        <extensions>
          <ns3:TrackPointExtension/>
        </extensions>
      </trkpt>
      <trkpt lat="43.12432964332401752471923828125" lon="13.01764254458248615264892578125">
        <ele>551.4000244140625</ele>
        <time>2019-08-30T07:13:21.000Z</time>
        <extensions>
          <ns3:TrackPointExtension/>
        </extensions>
      </trkpt>
      <trkpt lat="43.12431841157376766204833984375" lon="13.0174545384943485260009765625">
        <ele>552.79998779296875</ele>
        <time>2019-08-30T07:13:26.000Z</time>
        <extensions>
          <ns3:TrackPointExtension/>
        </extensions>
      </trkpt>
      <trkpt lat="43.124316819012165069580078125" lon="13.017414472997188568115234375">
        <ele>553</ele>
        <time>2019-08-30T07:13:27.000Z</time>
        <extensions>
          <ns3:TrackPointExtension/>
        </extensions>
      </trkpt>
      <trkpt lat="43.124308101832866668701171875" lon="13.01726167090237140655517578125">
        <ele>554</ele>
        <time>2019-08-30T07:13:31.000Z</time>
        <extensions>
          <ns3:TrackPointExtension/>
        </extensions>
      </trkpt>
      <trkpt lat="43.12429837882518768310546875" lon="13.01711364649236202239990234375">
        <ele>554.79998779296875</ele>
        <time>2019-08-30T07:13:35.000Z</time>
        <extensions>
          <ns3:TrackPointExtension/>
        </extensions>
      </trkpt>
      <trkpt lat="43.124294690787792205810546875" lon="13.01707508973777294158935546875">
        <ele>555</ele>
        <time>2019-08-30T07:13:36.000Z</time>
        <extensions>
          <ns3:TrackPointExtension/>
        </extensions>
      </trkpt>
      <trkpt lat="43.1242801062762737274169921875" lon="13.0169268138706684112548828125">
        <ele>556</ele>
        <time>2019-08-30T07:13:40.000Z</time>
        <extensions>
          <ns3:TrackPointExtension/>
        </extensions>
      </trkpt>
      <trkpt lat="43.12426753342151641845703125" lon="13.01678943447768688201904296875">
        <ele>556.79998779296875</ele>
        <time>2019-08-30T07:13:44.000Z</time>
        <extensions>
          <ns3:TrackPointExtension/>
        </extensions>
      </trkpt>
      <trkpt lat="43.1242440640926361083984375" lon="13.0166597664356231689453125">
        <ele>558</ele>
        <time>2019-08-30T07:13:48.000Z</time>
        <extensions>
          <ns3:TrackPointExtension/>
        </extensions>
      </trkpt>
      <trkpt lat="43.12410634942352771759033203125" lon="13.0165124125778675079345703125">
        <ele>559.5999755859375</ele>
        <time>2019-08-30T07:13:55.000Z</time>
        <extensions>
          <ns3:TrackPointExtension/>
        </extensions>
      </trkpt>
      <trkpt lat="43.123934268951416015625" lon="13.01640068180859088897705078125">
        <ele>560.79998779296875</ele>
        <time>2019-08-30T07:14:02.000Z</time>
        <extensions>
          <ns3:TrackPointExtension/>
        </extensions>
      </trkpt>
      <trkpt lat="43.12390987761318683624267578125" lon="13.0163836665451526641845703125">
        <ele>561</ele>
        <time>2019-08-30T07:14:03.000Z</time>
        <extensions>
          <ns3:TrackPointExtension/>
        </extensions>
      </trkpt>
      <trkpt lat="43.12381817959249019622802734375" lon="13.016321472823619842529296875">
        <ele>561.5999755859375</ele>
        <time>2019-08-30T07:14:07.000Z</time>
        <extensions>
          <ns3:TrackPointExtension/>
        </extensions>
      </trkpt>
      <trkpt lat="43.12372698448598384857177734375" lon="13.0162502266466617584228515625">
        <ele>562.4000244140625</ele>
        <time>2019-08-30T07:14:11.000Z</time>
        <extensions>
          <ns3:TrackPointExtension/>
        </extensions>
      </trkpt>
      <trkpt lat="43.1235528923571109771728515625" lon="13.016120977699756622314453125">
        <ele>563.79998779296875</ele>
        <time>2019-08-30T07:14:19.000Z</time>
        <extensions>
          <ns3:TrackPointExtension/>
        </extensions>
      </trkpt>
      <trkpt lat="43.1233765371143817901611328125" lon="13.0160071514546871185302734375">
        <ele>564.5999755859375</ele>
        <time>2019-08-30T07:14:26.000Z</time>
        <extensions>
          <ns3:TrackPointExtension/>
        </extensions>
      </trkpt>
      <trkpt lat="43.1233282573521137237548828125" lon="13.01596297882497310638427734375">
        <ele>564.5999755859375</ele>
        <time>2019-08-30T07:14:28.000Z</time>
        <extensions>
          <ns3:TrackPointExtension/>
        </extensions>
      </trkpt>
      <trkpt lat="43.1233051232993602752685546875" lon="13.01593816839158535003662109375">
        <ele>564.5999755859375</ele>
        <time>2019-08-30T07:14:29.000Z</time>
        <extensions>
          <ns3:TrackPointExtension/>
        </extensions>
      </trkpt>
      <trkpt lat="43.1231792271137237548828125" lon="13.0157660879194736480712890625">
        <ele>565.5999755859375</ele>
        <time>2019-08-30T07:14:35.000Z</time>
        <extensions>
          <ns3:TrackPointExtension/>
        </extensions>
      </trkpt>
      <trkpt lat="43.123160116374492645263671875" lon="13.015733398497104644775390625">
        <ele>566</ele>
        <time>2019-08-30T07:14:36.000Z</time>
        <extensions>
          <ns3:TrackPointExtension/>
        </extensions>
      </trkpt>
      <trkpt lat="43.123044781386852264404296875" lon="13.0155253596603870391845703125">
        <ele>567.4000244140625</ele>
        <time>2019-08-30T07:14:43.000Z</time>
        <extensions>
          <ns3:TrackPointExtension/>
        </extensions>
      </trkpt>
      <trkpt lat="43.123026676476001739501953125" lon="13.01549292169511318206787109375">
        <ele>567.5999755859375</ele>
        <time>2019-08-30T07:14:44.000Z</time>
        <extensions>
          <ns3:TrackPointExtension/>
        </extensions>
      </trkpt>
      <trkpt lat="43.1229202263057231903076171875" lon="13.0152940191328525543212890625">
        <ele>569</ele>
        <time>2019-08-30T07:14:50.000Z</time>
        <extensions>
          <ns3:TrackPointExtension/>
        </extensions>
      </trkpt>
      <trkpt lat="43.12290488742291927337646484375" lon="13.0152614973485469818115234375">
        <ele>569.20001220703125</ele>
        <time>2019-08-30T07:14:51.000Z</time>
        <extensions>
          <ns3:TrackPointExtension/>
        </extensions>
      </trkpt>
      <trkpt lat="43.12288879416882991790771484375" lon="13.0152306519448757171630859375">
        <ele>569.4000244140625</ele>
        <time>2019-08-30T07:14:52.000Z</time>
        <extensions>
          <ns3:TrackPointExtension/>
        </extensions>
      </trkpt>
      <trkpt lat="43.122835569083690643310546875" lon="13.01513434387743473052978515625">
        <ele>570</ele>
        <time>2019-08-30T07:14:55.000Z</time>
        <extensions>
          <ns3:TrackPointExtension/>
        </extensions>
      </trkpt>
      <trkpt lat="43.12271512113511562347412109375" lon="13.01490887068212032318115234375">
        <ele>571.79998779296875</ele>
        <time>2019-08-30T07:15:02.000Z</time>
        <extensions>
          <ns3:TrackPointExtension/>
        </extensions>
      </trkpt>
      <trkpt lat="43.1227016262710094451904296875" lon="13.0148814618587493896484375">
        <ele>572</ele>
        <time>2019-08-30T07:15:03.000Z</time>
        <extensions>
          <ns3:TrackPointExtension/>
        </extensions>
      </trkpt>
      <trkpt lat="43.12259115278720855712890625" lon="13.014680631458759307861328125">
        <ele>573.5999755859375</ele>
        <time>2019-08-30T07:15:10.000Z</time>
        <extensions>
          <ns3:TrackPointExtension/>
        </extensions>
      </trkpt>
      <trkpt lat="43.1225596368312835693359375" lon="13.01462438888847827911376953125">
        <ele>574</ele>
        <time>2019-08-30T07:15:12.000Z</time>
        <extensions>
          <ns3:TrackPointExtension/>
        </extensions>
      </trkpt>
      <trkpt lat="43.1225145421922206878662109375" lon="13.01453746855258941650390625">
        <ele>574.4000244140625</ele>
        <time>2019-08-30T07:15:15.000Z</time>
        <extensions>
          <ns3:TrackPointExtension/>
        </extensions>
      </trkpt>
      <trkpt lat="43.12248076312243938446044921875" lon="13.014480806887149810791015625">
        <ele>574.5999755859375</ele>
        <time>2019-08-30T07:15:17.000Z</time>
        <extensions>
          <ns3:TrackPointExtension/>
        </extensions>
      </trkpt>
      <trkpt lat="43.12241555191576480865478515625" lon="13.01436773501336574554443359375">
        <ele>575.20001220703125</ele>
        <time>2019-08-30T07:15:21.000Z</time>
        <extensions>
          <ns3:TrackPointExtension/>
        </extensions>
      </trkpt>
      <trkpt lat="43.1224012188613414764404296875" lon="13.01433923654258251190185546875">
        <ele>575.20001220703125</ele>
        <time>2019-08-30T07:15:22.000Z</time>
        <extensions>
          <ns3:TrackPointExtension/>
        </extensions>
      </trkpt>
      <trkpt lat="43.12237313948571681976318359375" lon="13.01427972503006458282470703125">
        <ele>575.5999755859375</ele>
        <time>2019-08-30T07:15:24.000Z</time>
        <extensions>
          <ns3:TrackPointExtension/>
        </extensions>
      </trkpt>
      <trkpt lat="43.122311532497406005859375" lon="13.01415516994893550872802734375">
        <ele>576.5999755859375</ele>
        <time>2019-08-30T07:15:28.000Z</time>
        <extensions>
          <ns3:TrackPointExtension/>
        </extensions>
      </trkpt>
      <trkpt lat="43.1222285516560077667236328125" lon="13.0139093287289142608642578125">
        <ele>579</ele>
        <time>2019-08-30T07:15:35.000Z</time>
        <extensions>
          <ns3:TrackPointExtension/>
        </extensions>
      </trkpt>
      <trkpt lat="43.122200556099414825439453125" lon="13.01377303898334503173828125">
        <ele>580.79998779296875</ele>
        <time>2019-08-30T07:15:39.000Z</time>
        <extensions>
          <ns3:TrackPointExtension/>
        </extensions>
      </trkpt>
      <trkpt lat="43.12219745479524135589599609375" lon="13.0137410201132297515869140625">
        <ele>581.20001220703125</ele>
        <time>2019-08-30T07:15:40.000Z</time>
        <extensions>
          <ns3:TrackPointExtension/>
        </extensions>
      </trkpt>
      <trkpt lat="43.1221648491919040679931640625" lon="13.0135591328144073486328125">
        <ele>583.79998779296875</ele>
        <time>2019-08-30T07:15:45.000Z</time>
        <extensions>
          <ns3:TrackPointExtension/>
        </extensions>
      </trkpt>
      <trkpt lat="43.12213676981627941131591796875" lon="13.0134215019643306732177734375">
        <ele>585.5999755859375</ele>
        <time>2019-08-30T07:15:49.000Z</time>
        <extensions>
          <ns3:TrackPointExtension/>
        </extensions>
      </trkpt>
      <trkpt lat="43.1221219338476657867431640625" lon="13.013354279100894927978515625">
        <ele>586.79998779296875</ele>
        <time>2019-08-30T07:15:51.000Z</time>
        <extensions>
          <ns3:TrackPointExtension/>
        </extensions>
      </trkpt>
      <trkpt lat="43.122044987976551055908203125" lon="13.0131261236965656280517578125">
        <ele>590.20001220703125</ele>
        <time>2019-08-30T07:15:58.000Z</time>
        <extensions>
          <ns3:TrackPointExtension/>
        </extensions>
      </trkpt>
      <trkpt lat="43.12192755751311779022216796875" lon="13.0128993093967437744140625">
        <ele>593</ele>
        <time>2019-08-30T07:16:06.000Z</time>
        <extensions>
          <ns3:TrackPointExtension/>
        </extensions>
      </trkpt>
      <trkpt lat="43.12189285643398761749267578125" lon="13.01285228691995143890380859375">
        <ele>593.4000244140625</ele>
        <time>2019-08-30T07:16:08.000Z</time>
        <extensions>
          <ns3:TrackPointExtension/>
        </extensions>
      </trkpt>
      <trkpt lat="43.12185823917388916015625" lon="13.012804426252841949462890625">
        <ele>594</ele>
        <time>2019-08-30T07:16:10.000Z</time>
        <extensions>
          <ns3:TrackPointExtension/>
        </extensions>
      </trkpt>
      <trkpt lat="43.1218258850276470184326171875" lon="13.0127610079944133758544921875">
        <ele>594.20001220703125</ele>
        <time>2019-08-30T07:16:12.000Z</time>
        <extensions>
          <ns3:TrackPointExtension/>
        </extensions>
      </trkpt>
      <trkpt lat="43.12167056836187839508056640625" lon="13.01259060390293598175048828125">
        <ele>596.5999755859375</ele>
        <time>2019-08-30T07:16:20.000Z</time>
        <extensions>
          <ns3:TrackPointExtension/>
        </extensions>
      </trkpt>
      <trkpt lat="43.12148851342499256134033203125" lon="13.01246956922113895416259765625">
        <ele>598.79998779296875</ele>
        <time>2019-08-30T07:16:28.000Z</time>
        <extensions>
          <ns3:TrackPointExtension/>
        </extensions>
      </trkpt>
      <trkpt lat="43.12134652398526668548583984375" lon="13.01239681430160999298095703125">
        <ele>600</ele>
        <time>2019-08-30T07:16:34.000Z</time>
        <extensions>
          <ns3:TrackPointExtension/>
        </extensions>
      </trkpt>
      <trkpt lat="43.12132112681865692138671875" lon="13.01238633692264556884765625">
        <ele>600.20001220703125</ele>
        <time>2019-08-30T07:16:35.000Z</time>
        <extensions>
          <ns3:TrackPointExtension/>
        </extensions>
      </trkpt>
      <trkpt lat="43.12118743546307086944580078125" lon="13.01232355646789073944091796875">
        <ele>601.20001220703125</ele>
        <time>2019-08-30T07:16:40.000Z</time>
        <extensions>
          <ns3:TrackPointExtension/>
        </extensions>
      </trkpt>
      <trkpt lat="43.1211620382964611053466796875" lon="13.01231182180345058441162109375">
        <ele>601.4000244140625</ele>
        <time>2019-08-30T07:16:41.000Z</time>
        <extensions>
          <ns3:TrackPointExtension/>
        </extensions>
      </trkpt>
      <trkpt lat="43.12106036581099033355712890625" lon="13.01227728836238384246826171875">
        <ele>601.79998779296875</ele>
        <time>2019-08-30T07:16:45.000Z</time>
        <extensions>
          <ns3:TrackPointExtension/>
        </extensions>
      </trkpt>
      <trkpt lat="43.121035806834697723388671875" lon="13.01226639188826084136962890625">
        <ele>602</ele>
        <time>2019-08-30T07:16:46.000Z</time>
        <extensions>
          <ns3:TrackPointExtension/>
        </extensions>
      </trkpt>
      <trkpt lat="43.12113027088344097137451171875" lon="13.01212155260145664215087890625">
        <ele>605.79998779296875</ele>
        <time>2019-08-30T07:16:54.000Z</time>
        <extensions>
          <ns3:TrackPointExtension/>
        </extensions>
      </trkpt>
      <trkpt lat="43.12115893699228763580322265625" lon="13.01212348043918609619140625">
        <ele>605.79998779296875</ele>
        <time>2019-08-30T07:16:55.000Z</time>
        <extensions>
          <ns3:TrackPointExtension/>
        </extensions>
      </trkpt>
      <trkpt lat="43.121188022196292877197265625" lon="13.01212691701948642730712890625">
        <ele>606</ele>
        <time>2019-08-30T07:16:56.000Z</time>
        <extensions>
          <ns3:TrackPointExtension/>
        </extensions>
      </trkpt>
      <trkpt lat="43.121381811797618865966796875" lon="13.01216061227023601531982421875">
        <ele>605.79998779296875</ele>
        <time>2019-08-30T07:17:03.000Z</time>
        <extensions>
          <ns3:TrackPointExtension/>
        </extensions>
      </trkpt>
      <trkpt lat="43.12146772630512714385986328125" lon="13.01217804662883281707763671875">
        <ele>605.5999755859375</ele>
        <time>2019-08-30T07:17:06.000Z</time>
        <extensions>
          <ns3:TrackPointExtension/>
        </extensions>
      </trkpt>
      <trkpt lat="43.12149605713784694671630859375" lon="13.01218274049460887908935546875">
        <ele>605.5999755859375</ele>
        <time>2019-08-30T07:17:07.000Z</time>
        <extensions>
          <ns3:TrackPointExtension/>
        </extensions>
      </trkpt>
      <trkpt lat="43.12160904519259929656982421875" lon="13.01220788620412349700927734375">
        <ele>605.4000244140625</ele>
        <time>2019-08-30T07:17:11.000Z</time>
        <extensions>
          <ns3:TrackPointExtension/>
        </extensions>
      </trkpt>
      <trkpt lat="43.1216344423592090606689453125" lon="13.01221576519310474395751953125">
        <ele>605.4000244140625</ele>
        <time>2019-08-30T07:17:12.000Z</time>
        <extensions>
          <ns3:TrackPointExtension/>
        </extensions>
      </trkpt>
      <trkpt lat="43.12171800993382930755615234375" lon="13.0122339539229869842529296875">
        <ele>605.20001220703125</ele>
        <time>2019-08-30T07:17:15.000Z</time>
        <extensions>
          <ns3:TrackPointExtension/>
        </extensions>
      </trkpt>
      <trkpt lat="43.121912218630313873291015625" lon="13.0122922919690608978271484375">
        <ele>605.79998779296875</ele>
        <time>2019-08-30T07:17:22.000Z</time>
        <extensions>
          <ns3:TrackPointExtension/>
        </extensions>
      </trkpt>
      <trkpt lat="43.1219683773815631866455078125" lon="13.012314252555370330810546875">
        <ele>605.79998779296875</ele>
        <time>2019-08-30T07:17:24.000Z</time>
        <extensions>
          <ns3:TrackPointExtension/>
        </extensions>
      </trkpt>
      <trkpt lat="43.1220500171184539794921875" lon="13.01236177794635295867919921875">
        <ele>605.79998779296875</ele>
        <time>2019-08-30T07:17:27.000Z</time>
        <extensions>
          <ns3:TrackPointExtension/>
        </extensions>
      </trkpt>
      <trkpt lat="43.12214724719524383544921875" lon="13.01243620924651622772216796875">
        <ele>605.20001220703125</ele>
        <time>2019-08-30T07:17:31.000Z</time>
        <extensions>
          <ns3:TrackPointExtension/>
        </extensions>
      </trkpt>
      <trkpt lat="43.12229921109974384307861328125" lon="13.01255129277706146240234375">
        <ele>604.20001220703125</ele>
        <time>2019-08-30T07:17:37.000Z</time>
        <extensions>
          <ns3:TrackPointExtension/>
        </extensions>
      </trkpt>
      <trkpt lat="43.1223234347999095916748046875" lon="13.01256629638373851776123046875">
        <ele>604</ele>
        <time>2019-08-30T07:17:38.000Z</time>
        <extensions>
          <ns3:TrackPointExtension/>
        </extensions>
      </trkpt>
      <trkpt lat="43.12237146310508251190185546875" lon="13.012599237263202667236328125">
        <ele>604</ele>
        <time>2019-08-30T07:17:40.000Z</time>
        <extensions>
          <ns3:TrackPointExtension/>
        </extensions>
      </trkpt>
      <trkpt lat="43.12244052998721599578857421875" lon="13.0126473493874073028564453125">
        <ele>604</ele>
        <time>2019-08-30T07:17:43.000Z</time>
        <extensions>
          <ns3:TrackPointExtension/>
        </extensions>
      </trkpt>
      <trkpt lat="43.12259593047201633453369140625" lon="13.012697137892246246337890625">
        <ele>605</ele>
        <time>2019-08-30T07:17:49.000Z</time>
        <extensions>
          <ns3:TrackPointExtension/>
        </extensions>
      </trkpt>
      <trkpt lat="43.12261906452476978302001953125" lon="13.01269722171127796173095703125">
        <ele>605.20001220703125</ele>
        <time>2019-08-30T07:17:50.000Z</time>
        <extensions>
          <ns3:TrackPointExtension/>
        </extensions>
      </trkpt>
      <trkpt lat="43.1227167136967182159423828125" lon="13.01265514455735683441162109375">
        <ele>606.20001220703125</ele>
        <time>2019-08-30T07:17:54.000Z</time>
        <extensions>
          <ns3:TrackPointExtension/>
        </extensions>
      </trkpt>
      <trkpt lat="43.12273942865431308746337890625" lon="13.01263687200844287872314453125">
        <ele>606.4000244140625</ele>
        <time>2019-08-30T07:17:55.000Z</time>
        <extensions>
          <ns3:TrackPointExtension/>
        </extensions>
      </trkpt>
      <trkpt lat="43.1227639876306056976318359375" lon="13.01261826418340206146240234375">
        <ele>606.79998779296875</ele>
        <time>2019-08-30T07:17:56.000Z</time>
        <extensions>
          <ns3:TrackPointExtension/>
        </extensions>
      </trkpt>
      <trkpt lat="43.12291293404996395111083984375" lon="13.01247778348624706268310546875">
        <ele>609</ele>
        <time>2019-08-30T07:18:02.000Z</time>
        <extensions>
          <ns3:TrackPointExtension/>
        </extensions>
      </trkpt>
      <trkpt lat="43.1229587830603122711181640625" lon="13.0124274082481861114501953125">
        <ele>609.79998779296875</ele>
        <time>2019-08-30T07:18:04.000Z</time>
        <extensions>
          <ns3:TrackPointExtension/>
        </extensions>
      </trkpt>
      <trkpt lat="43.12298149801790714263916015625" lon="13.01240469329059123992919921875">
        <ele>610</ele>
        <time>2019-08-30T07:18:05.000Z</time>
        <extensions>
          <ns3:TrackPointExtension/>
        </extensions>
      </trkpt>
      <trkpt lat="43.1230504810810089111328125" lon="13.01233495585620403289794921875">
        <ele>611.20001220703125</ele>
        <time>2019-08-30T07:18:08.000Z</time>
        <extensions>
          <ns3:TrackPointExtension/>
        </extensions>
      </trkpt>
      <trkpt lat="43.1232223100960254669189453125" lon="13.012220375239849090576171875">
        <ele>613</ele>
        <time>2019-08-30T07:18:15.000Z</time>
        <extensions>
          <ns3:TrackPointExtension/>
        </extensions>
      </trkpt>
      <trkpt lat="43.12332096509635448455810546875" lon="13.01216497085988521575927734375">
        <ele>614</ele>
        <time>2019-08-30T07:18:19.000Z</time>
        <extensions>
          <ns3:TrackPointExtension/>
        </extensions>
      </trkpt>
      <trkpt lat="43.123346529901027679443359375" lon="13.01214803941547870635986328125">
        <ele>614.20001220703125</ele>
        <time>2019-08-30T07:18:20.000Z</time>
        <extensions>
          <ns3:TrackPointExtension/>
        </extensions>
      </trkpt>
      <trkpt lat="43.1233936361968517303466796875" lon="13.012117445468902587890625">
        <ele>614.5999755859375</ele>
        <time>2019-08-30T07:18:22.000Z</time>
        <extensions>
          <ns3:TrackPointExtension/>
        </extensions>
      </trkpt>
      <trkpt lat="43.12350670807063579559326171875" lon="13.0120302736759185791015625">
        <ele>615.20001220703125</ele>
        <time>2019-08-30T07:18:27.000Z</time>
        <extensions>
          <ns3:TrackPointExtension/>
        </extensions>
      </trkpt>
      <trkpt lat="43.1235287524759769439697265625" lon="13.0120099894702434539794921875">
        <ele>615.20001220703125</ele>
        <time>2019-08-30T07:18:28.000Z</time>
        <extensions>
          <ns3:TrackPointExtension/>
        </extensions>
      </trkpt>
      <trkpt lat="43.123642243444919586181640625" lon="13.0119043774902820587158203125">
        <ele>615.79998779296875</ele>
        <time>2019-08-30T07:18:33.000Z</time>
        <extensions>
          <ns3:TrackPointExtension/>
        </extensions>
      </trkpt>
      <trkpt lat="43.1236638687551021575927734375" lon="13.011881411075592041015625">
        <ele>616.20001220703125</ele>
        <time>2019-08-30T07:18:34.000Z</time>
        <extensions>
          <ns3:TrackPointExtension/>
        </extensions>
      </trkpt>
      <trkpt lat="43.1237862445414066314697265625" lon="13.01166675053536891937255859375">
        <ele>619.20001220703125</ele>
        <time>2019-08-30T07:18:41.000Z</time>
        <extensions>
          <ns3:TrackPointExtension/>
        </extensions>
      </trkpt>
      <trkpt lat="43.123797476291656494140625" lon="13.0116307921707630157470703125">
        <ele>619.5999755859375</ele>
        <time>2019-08-30T07:18:42.000Z</time>
        <extensions>
          <ns3:TrackPointExtension/>
        </extensions>
      </trkpt>
      <trkpt lat="43.12380778603255748748779296875" lon="13.01159441471099853515625">
        <ele>620</ele>
        <time>2019-08-30T07:18:43.000Z</time>
        <extensions>
          <ns3:TrackPointExtension/>
        </extensions>
      </trkpt>
      <trkpt lat="43.12385740689933300018310546875" lon="13.0113458074629306793212890625">
        <ele>622.4000244140625</ele>
        <time>2019-08-30T07:18:50.000Z</time>
        <extensions>
          <ns3:TrackPointExtension/>
        </extensions>
      </trkpt>
      <trkpt lat="43.12386075966060161590576171875" lon="13.01131068728864192962646484375">
        <ele>622.79998779296875</ele>
        <time>2019-08-30T07:18:51.000Z</time>
        <extensions>
          <ns3:TrackPointExtension/>
        </extensions>
      </trkpt>
      <trkpt lat="43.123862184584140777587890625" lon="13.01127498038113117218017578125">
        <ele>623.20001220703125</ele>
        <time>2019-08-30T07:18:52.000Z</time>
        <extensions>
          <ns3:TrackPointExtension/>
        </extensions>
      </trkpt>
      <trkpt lat="43.12386109493672847747802734375" lon="13.01119803451001644134521484375">
        <ele>624.20001220703125</ele>
        <time>2019-08-30T07:18:54.000Z</time>
        <extensions>
          <ns3:TrackPointExtension/>
        </extensions>
      </trkpt>
      <trkpt lat="43.12381315045058727264404296875" lon="13.0109666101634502410888671875">
        <ele>627.4000244140625</ele>
        <time>2019-08-30T07:19:01.000Z</time>
        <extensions>
          <ns3:TrackPointExtension/>
        </extensions>
      </trkpt>
      <trkpt lat="43.1236517988145351409912109375" lon="13.0108340084552764892578125">
        <ele>629.79998779296875</ele>
        <time>2019-08-30T07:19:09.000Z</time>
        <extensions>
          <ns3:TrackPointExtension/>
        </extensions>
      </trkpt>
      <trkpt lat="43.1235874257981777191162109375" lon="13.01080006174743175506591796875">
        <ele>630.4000244140625</ele>
        <time>2019-08-30T07:19:12.000Z</time>
        <extensions>
          <ns3:TrackPointExtension/>
        </extensions>
      </trkpt>
      <trkpt lat="43.12354224734008312225341796875" lon="13.01077106036245822906494140625">
        <ele>630.79998779296875</ele>
        <time>2019-08-30T07:19:14.000Z</time>
        <extensions>
          <ns3:TrackPointExtension/>
        </extensions>
      </trkpt>
      <trkpt lat="43.123375363647937774658203125" lon="13.01061473786830902099609375">
        <ele>633.4000244140625</ele>
        <time>2019-08-30T07:19:22.000Z</time>
        <extensions>
          <ns3:TrackPointExtension/>
        </extensions>
      </trkpt>
      <trkpt lat="43.1233148463070392608642578125" lon="13.01050283946096897125244140625">
        <ele>635.20001220703125</ele>
        <time>2019-08-30T07:19:26.000Z</time>
        <extensions>
          <ns3:TrackPointExtension/>
        </extensions>
      </trkpt>
      <trkpt lat="43.1233026087284088134765625" lon="13.01047660410404205322265625">
        <ele>635.5999755859375</ele>
        <time>2019-08-30T07:19:27.000Z</time>
        <extensions>
          <ns3:TrackPointExtension/>
        </extensions>
      </trkpt>
      <trkpt lat="43.1232436001300811767578125" lon="13.0103751830756664276123046875">
        <ele>637</ele>
        <time>2019-08-30T07:19:31.000Z</time>
        <extensions>
          <ns3:TrackPointExtension/>
        </extensions>
      </trkpt>
      <trkpt lat="43.1230922229588031768798828125" lon="13.01021450199186801910400390625">
        <ele>639.5999755859375</ele>
        <time>2019-08-30T07:19:39.000Z</time>
        <extensions>
          <ns3:TrackPointExtension/>
        </extensions>
      </trkpt>
      <trkpt lat="43.122973702847957611083984375" lon="13.010204695165157318115234375">
        <ele>639.79998779296875</ele>
        <time>2019-08-30T07:19:44.000Z</time>
        <extensions>
          <ns3:TrackPointExtension/>
        </extensions>
      </trkpt>
      <trkpt lat="43.1229463778436183929443359375" lon="13.01020813174545764923095703125">
        <ele>639.79998779296875</ele>
        <time>2019-08-30T07:19:45.000Z</time>
        <extensions>
          <ns3:TrackPointExtension/>
        </extensions>
      </trkpt>
      <trkpt lat="43.12289399094879627227783203125" lon="13.0102171003818511962890625">
        <ele>639.79998779296875</ele>
        <time>2019-08-30T07:19:47.000Z</time>
        <extensions>
          <ns3:TrackPointExtension/>
        </extensions>
      </trkpt>
      <trkpt lat="43.12269248999655246734619140625" lon="13.01025305874645709991455078125">
        <ele>639.79998779296875</ele>
        <time>2019-08-30T07:19:55.000Z</time>
        <extensions>
          <ns3:TrackPointExtension/>
        </extensions>
      </trkpt>
      <trkpt lat="43.12266617082059383392333984375" lon="13.01025758497416973114013671875">
        <ele>639.79998779296875</ele>
        <time>2019-08-30T07:19:56.000Z</time>
        <extensions>
          <ns3:TrackPointExtension/>
        </extensions>
      </trkpt>
      <trkpt lat="43.122492916882038116455078125" lon="13.01029689610004425048828125">
        <ele>641.4000244140625</ele>
        <time>2019-08-30T07:20:03.000Z</time>
        <extensions>
          <ns3:TrackPointExtension/>
        </extensions>
      </trkpt>
      <trkpt lat="43.12247045338153839111328125" lon="13.01030167378485202789306640625">
        <ele>641.79998779296875</ele>
        <time>2019-08-30T07:20:04.000Z</time>
        <extensions>
          <ns3:TrackPointExtension/>
        </extensions>
      </trkpt>
      <trkpt lat="43.1223361752927303314208984375" lon="13.01032380200922489166259765625">
        <ele>643.5999755859375</ele>
        <time>2019-08-30T07:20:10.000Z</time>
        <extensions>
          <ns3:TrackPointExtension/>
        </extensions>
      </trkpt>
      <trkpt lat="43.1222721375524997711181640625" lon="13.010334111750125885009765625">
        <ele>644.4000244140625</ele>
        <time>2019-08-30T07:20:13.000Z</time>
        <extensions>
          <ns3:TrackPointExtension/>
        </extensions>
      </trkpt>
      <trkpt lat="43.12218437902629375457763671875" lon="13.0101988278329372406005859375">
        <ele>647.4000244140625</ele>
        <time>2019-08-30T07:20:22.000Z</time>
        <extensions>
          <ns3:TrackPointExtension/>
        </extensions>
      </trkpt>
      <trkpt lat="43.12219527550041675567626953125" lon="13.01017460413277149200439453125">
        <ele>647.4000244140625</ele>
        <time>2019-08-30T07:20:23.000Z</time>
        <extensions>
          <ns3:TrackPointExtension/>
        </extensions>
      </trkpt>
      <trkpt lat="43.1222050823271274566650390625" lon="13.0101527273654937744140625">
        <ele>647.4000244140625</ele>
        <time>2019-08-30T07:20:24.000Z</time>
        <extensions>
          <ns3:TrackPointExtension/>
        </extensions>
      </trkpt>
      <trkpt lat="43.12227037735283374786376953125" lon="13.01003999076783657073974609375">
        <ele>648</ele>
        <time>2019-08-30T07:20:29.000Z</time>
        <extensions>
          <ns3:TrackPointExtension/>
        </extensions>
      </trkpt>
      <trkpt lat="43.12228194437921047210693359375" lon="13.010018281638622283935546875">
        <ele>648.20001220703125</ele>
        <time>2019-08-30T07:20:30.000Z</time>
        <extensions>
          <ns3:TrackPointExtension/>
        </extensions>
      </trkpt>
      <trkpt lat="43.12230625189840793609619140625" lon="13.009971342980861663818359375">
        <ele>648.5999755859375</ele>
        <time>2019-08-30T07:20:32.000Z</time>
        <extensions>
          <ns3:TrackPointExtension/>
        </extensions>
      </trkpt>
      <trkpt lat="43.12241253443062305450439453125" lon="13.0097465403378009796142578125">
        <ele>651</ele>
        <time>2019-08-30T07:20:42.000Z</time>
        <extensions>
          <ns3:TrackPointExtension/>
        </extensions>
      </trkpt>
      <trkpt lat="43.12241840176284313201904296875" lon="13.00972013734281063079833984375">
        <ele>651.4000244140625</ele>
        <time>2019-08-30T07:20:43.000Z</time>
        <extensions>
          <ns3:TrackPointExtension/>
        </extensions>
      </trkpt>
      <trkpt lat="43.1223452277481555938720703125" lon="13.0095014534890651702880859375">
        <ele>656.5999755859375</ele>
        <time>2019-08-30T07:20:53.000Z</time>
        <extensions>
          <ns3:TrackPointExtension/>
        </extensions>
      </trkpt>
      <trkpt lat="43.12215168960392475128173828125" lon="13.00954026170074939727783203125">
        <ele>658.79998779296875</ele>
        <time>2019-08-30T07:21:02.000Z</time>
        <extensions>
          <ns3:TrackPointExtension/>
        </extensions>
      </trkpt>
      <trkpt lat="43.12206485308706760406494140625" lon="13.009599186480045318603515625">
        <ele>659.20001220703125</ele>
        <time>2019-08-30T07:21:06.000Z</time>
        <extensions>
          <ns3:TrackPointExtension/>
        </extensions>
      </trkpt>
      <trkpt lat="43.12204406596720218658447265625" lon="13.0096157826483249664306640625">
        <ele>659.20001220703125</ele>
        <time>2019-08-30T07:21:07.000Z</time>
        <extensions>
          <ns3:TrackPointExtension/>
        </extensions>
      </trkpt>
      <trkpt lat="43.12188430689275264739990234375" lon="13.00971862860023975372314453125">
        <ele>659.79998779296875</ele>
        <time>2019-08-30T07:21:14.000Z</time>
        <extensions>
          <ns3:TrackPointExtension/>
        </extensions>
      </trkpt>
      <trkpt lat="43.121865279972553253173828125" lon="13.00973757170140743255615234375">
        <ele>659.79998779296875</ele>
        <time>2019-08-30T07:21:15.000Z</time>
        <extensions>
          <ns3:TrackPointExtension/>
        </extensions>
      </trkpt>
      <trkpt lat="43.12180601991713047027587890625" lon="13.0097572691738605499267578125">
        <ele>660.4000244140625</ele>
        <time>2019-08-30T07:21:18.000Z</time>
        <extensions>
          <ns3:TrackPointExtension/>
        </extensions>
      </trkpt>
      <trkpt lat="43.12177802436053752899169921875" lon="13.009553588926792144775390625">
        <ele>664.4000244140625</ele>
        <time>2019-08-30T07:21:27.000Z</time>
        <extensions>
          <ns3:TrackPointExtension/>
        </extensions>
      </trkpt>
      <trkpt lat="43.12188447453081607818603515625" lon="13.009355776011943817138671875">
        <ele>666.4000244140625</ele>
        <time>2019-08-30T07:21:36.000Z</time>
        <extensions>
          <ns3:TrackPointExtension/>
        </extensions>
      </trkpt>
      <trkpt lat="43.122001402080059051513671875" lon="13.0091413669288158416748046875">
        <ele>669.5999755859375</ele>
        <time>2019-08-30T07:21:45.000Z</time>
        <extensions>
          <ns3:TrackPointExtension/>
        </extensions>
      </trkpt>
      <trkpt lat="43.12208161689341068267822265625" lon="13.00898990593850612640380859375">
        <ele>672.5999755859375</ele>
        <time>2019-08-30T07:21:51.000Z</time>
        <extensions>
          <ns3:TrackPointExtension/>
        </extensions>
      </trkpt>
      <trkpt lat="43.12209402211010456085205078125" lon="13.00896090455353260040283203125">
        <ele>673.4000244140625</ele>
        <time>2019-08-30T07:21:52.000Z</time>
        <extensions>
          <ns3:TrackPointExtension/>
        </extensions>
      </trkpt>
      <trkpt lat="43.1222205050289630889892578125" lon="13.0087665282189846038818359375">
        <ele>677.20001220703125</ele>
        <time>2019-08-30T07:22:01.000Z</time>
        <extensions>
          <ns3:TrackPointExtension/>
        </extensions>
      </trkpt>
      <trkpt lat="43.122235424816608428955078125" lon="13.00874255597591400146484375">
        <ele>677.79998779296875</ele>
        <time>2019-08-30T07:22:02.000Z</time>
        <extensions>
          <ns3:TrackPointExtension/>
        </extensions>
      </trkpt>
      <trkpt lat="43.122249506413936614990234375" lon="13.0087189190089702606201171875">
        <ele>678.4000244140625</ele>
        <time>2019-08-30T07:22:03.000Z</time>
        <extensions>
          <ns3:TrackPointExtension/>
        </extensions>
      </trkpt>
      <trkpt lat="43.12227624468505382537841796875" lon="13.008670471608638763427734375">
        <ele>679.4000244140625</ele>
        <time>2019-08-30T07:22:05.000Z</time>
        <extensions>
          <ns3:TrackPointExtension/>
        </extensions>
      </trkpt>
      <trkpt lat="43.12233508564531803131103515625" lon="13.00858036614954471588134765625">
        <ele>681.4000244140625</ele>
        <time>2019-08-30T07:22:09.000Z</time>
        <extensions>
          <ns3:TrackPointExtension/>
        </extensions>
      </trkpt>
      <trkpt lat="43.12239392660558223724365234375" lon="13.0085033364593982696533203125">
        <ele>683.20001220703125</ele>
        <time>2019-08-30T07:22:13.000Z</time>
        <extensions>
          <ns3:TrackPointExtension/>
        </extensions>
      </trkpt>
      <trkpt lat="43.1225502490997314453125" lon="13.00837936811149120330810546875">
        <ele>685</ele>
        <time>2019-08-30T07:22:23.000Z</time>
        <extensions>
          <ns3:TrackPointExtension/>
        </extensions>
      </trkpt>
      <trkpt lat="43.122740685939788818359375" lon="13.0083605088293552398681640625">
        <ele>685.4000244140625</ele>
        <time>2019-08-30T07:22:35.000Z</time>
        <extensions>
          <ns3:TrackPointExtension/>
        </extensions>
      </trkpt>
      <trkpt lat="43.12292416580021381378173828125" lon="13.008348606526851654052734375">
        <ele>686.20001220703125</ele>
        <time>2019-08-30T07:22:45.000Z</time>
        <extensions>
          <ns3:TrackPointExtension/>
        </extensions>
      </trkpt>
      <trkpt lat="43.1230617128312587738037109375" lon="13.00832069478929042816162109375">
        <ele>687.4000244140625</ele>
        <time>2019-08-30T07:22:51.000Z</time>
        <extensions>
          <ns3:TrackPointExtension/>
        </extensions>
      </trkpt>
      <trkpt lat="43.12310957349836826324462890625" lon="13.008299656212329864501953125">
        <ele>688.4000244140625</ele>
        <time>2019-08-30T07:22:53.000Z</time>
        <extensions>
          <ns3:TrackPointExtension/>
        </extensions>
      </trkpt>
      <trkpt lat="43.12320093624293804168701171875" lon="13.008278869092464447021484375">
        <ele>689.20001220703125</ele>
        <time>2019-08-30T07:22:57.000Z</time>
        <extensions>
          <ns3:TrackPointExtension/>
        </extensions>
      </trkpt>
      <trkpt lat="43.12322759069502353668212890625" lon="13.008274845778942108154296875">
        <ele>689.4000244140625</ele>
        <time>2019-08-30T07:22:58.000Z</time>
        <extensions>
          <ns3:TrackPointExtension/>
        </extensions>
      </trkpt>
      <trkpt lat="43.12335491180419921875" lon="13.00823285244405269622802734375">
        <ele>690.5999755859375</ele>
        <time>2019-08-30T07:23:04.000Z</time>
        <extensions>
          <ns3:TrackPointExtension/>
        </extensions>
      </trkpt>
      <trkpt lat="43.12337511219084262847900390625" lon="13.0082250572741031646728515625">
        <ele>690.79998779296875</ele>
        <time>2019-08-30T07:23:05.000Z</time>
        <extensions>
          <ns3:TrackPointExtension/>
        </extensions>
      </trkpt>
      <trkpt lat="43.12341199256479740142822265625" lon="13.008212149143218994140625">
        <ele>691</ele>
        <time>2019-08-30T07:23:07.000Z</time>
        <extensions>
          <ns3:TrackPointExtension/>
        </extensions>
      </trkpt>
      <trkpt lat="43.1236008368432521820068359375" lon="13.008178286254405975341796875">
        <ele>691.4000244140625</ele>
        <time>2019-08-30T07:23:17.000Z</time>
        <extensions>
          <ns3:TrackPointExtension/>
        </extensions>
      </trkpt>
      <trkpt lat="43.123791776597499847412109375" lon="13.00813863985240459442138671875">
        <ele>692.20001220703125</ele>
        <time>2019-08-30T07:23:27.000Z</time>
        <extensions>
          <ns3:TrackPointExtension/>
        </extensions>
      </trkpt>
      <trkpt lat="43.12382756732404232025146484375" lon="13.0081211216747760772705078125">
        <ele>692.5999755859375</ele>
        <time>2019-08-30T07:23:29.000Z</time>
        <extensions>
          <ns3:TrackPointExtension/>
        </extensions>
      </trkpt>
      <trkpt lat="43.1238476000726222991943359375" lon="13.00811131484806537628173828125">
        <ele>692.79998779296875</ele>
        <time>2019-08-30T07:23:30.000Z</time>
        <extensions>
          <ns3:TrackPointExtension/>
        </extensions>
      </trkpt>
      <trkpt lat="43.123930580914020538330078125" lon="13.00808063708245754241943359375">
        <ele>693.5999755859375</ele>
        <time>2019-08-30T07:23:34.000Z</time>
        <extensions>
          <ns3:TrackPointExtension/>
        </extensions>
      </trkpt>
      <trkpt lat="43.123948685824871063232421875" lon="13.00807225517928600311279296875">
        <ele>693.4000244140625</ele>
        <time>2019-08-30T07:23:35.000Z</time>
        <extensions>
          <ns3:TrackPointExtension/>
        </extensions>
      </trkpt>
      <trkpt lat="43.12411330640316009521484375" lon="13.007940240204334259033203125">
        <ele>692.5999755859375</ele>
        <time>2019-08-30T07:23:44.000Z</time>
        <extensions>
          <ns3:TrackPointExtension/>
        </extensions>
      </trkpt>
      <trkpt lat="43.12412680126726627349853515625" lon="13.0079159326851367950439453125">
        <ele>692.79998779296875</ele>
        <time>2019-08-30T07:23:45.000Z</time>
        <extensions>
          <ns3:TrackPointExtension/>
        </extensions>
      </trkpt>
      <trkpt lat="43.12413970939815044403076171875" lon="13.0078916251659393310546875">
        <ele>693</ele>
        <time>2019-08-30T07:23:46.000Z</time>
        <extensions>
          <ns3:TrackPointExtension/>
        </extensions>
      </trkpt>
      <trkpt lat="43.12417172826826572418212890625" lon="13.00782079808413982391357421875">
        <ele>693.5999755859375</ele>
        <time>2019-08-30T07:23:49.000Z</time>
        <extensions>
          <ns3:TrackPointExtension/>
        </extensions>
      </trkpt>
      <trkpt lat="43.12418815679848194122314453125" lon="13.00776799209415912628173828125">
        <ele>694.20001220703125</ele>
        <time>2019-08-30T07:23:51.000Z</time>
        <extensions>
          <ns3:TrackPointExtension/>
        </extensions>
      </trkpt>
      <trkpt lat="43.12423040159046649932861328125" lon="13.00760286860167980194091796875">
        <ele>696.4000244140625</ele>
        <time>2019-08-30T07:23:57.000Z</time>
        <extensions>
          <ns3:TrackPointExtension/>
        </extensions>
      </trkpt>
      <trkpt lat="43.12423392198979854583740234375" lon="13.0075724422931671142578125">
        <ele>696.79998779296875</ele>
        <time>2019-08-30T07:23:58.000Z</time>
        <extensions>
          <ns3:TrackPointExtension/>
        </extensions>
      </trkpt>
      <trkpt lat="43.12424230389297008514404296875" lon="13.00744034349918365478515625">
        <ele>699</ele>
        <time>2019-08-30T07:24:02.000Z</time>
        <extensions>
          <ns3:TrackPointExtension/>
        </extensions>
      </trkpt>
      <trkpt lat="43.1242539547383785247802734375" lon="13.00731453113257884979248046875">
        <ele>700.79998779296875</ele>
        <time>2019-08-30T07:24:06.000Z</time>
        <extensions>
          <ns3:TrackPointExtension/>
        </extensions>
      </trkpt>
      <trkpt lat="43.12425320036709308624267578125" lon="13.0072849430143833160400390625">
        <ele>701.4000244140625</ele>
        <time>2019-08-30T07:24:07.000Z</time>
        <extensions>
          <ns3:TrackPointExtension/>
        </extensions>
      </trkpt>
      <trkpt lat="43.124226629734039306640625" lon="13.0070365034043788909912109375">
        <ele>706</ele>
        <time>2019-08-30T07:24:16.000Z</time>
        <extensions>
          <ns3:TrackPointExtension/>
        </extensions>
      </trkpt>
      <trkpt lat="43.12407215125858783721923828125" lon="13.0069459788501262664794921875">
        <ele>710</ele>
        <time>2019-08-30T07:24:25.000Z</time>
        <extensions>
          <ns3:TrackPointExtension/>
        </extensions>
      </trkpt>
      <trkpt lat="43.1239919364452362060546875" lon="13.00707698799669742584228515625">
        <ele>709.20001220703125</ele>
        <time>2019-08-30T07:24:31.000Z</time>
        <extensions>
          <ns3:TrackPointExtension/>
        </extensions>
      </trkpt>
      <trkpt lat="43.12395715154707431793212890625" lon="13.0073385871946811676025390625">
        <ele>705.5999755859375</ele>
        <time>2019-08-30T07:24:40.000Z</time>
        <extensions>
          <ns3:TrackPointExtension/>
        </extensions>
      </trkpt>
      <trkpt lat="43.1239525415003299713134765625" lon="13.00736834295094013214111328125">
        <ele>705.20001220703125</ele>
        <time>2019-08-30T07:24:41.000Z</time>
        <extensions>
          <ns3:TrackPointExtension/>
        </extensions>
      </trkpt>
      <trkpt lat="43.12382371164858341217041015625" lon="13.00748954527080059051513671875">
        <ele>706</ele>
        <time>2019-08-30T07:24:50.000Z</time>
        <extensions>
          <ns3:TrackPointExtension/>
        </extensions>
      </trkpt>
      <trkpt lat="43.12378666363656520843505859375" lon="13.0073717795312404632568359375">
        <ele>708.4000244140625</ele>
        <time>2019-08-30T07:24:55.000Z</time>
        <extensions>
          <ns3:TrackPointExtension/>
        </extensions>
      </trkpt>
      <trkpt lat="43.12378347851336002349853515625" lon="13.00734319724142551422119140625">
        <ele>708.79998779296875</ele>
        <time>2019-08-30T07:24:56.000Z</time>
        <extensions>
          <ns3:TrackPointExtension/>
        </extensions>
      </trkpt>
      <trkpt lat="43.12378834001719951629638671875" lon="13.0071722902357578277587890625">
        <ele>711.20001220703125</ele>
        <time>2019-08-30T07:25:02.000Z</time>
        <extensions>
          <ns3:TrackPointExtension/>
        </extensions>
      </trkpt>
      <trkpt lat="43.12379135750234127044677734375" lon="13.0071427859365940093994140625">
        <ele>711.5999755859375</ele>
        <time>2019-08-30T07:25:03.000Z</time>
        <extensions>
          <ns3:TrackPointExtension/>
        </extensions>
      </trkpt>
      <trkpt lat="43.123804517090320587158203125" lon="13.00703172571957111358642578125">
        <ele>713.20001220703125</ele>
        <time>2019-08-30T07:25:07.000Z</time>
        <extensions>
          <ns3:TrackPointExtension/>
        </extensions>
      </trkpt>
      <trkpt lat="43.1238077022135257720947265625" lon="13.00700155086815357208251953125">
        <ele>713.5999755859375</ele>
        <time>2019-08-30T07:25:08.000Z</time>
        <extensions>
          <ns3:TrackPointExtension/>
        </extensions>
      </trkpt>
      <trkpt lat="43.12383460812270641326904296875" lon="13.006747998297214508056640625">
        <ele>717.4000244140625</ele>
        <time>2019-08-30T07:25:17.000Z</time>
        <extensions>
          <ns3:TrackPointExtension/>
        </extensions>
      </trkpt>
      <trkpt lat="43.12385690398514270782470703125" lon="13.0066184140741825103759765625">
        <ele>718.5999755859375</ele>
        <time>2019-08-30T07:25:22.000Z</time>
        <extensions>
          <ns3:TrackPointExtension/>
        </extensions>
      </trkpt>
      <trkpt lat="43.1238623522222042083740234375" lon="13.00659033469855785369873046875">
        <ele>718.79998779296875</ele>
        <time>2019-08-30T07:25:23.000Z</time>
        <extensions>
          <ns3:TrackPointExtension/>
        </extensions>
      </trkpt>
      <trkpt lat="43.12390769831836223602294921875" lon="13.0064997263252735137939453125">
        <ele>719.20001220703125</ele>
        <time>2019-08-30T07:25:27.000Z</time>
        <extensions>
          <ns3:TrackPointExtension/>
        </extensions>
      </trkpt>
      <trkpt lat="43.12407013960182666778564453125" lon="13.00638355314731597900390625">
        <ele>720</ele>
        <time>2019-08-30T07:25:36.000Z</time>
        <extensions>
          <ns3:TrackPointExtension/>
        </extensions>
      </trkpt>
      <trkpt lat="43.12422931194305419921875" lon="13.0063927732408046722412109375">
        <ele>719.20001220703125</ele>
        <time>2019-08-30T07:25:45.000Z</time>
        <extensions>
          <ns3:TrackPointExtension/>
        </extensions>
      </trkpt>
      <trkpt lat="43.12424934469163417816162109375" lon="13.00639553926885128021240234375">
        <ele>719</ele>
        <time>2019-08-30T07:25:46.000Z</time>
        <extensions>
          <ns3:TrackPointExtension/>
        </extensions>
      </trkpt>
      <trkpt lat="43.1244336627423763275146484375" lon="13.00640425644814968109130859375">
        <ele>718.4000244140625</ele>
        <time>2019-08-30T07:25:55.000Z</time>
        <extensions>
          <ns3:TrackPointExtension/>
        </extensions>
      </trkpt>
      <trkpt lat="43.12455117702484130859375" lon="13.00638380460441112518310546875">
        <ele>718.5999755859375</ele>
        <time>2019-08-30T07:26:01.000Z</time>
        <extensions>
          <ns3:TrackPointExtension/>
        </extensions>
      </trkpt>
      <trkpt lat="43.12457070685923099517822265625" lon="13.0063776858150959014892578125">
        <ele>718.5999755859375</ele>
        <time>2019-08-30T07:26:02.000Z</time>
        <extensions>
          <ns3:TrackPointExtension/>
        </extensions>
      </trkpt>
      <trkpt lat="43.12467615120112895965576171875" lon="13.0063602514564990997314453125">
        <ele>718.79998779296875</ele>
        <time>2019-08-30T07:26:07.000Z</time>
        <extensions>
          <ns3:TrackPointExtension/>
        </extensions>
      </trkpt>
      <trkpt lat="43.1246968545019626617431640625" lon="13.00635798834264278411865234375">
        <ele>718.79998779296875</ele>
        <time>2019-08-30T07:26:08.000Z</time>
        <extensions>
          <ns3:TrackPointExtension/>
        </extensions>
      </trkpt>
      <trkpt lat="43.12477556057274341583251953125" lon="13.0063320882618427276611328125">
        <ele>720.20001220703125</ele>
        <time>2019-08-30T07:26:12.000Z</time>
        <extensions>
          <ns3:TrackPointExtension/>
        </extensions>
      </trkpt>
      <trkpt lat="43.1248155422508716583251953125" lon="13.00631809048354625701904296875">
        <ele>720.79998779296875</ele>
        <time>2019-08-30T07:26:14.000Z</time>
        <extensions>
          <ns3:TrackPointExtension/>
        </extensions>
      </trkpt>
      <trkpt lat="43.12499466352164745330810546875" lon="13.00623477436602115631103515625">
        <ele>724.5999755859375</ele>
        <time>2019-08-30T07:26:23.000Z</time>
        <extensions>
          <ns3:TrackPointExtension/>
        </extensions>
      </trkpt>
      <trkpt lat="43.12517420388758182525634765625" lon="13.0061319284141063690185546875">
        <ele>728</ele>
        <time>2019-08-30T07:26:32.000Z</time>
        <extensions>
          <ns3:TrackPointExtension/>
        </extensions>
      </trkpt>
      <trkpt lat="43.125212676823139190673828125" lon="13.0060990713536739349365234375">
        <ele>728.79998779296875</ele>
        <time>2019-08-30T07:26:34.000Z</time>
        <extensions>
          <ns3:TrackPointExtension/>
        </extensions>
      </trkpt>
      <trkpt lat="43.1252324581146240234375" lon="13.00608071498572826385498046875">
        <ele>729.20001220703125</ele>
        <time>2019-08-30T07:26:35.000Z</time>
        <extensions>
          <ns3:TrackPointExtension/>
        </extensions>
      </trkpt>
      <trkpt lat="43.12533094547688961029052734375" lon="13.00597795285284519195556640625">
        <ele>730.5999755859375</ele>
        <time>2019-08-30T07:26:40.000Z</time>
        <extensions>
          <ns3:TrackPointExtension/>
        </extensions>
      </trkpt>
      <trkpt lat="43.12535114586353302001953125" lon="13.00595934502780437469482421875">
        <ele>730.79998779296875</ele>
        <time>2019-08-30T07:26:41.000Z</time>
        <extensions>
          <ns3:TrackPointExtension/>
        </extensions>
      </trkpt>
      <trkpt lat="43.12551434151828289031982421875" lon="13.00584065727889537811279296875">
        <ele>731</ele>
        <time>2019-08-30T07:26:49.000Z</time>
        <extensions>
          <ns3:TrackPointExtension/>
        </extensions>
      </trkpt>
      <trkpt lat="43.12566990964114665985107421875" lon="13.00568408332765102386474609375">
        <ele>732.4000244140625</ele>
        <time>2019-08-30T07:26:58.000Z</time>
        <extensions>
          <ns3:TrackPointExtension/>
        </extensions>
      </trkpt>
      <trkpt lat="43.1257995776832103729248046875" lon="13.00550202839076519012451171875">
        <ele>735.4000244140625</ele>
        <time>2019-08-30T07:27:07.000Z</time>
        <extensions>
          <ns3:TrackPointExtension/>
        </extensions>
      </trkpt>
      <trkpt lat="43.12593293376266956329345703125" lon="13.00530404783785343170166015625">
        <ele>739</ele>
        <time>2019-08-30T07:27:17.000Z</time>
        <extensions>
          <ns3:TrackPointExtension/>
        </extensions>
      </trkpt>
      <trkpt lat="43.1259481050074100494384765625" lon="13.00528544001281261444091796875">
        <ele>739.20001220703125</ele>
        <time>2019-08-30T07:27:18.000Z</time>
        <extensions>
          <ns3:TrackPointExtension/>
        </extensions>
      </trkpt>
      <trkpt lat="43.12596327625215053558349609375" lon="13.00526800565421581268310546875">
        <ele>739.20001220703125</ele>
        <time>2019-08-30T07:27:19.000Z</time>
        <extensions>
          <ns3:TrackPointExtension/>
        </extensions>
      </trkpt>
      <trkpt lat="43.12606461346149444580078125" lon="13.005050830543041229248046875">
        <ele>742.79998779296875</ele>
        <time>2019-08-30T07:27:28.000Z</time>
        <extensions>
          <ns3:TrackPointExtension/>
        </extensions>
      </trkpt>
      <trkpt lat="43.12607727013528347015380859375" lon="13.00502627156674861907958984375">
        <ele>743.4000244140625</ele>
        <time>2019-08-30T07:27:29.000Z</time>
        <extensions>
          <ns3:TrackPointExtension/>
        </extensions>
      </trkpt>
      <trkpt lat="43.12608749605715274810791015625" lon="13.00499928183853626251220703125">
        <ele>744.20001220703125</ele>
        <time>2019-08-30T07:27:30.000Z</time>
        <extensions>
          <ns3:TrackPointExtension/>
        </extensions>
      </trkpt>
      <trkpt lat="43.1261335127055644989013671875" lon="13.00486668013036251068115234375">
        <ele>748</ele>
        <time>2019-08-30T07:27:35.000Z</time>
        <extensions>
          <ns3:TrackPointExtension/>
        </extensions>
      </trkpt>
      <trkpt lat="43.12621079385280609130859375" lon="13.0047348327934741973876953125">
        <ele>750.79998779296875</ele>
        <time>2019-08-30T07:27:41.000Z</time>
        <extensions>
          <ns3:TrackPointExtension/>
        </extensions>
      </trkpt>
      <trkpt lat="43.1262216903269290924072265625" lon="13.00471178255975246429443359375">
        <ele>751.4000244140625</ele>
        <time>2019-08-30T07:27:42.000Z</time>
        <extensions>
          <ns3:TrackPointExtension/>
        </extensions>
      </trkpt>
      <trkpt lat="43.1263055093586444854736328125" lon="13.00455956719815731048583984375">
        <ele>755.20001220703125</ele>
        <time>2019-08-30T07:27:49.000Z</time>
        <extensions>
          <ns3:TrackPointExtension/>
        </extensions>
      </trkpt>
      <trkpt lat="43.126320429146289825439453125" lon="13.0045440606772899627685546875">
        <ele>755.4000244140625</ele>
        <time>2019-08-30T07:27:50.000Z</time>
        <extensions>
          <ns3:TrackPointExtension/>
        </extensions>
      </trkpt>
      <trkpt lat="43.12641606666147708892822265625" lon="13.00444909371435642242431640625">
        <ele>756.79998779296875</ele>
        <time>2019-08-30T07:27:56.000Z</time>
        <extensions>
          <ns3:TrackPointExtension/>
        </extensions>
      </trkpt>
      <trkpt lat="43.12643283046782016754150390625" lon="13.0044350959360599517822265625">
        <ele>757</ele>
        <time>2019-08-30T07:27:57.000Z</time>
        <extensions>
          <ns3:TrackPointExtension/>
        </extensions>
      </trkpt>
      <trkpt lat="43.12646694481372833251953125" lon="13.00441187806427478790283203125">
        <ele>757.20001220703125</ele>
        <time>2019-08-30T07:27:59.000Z</time>
        <extensions>
          <ns3:TrackPointExtension/>
        </extensions>
      </trkpt>
      <trkpt lat="43.12653559260070323944091796875" lon="13.00436946563422679901123046875">
        <ele>757.20001220703125</ele>
        <time>2019-08-30T07:28:03.000Z</time>
        <extensions>
          <ns3:TrackPointExtension/>
        </extensions>
      </trkpt>
      <trkpt lat="43.12663014046847820281982421875" lon="13.00432621501386165618896484375">
        <ele>756.4000244140625</ele>
        <time>2019-08-30T07:28:08.000Z</time>
        <extensions>
          <ns3:TrackPointExtension/>
        </extensions>
      </trkpt>
      <trkpt lat="43.12664799392223358154296875" lon="13.0043216049671173095703125">
        <ele>756.20001220703125</ele>
        <time>2019-08-30T07:28:09.000Z</time>
        <extensions>
          <ns3:TrackPointExtension/>
        </extensions>
      </trkpt>
      <trkpt lat="43.12668747268617153167724609375" lon="13.0043130554258823394775390625">
        <ele>755.5999755859375</ele>
        <time>2019-08-30T07:28:11.000Z</time>
        <extensions>
          <ns3:TrackPointExtension/>
        </extensions>
      </trkpt>
      <trkpt lat="43.12683231197297573089599609375" lon="13.00430576317012310028076171875">
        <ele>753.5999755859375</ele>
        <time>2019-08-30T07:28:19.000Z</time>
        <extensions>
          <ns3:TrackPointExtension/>
        </extensions>
      </trkpt>
      <trkpt lat="43.126847483217716217041015625" lon="13.00430341623723506927490234375">
        <ele>753.5999755859375</ele>
        <time>2019-08-30T07:28:20.000Z</time>
        <extensions>
          <ns3:TrackPointExtension/>
        </extensions>
      </trkpt>
      <trkpt lat="43.1270121037960052490234375" lon="13.00430710427463054656982421875">
        <ele>752</ele>
        <time>2019-08-30T07:28:28.000Z</time>
        <extensions>
          <ns3:TrackPointExtension/>
        </extensions>
      </trkpt>
      <trkpt lat="43.12703515402972698211669921875" lon="13.004303835332393646240234375">
        <ele>752</ele>
        <time>2019-08-30T07:28:29.000Z</time>
        <extensions>
          <ns3:TrackPointExtension/>
        </extensions>
      </trkpt>
      <trkpt lat="43.12722475267946720123291015625" lon="13.00428078509867191314697265625">
        <ele>751.20001220703125</ele>
        <time>2019-08-30T07:28:37.000Z</time>
        <extensions>
          <ns3:TrackPointExtension/>
        </extensions>
      </trkpt>
      <trkpt lat="43.1273971684277057647705078125" lon="13.00418254919350147247314453125">
        <ele>753.79998779296875</ele>
        <time>2019-08-30T07:28:45.000Z</time>
        <extensions>
          <ns3:TrackPointExtension/>
        </extensions>
      </trkpt>
      <trkpt lat="43.1275591067969799041748046875" lon="13.0040337704122066497802734375">
        <ele>756.79998779296875</ele>
        <time>2019-08-30T07:28:54.000Z</time>
        <extensions>
          <ns3:TrackPointExtension/>
        </extensions>
      </trkpt>
      <trkpt lat="43.12763630412518978118896484375" lon="13.0039729177951812744140625">
        <ele>757</ele>
        <time>2019-08-30T07:28:58.000Z</time>
        <extensions>
          <ns3:TrackPointExtension/>
        </extensions>
      </trkpt>
      <trkpt lat="43.12765407375991344451904296875" lon="13.00395858474075794219970703125">
        <ele>757</ele>
        <time>2019-08-30T07:28:59.000Z</time>
        <extensions>
          <ns3:TrackPointExtension/>
        </extensions>
      </trkpt>
      <trkpt lat="43.12773420475423336029052734375" lon="13.003906868398189544677734375">
        <ele>756.79998779296875</ele>
        <time>2019-08-30T07:29:03.000Z</time>
        <extensions>
          <ns3:TrackPointExtension/>
        </extensions>
      </trkpt>
      <trkpt lat="43.12777376733720302581787109375" lon="13.00388549454510211944580078125">
        <ele>756.5999755859375</ele>
        <time>2019-08-30T07:29:05.000Z</time>
        <extensions>
          <ns3:TrackPointExtension/>
        </extensions>
      </trkpt>
      <trkpt lat="43.1279361248016357421875" lon="13.00379228778183460235595703125">
        <ele>755.79998779296875</ele>
        <time>2019-08-30T07:29:13.000Z</time>
        <extensions>
          <ns3:TrackPointExtension/>
        </extensions>
      </trkpt>
      <trkpt lat="43.127955906093120574951171875" lon="13.0037809722125530242919921875">
        <ele>755.5999755859375</ele>
        <time>2019-08-30T07:29:14.000Z</time>
        <extensions>
          <ns3:TrackPointExtension/>
        </extensions>
      </trkpt>
      <trkpt lat="43.12799203209578990936279296875" lon="13.00375507213175296783447265625">
        <ele>755.79998779296875</ele>
        <time>2019-08-30T07:29:16.000Z</time>
        <extensions>
          <ns3:TrackPointExtension/>
        </extensions>
      </trkpt>
      <trkpt lat="43.12814533710479736328125" lon="13.003634624183177947998046875">
        <ele>756.5999755859375</ele>
        <time>2019-08-30T07:29:24.000Z</time>
        <extensions>
          <ns3:TrackPointExtension/>
        </extensions>
      </trkpt>
      <trkpt lat="43.12816469930112361907958984375" lon="13.00361526198685169219970703125">
        <ele>757</ele>
        <time>2019-08-30T07:29:25.000Z</time>
        <extensions>
          <ns3:TrackPointExtension/>
        </extensions>
      </trkpt>
      <trkpt lat="43.12830383889377117156982421875" lon="13.0034185387194156646728515625">
        <ele>760.79998779296875</ele>
        <time>2019-08-30T07:29:34.000Z</time>
        <extensions>
          <ns3:TrackPointExtension/>
        </extensions>
      </trkpt>
      <trkpt lat="43.128423951566219329833984375" lon="13.003218881785869598388671875">
        <ele>761.20001220703125</ele>
        <time>2019-08-30T07:29:43.000Z</time>
        <extensions>
          <ns3:TrackPointExtension/>
        </extensions>
      </trkpt>
      <trkpt lat="43.1284375302493572235107421875" lon="13.0031959153711795806884765625">
        <ele>761.4000244140625</ele>
        <time>2019-08-30T07:29:44.000Z</time>
        <extensions>
          <ns3:TrackPointExtension/>
        </extensions>
      </trkpt>
      <trkpt lat="43.128573484718799591064453125" lon="13.00303406082093715667724609375">
        <ele>760</ele>
        <time>2019-08-30T07:29:52.000Z</time>
        <extensions>
          <ns3:TrackPointExtension/>
        </extensions>
      </trkpt>
      <trkpt lat="43.128613717854022979736328125" lon="13.0030017904937267303466796875">
        <ele>759.20001220703125</ele>
        <time>2019-08-30T07:29:54.000Z</time>
        <extensions>
          <ns3:TrackPointExtension/>
        </extensions>
      </trkpt>
      <trkpt lat="43.1286326609551906585693359375" lon="13.002984523773193359375">
        <ele>759</ele>
        <time>2019-08-30T07:29:55.000Z</time>
        <extensions>
          <ns3:TrackPointExtension/>
        </extensions>
      </trkpt>
      <trkpt lat="43.1286842934787273406982421875" lon="13.00294320099055767059326171875">
        <ele>758</ele>
        <time>2019-08-30T07:29:58.000Z</time>
        <extensions>
          <ns3:TrackPointExtension/>
        </extensions>
      </trkpt>
      <trkpt lat="43.12885302118957042694091796875" lon="13.0028463900089263916015625">
        <ele>755.5999755859375</ele>
        <time>2019-08-30T07:30:07.000Z</time>
        <extensions>
          <ns3:TrackPointExtension/>
        </extensions>
      </trkpt>
      <trkpt lat="43.129026778042316436767578125" lon="13.00276785157620906829833984375">
        <ele>753.4000244140625</ele>
        <time>2019-08-30T07:30:16.000Z</time>
        <extensions>
          <ns3:TrackPointExtension/>
        </extensions>
      </trkpt>
      <trkpt lat="43.1291060708463191986083984375" lon="13.00265729427337646484375">
        <ele>754.20001220703125</ele>
        <time>2019-08-30T07:30:21.000Z</time>
        <extensions>
          <ns3:TrackPointExtension/>
        </extensions>
      </trkpt>
      <trkpt lat="43.12911830842494964599609375" lon="13.0026318132877349853515625">
        <ele>754.4000244140625</ele>
        <time>2019-08-30T07:30:22.000Z</time>
        <extensions>
          <ns3:TrackPointExtension/>
        </extensions>
      </trkpt>
      <trkpt lat="43.12914705835282802581787109375" lon="13.0023904144763946533203125">
        <ele>750.4000244140625</ele>
        <time>2019-08-30T07:30:31.000Z</time>
        <extensions>
          <ns3:TrackPointExtension/>
        </extensions>
      </trkpt>
      <trkpt lat="43.1290195696055889129638671875" lon="13.00218732096254825592041015625">
        <ele>748.5999755859375</ele>
        <time>2019-08-30T07:30:40.000Z</time>
        <extensions>
          <ns3:TrackPointExtension/>
        </extensions>
      </trkpt>
      <trkpt lat="43.12885369174182415008544921875" lon="13.002074919641017913818359375">
        <ele>749.20001220703125</ele>
        <time>2019-08-30T07:30:48.000Z</time>
        <extensions>
          <ns3:TrackPointExtension/>
        </extensions>
      </trkpt>
      <trkpt lat="43.12876316718757152557373046875" lon="13.00205178558826446533203125">
        <ele>750.4000244140625</ele>
        <time>2019-08-30T07:30:52.000Z</time>
        <extensions>
          <ns3:TrackPointExtension/>
        </extensions>
      </trkpt>
      <trkpt lat="43.12874036841094493865966796875" lon="13.0020469240844249725341796875">
        <ele>750.5999755859375</ele>
        <time>2019-08-30T07:30:53.000Z</time>
        <extensions>
          <ns3:TrackPointExtension/>
        </extensions>
      </trkpt>
      <trkpt lat="43.12854255549609661102294921875" lon="13.00201884470880031585693359375">
        <ele>754.4000244140625</ele>
        <time>2019-08-30T07:31:03.000Z</time>
        <extensions>
          <ns3:TrackPointExtension/>
        </extensions>
      </trkpt>
      <trkpt lat="43.128419257700443267822265625" lon="13.00203577615320682525634765625">
        <ele>757.4000244140625</ele>
        <time>2019-08-30T07:31:09.000Z</time>
        <extensions>
          <ns3:TrackPointExtension/>
        </extensions>
      </trkpt>
      <trkpt lat="43.1283993087708950042724609375" lon="13.002042733132839202880859375">
        <ele>758</ele>
        <time>2019-08-30T07:31:10.000Z</time>
        <extensions>
          <ns3:TrackPointExtension/>
        </extensions>
      </trkpt>
      <trkpt lat="43.1283218599855899810791015625" lon="13.00207366235554218292236328125">
        <ele>760</ele>
        <time>2019-08-30T07:31:14.000Z</time>
        <extensions>
          <ns3:TrackPointExtension/>
        </extensions>
      </trkpt>
      <trkpt lat="43.1282993964850902557373046875" lon="13.00208975560963153839111328125">
        <ele>760.79998779296875</ele>
        <time>2019-08-30T07:31:15.000Z</time>
        <extensions>
          <ns3:TrackPointExtension/>
        </extensions>
      </trkpt>
      <trkpt lat="43.12816486693918704986572265625" lon="13.00221950747072696685791015625">
        <ele>766</ele>
        <time>2019-08-30T07:31:23.000Z</time>
        <extensions>
          <ns3:TrackPointExtension/>
        </extensions>
      </trkpt>
      <trkpt lat="43.1281485222280025482177734375" lon="13.00223912112414836883544921875">
        <ele>766.79998779296875</ele>
        <time>2019-08-30T07:31:24.000Z</time>
        <extensions>
          <ns3:TrackPointExtension/>
        </extensions>
      </trkpt>
      <trkpt lat="43.1280710734426975250244140625" lon="13.00247867591679096221923828125">
        <ele>773.4000244140625</ele>
        <time>2019-08-30T07:31:33.000Z</time>
        <extensions>
          <ns3:TrackPointExtension/>
        </extensions>
      </trkpt>
      <trkpt lat="43.12807702459394931793212890625" lon="13.0025961063802242279052734375">
        <ele>775.5999755859375</ele>
        <time>2019-08-30T07:31:37.000Z</time>
        <extensions>
          <ns3:TrackPointExtension/>
        </extensions>
      </trkpt>
      <trkpt lat="43.12809504568576812744140625" lon="13.00284974277019500732421875">
        <ele>771.4000244140625</ele>
        <time>2019-08-30T07:31:47.000Z</time>
        <extensions>
          <ns3:TrackPointExtension/>
        </extensions>
      </trkpt>
      <trkpt lat="43.1280958838760852813720703125" lon="13.00286357291042804718017578125">
        <ele>771.20001220703125</ele>
        <time>2019-08-30T07:31:48.000Z</time>
        <extensions>
          <ns3:TrackPointExtension/>
        </extensions>
      </trkpt>
      <trkpt lat="43.1281260587275028228759765625" lon="13.00290866754949092864990234375">
        <ele>770</ele>
        <time>2019-08-30T07:33:10.000Z</time>
        <extensions>
          <ns3:TrackPointExtension/>
        </extensions>
      </trkpt>
      <trkpt lat="43.12809647060930728912353515625" lon="13.00294387154281139373779296875">
        <ele>769.79998779296875</ele>
        <time>2019-08-30T07:33:33.000Z</time>
        <extensions>
          <ns3:TrackPointExtension/>
        </extensions>
      </trkpt>
      <trkpt lat="43.1281344406306743621826171875" lon="13.0029080808162689208984375">
        <ele>770</ele>
        <time>2019-08-30T07:34:19.000Z</time>
        <extensions>
          <ns3:TrackPointExtension/>
        </extensions>
      </trkpt>
      <trkpt lat="43.128105439245700836181640625" lon="13.00289324484765529632568359375">
        <ele>770.5999755859375</ele>
        <time>2019-08-30T07:35:22.000Z</time>
        <extensions>
          <ns3:TrackPointExtension/>
        </extensions>
      </trkpt>
      <trkpt lat="43.12812664546072483062744140625" lon="13.0029136128723621368408203125">
        <ele>770</ele>
        <time>2019-08-30T07:37:13.000Z</time>
        <extensions>
          <ns3:TrackPointExtension/>
        </extensions>
      </trkpt>
      <trkpt lat="43.12812144868075847625732421875" lon="13.0028951726853847503662109375">
        <ele>770.4000244140625</ele>
        <time>2019-08-30T07:37:44.000Z</time>
        <extensions>
          <ns3:TrackPointExtension/>
        </extensions>
      </trkpt>
      <trkpt lat="43.12812463380396366119384765625" lon="13.0028820969164371490478515625">
        <ele>770.4000244140625</ele>
        <time>2019-08-30T07:37:59.000Z</time>
        <extensions>
          <ns3:TrackPointExtension/>
        </extensions>
      </trkpt>
      <trkpt lat="43.12808238901197910308837890625" lon="13.00293180160224437713623046875">
        <ele>770.20001220703125</ele>
        <time>2019-08-30T07:38:50.000Z</time>
        <extensions>
          <ns3:TrackPointExtension/>
        </extensions>
      </trkpt>
      <trkpt lat="43.1280509568750858306884765625" lon="13.0029699392616748809814453125">
        <ele>770</ele>
        <time>2019-08-30T07:38:54.000Z</time>
        <extensions>
          <ns3:TrackPointExtension/>
        </extensions>
      </trkpt>
      <trkpt lat="43.128043077886104583740234375" lon="13.00298024900257587432861328125">
        <ele>770</ele>
        <time>2019-08-30T07:38:55.000Z</time>
        <extensions>
          <ns3:TrackPointExtension/>
        </extensions>
      </trkpt>
      <trkpt lat="43.1279453448951244354248046875" lon="13.0030852742493152618408203125">
        <ele>770.79998779296875</ele>
        <time>2019-08-30T07:39:06.000Z</time>
        <extensions>
          <ns3:TrackPointExtension/>
        </extensions>
      </trkpt>
      <trkpt lat="43.12793235294520854949951171875" lon="13.0030943267047405242919921875">
        <ele>771</ele>
        <time>2019-08-30T07:39:07.000Z</time>
        <extensions>
          <ns3:TrackPointExtension/>
        </extensions>
      </trkpt>
      <trkpt lat="43.12787376344203948974609375" lon="13.00312324427068233489990234375">
        <ele>772</ele>
        <time>2019-08-30T07:39:11.000Z</time>
        <extensions>
          <ns3:TrackPointExtension/>
        </extensions>
      </trkpt>
      <trkpt lat="43.1277753598988056182861328125" lon="13.00315492786467075347900390625">
        <ele>773.79998779296875</ele>
        <time>2019-08-30T07:39:17.000Z</time>
        <extensions>
          <ns3:TrackPointExtension/>
        </extensions>
      </trkpt>
      <trkpt lat="43.12775482423603534698486328125" lon="13.003158867359161376953125">
        <ele>774.20001220703125</ele>
        <time>2019-08-30T07:39:18.000Z</time>
        <extensions>
          <ns3:TrackPointExtension/>
        </extensions>
      </trkpt>
      <trkpt lat="43.12760889530181884765625" lon="13.00320605747401714324951171875">
        <ele>776.5999755859375</ele>
        <time>2019-08-30T07:39:25.000Z</time>
        <extensions>
          <ns3:TrackPointExtension/>
        </extensions>
      </trkpt>
      <trkpt lat="43.12758819200098514556884765625" lon="13.00320622511208057403564453125">
        <ele>777.4000244140625</ele>
        <time>2019-08-30T07:39:26.000Z</time>
        <extensions>
          <ns3:TrackPointExtension/>
        </extensions>
      </trkpt>
      <trkpt lat="43.127393983304500579833984375" lon="13.0032465420663356781005859375">
        <ele>783.4000244140625</ele>
        <time>2019-08-30T07:39:36.000Z</time>
        <extensions>
          <ns3:TrackPointExtension/>
        </extensions>
      </trkpt>
      <trkpt lat="43.12737177126109600067138671875" lon="13.00324897281825542449951171875">
        <ele>783.79998779296875</ele>
        <time>2019-08-30T07:39:37.000Z</time>
        <extensions>
          <ns3:TrackPointExtension/>
        </extensions>
      </trkpt>
      <trkpt lat="43.12717630527913570404052734375" lon="13.00322416238486766815185546875">
        <ele>788.5999755859375</ele>
        <time>2019-08-30T07:39:47.000Z</time>
        <extensions>
          <ns3:TrackPointExtension/>
        </extensions>
      </trkpt>
      <trkpt lat="43.126989305019378662109375" lon="13.003202117979526519775390625">
        <ele>793.20001220703125</ele>
        <time>2019-08-30T07:39:56.000Z</time>
        <extensions>
          <ns3:TrackPointExtension/>
        </extensions>
      </trkpt>
      <trkpt lat="43.12690087594091892242431640625" lon="13.00319842994213104248046875">
        <ele>795.20001220703125</ele>
        <time>2019-08-30T07:40:00.000Z</time>
        <extensions>
          <ns3:TrackPointExtension/>
        </extensions>
      </trkpt>
      <trkpt lat="43.1268798373639583587646484375" lon="13.00319834612309932708740234375">
        <ele>795.5999755859375</ele>
        <time>2019-08-30T07:40:01.000Z</time>
        <extensions>
          <ns3:TrackPointExtension/>
        </extensions>
      </trkpt>
      <trkpt lat="43.126699961721897125244140625" lon="13.00321276299655437469482421875">
        <ele>800.4000244140625</ele>
        <time>2019-08-30T07:40:09.000Z</time>
        <extensions>
          <ns3:TrackPointExtension/>
        </extensions>
      </trkpt>
      <trkpt lat="43.1266500055789947509765625" lon="13.00320924259722232818603515625">
        <ele>802.20001220703125</ele>
        <time>2019-08-30T07:40:11.000Z</time>
        <extensions>
          <ns3:TrackPointExtension/>
        </extensions>
      </trkpt>
      <trkpt lat="43.12662653625011444091796875" lon="13.0032116733491420745849609375">
        <ele>803</ele>
        <time>2019-08-30T07:40:12.000Z</time>
        <extensions>
          <ns3:TrackPointExtension/>
        </extensions>
      </trkpt>
      <trkpt lat="43.12651011161506175994873046875" lon="13.00322885625064373016357421875">
        <ele>806.4000244140625</ele>
        <time>2019-08-30T07:40:17.000Z</time>
        <extensions>
          <ns3:TrackPointExtension/>
        </extensions>
      </trkpt>
      <trkpt lat="43.12641070224344730377197265625" lon="13.00326280295848846435546875">
        <ele>808</ele>
        <time>2019-08-30T07:40:21.000Z</time>
        <extensions>
          <ns3:TrackPointExtension/>
        </extensions>
      </trkpt>
      <trkpt lat="43.12622814439237117767333984375" lon="13.00333698280155658721923828125">
        <ele>810.5999755859375</ele>
        <time>2019-08-30T07:40:29.000Z</time>
        <extensions>
          <ns3:TrackPointExtension/>
        </extensions>
      </trkpt>
      <trkpt lat="43.126153461635112762451171875" lon="13.003366403281688690185546875">
        <ele>811.79998779296875</ele>
        <time>2019-08-30T07:40:32.000Z</time>
        <extensions>
          <ns3:TrackPointExtension/>
        </extensions>
      </trkpt>
      <trkpt lat="43.12610358931124210357666015625" lon="13.0033873580396175384521484375">
        <ele>812.4000244140625</ele>
        <time>2019-08-30T07:40:34.000Z</time>
        <extensions>
          <ns3:TrackPointExtension/>
        </extensions>
      </trkpt>
      <trkpt lat="43.12593745999038219451904296875" lon="13.00348919816315174102783203125">
        <ele>812.5999755859375</ele>
        <time>2019-08-30T07:40:41.000Z</time>
        <extensions>
          <ns3:TrackPointExtension/>
        </extensions>
      </trkpt>
      <trkpt lat="43.12584693543612957000732421875" lon="13.003550805151462554931640625">
        <ele>811.20001220703125</ele>
        <time>2019-08-30T07:40:46.000Z</time>
        <extensions>
          <ns3:TrackPointExtension/>
        </extensions>
      </trkpt>
      <trkpt lat="43.12582480721175670623779296875" lon="13.003560192883014678955078125">
        <ele>811</ele>
        <time>2019-08-30T07:40:47.000Z</time>
        <extensions>
          <ns3:TrackPointExtension/>
        </extensions>
      </trkpt>
      <trkpt lat="43.1256698258221149444580078125" lon="13.00364828668534755706787109375">
        <ele>809.4000244140625</ele>
        <time>2019-08-30T07:40:54.000Z</time>
        <extensions>
          <ns3:TrackPointExtension/>
        </extensions>
      </trkpt>
      <trkpt lat="43.12564644031226634979248046875" lon="13.003658093512058258056640625">
        <ele>809.20001220703125</ele>
        <time>2019-08-30T07:40:55.000Z</time>
        <extensions>
          <ns3:TrackPointExtension/>
        </extensions>
      </trkpt>
      <trkpt lat="43.125601597130298614501953125" lon="13.0036746896803379058837890625">
        <ele>809.20001220703125</ele>
        <time>2019-08-30T07:40:57.000Z</time>
        <extensions>
          <ns3:TrackPointExtension/>
        </extensions>
      </trkpt>
      <trkpt lat="43.1254445202648639678955078125" lon="13.00367913208901882171630859375">
        <ele>811.4000244140625</ele>
        <time>2019-08-30T07:41:04.000Z</time>
        <extensions>
          <ns3:TrackPointExtension/>
        </extensions>
      </trkpt>
      <trkpt lat="43.12542331404983997344970703125" lon="13.0036756955087184906005859375">
        <ele>812</ele>
        <time>2019-08-30T07:41:05.000Z</time>
        <extensions>
          <ns3:TrackPointExtension/>
        </extensions>
      </trkpt>
      <trkpt lat="43.125275708734989166259765625" lon="13.0036482028663158416748046875">
        <ele>815.4000244140625</ele>
        <time>2019-08-30T07:41:12.000Z</time>
        <extensions>
          <ns3:TrackPointExtension/>
        </extensions>
      </trkpt>
      <trkpt lat="43.1252560950815677642822265625" lon="13.0036431737244129180908203125">
        <ele>815.79998779296875</ele>
        <time>2019-08-30T07:41:13.000Z</time>
        <extensions>
          <ns3:TrackPointExtension/>
        </extensions>
      </trkpt>
      <trkpt lat="43.12515760771930217742919921875" lon="13.003633283078670501708984375">
        <ele>817.4000244140625</ele>
        <time>2019-08-30T07:41:17.000Z</time>
        <extensions>
          <ns3:TrackPointExtension/>
        </extensions>
      </trkpt>
      <trkpt lat="43.12513380311429500579833984375" lon="13.0036277510225772857666015625">
        <ele>818</ele>
        <time>2019-08-30T07:41:18.000Z</time>
        <extensions>
          <ns3:TrackPointExtension/>
        </extensions>
      </trkpt>
      <trkpt lat="43.12493666075170040130615234375" lon="13.0035839974880218505859375">
        <ele>819.5999755859375</ele>
        <time>2019-08-30T07:41:26.000Z</time>
        <extensions>
          <ns3:TrackPointExtension/>
        </extensions>
      </trkpt>
      <trkpt lat="43.124910928308963775634765625" lon="13.00357301719486713409423828125">
        <ele>820</ele>
        <time>2019-08-30T07:41:27.000Z</time>
        <extensions>
          <ns3:TrackPointExtension/>
        </extensions>
      </trkpt>
      <trkpt lat="43.12488284893333911895751953125" lon="13.00356145016849040985107421875">
        <ele>820.4000244140625</ele>
        <time>2019-08-30T07:41:28.000Z</time>
        <extensions>
          <ns3:TrackPointExtension/>
        </extensions>
      </trkpt>
      <trkpt lat="43.12469425611197948455810546875" lon="13.00350076518952846527099609375">
        <ele>822.4000244140625</ele>
        <time>2019-08-30T07:41:35.000Z</time>
        <extensions>
          <ns3:TrackPointExtension/>
        </extensions>
      </trkpt>
      <trkpt lat="43.12458026222884654998779296875" lon="13.00344544462859630584716796875">
        <ele>824.4000244140625</ele>
        <time>2019-08-30T07:41:40.000Z</time>
        <extensions>
          <ns3:TrackPointExtension/>
        </extensions>
      </trkpt>
      <trkpt lat="43.12455427832901477813720703125" lon="13.003438822925090789794921875">
        <ele>824.5999755859375</ele>
        <time>2019-08-30T07:41:41.000Z</time>
        <extensions>
          <ns3:TrackPointExtension/>
        </extensions>
      </trkpt>
      <trkpt lat="43.1244943477213382720947265625" lon="13.00342909991741180419921875">
        <ele>824.79998779296875</ele>
        <time>2019-08-30T07:41:43.000Z</time>
        <extensions>
          <ns3:TrackPointExtension/>
        </extensions>
      </trkpt>
      <trkpt lat="43.1243003904819488525390625" lon="13.00341325812041759490966796875">
        <ele>824.4000244140625</ele>
        <time>2019-08-30T07:41:50.000Z</time>
        <extensions>
          <ns3:TrackPointExtension/>
        </extensions>
      </trkpt>
      <trkpt lat="43.12410132028162479400634765625" lon="13.003387190401554107666015625">
        <ele>824.5999755859375</ele>
        <time>2019-08-30T07:41:58.000Z</time>
        <extensions>
          <ns3:TrackPointExtension/>
        </extensions>
      </trkpt>
      <trkpt lat="43.12391356565058231353759765625" lon="13.00331703387200832366943359375">
        <ele>827.4000244140625</ele>
        <time>2019-08-30T07:42:07.000Z</time>
        <extensions>
          <ns3:TrackPointExtension/>
        </extensions>
      </trkpt>
      <trkpt lat="43.12372832559049129486083984375" lon="13.0032406747341156005859375">
        <ele>830.4000244140625</ele>
        <time>2019-08-30T07:42:15.000Z</time>
        <extensions>
          <ns3:TrackPointExtension/>
        </extensions>
      </trkpt>
      <trkpt lat="43.12370385043323040008544921875" lon="13.00323187373578548431396484375">
        <ele>830.79998779296875</ele>
        <time>2019-08-30T07:42:16.000Z</time>
        <extensions>
          <ns3:TrackPointExtension/>
        </extensions>
      </trkpt>
      <trkpt lat="43.12365238554775714874267578125" lon="13.00321519374847412109375">
        <ele>831.4000244140625</ele>
        <time>2019-08-30T07:42:18.000Z</time>
        <extensions>
          <ns3:TrackPointExtension/>
        </extensions>
      </trkpt>
      <trkpt lat="43.12355138361454010009765625" lon="13.0031870305538177490234375">
        <ele>832.4000244140625</ele>
        <time>2019-08-30T07:42:22.000Z</time>
        <extensions>
          <ns3:TrackPointExtension/>
        </extensions>
      </trkpt>
      <trkpt lat="43.12352724373340606689453125" lon="13.0031855218112468719482421875">
        <ele>832.20001220703125</ele>
        <time>2019-08-30T07:42:23.000Z</time>
        <extensions>
          <ns3:TrackPointExtension/>
        </extensions>
      </trkpt>
      <trkpt lat="43.12333672307431697845458984375" lon="13.00316196866333484649658203125">
        <ele>832.4000244140625</ele>
        <time>2019-08-30T07:42:31.000Z</time>
        <extensions>
          <ns3:TrackPointExtension/>
        </extensions>
      </trkpt>
      <trkpt lat="43.12313471920788288116455078125" lon="13.00316196866333484649658203125">
        <ele>831.5999755859375</ele>
        <time>2019-08-30T07:42:40.000Z</time>
        <extensions>
          <ns3:TrackPointExtension/>
        </extensions>
      </trkpt>
      <trkpt lat="43.12305073253810405731201171875" lon="13.0031473003327846527099609375">
        <ele>832.4000244140625</ele>
        <time>2019-08-30T07:42:44.000Z</time>
        <extensions>
          <ns3:TrackPointExtension/>
        </extensions>
      </trkpt>
      <trkpt lat="43.1230335496366024017333984375" lon="13.00314302556216716766357421875">
        <ele>832.5999755859375</ele>
        <time>2019-08-30T07:42:45.000Z</time>
        <extensions>
          <ns3:TrackPointExtension/>
        </extensions>
      </trkpt>
      <trkpt lat="43.1229882873594760894775390625" lon="13.0031281895935535430908203125">
        <ele>833.4000244140625</ele>
        <time>2019-08-30T07:42:47.000Z</time>
        <extensions>
          <ns3:TrackPointExtension/>
        </extensions>
      </trkpt>
      <trkpt lat="43.12294118106365203857421875" lon="13.003116287291049957275390625">
        <ele>834.20001220703125</ele>
        <time>2019-08-30T07:42:49.000Z</time>
        <extensions>
          <ns3:TrackPointExtension/>
        </extensions>
      </trkpt>
      <trkpt lat="43.122843615710735321044921875" lon="13.00311251543462276458740234375">
        <ele>834.4000244140625</ele>
        <time>2019-08-30T07:42:53.000Z</time>
        <extensions>
          <ns3:TrackPointExtension/>
        </extensions>
      </trkpt>
      <trkpt lat="43.12272702343761920928955078125" lon="13.00309558399021625518798828125">
        <ele>835.4000244140625</ele>
        <time>2019-08-30T07:42:58.000Z</time>
        <extensions>
          <ns3:TrackPointExtension/>
        </extensions>
      </trkpt>
      <trkpt lat="43.12270305119454860687255859375" lon="13.003094159066677093505859375">
        <ele>835.5999755859375</ele>
        <time>2019-08-30T07:42:59.000Z</time>
        <extensions>
          <ns3:TrackPointExtension/>
        </extensions>
      </trkpt>
      <trkpt lat="43.1226104311645030975341796875" lon="13.00309139303863048553466796875">
        <ele>835.79998779296875</ele>
        <time>2019-08-30T07:43:03.000Z</time>
        <extensions>
          <ns3:TrackPointExtension/>
        </extensions>
      </trkpt>
      <trkpt lat="43.122585453093051910400390625" lon="13.00308736972510814666748046875">
        <ele>836.20001220703125</ele>
        <time>2019-08-30T07:43:04.000Z</time>
        <extensions>
          <ns3:TrackPointExtension/>
        </extensions>
      </trkpt>
      <trkpt lat="43.1224240176379680633544921875" lon="13.00307278521358966827392578125">
        <ele>839.20001220703125</ele>
        <time>2019-08-30T07:43:11.000Z</time>
        <extensions>
          <ns3:TrackPointExtension/>
        </extensions>
      </trkpt>
      <trkpt lat="43.122401721775531768798828125" lon="13.00307379104197025299072265625">
        <ele>839.4000244140625</ele>
        <time>2019-08-30T07:43:12.000Z</time>
        <extensions>
          <ns3:TrackPointExtension/>
        </extensions>
      </trkpt>
      <trkpt lat="43.1222389452159404754638671875" lon="13.0030931532382965087890625">
        <ele>840.5999755859375</ele>
        <time>2019-08-30T07:43:19.000Z</time>
        <extensions>
          <ns3:TrackPointExtension/>
        </extensions>
      </trkpt>
      <trkpt lat="43.122198544442653656005859375" lon="13.00311452709138393402099609375">
        <ele>840.4000244140625</ele>
        <time>2019-08-30T07:43:21.000Z</time>
        <extensions>
          <ns3:TrackPointExtension/>
        </extensions>
      </trkpt>
      <trkpt lat="43.12212838791310787200927734375" lon="13.0031494796276092529296875">
        <ele>839.79998779296875</ele>
        <time>2019-08-30T07:43:24.000Z</time>
        <extensions>
          <ns3:TrackPointExtension/>
        </extensions>
      </trkpt>
      <trkpt lat="43.121978938579559326171875" lon="13.00319884903728961944580078125">
        <ele>840</ele>
        <time>2019-08-30T07:43:31.000Z</time>
        <extensions>
          <ns3:TrackPointExtension/>
        </extensions>
      </trkpt>
      <trkpt lat="43.12195840291678905487060546875" lon="13.003203459084033966064453125">
        <ele>840.20001220703125</ele>
        <time>2019-08-30T07:43:32.000Z</time>
        <extensions>
          <ns3:TrackPointExtension/>
        </extensions>
      </trkpt>
      <trkpt lat="43.12180249951779842376708984375" lon="13.003233969211578369140625">
        <ele>841.20001220703125</ele>
        <time>2019-08-30T07:43:39.000Z</time>
        <extensions>
          <ns3:TrackPointExtension/>
        </extensions>
      </trkpt>
      <trkpt lat="43.1217791140079498291015625" lon="13.0032384954392910003662109375">
        <ele>841.4000244140625</ele>
        <time>2019-08-30T07:43:40.000Z</time>
        <extensions>
          <ns3:TrackPointExtension/>
        </extensions>
      </trkpt>
      <trkpt lat="43.12166235409677028656005859375" lon="13.00325165502727031707763671875">
        <ele>843.5999755859375</ele>
        <time>2019-08-30T07:43:45.000Z</time>
        <extensions>
          <ns3:TrackPointExtension/>
        </extensions>
      </trkpt>
      <trkpt lat="43.12161323614418506622314453125" lon="13.00325316376984119415283203125">
        <ele>844.79998779296875</ele>
        <time>2019-08-30T07:43:47.000Z</time>
        <extensions>
          <ns3:TrackPointExtension/>
        </extensions>
      </trkpt>
      <trkpt lat="43.12148767523467540740966796875" lon="13.003253750503063201904296875">
        <ele>847</ele>
        <time>2019-08-30T07:43:52.000Z</time>
        <extensions>
          <ns3:TrackPointExtension/>
        </extensions>
      </trkpt>
      <trkpt lat="43.12143973074853420257568359375" lon="13.00324981100857257843017578125">
        <ele>848</ele>
        <time>2019-08-30T07:43:54.000Z</time>
        <extensions>
          <ns3:TrackPointExtension/>
        </extensions>
      </trkpt>
      <trkpt lat="43.12125281430780887603759765625" lon="13.0032187141478061676025390625">
        <ele>853</ele>
        <time>2019-08-30T07:44:02.000Z</time>
        <extensions>
          <ns3:TrackPointExtension/>
        </extensions>
      </trkpt>
      <trkpt lat="43.121101856231689453125" lon="13.003228269517421722412109375">
        <ele>855</ele>
        <time>2019-08-30T07:44:09.000Z</time>
        <extensions>
          <ns3:TrackPointExtension/>
        </extensions>
      </trkpt>
      <trkpt lat="43.12108132056891918182373046875" lon="13.00323036499321460723876953125">
        <ele>855.20001220703125</ele>
        <time>2019-08-30T07:44:10.000Z</time>
        <extensions>
          <ns3:TrackPointExtension/>
        </extensions>
      </trkpt>
      <trkpt lat="43.1209927238523960113525390625" lon="13.0032559297978878021240234375">
        <ele>855.20001220703125</ele>
        <time>2019-08-30T07:44:14.000Z</time>
        <extensions>
          <ns3:TrackPointExtension/>
        </extensions>
      </trkpt>
      <trkpt lat="43.12097218818962574005126953125" lon="13.00326372496783733367919921875">
        <ele>855</ele>
        <time>2019-08-30T07:44:15.000Z</time>
        <extensions>
          <ns3:TrackPointExtension/>
        </extensions>
      </trkpt>
      <trkpt lat="43.1209327094256877899169921875" lon="13.003279902040958404541015625">
        <ele>854.79998779296875</ele>
        <time>2019-08-30T07:44:17.000Z</time>
        <extensions>
          <ns3:TrackPointExtension/>
        </extensions>
      </trkpt>
      <trkpt lat="43.1208260916173458099365234375" lon="13.0033092387020587921142578125">
        <ele>855.5999755859375</ele>
        <time>2019-08-30T07:44:22.000Z</time>
        <extensions>
          <ns3:TrackPointExtension/>
        </extensions>
      </trkpt>
      <trkpt lat="43.12063448131084442138671875" lon="13.00336045213043689727783203125">
        <ele>857.79998779296875</ele>
        <time>2019-08-30T07:44:31.000Z</time>
        <extensions>
          <ns3:TrackPointExtension/>
        </extensions>
      </trkpt>
      <trkpt lat="43.1205729581415653228759765625" lon="13.00337872467935085296630859375">
        <ele>858.20001220703125</ele>
        <time>2019-08-30T07:44:34.000Z</time>
        <extensions>
          <ns3:TrackPointExtension/>
        </extensions>
      </trkpt>
      <trkpt lat="43.12054873444139957427978515625" lon="13.00338811241090297698974609375">
        <ele>858.4000244140625</ele>
        <time>2019-08-30T07:44:35.000Z</time>
        <extensions>
          <ns3:TrackPointExtension/>
        </extensions>
      </trkpt>
      <trkpt lat="43.12041043303906917572021484375" lon="13.00343605689704418182373046875">
        <ele>859.4000244140625</ele>
        <time>2019-08-30T07:44:42.000Z</time>
        <extensions>
          <ns3:TrackPointExtension/>
        </extensions>
      </trkpt>
      <trkpt lat="43.1202913261950016021728515625" lon="13.00347126089036464691162109375">
        <ele>860.79998779296875</ele>
        <time>2019-08-30T07:44:49.000Z</time>
        <extensions>
          <ns3:TrackPointExtension/>
        </extensions>
      </trkpt>
      <trkpt lat="43.12026123516261577606201171875" lon="13.00347729586064815521240234375">
        <ele>861.4000244140625</ele>
        <time>2019-08-30T07:44:51.000Z</time>
        <extensions>
          <ns3:TrackPointExtension/>
        </extensions>
      </trkpt>
      <trkpt lat="43.12006191350519657135009765625" lon="13.0034708417952060699462890625">
        <ele>865.79998779296875</ele>
        <time>2019-08-30T07:45:01.000Z</time>
        <extensions>
          <ns3:TrackPointExtension/>
        </extensions>
      </trkpt>
      <trkpt lat="43.11987952329218387603759765625" lon="13.00349858589470386505126953125">
        <ele>866.5999755859375</ele>
        <time>2019-08-30T07:45:10.000Z</time>
        <extensions>
          <ns3:TrackPointExtension/>
        </extensions>
      </trkpt>
      <trkpt lat="43.11969797126948833465576171875" lon="13.00354837439954280853271484375">
        <ele>866.4000244140625</ele>
        <time>2019-08-30T07:45:18.000Z</time>
        <extensions>
          <ns3:TrackPointExtension/>
        </extensions>
      </trkpt>
      <trkpt lat="43.1195206940174102783203125" lon="13.00358257256448268890380859375">
        <ele>867</ele>
        <time>2019-08-30T07:45:25.000Z</time>
        <extensions>
          <ns3:TrackPointExtension/>
        </extensions>
      </trkpt>
      <trkpt lat="43.1194943748414516448974609375" lon="13.0035851709544658660888671875">
        <ele>867.20001220703125</ele>
        <time>2019-08-30T07:45:26.000Z</time>
        <extensions>
          <ns3:TrackPointExtension/>
        </extensions>
      </trkpt>
      <trkpt lat="43.1193492002785205841064453125" lon="13.00349405966699123382568359375">
        <ele>874</ele>
        <time>2019-08-30T07:45:34.000Z</time>
        <extensions>
          <ns3:TrackPointExtension/>
        </extensions>
      </trkpt>
      <trkpt lat="43.11953720636665821075439453125" lon="13.00344276241958141326904296875">
        <ele>874.20001220703125</ele>
        <time>2019-08-30T07:45:44.000Z</time>
        <extensions>
          <ns3:TrackPointExtension/>
        </extensions>
      </trkpt>
      <trkpt lat="43.11959604732692241668701171875" lon="13.00342583097517490386962890625">
        <ele>874.20001220703125</ele>
        <time>2019-08-30T07:45:47.000Z</time>
        <extensions>
          <ns3:TrackPointExtension/>
        </extensions>
      </trkpt>
      <trkpt lat="43.11969034373760223388671875" lon="13.0033990927040576934814453125">
        <ele>874.4000244140625</ele>
        <time>2019-08-30T07:45:52.000Z</time>
        <extensions>
          <ns3:TrackPointExtension/>
        </extensions>
      </trkpt>
      <trkpt lat="43.11971046030521392822265625" lon="13.00339423120021820068359375">
        <ele>874.4000244140625</ele>
        <time>2019-08-30T07:45:53.000Z</time>
        <extensions>
          <ns3:TrackPointExtension/>
        </extensions>
      </trkpt>
      <trkpt lat="43.119883798062801361083984375" lon="13.00331644713878631591796875">
        <ele>876</ele>
        <time>2019-08-30T07:46:03.000Z</time>
        <extensions>
          <ns3:TrackPointExtension/>
        </extensions>
      </trkpt>
      <trkpt lat="43.119951188564300537109375" lon="13.00328501500189304351806640625">
        <ele>876.5999755859375</ele>
        <time>2019-08-30T07:46:07.000Z</time>
        <extensions>
          <ns3:TrackPointExtension/>
        </extensions>
      </trkpt>
      <trkpt lat="43.11996853910386562347412109375" lon="13.00327680073678493499755859375">
        <ele>876.79998779296875</ele>
        <time>2019-08-30T07:46:08.000Z</time>
        <extensions>
          <ns3:TrackPointExtension/>
        </extensions>
      </trkpt>
      <trkpt lat="43.12004246748983860015869140625" lon="13.00323958508670330047607421875">
        <ele>878.20001220703125</ele>
        <time>2019-08-30T07:46:12.000Z</time>
        <extensions>
          <ns3:TrackPointExtension/>
        </extensions>
      </trkpt>
      <trkpt lat="43.12011815607547760009765625" lon="13.00318493507802486419677734375">
        <ele>880.20001220703125</ele>
        <time>2019-08-30T07:46:16.000Z</time>
        <extensions>
          <ns3:TrackPointExtension/>
        </extensions>
      </trkpt>
      <trkpt lat="43.12013735063374042510986328125" lon="13.00317303277552127838134765625">
        <ele>880.4000244140625</ele>
        <time>2019-08-30T07:46:17.000Z</time>
        <extensions>
          <ns3:TrackPointExtension/>
        </extensions>
      </trkpt>
      <trkpt lat="43.12031286768615245819091796875" lon="13.003070689737796783447265625">
        <ele>881.4000244140625</ele>
        <time>2019-08-30T07:46:26.000Z</time>
        <extensions>
          <ns3:TrackPointExtension/>
        </extensions>
      </trkpt>
      <trkpt lat="43.1204261071979999542236328125" lon="13.0030195601284503936767578125">
        <ele>881.4000244140625</ele>
        <time>2019-08-30T07:46:31.000Z</time>
        <extensions>
          <ns3:TrackPointExtension/>
        </extensions>
      </trkpt>
      <trkpt lat="43.1204433739185333251953125" lon="13.0030141957104206085205078125">
        <ele>881.20001220703125</ele>
        <time>2019-08-30T07:46:32.000Z</time>
        <extensions>
          <ns3:TrackPointExtension/>
        </extensions>
      </trkpt>
      <trkpt lat="43.12054035253822803497314453125" lon="13.0029652453958988189697265625">
        <ele>881.5999755859375</ele>
        <time>2019-08-30T07:46:37.000Z</time>
        <extensions>
          <ns3:TrackPointExtension/>
        </extensions>
      </trkpt>
      <trkpt lat="43.120557367801666259765625" lon="13.00295434892177581787109375">
        <ele>881.79998779296875</ele>
        <time>2019-08-30T07:46:38.000Z</time>
        <extensions>
          <ns3:TrackPointExtension/>
        </extensions>
      </trkpt>
      <trkpt lat="43.12063154764473438262939453125" lon="13.0029189772903919219970703125">
        <ele>882</ele>
        <time>2019-08-30T07:46:42.000Z</time>
        <extensions>
          <ns3:TrackPointExtension/>
        </extensions>
      </trkpt>
      <trkpt lat="43.12082500196993350982666015625" lon="13.0028395168483257293701171875">
        <ele>882.20001220703125</ele>
        <time>2019-08-30T07:46:52.000Z</time>
        <extensions>
          <ns3:TrackPointExtension/>
        </extensions>
      </trkpt>
      <trkpt lat="43.1209907121956348419189453125" lon="13.00277573056519031524658203125">
        <ele>882.20001220703125</ele>
        <time>2019-08-30T07:47:00.000Z</time>
        <extensions>
          <ns3:TrackPointExtension/>
        </extensions>
      </trkpt>
      <trkpt lat="43.12102683819830417633056640625" lon="13.0027523450553417205810546875">
        <ele>883</ele>
        <time>2019-08-30T07:47:02.000Z</time>
        <extensions>
          <ns3:TrackPointExtension/>
        </extensions>
      </trkpt>
      <trkpt lat="43.121186681091785430908203125" lon="13.0026175640523433685302734375">
        <ele>886.20001220703125</ele>
        <time>2019-08-30T07:47:11.000Z</time>
        <extensions>
          <ns3:TrackPointExtension/>
        </extensions>
      </trkpt>
      <trkpt lat="43.1213367171585559844970703125" lon="13.0024727247655391693115234375">
        <ele>889.79998779296875</ele>
        <time>2019-08-30T07:47:20.000Z</time>
        <extensions>
          <ns3:TrackPointExtension/>
        </extensions>
      </trkpt>
      <trkpt lat="43.12149186618626117706298828125" lon="13.00233651883900165557861328125">
        <ele>893</ele>
        <time>2019-08-30T07:47:28.000Z</time>
        <extensions>
          <ns3:TrackPointExtension/>
        </extensions>
      </trkpt>
      <trkpt lat="43.12152765691280364990234375" lon="13.00230584107339382171630859375">
        <ele>893.79998779296875</ele>
        <time>2019-08-30T07:47:30.000Z</time>
        <extensions>
          <ns3:TrackPointExtension/>
        </extensions>
      </trkpt>
      <trkpt lat="43.1215455941855907440185546875" lon="13.0022899992763996124267578125">
        <ele>894.20001220703125</ele>
        <time>2019-08-30T07:47:31.000Z</time>
        <extensions>
          <ns3:TrackPointExtension/>
        </extensions>
      </trkpt>
      <trkpt lat="43.12170878984034061431884765625" lon="13.00216787494719028472900390625">
        <ele>896.5999755859375</ele>
        <time>2019-08-30T07:47:40.000Z</time>
        <extensions>
          <ns3:TrackPointExtension/>
        </extensions>
      </trkpt>
      <trkpt lat="43.12188397161662578582763671875" lon="13.00206125713884830474853515625">
        <ele>899.20001220703125</ele>
        <time>2019-08-30T07:47:49.000Z</time>
        <extensions>
          <ns3:TrackPointExtension/>
        </extensions>
      </trkpt>
      <trkpt lat="43.12194298021495342254638671875" lon="13.0020336806774139404296875">
        <ele>899.79998779296875</ele>
        <time>2019-08-30T07:47:52.000Z</time>
        <extensions>
          <ns3:TrackPointExtension/>
        </extensions>
      </trkpt>
      <trkpt lat="43.12196259386837482452392578125" lon="13.00202094018459320068359375">
        <ele>900.20001220703125</ele>
        <time>2019-08-30T07:47:53.000Z</time>
        <extensions>
          <ns3:TrackPointExtension/>
        </extensions>
      </trkpt>
      <trkpt lat="43.12207608483731746673583984375" lon="13.00197861157357692718505859375">
        <ele>901.20001220703125</ele>
        <time>2019-08-30T07:47:58.000Z</time>
        <extensions>
          <ns3:TrackPointExtension/>
        </extensions>
      </trkpt>
      <trkpt lat="43.1222164817154407501220703125" lon="13.00194189883768558502197265625">
        <ele>902</ele>
        <time>2019-08-30T07:48:04.000Z</time>
        <extensions>
          <ns3:TrackPointExtension/>
        </extensions>
      </trkpt>
      <trkpt lat="43.1222379393875598907470703125" lon="13.00193913280963897705078125">
        <ele>901.79998779296875</ele>
        <time>2019-08-30T07:48:05.000Z</time>
        <extensions>
          <ns3:TrackPointExtension/>
        </extensions>
      </trkpt>
      <trkpt lat="43.12236710451543331146240234375" lon="13.00192194990813732147216796875">
        <ele>901.5999755859375</ele>
        <time>2019-08-30T07:48:11.000Z</time>
        <extensions>
          <ns3:TrackPointExtension/>
        </extensions>
      </trkpt>
      <trkpt lat="43.12239141203463077545166015625" lon="13.00191306509077548980712890625">
        <ele>901.79998779296875</ele>
        <time>2019-08-30T07:48:12.000Z</time>
        <extensions>
          <ns3:TrackPointExtension/>
        </extensions>
      </trkpt>
      <trkpt lat="43.1225789152085781097412109375" lon="13.00183963961899280548095703125">
        <ele>904.20001220703125</ele>
        <time>2019-08-30T07:48:20.000Z</time>
        <extensions>
          <ns3:TrackPointExtension/>
        </extensions>
      </trkpt>
      <trkpt lat="43.1226503290235996246337890625" lon="13.00182606093585491180419921875">
        <ele>905</ele>
        <time>2019-08-30T07:48:23.000Z</time>
        <extensions>
          <ns3:TrackPointExtension/>
        </extensions>
      </trkpt>
      <trkpt lat="43.122673965990543365478515625" lon="13.0018175952136516571044921875">
        <ele>905.5999755859375</ele>
        <time>2019-08-30T07:48:24.000Z</time>
        <extensions>
          <ns3:TrackPointExtension/>
        </extensions>
      </trkpt>
      <trkpt lat="43.122837245464324951171875" lon="13.00177752971649169921875">
        <ele>907.20001220703125</ele>
        <time>2019-08-30T07:48:31.000Z</time>
        <extensions>
          <ns3:TrackPointExtension/>
        </extensions>
      </trkpt>
      <trkpt lat="43.122885189950466156005859375" lon="13.0017669685184955596923828125">
        <ele>907.5999755859375</ele>
        <time>2019-08-30T07:48:33.000Z</time>
        <extensions>
          <ns3:TrackPointExtension/>
        </extensions>
      </trkpt>
      <trkpt lat="43.12297713942825794219970703125" lon="13.0017441697418689727783203125">
        <ele>908.4000244140625</ele>
        <time>2019-08-30T07:48:37.000Z</time>
        <extensions>
          <ns3:TrackPointExtension/>
        </extensions>
      </trkpt>
      <trkpt lat="43.1230008602142333984375" lon="13.00173771567642688751220703125">
        <ele>908.5999755859375</ele>
        <time>2019-08-30T07:48:38.000Z</time>
        <extensions>
          <ns3:TrackPointExtension/>
        </extensions>
      </trkpt>
      <trkpt lat="43.12319339253008365631103515625" lon="13.00171994604170322418212890625">
        <ele>909</ele>
        <time>2019-08-30T07:48:47.000Z</time>
        <extensions>
          <ns3:TrackPointExtension/>
        </extensions>
      </trkpt>
      <trkpt lat="43.12337595038115978240966796875" lon="13.00173486582934856414794921875">
        <ele>907.79998779296875</ele>
        <time>2019-08-30T07:48:57.000Z</time>
        <extensions>
          <ns3:TrackPointExtension/>
        </extensions>
      </trkpt>
      <trkpt lat="43.12345021404325962066650390625" lon="13.001741655170917510986328125">
        <ele>907.4000244140625</ele>
        <time>2019-08-30T07:49:01.000Z</time>
        <extensions>
          <ns3:TrackPointExtension/>
        </extensions>
      </trkpt>
      <trkpt lat="43.12347049824893474578857421875" lon="13.00173872150480747222900390625">
        <ele>907.4000244140625</ele>
        <time>2019-08-30T07:49:02.000Z</time>
        <extensions>
          <ns3:TrackPointExtension/>
        </extensions>
      </trkpt>
      <trkpt lat="43.12351492233574390411376953125" lon="13.00174157135188579559326171875">
        <ele>907</ele>
        <time>2019-08-30T07:49:04.000Z</time>
        <extensions>
          <ns3:TrackPointExtension/>
        </extensions>
      </trkpt>
      <trkpt lat="43.12370753847062587738037109375" lon="13.00176881253719329833984375">
        <ele>905.20001220703125</ele>
        <time>2019-08-30T07:49:13.000Z</time>
        <extensions>
          <ns3:TrackPointExtension/>
        </extensions>
      </trkpt>
      <trkpt lat="43.12390367500483989715576171875" lon="13.00173352472484111785888671875">
        <ele>906</ele>
        <time>2019-08-30T07:49:22.000Z</time>
        <extensions>
          <ns3:TrackPointExtension/>
        </extensions>
      </trkpt>
      <trkpt lat="43.123990260064601898193359375" lon="13.0017300881445407867431640625">
        <ele>905.79998779296875</ele>
        <time>2019-08-30T07:49:26.000Z</time>
        <extensions>
          <ns3:TrackPointExtension/>
        </extensions>
      </trkpt>
      <trkpt lat="43.1240095384418964385986328125" lon="13.00172866322100162506103515625">
        <ele>905.79998779296875</ele>
        <time>2019-08-30T07:49:27.000Z</time>
        <extensions>
          <ns3:TrackPointExtension/>
        </extensions>
      </trkpt>
      <trkpt lat="43.1242033280432224273681640625" lon="13.0017153359949588775634765625">
        <ele>905.5999755859375</ele>
        <time>2019-08-30T07:49:37.000Z</time>
        <extensions>
          <ns3:TrackPointExtension/>
        </extensions>
      </trkpt>
      <trkpt lat="43.12438781373202800750732421875" lon="13.00170284695923328399658203125">
        <ele>900.20001220703125</ele>
        <time>2019-08-30T07:49:46.000Z</time>
        <extensions>
          <ns3:TrackPointExtension/>
        </extensions>
      </trkpt>
      <trkpt lat="43.1244514323770999908447265625" lon="13.0016851611435413360595703125">
        <ele>898.20001220703125</ele>
        <time>2019-08-30T07:49:49.000Z</time>
        <extensions>
          <ns3:TrackPointExtension/>
        </extensions>
      </trkpt>
      <trkpt lat="43.12447079457342624664306640625" lon="13.00167619250714778900146484375">
        <ele>897.5999755859375</ele>
        <time>2019-08-30T07:49:50.000Z</time>
        <extensions>
          <ns3:TrackPointExtension/>
        </extensions>
      </trkpt>
      <trkpt lat="43.124505579471588134765625" lon="13.0014838278293609619140625">
        <ele>897</ele>
        <time>2019-08-30T07:50:00.000Z</time>
        <extensions>
          <ns3:TrackPointExtension/>
        </extensions>
      </trkpt>
      <trkpt lat="43.12447733245790004730224609375" lon="13.001445941627025604248046875">
        <ele>898.20001220703125</ele>
        <time>2019-08-30T07:50:02.000Z</time>
        <extensions>
          <ns3:TrackPointExtension/>
        </extensions>
      </trkpt>
      <trkpt lat="43.1244651786983013153076171875" lon="13.0014283396303653717041015625">
        <ele>898.5999755859375</ele>
        <time>2019-08-30T07:50:03.000Z</time>
        <extensions>
          <ns3:TrackPointExtension/>
        </extensions>
      </trkpt>
      <trkpt lat="43.12434221617877483367919921875" lon="13.001260198652744293212890625">
        <ele>903.4000244140625</ele>
        <time>2019-08-30T07:50:13.000Z</time>
        <extensions>
          <ns3:TrackPointExtension/>
        </extensions>
      </trkpt>
      <trkpt lat="43.12433366663753986358642578125" lon="13.001243434846401214599609375">
        <ele>903.79998779296875</ele>
        <time>2019-08-30T07:50:14.000Z</time>
        <extensions>
          <ns3:TrackPointExtension/>
        </extensions>
      </trkpt>
      <trkpt lat="43.1242091953754425048828125" lon="13.001071102917194366455078125">
        <ele>909</ele>
        <time>2019-08-30T07:50:24.000Z</time>
        <extensions>
          <ns3:TrackPointExtension/>
        </extensions>
      </trkpt>
      <trkpt lat="43.12419419176876544952392578125" lon="13.00105358473956584930419921875">
        <ele>909.5999755859375</ele>
        <time>2019-08-30T07:50:25.000Z</time>
        <extensions>
          <ns3:TrackPointExtension/>
        </extensions>
      </trkpt>
      <trkpt lat="43.12411791644990444183349609375" lon="13.00093908794224262237548828125">
        <ele>913.20001220703125</ele>
        <time>2019-08-30T07:50:31.000Z</time>
        <extensions>
          <ns3:TrackPointExtension/>
        </extensions>
      </trkpt>
      <trkpt lat="43.1241019070148468017578125" lon="13.0009178817272186279296875">
        <ele>913.79998779296875</ele>
        <time>2019-08-30T07:50:32.000Z</time>
        <extensions>
          <ns3:TrackPointExtension/>
        </extensions>
      </trkpt>
      <trkpt lat="43.1240477599203586578369140625" lon="13.00084185786545276641845703125">
        <ele>915.4000244140625</ele>
        <time>2019-08-30T07:50:36.000Z</time>
        <extensions>
          <ns3:TrackPointExtension/>
        </extensions>
      </trkpt>
      <trkpt lat="43.12403619289398193359375" lon="13.0008231662213802337646484375">
        <ele>915.79998779296875</ele>
        <time>2019-08-30T07:50:37.000Z</time>
        <extensions>
          <ns3:TrackPointExtension/>
        </extensions>
      </trkpt>
      <trkpt lat="43.12401750124990940093994140625" lon="13.00078351981937885284423828125">
        <ele>916.20001220703125</ele>
        <time>2019-08-30T07:50:39.000Z</time>
        <extensions>
          <ns3:TrackPointExtension/>
        </extensions>
      </trkpt>
      <trkpt lat="43.12394022010266780853271484375" lon="13.0006384290754795074462890625">
        <ele>918.20001220703125</ele>
        <time>2019-08-30T07:50:46.000Z</time>
        <extensions>
          <ns3:TrackPointExtension/>
        </extensions>
      </trkpt>
      <trkpt lat="43.123927228152751922607421875" lon="13.0006174743175506591796875">
        <ele>918.5999755859375</ele>
        <time>2019-08-30T07:50:47.000Z</time>
        <extensions>
          <ns3:TrackPointExtension/>
        </extensions>
      </trkpt>
      <trkpt lat="43.1237926147878170013427734375" lon="13.00045042298734188079833984375">
        <ele>922.5999755859375</ele>
        <time>2019-08-30T07:50:55.000Z</time>
        <extensions>
          <ns3:TrackPointExtension/>
        </extensions>
      </trkpt>
      <trkpt lat="43.12377761118113994598388671875" lon="13.00043198280036449432373046875">
        <ele>923</ele>
        <time>2019-08-30T07:50:56.000Z</time>
        <extensions>
          <ns3:TrackPointExtension/>
        </extensions>
      </trkpt>
      <trkpt lat="43.12370133586227893829345703125" lon="13.00033919513225555419921875">
        <ele>925.20001220703125</ele>
        <time>2019-08-30T07:51:01.000Z</time>
        <extensions>
          <ns3:TrackPointExtension/>
        </extensions>
      </trkpt>
      <trkpt lat="43.12368591316044330596923828125" lon="13.00031731836497783660888671875">
        <ele>925.5999755859375</ele>
        <time>2019-08-30T07:51:02.000Z</time>
        <extensions>
          <ns3:TrackPointExtension/>
        </extensions>
      </trkpt>
      <trkpt lat="43.123636208474636077880859375" lon="13.000218831002712249755859375">
        <ele>925.5999755859375</ele>
        <time>2019-08-30T07:51:06.000Z</time>
        <extensions>
          <ns3:TrackPointExtension/>
        </extensions>
      </trkpt>
      <trkpt lat="43.1236249767243862152099609375" lon="13.0001988820731639862060546875">
        <ele>925.79998779296875</ele>
        <time>2019-08-30T07:51:07.000Z</time>
        <extensions>
          <ns3:TrackPointExtension/>
        </extensions>
      </trkpt>
      <trkpt lat="43.1235083006322383880615234375" lon="12.99998556263744831085205078125">
        <ele>926.4000244140625</ele>
        <time>2019-08-30T07:51:17.000Z</time>
        <extensions>
          <ns3:TrackPointExtension/>
        </extensions>
      </trkpt>
      <trkpt lat="43.12340143136680126190185546875" lon="12.99976411275565624237060546875">
        <ele>926</ele>
        <time>2019-08-30T07:51:26.000Z</time>
        <extensions>
          <ns3:TrackPointExtension/>
        </extensions>
      </trkpt>
      <trkpt lat="43.12327645719051361083984375" lon="12.9995997436344623565673828125">
        <ele>929</ele>
        <time>2019-08-30T07:51:35.000Z</time>
        <extensions>
          <ns3:TrackPointExtension/>
        </extensions>
      </trkpt>
      <trkpt lat="43.12326346524059772491455078125" lon="12.9995813034474849700927734375">
        <ele>929.20001220703125</ele>
        <time>2019-08-30T07:51:36.000Z</time>
        <extensions>
          <ns3:TrackPointExtension/>
        </extensions>
      </trkpt>
      <trkpt lat="43.12324049882590770721435546875" lon="12.9995460994541645050048828125">
        <ele>929.5999755859375</ele>
        <time>2019-08-30T07:51:38.000Z</time>
        <extensions>
          <ns3:TrackPointExtension/>
        </extensions>
      </trkpt>
      <trkpt lat="43.123099766671657562255859375" lon="12.99935306422412395477294921875">
        <ele>932.5999755859375</ele>
        <time>2019-08-30T07:51:48.000Z</time>
        <extensions>
          <ns3:TrackPointExtension/>
        </extensions>
      </trkpt>
      <trkpt lat="43.12298434786498546600341796875" lon="12.99917654134333133697509765625">
        <ele>934.4000244140625</ele>
        <time>2019-08-30T07:51:56.000Z</time>
        <extensions>
          <ns3:TrackPointExtension/>
        </extensions>
      </trkpt>
      <trkpt lat="43.12297496013343334197998046875" lon="12.99915659241378307342529296875">
        <ele>934.20001220703125</ele>
        <time>2019-08-30T07:51:57.000Z</time>
        <extensions>
          <ns3:TrackPointExtension/>
        </extensions>
      </trkpt>
      <trkpt lat="43.12292081303894519805908203125" lon="12.9990740306675434112548828125">
        <ele>935</ele>
        <time>2019-08-30T07:52:01.000Z</time>
        <extensions>
          <ns3:TrackPointExtension/>
        </extensions>
      </trkpt>
      <trkpt lat="43.1229061447083950042724609375" lon="12.99905802123248577117919921875">
        <ele>935.4000244140625</ele>
        <time>2019-08-30T07:52:02.000Z</time>
        <extensions>
          <ns3:TrackPointExtension/>
        </extensions>
      </trkpt>
      <trkpt lat="43.1228642351925373077392578125" lon="12.99899314530193805694580078125">
        <ele>935.79998779296875</ele>
        <time>2019-08-30T07:52:05.000Z</time>
        <extensions>
          <ns3:TrackPointExtension/>
        </extensions>
      </trkpt>
      <trkpt lat="43.12277865596115589141845703125" lon="12.9988574422895908355712890625">
        <ele>936.79998779296875</ele>
        <time>2019-08-30T07:52:11.000Z</time>
        <extensions>
          <ns3:TrackPointExtension/>
        </extensions>
      </trkpt>
      <trkpt lat="43.12276172451674938201904296875" lon="12.99883254803717136383056640625">
        <ele>937</ele>
        <time>2019-08-30T07:52:12.000Z</time>
        <extensions>
          <ns3:TrackPointExtension/>
        </extensions>
      </trkpt>
      <trkpt lat="43.122735656797885894775390625" lon="12.9987882077693939208984375">
        <ele>937.20001220703125</ele>
        <time>2019-08-30T07:52:14.000Z</time>
        <extensions>
          <ns3:TrackPointExtension/>
        </extensions>
      </trkpt>
      <trkpt lat="43.12263046391308307647705078125" lon="12.9985808394849300384521484375">
        <ele>937</ele>
        <time>2019-08-30T07:52:23.000Z</time>
        <extensions>
          <ns3:TrackPointExtension/>
        </extensions>
      </trkpt>
      <trkpt lat="43.1225437112152576446533203125" lon="12.99842904321849346160888671875">
        <ele>938</ele>
        <time>2019-08-30T07:52:29.000Z</time>
        <extensions>
          <ns3:TrackPointExtension/>
        </extensions>
      </trkpt>
      <trkpt lat="43.12253214418888092041015625" lon="12.9984011314809322357177734375">
        <ele>938</ele>
        <time>2019-08-30T07:52:30.000Z</time>
        <extensions>
          <ns3:TrackPointExtension/>
        </extensions>
      </trkpt>
      <trkpt lat="43.12243248336017131805419921875" lon="12.99819099716842174530029296875">
        <ele>940.79998779296875</ele>
        <time>2019-08-30T07:52:39.000Z</time>
        <extensions>
          <ns3:TrackPointExtension/>
        </extensions>
      </trkpt>
      <trkpt lat="43.1224246881902217864990234375" lon="12.99816434271633625030517578125">
        <ele>941</ele>
        <time>2019-08-30T07:52:40.000Z</time>
        <extensions>
          <ns3:TrackPointExtension/>
        </extensions>
      </trkpt>
      <trkpt lat="43.122411109507083892822265625" lon="12.998135425150394439697265625">
        <ele>941.4000244140625</ele>
        <time>2019-08-30T07:52:41.000Z</time>
        <extensions>
          <ns3:TrackPointExtension/>
        </extensions>
      </trkpt>
      <trkpt lat="43.1223264522850513458251953125" lon="12.99790249206125736236572265625">
        <ele>944.5999755859375</ele>
        <time>2019-08-30T07:52:49.000Z</time>
        <extensions>
          <ns3:TrackPointExtension/>
        </extensions>
      </trkpt>
      <trkpt lat="43.12229384668171405792236328125" lon="12.99781179986894130706787109375">
        <ele>945.79998779296875</ele>
        <time>2019-08-30T07:52:53.000Z</time>
        <extensions>
          <ns3:TrackPointExtension/>
        </extensions>
      </trkpt>
      <trkpt lat="43.1222697906196117401123046875" lon="12.99775647930800914764404296875">
        <ele>946.5999755859375</ele>
        <time>2019-08-30T07:52:55.000Z</time>
        <extensions>
          <ns3:TrackPointExtension/>
        </extensions>
      </trkpt>
      <trkpt lat="43.122223354876041412353515625" lon="12.9976621828973293304443359375">
        <ele>948.5999755859375</ele>
        <time>2019-08-30T07:52:58.000Z</time>
        <extensions>
          <ns3:TrackPointExtension/>
        </extensions>
      </trkpt>
      <trkpt lat="43.122172392904758453369140625" lon="12.99755237996578216552734375">
        <ele>950.20001220703125</ele>
        <time>2019-08-30T07:53:02.000Z</time>
        <extensions>
          <ns3:TrackPointExtension/>
        </extensions>
      </trkpt>
      <trkpt lat="43.12216199934482574462890625" lon="12.99752824008464813232421875">
        <ele>950.4000244140625</ele>
        <time>2019-08-30T07:53:03.000Z</time>
        <extensions>
          <ns3:TrackPointExtension/>
        </extensions>
      </trkpt>
      <trkpt lat="43.1220763362944126129150390625" lon="12.99729279242455959320068359375">
        <ele>950.5999755859375</ele>
        <time>2019-08-30T07:53:13.000Z</time>
        <extensions>
          <ns3:TrackPointExtension/>
        </extensions>
      </trkpt>
      <trkpt lat="43.122053034603595733642578125" lon="12.99723395146429538726806640625">
        <ele>950.79998779296875</ele>
        <time>2019-08-30T07:53:16.000Z</time>
        <extensions>
          <ns3:TrackPointExtension/>
        </extensions>
      </trkpt>
      <trkpt lat="43.12204171903431415557861328125" lon="12.9972075484693050384521484375">
        <ele>951</ele>
        <time>2019-08-30T07:53:17.000Z</time>
        <extensions>
          <ns3:TrackPointExtension/>
        </extensions>
      </trkpt>
      <trkpt lat="43.1220116280019283294677734375" lon="12.99709397368133068084716796875">
        <ele>950.4000244140625</ele>
        <time>2019-08-30T07:53:21.000Z</time>
        <extensions>
          <ns3:TrackPointExtension/>
        </extensions>
      </trkpt>
      <trkpt lat="43.1220099516212940216064453125" lon="12.99706480465829372406005859375">
        <ele>950</ele>
        <time>2019-08-30T07:53:22.000Z</time>
        <extensions>
          <ns3:TrackPointExtension/>
        </extensions>
      </trkpt>
      <trkpt lat="43.12198639847338199615478515625" lon="12.99700696952641010284423828125">
        <ele>950.20001220703125</ele>
        <time>2019-08-30T07:53:25.000Z</time>
        <extensions>
          <ns3:TrackPointExtension/>
        </extensions>
      </trkpt>
      <trkpt lat="43.12194985337555408477783203125" lon="12.99678602255880832672119140625">
        <ele>952.5999755859375</ele>
        <time>2019-08-30T07:53:34.000Z</time>
        <extensions>
          <ns3:TrackPointExtension/>
        </extensions>
      </trkpt>
      <trkpt lat="43.1219482608139514923095703125" lon="12.99675065092742443084716796875">
        <ele>953.20001220703125</ele>
        <time>2019-08-30T07:53:35.000Z</time>
        <extensions>
          <ns3:TrackPointExtension/>
        </extensions>
      </trkpt>
      <trkpt lat="43.12191900797188282012939453125" lon="12.99649634398519992828369140625">
        <ele>953.79998779296875</ele>
        <time>2019-08-30T07:53:43.000Z</time>
        <extensions>
          <ns3:TrackPointExtension/>
        </extensions>
      </trkpt>
      <trkpt lat="43.12191448174417018890380859375" lon="12.99627657048404216766357421875">
        <ele>953.79998779296875</ele>
        <time>2019-08-30T07:53:50.000Z</time>
        <extensions>
          <ns3:TrackPointExtension/>
        </extensions>
      </trkpt>
      <trkpt lat="43.12192068435251712799072265625" lon="12.99624673090875148773193359375">
        <ele>953.79998779296875</ele>
        <time>2019-08-30T07:53:51.000Z</time>
        <extensions>
          <ns3:TrackPointExtension/>
        </extensions>
      </trkpt>
      <trkpt lat="43.1220260448753833770751953125" lon="12.99604573287069797515869140625">
        <ele>952.5999755859375</ele>
        <time>2019-08-30T07:54:00.000Z</time>
        <extensions>
          <ns3:TrackPointExtension/>
        </extensions>
      </trkpt>
      <trkpt lat="43.12204121612012386322021484375" lon="12.9960260353982448577880859375">
        <ele>952.5999755859375</ele>
        <time>2019-08-30T07:54:01.000Z</time>
        <extensions>
          <ns3:TrackPointExtension/>
        </extensions>
      </trkpt>
      <trkpt lat="43.1221926771104335784912109375" lon="12.995894439518451690673828125">
        <ele>951.79998779296875</ele>
        <time>2019-08-30T07:54:09.000Z</time>
        <extensions>
          <ns3:TrackPointExtension/>
        </extensions>
      </trkpt>
      <trkpt lat="43.122325949370861053466796875" lon="12.9958131350576877593994140625">
        <ele>949.79998779296875</ele>
        <time>2019-08-30T07:54:15.000Z</time>
        <extensions>
          <ns3:TrackPointExtension/>
        </extensions>
      </trkpt>
      <trkpt lat="43.12234933488070964813232421875" lon="12.995797209441661834716796875">
        <ele>949.4000244140625</ele>
        <time>2019-08-30T07:54:16.000Z</time>
        <extensions>
          <ns3:TrackPointExtension/>
        </extensions>
      </trkpt>
      <trkpt lat="43.12241219915449619293212890625" lon="12.99573929049074649810791015625">
        <ele>948.4000244140625</ele>
        <time>2019-08-30T07:54:19.000Z</time>
        <extensions>
          <ns3:TrackPointExtension/>
        </extensions>
      </trkpt>
      <trkpt lat="43.122456036508083343505859375" lon="12.99569034017622470855712890625">
        <ele>947.4000244140625</ele>
        <time>2019-08-30T07:54:21.000Z</time>
        <extensions>
          <ns3:TrackPointExtension/>
        </extensions>
      </trkpt>
      <trkpt lat="43.12254396267235279083251953125" lon="12.9954460076987743377685546875">
        <ele>944</ele>
        <time>2019-08-30T07:54:29.000Z</time>
        <extensions>
          <ns3:TrackPointExtension/>
        </extensions>
      </trkpt>
      <trkpt lat="43.12250255607068538665771484375" lon="12.99519161693751811981201171875">
        <ele>942.4000244140625</ele>
        <time>2019-08-30T07:54:36.000Z</time>
        <extensions>
          <ns3:TrackPointExtension/>
        </extensions>
      </trkpt>
      <trkpt lat="43.12242351472377777099609375" lon="12.99509413540363311767578125">
        <ele>943</ele>
        <time>2019-08-30T07:54:39.000Z</time>
        <extensions>
          <ns3:TrackPointExtension/>
        </extensions>
      </trkpt>
      <trkpt lat="43.12239426188170909881591796875" lon="12.99506739713251590728759765625">
        <ele>943</ele>
        <time>2019-08-30T07:54:40.000Z</time>
        <extensions>
          <ns3:TrackPointExtension/>
        </extensions>
      </trkpt>
      <trkpt lat="43.12228261493146419525146484375" lon="12.9950014315545558929443359375">
        <ele>943.79998779296875</ele>
        <time>2019-08-30T07:54:44.000Z</time>
        <extensions>
          <ns3:TrackPointExtension/>
        </extensions>
      </trkpt>
      <trkpt lat="43.1222580559551715850830078125" lon="12.99498860724270343780517578125">
        <ele>944</ele>
        <time>2019-08-30T07:54:45.000Z</time>
        <extensions>
          <ns3:TrackPointExtension/>
        </extensions>
      </trkpt>
      <trkpt lat="43.122059069573879241943359375" lon="12.99492892809212207794189453125">
        <ele>946</ele>
        <time>2019-08-30T07:54:52.000Z</time>
        <extensions>
          <ns3:TrackPointExtension/>
        </extensions>
      </trkpt>
      <trkpt lat="43.12202596105635166168212890625" lon="12.9949156008660793304443359375">
        <ele>946.4000244140625</ele>
        <time>2019-08-30T07:54:53.000Z</time>
        <extensions>
          <ns3:TrackPointExtension/>
        </extensions>
      </trkpt>
      <trkpt lat="43.12199570238590240478515625" lon="12.99490763805806636810302734375">
        <ele>946.79998779296875</ele>
        <time>2019-08-30T07:54:54.000Z</time>
        <extensions>
          <ns3:TrackPointExtension/>
        </extensions>
      </trkpt>
      <trkpt lat="43.121905513107776641845703125" lon="12.99488249234855175018310546875">
        <ele>947.79998779296875</ele>
        <time>2019-08-30T07:54:57.000Z</time>
        <extensions>
          <ns3:TrackPointExtension/>
        </extensions>
      </trkpt>
      <trkpt lat="43.121821023523807525634765625" lon="12.99484661780297756195068359375">
        <ele>948.5999755859375</ele>
        <time>2019-08-30T07:55:00.000Z</time>
        <extensions>
          <ns3:TrackPointExtension/>
        </extensions>
      </trkpt>
      <trkpt lat="43.1217668764293193817138671875" lon="12.9948190413415431976318359375">
        <ele>949</ele>
        <time>2019-08-30T07:55:02.000Z</time>
        <extensions>
          <ns3:TrackPointExtension/>
        </extensions>
      </trkpt>
      <trkpt lat="43.12167593277990818023681640625" lon="12.99478660337626934051513671875">
        <ele>950.20001220703125</ele>
        <time>2019-08-30T07:55:05.000Z</time>
        <extensions>
          <ns3:TrackPointExtension/>
        </extensions>
      </trkpt>
      <trkpt lat="43.12148331664502620697021484375" lon="12.99471535719931125640869140625">
        <ele>952.79998779296875</ele>
        <time>2019-08-30T07:55:12.000Z</time>
        <extensions>
          <ns3:TrackPointExtension/>
        </extensions>
      </trkpt>
      <trkpt lat="43.1214557401835918426513671875" lon="12.994706891477108001708984375">
        <ele>953.20001220703125</ele>
        <time>2019-08-30T07:55:13.000Z</time>
        <extensions>
          <ns3:TrackPointExtension/>
        </extensions>
      </trkpt>
      <trkpt lat="43.121340572834014892578125" lon="12.99466489814221858978271484375">
        <ele>954.79998779296875</ele>
        <time>2019-08-30T07:55:17.000Z</time>
        <extensions>
          <ns3:TrackPointExtension/>
        </extensions>
      </trkpt>
      <trkpt lat="43.121313750743865966796875" lon="12.99465433694422245025634765625">
        <ele>955.20001220703125</ele>
        <time>2019-08-30T07:55:18.000Z</time>
        <extensions>
          <ns3:TrackPointExtension/>
        </extensions>
      </trkpt>
      <trkpt lat="43.12123504467308521270751953125" lon="12.994630448520183563232421875">
        <ele>956.4000244140625</ele>
        <time>2019-08-30T07:55:21.000Z</time>
        <extensions>
          <ns3:TrackPointExtension/>
        </extensions>
      </trkpt>
      <trkpt lat="43.12110059894621372222900390625" lon="12.9945838451385498046875">
        <ele>958.4000244140625</ele>
        <time>2019-08-30T07:55:26.000Z</time>
        <extensions>
          <ns3:TrackPointExtension/>
        </extensions>
      </trkpt>
      <trkpt lat="43.121074698865413665771484375" lon="12.9945732839405536651611328125">
        <ele>958.79998779296875</ele>
        <time>2019-08-30T07:55:27.000Z</time>
        <extensions>
          <ns3:TrackPointExtension/>
        </extensions>
      </trkpt>
      <trkpt lat="43.1209652312099933624267578125" lon="12.9945323802530765533447265625">
        <ele>960.4000244140625</ele>
        <time>2019-08-30T07:55:31.000Z</time>
        <extensions>
          <ns3:TrackPointExtension/>
        </extensions>
      </trkpt>
      <trkpt lat="43.12083489261567592620849609375" lon="12.9944931529462337493896484375">
        <ele>965</ele>
        <time>2019-08-30T07:55:36.000Z</time>
        <extensions>
          <ns3:TrackPointExtension/>
        </extensions>
      </trkpt>
      <trkpt lat="43.12067111022770404815673828125" lon="12.99439332447946071624755859375">
        <ele>970.4000244140625</ele>
        <time>2019-08-30T07:55:44.000Z</time>
        <extensions>
          <ns3:TrackPointExtension/>
        </extensions>
      </trkpt>
      <trkpt lat="43.1206494010984897613525390625" lon="12.99437639303505420684814453125">
        <ele>971</ele>
        <time>2019-08-30T07:55:45.000Z</time>
        <extensions>
          <ns3:TrackPointExtension/>
        </extensions>
      </trkpt>
      <trkpt lat="43.1205640733242034912109375" lon="12.99426943995058536529541015625">
        <ele>973</ele>
        <time>2019-08-30T07:55:50.000Z</time>
        <extensions>
          <ns3:TrackPointExtension/>
        </extensions>
      </trkpt>
      <trkpt lat="43.12054571695625782012939453125" lon="12.9942457191646099090576171875">
        <ele>973.4000244140625</ele>
        <time>2019-08-30T07:55:51.000Z</time>
        <extensions>
          <ns3:TrackPointExtension/>
        </extensions>
      </trkpt>
      <trkpt lat="43.120509088039398193359375" lon="12.99417220987379550933837890625">
        <ele>973.79998779296875</ele>
        <time>2019-08-30T07:55:54.000Z</time>
        <extensions>
          <ns3:TrackPointExtension/>
        </extensions>
      </trkpt>
      <trkpt lat="43.12042904086410999298095703125" lon="12.99395092763006687164306640625">
        <ele>973.79998779296875</ele>
        <time>2019-08-30T07:56:03.000Z</time>
        <extensions>
          <ns3:TrackPointExtension/>
        </extensions>
      </trkpt>
      <trkpt lat="43.12038528732955455780029296875" lon="12.993712127208709716796875">
        <ele>972.20001220703125</ele>
        <time>2019-08-30T07:56:11.000Z</time>
        <extensions>
          <ns3:TrackPointExtension/>
        </extensions>
      </trkpt>
      <trkpt lat="43.12038612551987171173095703125" lon="12.9936804436147212982177734375">
        <ele>971.79998779296875</ele>
        <time>2019-08-30T07:56:12.000Z</time>
        <extensions>
          <ns3:TrackPointExtension/>
        </extensions>
      </trkpt>
      <trkpt lat="43.12039081938564777374267578125" lon="12.9936472512781620025634765625">
        <ele>971.5999755859375</ele>
        <time>2019-08-30T07:56:13.000Z</time>
        <extensions>
          <ns3:TrackPointExtension/>
        </extensions>
      </trkpt>
      <trkpt lat="43.1204750575125217437744140625" lon="12.99342052079737186431884765625">
        <ele>968.79998779296875</ele>
        <time>2019-08-30T07:56:21.000Z</time>
        <extensions>
          <ns3:TrackPointExtension/>
        </extensions>
      </trkpt>
      <trkpt lat="43.12045904807746410369873046875" lon="12.99316252581775188446044921875">
        <ele>969.4000244140625</ele>
        <time>2019-08-30T07:56:29.000Z</time>
        <extensions>
          <ns3:TrackPointExtension/>
        </extensions>
      </trkpt>
      <trkpt lat="43.120304904878139495849609375" lon="12.99303059466183185577392578125">
        <ele>974</ele>
        <time>2019-08-30T07:56:37.000Z</time>
        <extensions>
          <ns3:TrackPointExtension/>
        </extensions>
      </trkpt>
      <trkpt lat="43.12027649022638797760009765625" lon="12.993014417588710784912109375">
        <ele>974.79998779296875</ele>
        <time>2019-08-30T07:56:38.000Z</time>
        <extensions>
          <ns3:TrackPointExtension/>
        </extensions>
      </trkpt>
      <trkpt lat="43.1201887317001819610595703125" lon="12.99295046366751194000244140625">
        <ele>977.4000244140625</ele>
        <time>2019-08-30T07:56:42.000Z</time>
        <extensions>
          <ns3:TrackPointExtension/>
        </extensions>
      </trkpt>
      <trkpt lat="43.1200184114277362823486328125" lon="12.99282456748187541961669921875">
        <ele>982</ele>
        <time>2019-08-30T07:56:50.000Z</time>
        <extensions>
          <ns3:TrackPointExtension/>
        </extensions>
      </trkpt>
      <trkpt lat="43.1199815310537815093994140625" lon="12.9927896149456501007080078125">
        <ele>983</ele>
        <time>2019-08-30T07:56:52.000Z</time>
        <extensions>
          <ns3:TrackPointExtension/>
        </extensions>
      </trkpt>
      <trkpt lat="43.11989410780370235443115234375" lon="12.992713339626789093017578125">
        <ele>985</ele>
        <time>2019-08-30T07:56:56.000Z</time>
        <extensions>
          <ns3:TrackPointExtension/>
        </extensions>
      </trkpt>
      <trkpt lat="43.1197877414524555206298828125" lon="12.9924757964909076690673828125">
        <ele>991</ele>
        <time>2019-08-30T07:57:04.000Z</time>
        <extensions>
          <ns3:TrackPointExtension/>
        </extensions>
      </trkpt>
      <trkpt lat="43.11979989521205425262451171875" lon="12.9924422688782215118408203125">
        <ele>991.79998779296875</ele>
        <time>2019-08-30T07:57:05.000Z</time>
        <extensions>
          <ns3:TrackPointExtension/>
        </extensions>
      </trkpt>
      <trkpt lat="43.11998345889151096343994140625" lon="12.9924010299146175384521484375">
        <ele>988.5999755859375</ele>
        <time>2019-08-30T07:57:13.000Z</time>
        <extensions>
          <ns3:TrackPointExtension/>
        </extensions>
      </trkpt>
      <trkpt lat="43.12017406336963176727294921875" lon="12.99244545400142669677734375">
        <ele>981.5999755859375</ele>
        <time>2019-08-30T07:57:18.000Z</time>
        <extensions>
          <ns3:TrackPointExtension/>
        </extensions>
      </trkpt>
      <trkpt lat="43.120212368667125701904296875" lon="12.99244838766753673553466796875">
        <ele>980.20001220703125</ele>
        <time>2019-08-30T07:57:19.000Z</time>
        <extensions>
          <ns3:TrackPointExtension/>
        </extensions>
      </trkpt>
      <trkpt lat="43.12033248133957386016845703125" lon="12.99245760776102542877197265625">
        <ele>975.79998779296875</ele>
        <time>2019-08-30T07:57:22.000Z</time>
        <extensions>
          <ns3:TrackPointExtension/>
        </extensions>
      </trkpt>
      <trkpt lat="43.12046349048614501953125" lon="12.99242265522480010986328125">
        <ele>972.20001220703125</ele>
        <time>2019-08-30T07:57:25.000Z</time>
        <extensions>
          <ns3:TrackPointExtension/>
        </extensions>
      </trkpt>
      <trkpt lat="43.120637834072113037109375" lon="12.99224437214434146881103515625">
        <ele>971.20001220703125</ele>
        <time>2019-08-30T07:57:30.000Z</time>
        <extensions>
          <ns3:TrackPointExtension/>
        </extensions>
      </trkpt>
      <trkpt lat="43.1207560189068317413330078125" lon="12.992002554237842559814453125">
        <ele>970.4000244140625</ele>
        <time>2019-08-30T07:57:35.000Z</time>
        <extensions>
          <ns3:TrackPointExtension/>
        </extensions>
      </trkpt>
      <trkpt lat="43.12087059952318668365478515625" lon="12.99178940244019031524658203125">
        <ele>969.20001220703125</ele>
        <time>2019-08-30T07:57:40.000Z</time>
        <extensions>
          <ns3:TrackPointExtension/>
        </extensions>
      </trkpt>
      <trkpt lat="43.1209390796720981597900390625" lon="12.9916178248822689056396484375">
        <ele>967.5999755859375</ele>
        <time>2019-08-30T07:57:44.000Z</time>
        <extensions>
          <ns3:TrackPointExtension/>
        </extensions>
      </trkpt>
      <trkpt lat="43.1209524907171726226806640625" lon="12.99157415516674518585205078125">
        <ele>967</ele>
        <time>2019-08-30T07:57:45.000Z</time>
        <extensions>
          <ns3:TrackPointExtension/>
        </extensions>
      </trkpt>
      <trkpt lat="43.12098979018628597259521484375" lon="12.991441972553730010986328125">
        <ele>966</ele>
        <time>2019-08-30T07:57:48.000Z</time>
        <extensions>
          <ns3:TrackPointExtension/>
        </extensions>
      </trkpt>
      <trkpt lat="43.12100470997393131256103515625" lon="12.99140366725623607635498046875">
        <ele>965.4000244140625</ele>
        <time>2019-08-30T07:57:49.000Z</time>
        <extensions>
          <ns3:TrackPointExtension/>
        </extensions>
      </trkpt>
      <trkpt lat="43.12101535499095916748046875" lon="12.9913633503019809722900390625">
        <ele>965</ele>
        <time>2019-08-30T07:57:50.000Z</time>
        <extensions>
          <ns3:TrackPointExtension/>
        </extensions>
      </trkpt>
      <trkpt lat="43.12103555537760257720947265625" lon="12.99127542413771152496337890625">
        <ele>964.5999755859375</ele>
        <time>2019-08-30T07:57:52.000Z</time>
        <extensions>
          <ns3:TrackPointExtension/>
        </extensions>
      </trkpt>
      <trkpt lat="43.12108115293085575103759765625" lon="12.99098758958280086517333984375">
        <ele>964</ele>
        <time>2019-08-30T07:57:58.000Z</time>
        <extensions>
          <ns3:TrackPointExtension/>
        </extensions>
      </trkpt>
      <trkpt lat="43.12106925062835216522216796875" lon="12.99071274697780609130859375">
        <ele>965.20001220703125</ele>
        <time>2019-08-30T07:58:03.000Z</time>
        <extensions>
          <ns3:TrackPointExtension/>
        </extensions>
      </trkpt>
      <trkpt lat="43.121054582297801971435546875" lon="12.990423403680324554443359375">
        <ele>965.79998779296875</ele>
        <time>2019-08-30T07:58:08.000Z</time>
        <extensions>
          <ns3:TrackPointExtension/>
        </extensions>
      </trkpt>
      <trkpt lat="43.1210510618984699249267578125" lon="12.9903665743768215179443359375">
        <ele>966</ele>
        <time>2019-08-30T07:58:09.000Z</time>
        <extensions>
          <ns3:TrackPointExtension/>
        </extensions>
      </trkpt>
      <trkpt lat="43.12105156481266021728515625" lon="12.9903112538158893585205078125">
        <ele>966</ele>
        <time>2019-08-30T07:58:10.000Z</time>
        <extensions>
          <ns3:TrackPointExtension/>
        </extensions>
      </trkpt>
      <trkpt lat="43.12105483375489711761474609375" lon="12.9900906421244144439697265625">
        <ele>966.5999755859375</ele>
        <time>2019-08-30T07:58:14.000Z</time>
        <extensions>
          <ns3:TrackPointExtension/>
        </extensions>
      </trkpt>
      <trkpt lat="43.12107168138027191162109375" lon="12.989931218326091766357421875">
        <ele>966.4000244140625</ele>
        <time>2019-08-30T07:58:17.000Z</time>
        <extensions>
          <ns3:TrackPointExtension/>
        </extensions>
      </trkpt>
      <trkpt lat="43.12109037302434444427490234375" lon="12.9896668531000614166259765625">
        <ele>966</ele>
        <time>2019-08-30T07:58:22.000Z</time>
        <extensions>
          <ns3:TrackPointExtension/>
        </extensions>
      </trkpt>
      <trkpt lat="43.1210966594517230987548828125" lon="12.98961438238620758056640625">
        <ele>965.79998779296875</ele>
        <time>2019-08-30T07:58:23.000Z</time>
        <extensions>
          <ns3:TrackPointExtension/>
        </extensions>
      </trkpt>
      <trkpt lat="43.121110908687114715576171875" lon="12.98951120115816593170166015625">
        <ele>965.4000244140625</ele>
        <time>2019-08-30T07:58:25.000Z</time>
        <extensions>
          <ns3:TrackPointExtension/>
        </extensions>
      </trkpt>
      <trkpt lat="43.12116379849612712860107421875" lon="12.98924583010375499725341796875">
        <ele>964.5999755859375</ele>
        <time>2019-08-30T07:58:31.000Z</time>
        <extensions>
          <ns3:TrackPointExtension/>
        </extensions>
      </trkpt>
      <trkpt lat="43.12117452733218669891357421875" lon="12.9892075248062610626220703125">
        <ele>964.5999755859375</ele>
        <time>2019-08-30T07:58:32.000Z</time>
        <extensions>
          <ns3:TrackPointExtension/>
        </extensions>
      </trkpt>
      <trkpt lat="43.12121811322867870330810546875" lon="12.98896637745201587677001953125">
        <ele>964.5999755859375</ele>
        <time>2019-08-30T07:58:38.000Z</time>
        <extensions>
          <ns3:TrackPointExtension/>
        </extensions>
      </trkpt>
      <trkpt lat="43.12122230418026447296142578125" lon="12.988915331661701202392578125">
        <ele>964.79998779296875</ele>
        <time>2019-08-30T07:58:39.000Z</time>
        <extensions>
          <ns3:TrackPointExtension/>
        </extensions>
      </trkpt>
      <trkpt lat="43.12123236246407032012939453125" lon="12.988866381347179412841796875">
        <ele>964.79998779296875</ele>
        <time>2019-08-30T07:58:40.000Z</time>
        <extensions>
          <ns3:TrackPointExtension/>
        </extensions>
      </trkpt>
      <trkpt lat="43.121262453496456146240234375" lon="12.9885953105986118316650390625">
        <ele>965.79998779296875</ele>
        <time>2019-08-30T07:58:45.000Z</time>
        <extensions>
          <ns3:TrackPointExtension/>
        </extensions>
      </trkpt>
      <trkpt lat="43.12129321508109569549560546875" lon="12.988338656723499298095703125">
        <ele>966.5999755859375</ele>
        <time>2019-08-30T07:58:52.000Z</time>
        <extensions>
          <ns3:TrackPointExtension/>
        </extensions>
      </trkpt>
      <trkpt lat="43.1213290058076381683349609375" lon="12.98814176581799983978271484375">
        <ele>965</ele>
        <time>2019-08-30T07:59:01.000Z</time>
        <extensions>
          <ns3:TrackPointExtension/>
        </extensions>
      </trkpt>
      <trkpt lat="43.1213271617889404296875" lon="12.9881103336811065673828125">
        <ele>965</ele>
        <time>2019-08-30T07:59:02.000Z</time>
        <extensions>
          <ns3:TrackPointExtension/>
        </extensions>
      </trkpt>
      <trkpt lat="43.12135859392583370208740234375" lon="12.98784806393086910247802734375">
        <ele>964</ele>
        <time>2019-08-30T07:59:10.000Z</time>
        <extensions>
          <ns3:TrackPointExtension/>
        </extensions>
      </trkpt>
      <trkpt lat="43.1213756091892719268798828125" lon="12.9876840300858020782470703125">
        <ele>963.79998779296875</ele>
        <time>2019-08-30T07:59:15.000Z</time>
        <extensions>
          <ns3:TrackPointExtension/>
        </extensions>
      </trkpt>
      <trkpt lat="43.121378459036350250244140625" lon="12.98765259794890880584716796875">
        <ele>963.79998779296875</ele>
        <time>2019-08-30T07:59:16.000Z</time>
        <extensions>
          <ns3:TrackPointExtension/>
        </extensions>
      </trkpt>
      <trkpt lat="43.121385164558887481689453125" lon="12.98758252523839473724365234375">
        <ele>963.79998779296875</ele>
        <time>2019-08-30T07:59:18.000Z</time>
        <extensions>
          <ns3:TrackPointExtension/>
        </extensions>
      </trkpt>
      <trkpt lat="43.1214047782123088836669921875" lon="12.987344563007354736328125">
        <ele>962.5999755859375</ele>
        <time>2019-08-30T07:59:24.000Z</time>
        <extensions>
          <ns3:TrackPointExtension/>
        </extensions>
      </trkpt>
      <trkpt lat="43.12140352092683315277099609375" lon="12.98730156384408473968505859375">
        <ele>962.5999755859375</ele>
        <time>2019-08-30T07:59:25.000Z</time>
        <extensions>
          <ns3:TrackPointExtension/>
        </extensions>
      </trkpt>
      <trkpt lat="43.12141500413417816162109375" lon="12.98713325522840023040771484375">
        <ele>962.4000244140625</ele>
        <time>2019-08-30T07:59:29.000Z</time>
        <extensions>
          <ns3:TrackPointExtension/>
        </extensions>
      </trkpt>
      <trkpt lat="43.12141877599060535430908203125" lon="12.98685749061405658721923828125">
        <ele>963</ele>
        <time>2019-08-30T07:59:36.000Z</time>
        <extensions>
          <ns3:TrackPointExtension/>
        </extensions>
      </trkpt>
      <trkpt lat="43.12141500413417816162109375" lon="12.98678171820938587188720703125">
        <ele>963.20001220703125</ele>
        <time>2019-08-30T07:59:38.000Z</time>
        <extensions>
          <ns3:TrackPointExtension/>
        </extensions>
      </trkpt>
      <trkpt lat="43.1214118190109729766845703125" lon="12.98674332909286022186279296875">
        <ele>963.20001220703125</ele>
        <time>2019-08-30T07:59:39.000Z</time>
        <extensions>
          <ns3:TrackPointExtension/>
        </extensions>
      </trkpt>
      <trkpt lat="43.12139379791915416717529296875" lon="12.98662916757166385650634765625">
        <ele>961.79998779296875</ele>
        <time>2019-08-30T07:59:42.000Z</time>
        <extensions>
          <ns3:TrackPointExtension/>
        </extensions>
      </trkpt>
      <trkpt lat="43.121379129588603973388671875" lon="12.986479215323925018310546875">
        <ele>959.79998779296875</ele>
        <time>2019-08-30T07:59:46.000Z</time>
        <extensions>
          <ns3:TrackPointExtension/>
        </extensions>
      </trkpt>
      <trkpt lat="43.1213766150176525115966796875" lon="12.986446358263492584228515625">
        <ele>959.4000244140625</ele>
        <time>2019-08-30T07:59:47.000Z</time>
        <extensions>
          <ns3:TrackPointExtension/>
        </extensions>
      </trkpt>
      <trkpt lat="43.12133277766406536102294921875" lon="12.98620185814797878265380859375">
        <ele>958.4000244140625</ele>
        <time>2019-08-30T07:59:54.000Z</time>
        <extensions>
          <ns3:TrackPointExtension/>
        </extensions>
      </trkpt>
      <trkpt lat="43.121328167617321014404296875" lon="12.98613580875098705291748046875">
        <ele>958.5999755859375</ele>
        <time>2019-08-30T07:59:56.000Z</time>
        <extensions>
          <ns3:TrackPointExtension/>
        </extensions>
      </trkpt>
      <trkpt lat="43.12130528502166271209716796875" lon="12.98599474132061004638671875">
        <ele>959</ele>
        <time>2019-08-30T08:00:00.000Z</time>
        <extensions>
          <ns3:TrackPointExtension/>
        </extensions>
      </trkpt>
      <trkpt lat="43.12126706354320049285888671875" lon="12.98572107218205928802490234375">
        <ele>957.5999755859375</ele>
        <time>2019-08-30T08:00:08.000Z</time>
        <extensions>
          <ns3:TrackPointExtension/>
        </extensions>
      </trkpt>
      <trkpt lat="43.12124946154654026031494140625" lon="12.9855637438595294952392578125">
        <ele>956.4000244140625</ele>
        <time>2019-08-30T08:00:12.000Z</time>
        <extensions>
          <ns3:TrackPointExtension/>
        </extensions>
      </trkpt>
      <trkpt lat="43.12117452733218669891357421875" lon="12.98530264757573604583740234375">
        <ele>954.4000244140625</ele>
        <time>2019-08-30T08:00:18.000Z</time>
        <extensions>
          <ns3:TrackPointExtension/>
        </extensions>
      </trkpt>
      <trkpt lat="43.12111350707709789276123046875" lon="12.9850192554295063018798828125">
        <ele>953</ele>
        <time>2019-08-30T08:00:24.000Z</time>
        <extensions>
          <ns3:TrackPointExtension/>
        </extensions>
      </trkpt>
      <trkpt lat="43.121076039969921112060546875" lon="12.9848204366862773895263671875">
        <ele>951.79998779296875</ele>
        <time>2019-08-30T08:00:28.000Z</time>
        <extensions>
          <ns3:TrackPointExtension/>
        </extensions>
      </trkpt>
      <trkpt lat="43.12106690369546413421630859375" lon="12.9847758449614048004150390625">
        <ele>951.4000244140625</ele>
        <time>2019-08-30T08:00:29.000Z</time>
        <extensions>
          <ns3:TrackPointExtension/>
        </extensions>
      </trkpt>
      <trkpt lat="43.1210413388907909393310546875" lon="12.984643243253231048583984375">
        <ele>950.5999755859375</ele>
        <time>2019-08-30T08:00:32.000Z</time>
        <extensions>
          <ns3:TrackPointExtension/>
        </extensions>
      </trkpt>
      <trkpt lat="43.12100186012685298919677734375" lon="12.98439220525324344635009765625">
        <ele>949</ele>
        <time>2019-08-30T08:00:37.000Z</time>
        <extensions>
          <ns3:TrackPointExtension/>
        </extensions>
      </trkpt>
      <trkpt lat="43.12097419984638690948486328125" lon="12.98417461104691028594970703125">
        <ele>948.20001220703125</ele>
        <time>2019-08-30T08:00:41.000Z</time>
        <extensions>
          <ns3:TrackPointExtension/>
        </extensions>
      </trkpt>
      <trkpt lat="43.12096665613353252410888671875" lon="12.98411845229566097259521484375">
        <ele>948.20001220703125</ele>
        <time>2019-08-30T08:00:42.000Z</time>
        <extensions>
          <ns3:TrackPointExtension/>
        </extensions>
      </trkpt>
      <trkpt lat="43.12091745436191558837890625" lon="12.98389214091002941131591796875">
        <ele>947.4000244140625</ele>
        <time>2019-08-30T08:00:46.000Z</time>
        <extensions>
          <ns3:TrackPointExtension/>
        </extensions>
      </trkpt>
      <trkpt lat="43.12090161256492137908935546875" lon="12.98383614979684352874755859375">
        <ele>947.20001220703125</ele>
        <time>2019-08-30T08:00:47.000Z</time>
        <extensions>
          <ns3:TrackPointExtension/>
        </extensions>
      </trkpt>
      <trkpt lat="43.12081594951450824737548828125" lon="12.98363900743424892425537109375">
        <ele>946.5999755859375</ele>
        <time>2019-08-30T08:00:51.000Z</time>
        <extensions>
          <ns3:TrackPointExtension/>
        </extensions>
      </trkpt>
      <trkpt lat="43.12079004943370819091796875" lon="12.9835936613380908966064453125">
        <ele>946.4000244140625</ele>
        <time>2019-08-30T08:00:52.000Z</time>
        <extensions>
          <ns3:TrackPointExtension/>
        </extensions>
      </trkpt>
      <trkpt lat="43.1206644885241985321044921875" lon="12.98337028361856937408447265625">
        <ele>945.4000244140625</ele>
        <time>2019-08-30T08:00:57.000Z</time>
        <extensions>
          <ns3:TrackPointExtension/>
        </extensions>
      </trkpt>
      <trkpt lat="43.120620064437389373779296875" lon="12.983289062976837158203125">
        <ele>945</ele>
        <time>2019-08-30T08:00:59.000Z</time>
        <extensions>
          <ns3:TrackPointExtension/>
        </extensions>
      </trkpt>
      <trkpt lat="43.120548315346240997314453125" lon="12.98316844739019870758056640625">
        <ele>944.4000244140625</ele>
        <time>2019-08-30T08:01:02.000Z</time>
        <extensions>
          <ns3:TrackPointExtension/>
        </extensions>
      </trkpt>
      <trkpt lat="43.12049810774624347686767578125" lon="12.98309485428035259246826171875">
        <ele>944</ele>
        <time>2019-08-30T08:01:04.000Z</time>
        <extensions>
          <ns3:TrackPointExtension/>
        </extensions>
      </trkpt>
      <trkpt lat="43.1203707866370677947998046875" lon="12.9829014837741851806640625">
        <ele>943</ele>
        <time>2019-08-30T08:01:09.000Z</time>
        <extensions>
          <ns3:TrackPointExtension/>
        </extensions>
      </trkpt>
      <trkpt lat="43.1202878057956695556640625" lon="12.98276879824697971343994140625">
        <ele>942.4000244140625</ele>
        <time>2019-08-30T08:01:12.000Z</time>
        <extensions>
          <ns3:TrackPointExtension/>
        </extensions>
      </trkpt>
      <trkpt lat="43.1202591396868228912353515625" lon="12.9827252961695194244384765625">
        <ele>942.20001220703125</ele>
        <time>2019-08-30T08:01:13.000Z</time>
        <extensions>
          <ns3:TrackPointExtension/>
        </extensions>
      </trkpt>
      <trkpt lat="43.12011823989450931549072265625" lon="12.9825087077915668487548828125">
        <ele>941.4000244140625</ele>
        <time>2019-08-30T08:01:18.000Z</time>
        <extensions>
          <ns3:TrackPointExtension/>
        </extensions>
      </trkpt>
      <trkpt lat="43.120063841342926025390625" lon="12.98241893760859966278076171875">
        <ele>941.20001220703125</ele>
        <time>2019-08-30T08:01:20.000Z</time>
        <extensions>
          <ns3:TrackPointExtension/>
        </extensions>
      </trkpt>
      <trkpt lat="43.11994221992790699005126953125" lon="12.98220503143966197967529296875">
        <ele>940.79998779296875</ele>
        <time>2019-08-30T08:01:25.000Z</time>
        <extensions>
          <ns3:TrackPointExtension/>
        </extensions>
      </trkpt>
      <trkpt lat="43.11992025934159755706787109375" lon="12.98216521739959716796875">
        <ele>940.79998779296875</ele>
        <time>2019-08-30T08:01:26.000Z</time>
        <extensions>
          <ns3:TrackPointExtension/>
        </extensions>
      </trkpt>
      <trkpt lat="43.11989662237465381622314453125" lon="12.9821263253688812255859375">
        <ele>940.5999755859375</ele>
        <time>2019-08-30T08:01:27.000Z</time>
        <extensions>
          <ns3:TrackPointExtension/>
        </extensions>
      </trkpt>
      <trkpt lat="43.11979654245078563690185546875" lon="12.981965728104114532470703125">
        <ele>940.20001220703125</ele>
        <time>2019-08-30T08:01:31.000Z</time>
        <extensions>
          <ns3:TrackPointExtension/>
        </extensions>
      </trkpt>
      <trkpt lat="43.1197723187506198883056640625" lon="12.9819270037114620208740234375">
        <ele>940.20001220703125</ele>
        <time>2019-08-30T08:01:32.000Z</time>
        <extensions>
          <ns3:TrackPointExtension/>
        </extensions>
      </trkpt>
      <trkpt lat="43.1196586601436138153076171875" lon="12.98173279501497745513916015625">
        <ele>939.79998779296875</ele>
        <time>2019-08-30T08:01:37.000Z</time>
        <extensions>
          <ns3:TrackPointExtension/>
        </extensions>
      </trkpt>
      <trkpt lat="43.11956989578902721405029296875" lon="12.98158653080463409423828125">
        <ele>939.4000244140625</ele>
        <time>2019-08-30T08:01:41.000Z</time>
        <extensions>
          <ns3:TrackPointExtension/>
        </extensions>
      </trkpt>
      <trkpt lat="43.1195282377302646636962890625" lon="12.9815156199038028717041015625">
        <ele>939.20001220703125</ele>
        <time>2019-08-30T08:01:43.000Z</time>
        <extensions>
          <ns3:TrackPointExtension/>
        </extensions>
      </trkpt>
      <trkpt lat="43.11940343119204044342041015625" lon="12.9812906496226787567138671875">
        <ele>938.79998779296875</ele>
        <time>2019-08-30T08:01:49.000Z</time>
        <extensions>
          <ns3:TrackPointExtension/>
        </extensions>
      </trkpt>
      <trkpt lat="43.1193894334137439727783203125" lon="12.9812574572861194610595703125">
        <ele>938.79998779296875</ele>
        <time>2019-08-30T08:01:50.000Z</time>
        <extensions>
          <ns3:TrackPointExtension/>
        </extensions>
      </trkpt>
      <trkpt lat="43.1193012557923793792724609375" lon="12.98111370764672756195068359375">
        <ele>938.4000244140625</ele>
        <time>2019-08-30T08:01:54.000Z</time>
        <extensions>
          <ns3:TrackPointExtension/>
        </extensions>
      </trkpt>
      <trkpt lat="43.11927585862576961517333984375" lon="12.98107934184372425079345703125">
        <ele>938.20001220703125</ele>
        <time>2019-08-30T08:01:55.000Z</time>
        <extensions>
          <ns3:TrackPointExtension/>
        </extensions>
      </trkpt>
      <trkpt lat="43.119157589972019195556640625" lon="12.98089862801134586334228515625">
        <ele>938.5999755859375</ele>
        <time>2019-08-30T08:02:00.000Z</time>
        <extensions>
          <ns3:TrackPointExtension/>
        </extensions>
      </trkpt>
      <trkpt lat="43.119064383208751678466796875" lon="12.9807625897228717803955078125">
        <ele>938.79998779296875</ele>
        <time>2019-08-30T08:02:04.000Z</time>
        <extensions>
          <ns3:TrackPointExtension/>
        </extensions>
      </trkpt>
      <trkpt lat="43.1190166063606739044189453125" lon="12.98069335520267486572265625">
        <ele>938.79998779296875</ele>
        <time>2019-08-30T08:02:06.000Z</time>
        <extensions>
          <ns3:TrackPointExtension/>
        </extensions>
      </trkpt>
      <trkpt lat="43.1189089827239513397216796875" lon="12.98055513761937618255615234375">
        <ele>939</ele>
        <time>2019-08-30T08:02:10.000Z</time>
        <extensions>
          <ns3:TrackPointExtension/>
        </extensions>
      </trkpt>
      <trkpt lat="43.11876104213297367095947265625" lon="12.9803810454905033111572265625">
        <ele>939.20001220703125</ele>
        <time>2019-08-30T08:02:15.000Z</time>
        <extensions>
          <ns3:TrackPointExtension/>
        </extensions>
      </trkpt>
      <trkpt lat="43.11869532801210880279541015625" lon="12.9803160019218921661376953125">
        <ele>939.20001220703125</ele>
        <time>2019-08-30T08:02:17.000Z</time>
        <extensions>
          <ns3:TrackPointExtension/>
        </extensions>
      </trkpt>
      <trkpt lat="43.11862844042479991912841796875" lon="12.98025288619101047515869140625">
        <ele>939.20001220703125</ele>
        <time>2019-08-30T08:02:19.000Z</time>
        <extensions>
          <ns3:TrackPointExtension/>
        </extensions>
      </trkpt>
      <trkpt lat="43.11843297444283962249755859375" lon="12.9801369644701480865478515625">
        <ele>938.79998779296875</ele>
        <time>2019-08-30T08:02:24.000Z</time>
        <extensions>
          <ns3:TrackPointExtension/>
        </extensions>
      </trkpt>
      <trkpt lat="43.118238933384418487548828125" lon="12.9800192825496196746826171875">
        <ele>937.5999755859375</ele>
        <time>2019-08-30T08:02:29.000Z</time>
        <extensions>
          <ns3:TrackPointExtension/>
        </extensions>
      </trkpt>
      <trkpt lat="43.1181998737156391143798828125" lon="12.97998902387917041778564453125">
        <ele>937.20001220703125</ele>
        <time>2019-08-30T08:02:30.000Z</time>
        <extensions>
          <ns3:TrackPointExtension/>
        </extensions>
      </trkpt>
      <trkpt lat="43.11804137192666530609130859375" lon="12.97983060590922832489013671875">
        <ele>935.79998779296875</ele>
        <time>2019-08-30T08:02:34.000Z</time>
        <extensions>
          <ns3:TrackPointExtension/>
        </extensions>
      </trkpt>
      <trkpt lat="43.11793391592800617218017578125" lon="12.9796296916902065277099609375">
        <ele>934.4000244140625</ele>
        <time>2019-08-30T08:02:38.000Z</time>
        <extensions>
          <ns3:TrackPointExtension/>
        </extensions>
      </trkpt>
      <trkpt lat="43.117845319211483001708984375" lon="12.97939022071659564971923828125">
        <ele>933.20001220703125</ele>
        <time>2019-08-30T08:02:43.000Z</time>
        <extensions>
          <ns3:TrackPointExtension/>
        </extensions>
      </trkpt>
      <trkpt lat="43.11783157289028167724609375" lon="12.97934931702911853790283203125">
        <ele>933</ele>
        <time>2019-08-30T08:02:44.000Z</time>
        <extensions>
          <ns3:TrackPointExtension/>
        </extensions>
      </trkpt>
      <trkpt lat="43.1178188323974609375" lon="12.97930925153195858001708984375">
        <ele>932.79998779296875</ele>
        <time>2019-08-30T08:02:45.000Z</time>
        <extensions>
          <ns3:TrackPointExtension/>
        </extensions>
      </trkpt>
      <trkpt lat="43.11777985654771327972412109375" lon="12.97917849384248256683349609375">
        <ele>932.4000244140625</ele>
        <time>2019-08-30T08:02:48.000Z</time>
        <extensions>
          <ns3:TrackPointExtension/>
        </extensions>
      </trkpt>
      <trkpt lat="43.11770508997142314910888671875" lon="12.97899241559207439422607421875">
        <ele>931.79998779296875</ele>
        <time>2019-08-30T08:02:52.000Z</time>
        <extensions>
          <ns3:TrackPointExtension/>
        </extensions>
      </trkpt>
      <trkpt lat="43.11761389486491680145263671875" lon="12.9787666909396648406982421875">
        <ele>931</ele>
        <time>2019-08-30T08:02:57.000Z</time>
        <extensions>
          <ns3:TrackPointExtension/>
        </extensions>
      </trkpt>
      <trkpt lat="43.11749897897243499755859375" lon="12.97855236567556858062744140625">
        <ele>930.4000244140625</ele>
        <time>2019-08-30T08:03:02.000Z</time>
        <extensions>
          <ns3:TrackPointExtension/>
        </extensions>
      </trkpt>
      <trkpt lat="43.11745832674205303192138671875" lon="12.97846854664385318756103515625">
        <ele>930.20001220703125</ele>
        <time>2019-08-30T08:03:04.000Z</time>
        <extensions>
          <ns3:TrackPointExtension/>
        </extensions>
      </trkpt>
      <trkpt lat="43.11743871308863162994384765625" lon="12.97842093743383884429931640625">
        <ele>930</ele>
        <time>2019-08-30T08:03:05.000Z</time>
        <extensions>
          <ns3:TrackPointExtension/>
        </extensions>
      </trkpt>
      <trkpt lat="43.11740451492369174957275390625" lon="12.97832370735704898834228515625">
        <ele>929.79998779296875</ele>
        <time>2019-08-30T08:03:07.000Z</time>
        <extensions>
          <ns3:TrackPointExtension/>
        </extensions>
      </trkpt>
      <trkpt lat="43.11732840724289417266845703125" lon="12.9780733399093151092529296875">
        <ele>929.20001220703125</ele>
        <time>2019-08-30T08:03:12.000Z</time>
        <extensions>
          <ns3:TrackPointExtension/>
        </extensions>
      </trkpt>
      <trkpt lat="43.1173150800168514251708984375" lon="12.9780230484902858734130859375">
        <ele>929.20001220703125</ele>
        <time>2019-08-30T08:03:13.000Z</time>
        <extensions>
          <ns3:TrackPointExtension/>
        </extensions>
      </trkpt>
      <trkpt lat="43.1172466836869716644287109375" lon="12.9777685739099979400634765625">
        <ele>928.5999755859375</ele>
        <time>2019-08-30T08:03:18.000Z</time>
        <extensions>
          <ns3:TrackPointExtension/>
        </extensions>
      </trkpt>
      <trkpt lat="43.117186166346073150634765625" lon="12.9775120876729488372802734375">
        <ele>928</ele>
        <time>2019-08-30T08:03:23.000Z</time>
        <extensions>
          <ns3:TrackPointExtension/>
        </extensions>
      </trkpt>
      <trkpt lat="43.117161355912685394287109375" lon="12.9774031229317188262939453125">
        <ele>927.5999755859375</ele>
        <time>2019-08-30T08:03:25.000Z</time>
        <extensions>
          <ns3:TrackPointExtension/>
        </extensions>
      </trkpt>
      <trkpt lat="43.11712321825325489044189453125" lon="12.97724093310534954071044921875">
        <ele>927.20001220703125</ele>
        <time>2019-08-30T08:03:28.000Z</time>
        <extensions>
          <ns3:TrackPointExtension/>
        </extensions>
      </trkpt>
      <trkpt lat="43.11708591878414154052734375" lon="12.977078743278980255126953125">
        <ele>927</ele>
        <time>2019-08-30T08:03:31.000Z</time>
        <extensions>
          <ns3:TrackPointExtension/>
        </extensions>
      </trkpt>
      <trkpt lat="43.11704836785793304443359375" lon="12.97687883488833904266357421875">
        <ele>926.4000244140625</ele>
        <time>2019-08-30T08:03:35.000Z</time>
        <extensions>
          <ns3:TrackPointExtension/>
        </extensions>
      </trkpt>
      <trkpt lat="43.1169999204576015472412109375" lon="12.976659648120403289794921875">
        <ele>925.5999755859375</ele>
        <time>2019-08-30T08:03:41.000Z</time>
        <extensions>
          <ns3:TrackPointExtension/>
        </extensions>
      </trkpt>
      <trkpt lat="43.11698810197412967681884765625" lon="12.97660793177783489227294921875">
        <ele>925.4000244140625</ele>
        <time>2019-08-30T08:03:43.000Z</time>
        <extensions>
          <ns3:TrackPointExtension/>
        </extensions>
      </trkpt>
      <trkpt lat="43.116925321519374847412109375" lon="12.97636468894779682159423828125">
        <ele>924.5999755859375</ele>
        <time>2019-08-30T08:03:51.000Z</time>
        <extensions>
          <ns3:TrackPointExtension/>
        </extensions>
      </trkpt>
      <trkpt lat="43.11688651330769062042236328125" lon="12.976204343140125274658203125">
        <ele>924.20001220703125</ele>
        <time>2019-08-30T08:03:54.000Z</time>
        <extensions>
          <ns3:TrackPointExtension/>
        </extensions>
      </trkpt>
      <trkpt lat="43.11684720218181610107421875" lon="12.97604508697986602783203125">
        <ele>923.5999755859375</ele>
        <time>2019-08-30T08:03:57.000Z</time>
        <extensions>
          <ns3:TrackPointExtension/>
        </extensions>
      </trkpt>
      <trkpt lat="43.1167967431247234344482421875" lon="12.97584383748471736907958984375">
        <ele>923.4000244140625</ele>
        <time>2019-08-30T08:04:01.000Z</time>
        <extensions>
          <ns3:TrackPointExtension/>
        </extensions>
      </trkpt>
      <trkpt lat="43.1167551688849925994873046875" lon="12.9756912030279636383056640625">
        <ele>923.4000244140625</ele>
        <time>2019-08-30T08:04:04.000Z</time>
        <extensions>
          <ns3:TrackPointExtension/>
        </extensions>
      </trkpt>
      <trkpt lat="43.11669557355344295501708984375" lon="12.9754662327468395233154296875">
        <ele>923.5999755859375</ele>
        <time>2019-08-30T08:04:09.000Z</time>
        <extensions>
          <ns3:TrackPointExtension/>
        </extensions>
      </trkpt>
      <trkpt lat="43.1166059710085391998291015625" lon="12.9752117581665515899658203125">
        <ele>923.79998779296875</ele>
        <time>2019-08-30T08:04:15.000Z</time>
        <extensions>
          <ns3:TrackPointExtension/>
        </extensions>
      </trkpt>
      <trkpt lat="43.11656263656914234161376953125" lon="12.97512684948742389678955078125">
        <ele>923.5999755859375</ele>
        <time>2019-08-30T08:04:17.000Z</time>
        <extensions>
          <ns3:TrackPointExtension/>
        </extensions>
      </trkpt>
      <trkpt lat="43.1165405921638011932373046875" lon="12.97508292831480503082275390625">
        <ele>923.5999755859375</ele>
        <time>2019-08-30T08:04:18.000Z</time>
        <extensions>
          <ns3:TrackPointExtension/>
        </extensions>
      </trkpt>
      <trkpt lat="43.11647680588066577911376953125" lon="12.97495099715888500213623046875">
        <ele>923.20001220703125</ele>
        <time>2019-08-30T08:04:21.000Z</time>
        <extensions>
          <ns3:TrackPointExtension/>
        </extensions>
      </trkpt>
      <trkpt lat="43.11643154360353946685791015625" lon="12.9748684354126453399658203125">
        <ele>923</ele>
        <time>2019-08-30T08:04:23.000Z</time>
        <extensions>
          <ns3:TrackPointExtension/>
        </extensions>
      </trkpt>
      <trkpt lat="43.11632945202291011810302734375" lon="12.97462712042033672332763671875">
        <ele>922.5999755859375</ele>
        <time>2019-08-30T08:04:28.000Z</time>
        <extensions>
          <ns3:TrackPointExtension/>
        </extensions>
      </trkpt>
      <trkpt lat="43.1162948347628116607666015625" lon="12.974528968334197998046875">
        <ele>923.20001220703125</ele>
        <time>2019-08-30T08:04:30.000Z</time>
        <extensions>
          <ns3:TrackPointExtension/>
        </extensions>
      </trkpt>
      <trkpt lat="43.1162767298519611358642578125" lon="12.974480353295803070068359375">
        <ele>923.5999755859375</ele>
        <time>2019-08-30T08:04:31.000Z</time>
        <extensions>
          <ns3:TrackPointExtension/>
        </extensions>
      </trkpt>
      <trkpt lat="43.1161987781524658203125" lon="12.97428564168512821197509765625">
        <ele>924.79998779296875</ele>
        <time>2019-08-30T08:04:35.000Z</time>
        <extensions>
          <ns3:TrackPointExtension/>
        </extensions>
      </trkpt>
      <trkpt lat="43.11615921556949615478515625" lon="12.97418363392353057861328125">
        <ele>925</ele>
        <time>2019-08-30T08:04:37.000Z</time>
        <extensions>
          <ns3:TrackPointExtension/>
        </extensions>
      </trkpt>
      <trkpt lat="43.116117976605892181396484375" lon="12.97408036887645721435546875">
        <ele>924.79998779296875</ele>
        <time>2019-08-30T08:04:39.000Z</time>
        <extensions>
          <ns3:TrackPointExtension/>
        </extensions>
      </trkpt>
      <trkpt lat="43.11607833020389080047607421875" lon="12.97397978603839874267578125">
        <ele>924.4000244140625</ele>
        <time>2019-08-30T08:04:41.000Z</time>
        <extensions>
          <ns3:TrackPointExtension/>
        </extensions>
      </trkpt>
      <trkpt lat="43.11600037850439548492431640625" lon="12.97375741414725780487060546875">
        <ele>924.20001220703125</ele>
        <time>2019-08-30T08:04:45.000Z</time>
        <extensions>
          <ns3:TrackPointExtension/>
        </extensions>
      </trkpt>
      <trkpt lat="43.11591521836817264556884765625" lon="12.97352657653391361236572265625">
        <ele>924.20001220703125</ele>
        <time>2019-08-30T08:04:49.000Z</time>
        <extensions>
          <ns3:TrackPointExtension/>
        </extensions>
      </trkpt>
      <trkpt lat="43.11589493416249752044677734375" lon="12.973469831049442291259765625">
        <ele>924.4000244140625</ele>
        <time>2019-08-30T08:04:50.000Z</time>
        <extensions>
          <ns3:TrackPointExtension/>
        </extensions>
      </trkpt>
      <trkpt lat="43.11583575792610645294189453125" lon="12.97330730594694614410400390625">
        <ele>925.4000244140625</ele>
        <time>2019-08-30T08:04:53.000Z</time>
        <extensions>
          <ns3:TrackPointExtension/>
        </extensions>
      </trkpt>
      <trkpt lat="43.115744479000568389892578125" lon="12.9730743728578090667724609375">
        <ele>925.4000244140625</ele>
        <time>2019-08-30T08:04:58.000Z</time>
        <extensions>
          <ns3:TrackPointExtension/>
        </extensions>
      </trkpt>
      <trkpt lat="43.11572897247970104217529296875" lon="12.9728614725172519683837890625">
        <ele>925</ele>
        <time>2019-08-30T08:05:05.000Z</time>
        <extensions>
          <ns3:TrackPointExtension/>
        </extensions>
      </trkpt>
      <trkpt lat="43.11588252894580364227294921875" lon="12.97272107563912868499755859375">
        <ele>923.5999755859375</ele>
        <time>2019-08-30T08:05:11.000Z</time>
        <extensions>
          <ns3:TrackPointExtension/>
        </extensions>
      </trkpt>
      <trkpt lat="43.11597858555614948272705078125" lon="12.9726395197212696075439453125">
        <ele>923.79998779296875</ele>
        <time>2019-08-30T08:05:14.000Z</time>
        <extensions>
          <ns3:TrackPointExtension/>
        </extensions>
      </trkpt>
      <trkpt lat="43.1160115264356136322021484375" lon="12.972609512507915496826171875">
        <ele>923.4000244140625</ele>
        <time>2019-08-30T08:05:15.000Z</time>
        <extensions>
          <ns3:TrackPointExtension/>
        </extensions>
      </trkpt>
      <trkpt lat="43.1161409430205821990966796875" lon="12.97238630242645740509033203125">
        <ele>920</ele>
        <time>2019-08-30T08:05:20.000Z</time>
        <extensions>
          <ns3:TrackPointExtension/>
        </extensions>
      </trkpt>
      <trkpt lat="43.1161848641932010650634765625" lon="12.97211808152496814727783203125">
        <ele>916.4000244140625</ele>
        <time>2019-08-30T08:05:24.000Z</time>
        <extensions>
          <ns3:TrackPointExtension/>
        </extensions>
      </trkpt>
      <trkpt lat="43.116171620786190032958984375" lon="12.971852123737335205078125">
        <ele>911.5999755859375</ele>
        <time>2019-08-30T08:05:28.000Z</time>
        <extensions>
          <ns3:TrackPointExtension/>
        </extensions>
      </trkpt>
      <trkpt lat="43.1160660088062286376953125" lon="12.9716227948665618896484375">
        <ele>909</ele>
        <time>2019-08-30T08:05:32.000Z</time>
        <extensions>
          <ns3:TrackPointExtension/>
        </extensions>
      </trkpt>
      <trkpt lat="43.11602854169905185699462890625" lon="12.97156655229628086090087890625">
        <ele>908.79998779296875</ele>
        <time>2019-08-30T08:05:33.000Z</time>
        <extensions>
          <ns3:TrackPointExtension/>
        </extensions>
      </trkpt>
      <trkpt lat="43.11598814092576503753662109375" lon="12.9715109802782535552978515625">
        <ele>908.5999755859375</ele>
        <time>2019-08-30T08:05:34.000Z</time>
        <extensions>
          <ns3:TrackPointExtension/>
        </extensions>
      </trkpt>
      <trkpt lat="43.1158147193491458892822265625" lon="12.9712886922061443328857421875">
        <ele>908</ele>
        <time>2019-08-30T08:05:38.000Z</time>
        <extensions>
          <ns3:TrackPointExtension/>
        </extensions>
      </trkpt>
      <trkpt lat="43.1156688742339611053466796875" lon="12.9710496403276920318603515625">
        <ele>906.79998779296875</ele>
        <time>2019-08-30T08:05:42.000Z</time>
        <extensions>
          <ns3:TrackPointExtension/>
        </extensions>
      </trkpt>
      <trkpt lat="43.1156682036817073822021484375" lon="12.970741689205169677734375">
        <ele>905</ele>
        <time>2019-08-30T08:05:46.000Z</time>
        <extensions>
          <ns3:TrackPointExtension/>
        </extensions>
      </trkpt>
      <trkpt lat="43.11579854227602481842041015625" lon="12.97047941945493221282958984375">
        <ele>903.20001220703125</ele>
        <time>2019-08-30T08:05:50.000Z</time>
        <extensions>
          <ns3:TrackPointExtension/>
        </extensions>
      </trkpt>
      <trkpt lat="43.1158911623060703277587890625" lon="12.97032787464559078216552734375">
        <ele>901.79998779296875</ele>
        <time>2019-08-30T08:05:53.000Z</time>
        <extensions>
          <ns3:TrackPointExtension/>
        </extensions>
      </trkpt>
      <trkpt lat="43.11591647565364837646484375" lon="12.9702892340719699859619140625">
        <ele>901.4000244140625</ele>
        <time>2019-08-30T08:05:54.000Z</time>
        <extensions>
          <ns3:TrackPointExtension/>
        </extensions>
      </trkpt>
      <trkpt lat="43.11602502129971981048583984375" lon="12.97026568092405796051025390625">
        <ele>900.5999755859375</ele>
        <time>2019-08-30T08:05:57.000Z</time>
        <extensions>
          <ns3:TrackPointExtension/>
        </extensions>
      </trkpt>
      <trkpt lat="43.11620422638952732086181640625" lon="12.97044522128999233245849609375">
        <ele>899.79998779296875</ele>
        <time>2019-08-30T08:06:02.000Z</time>
        <extensions>
          <ns3:TrackPointExtension/>
        </extensions>
      </trkpt>
      <trkpt lat="43.11628201045095920562744140625" lon="12.97052468173205852508544921875">
        <ele>899.4000244140625</ele>
        <time>2019-08-30T08:06:04.000Z</time>
        <extensions>
          <ns3:TrackPointExtension/>
        </extensions>
      </trkpt>
      <trkpt lat="43.1164349801838397979736328125" lon="12.9706848599016666412353515625">
        <ele>898.79998779296875</ele>
        <time>2019-08-30T08:06:08.000Z</time>
        <extensions>
          <ns3:TrackPointExtension/>
        </extensions>
      </trkpt>
      <trkpt lat="43.116596080362796783447265625" lon="12.9708491452038288116455078125">
        <ele>898</ele>
        <time>2019-08-30T08:06:12.000Z</time>
        <extensions>
          <ns3:TrackPointExtension/>
        </extensions>
      </trkpt>
      <trkpt lat="43.11675189994275569915771484375" lon="12.97101058065891265869140625">
        <ele>897.5999755859375</ele>
        <time>2019-08-30T08:06:16.000Z</time>
        <extensions>
          <ns3:TrackPointExtension/>
        </extensions>
      </trkpt>
      <trkpt lat="43.11682398431003093719482421875" lon="12.971086688339710235595703125">
        <ele>897.79998779296875</ele>
        <time>2019-08-30T08:06:18.000Z</time>
        <extensions>
          <ns3:TrackPointExtension/>
        </extensions>
      </trkpt>
      <trkpt lat="43.11690025962889194488525390625" lon="12.97116807661950588226318359375">
        <ele>897.79998779296875</ele>
        <time>2019-08-30T08:06:20.000Z</time>
        <extensions>
          <ns3:TrackPointExtension/>
        </extensions>
      </trkpt>
      <trkpt lat="43.1169992499053478240966796875" lon="12.9712759517133235931396484375">
        <ele>897.79998779296875</ele>
        <time>2019-08-30T08:06:23.000Z</time>
        <extensions>
          <ns3:TrackPointExtension/>
        </extensions>
      </trkpt>
      <trkpt lat="43.11706521548330783843994140625" lon="12.97134560532867908477783203125">
        <ele>897.79998779296875</ele>
        <time>2019-08-30T08:06:25.000Z</time>
        <extensions>
          <ns3:TrackPointExtension/>
        </extensions>
      </trkpt>
      <trkpt lat="43.1171269901096820831298828125" lon="12.97141115181148052215576171875">
        <ele>897.79998779296875</ele>
        <time>2019-08-30T08:06:27.000Z</time>
        <extensions>
          <ns3:TrackPointExtension/>
        </extensions>
      </trkpt>
      <trkpt lat="43.11728146858513355255126953125" lon="12.971584908664226531982421875">
        <ele>898</ele>
        <time>2019-08-30T08:06:32.000Z</time>
        <extensions>
          <ns3:TrackPointExtension/>
        </extensions>
      </trkpt>
      <trkpt lat="43.11743703670799732208251953125" lon="12.9717574082314968109130859375">
        <ele>898.20001220703125</ele>
        <time>2019-08-30T08:06:37.000Z</time>
        <extensions>
          <ns3:TrackPointExtension/>
        </extensions>
      </trkpt>
      <trkpt lat="43.11753242276608943939208984375" lon="12.97186494804918766021728515625">
        <ele>899.5999755859375</ele>
        <time>2019-08-30T08:06:40.000Z</time>
        <extensions>
          <ns3:TrackPointExtension/>
        </extensions>
      </trkpt>
      <trkpt lat="43.11756812967360019683837890625" lon="12.97190568409860134124755859375">
        <ele>900</ele>
        <time>2019-08-30T08:06:41.000Z</time>
        <extensions>
          <ns3:TrackPointExtension/>
        </extensions>
      </trkpt>
      <trkpt lat="43.117674328386783599853515625" lon="12.97201833687722682952880859375">
        <ele>900.4000244140625</ele>
        <time>2019-08-30T08:06:44.000Z</time>
        <extensions>
          <ns3:TrackPointExtension/>
        </extensions>
      </trkpt>
      <trkpt lat="43.1177948601543903350830078125" lon="12.972176335752010345458984375">
        <ele>900.79998779296875</ele>
        <time>2019-08-30T08:06:48.000Z</time>
        <extensions>
          <ns3:TrackPointExtension/>
        </extensions>
      </trkpt>
      <trkpt lat="43.117944896221160888671875" lon="12.97235260717570781707763671875">
        <ele>901</ele>
        <time>2019-08-30T08:06:53.000Z</time>
        <extensions>
          <ns3:TrackPointExtension/>
        </extensions>
      </trkpt>
      <trkpt lat="43.11797884292900562286376953125" lon="12.97238898463547229766845703125">
        <ele>901</ele>
        <time>2019-08-30T08:06:54.000Z</time>
        <extensions>
          <ns3:TrackPointExtension/>
        </extensions>
      </trkpt>
      <trkpt lat="43.1180127896368503570556640625" lon="12.97242678701877593994140625">
        <ele>901</ele>
        <time>2019-08-30T08:06:55.000Z</time>
        <extensions>
          <ns3:TrackPointExtension/>
        </extensions>
      </trkpt>
      <trkpt lat="43.118143044412136077880859375" lon="12.97257472760975360870361328125">
        <ele>901</ele>
        <time>2019-08-30T08:06:59.000Z</time>
        <extensions>
          <ns3:TrackPointExtension/>
        </extensions>
      </trkpt>
      <trkpt lat="43.11817464418709278106689453125" lon="12.97261026687920093536376953125">
        <ele>901.20001220703125</ele>
        <time>2019-08-30T08:07:00.000Z</time>
        <extensions>
          <ns3:TrackPointExtension/>
        </extensions>
      </trkpt>
      <trkpt lat="43.11829618178308010101318359375" lon="12.972741611301898956298828125">
        <ele>902.79998779296875</ele>
        <time>2019-08-30T08:07:04.000Z</time>
        <extensions>
          <ns3:TrackPointExtension/>
        </extensions>
      </trkpt>
      <trkpt lat="43.118387125432491302490234375" lon="12.9728297889232635498046875">
        <ele>903.5999755859375</ele>
        <time>2019-08-30T08:07:07.000Z</time>
        <extensions>
          <ns3:TrackPointExtension/>
        </extensions>
      </trkpt>
      <trkpt lat="43.1185153685510158538818359375" lon="12.97293280251324176788330078125">
        <ele>904</ele>
        <time>2019-08-30T08:07:11.000Z</time>
        <extensions>
          <ns3:TrackPointExtension/>
        </extensions>
      </trkpt>
      <trkpt lat="43.11871209181845188140869140625" lon="12.9730344749987125396728515625">
        <ele>903.4000244140625</ele>
        <time>2019-08-30T08:07:17.000Z</time>
        <extensions>
          <ns3:TrackPointExtension/>
        </extensions>
      </trkpt>
      <trkpt lat="43.11891878955066204071044921875" lon="12.973061464726924896240234375">
        <ele>900.20001220703125</ele>
        <time>2019-08-30T08:07:23.000Z</time>
        <extensions>
          <ns3:TrackPointExtension/>
        </extensions>
      </trkpt>
      <trkpt lat="43.11910503543913364410400390625" lon="12.9730282723903656005859375">
        <ele>898.79998779296875</ele>
        <time>2019-08-30T08:07:28.000Z</time>
        <extensions>
          <ns3:TrackPointExtension/>
        </extensions>
      </trkpt>
      <trkpt lat="43.11931542120873928070068359375" lon="12.9729432798922061920166015625">
        <ele>896.20001220703125</ele>
        <time>2019-08-30T08:07:33.000Z</time>
        <extensions>
          <ns3:TrackPointExtension/>
        </extensions>
      </trkpt>
      <trkpt lat="43.1193907745182514190673828125" lon="12.97290815971791744232177734375">
        <ele>894.79998779296875</ele>
        <time>2019-08-30T08:07:35.000Z</time>
        <extensions>
          <ns3:TrackPointExtension/>
        </extensions>
      </trkpt>
      <trkpt lat="43.1194246374070644378662109375" lon="12.972889803349971771240234375">
        <ele>894.20001220703125</ele>
        <time>2019-08-30T08:07:36.000Z</time>
        <extensions>
          <ns3:TrackPointExtension/>
        </extensions>
      </trkpt>
      <trkpt lat="43.11959973536431789398193359375" lon="12.97279165126383304595947265625">
        <ele>891.79998779296875</ele>
        <time>2019-08-30T08:07:41.000Z</time>
        <extensions>
          <ns3:TrackPointExtension/>
        </extensions>
      </trkpt>
      <trkpt lat="43.11978715471923351287841796875" lon="12.9726485721766948699951171875">
        <ele>890.79998779296875</ele>
        <time>2019-08-30T08:07:47.000Z</time>
        <extensions>
          <ns3:TrackPointExtension/>
        </extensions>
      </trkpt>
      <trkpt lat="43.119875080883502960205078125" lon="12.972557209432125091552734375">
        <ele>890.20001220703125</ele>
        <time>2019-08-30T08:07:50.000Z</time>
        <extensions>
          <ns3:TrackPointExtension/>
        </extensions>
      </trkpt>
      <trkpt lat="43.1199651025235652923583984375" lon="12.972453944385051727294921875">
        <ele>890</ele>
        <time>2019-08-30T08:07:53.000Z</time>
        <extensions>
          <ns3:TrackPointExtension/>
        </extensions>
      </trkpt>
      <trkpt lat="43.12011622823774814605712890625" lon="12.97228454612195491790771484375">
        <ele>890.4000244140625</ele>
        <time>2019-08-30T08:07:58.000Z</time>
        <extensions>
          <ns3:TrackPointExtension/>
        </extensions>
      </trkpt>
      <trkpt lat="43.1202058307826519012451171875" lon="12.97217792831361293792724609375">
        <ele>891.20001220703125</ele>
        <time>2019-08-30T08:08:01.000Z</time>
        <extensions>
          <ns3:TrackPointExtension/>
        </extensions>
      </trkpt>
      <trkpt lat="43.12023608945310115814208984375" lon="12.97214289195835590362548828125">
        <ele>891.4000244140625</ele>
        <time>2019-08-30T08:08:02.000Z</time>
        <extensions>
          <ns3:TrackPointExtension/>
        </extensions>
      </trkpt>
      <trkpt lat="43.1203875504434108734130859375" lon="12.97198732383549213409423828125">
        <ele>892.5999755859375</ele>
        <time>2019-08-30T08:08:07.000Z</time>
        <extensions>
          <ns3:TrackPointExtension/>
        </extensions>
      </trkpt>
      <trkpt lat="43.1205605529248714447021484375" lon="12.971859835088253021240234375">
        <ele>893</ele>
        <time>2019-08-30T08:08:12.000Z</time>
        <extensions>
          <ns3:TrackPointExtension/>
        </extensions>
      </trkpt>
      <trkpt lat="43.12059651128947734832763671875" lon="12.971838377416133880615234375">
        <ele>893</ele>
        <time>2019-08-30T08:08:13.000Z</time>
        <extensions>
          <ns3:TrackPointExtension/>
        </extensions>
      </trkpt>
      <trkpt lat="43.120773620903491973876953125" lon="12.97173678874969482421875">
        <ele>893.4000244140625</ele>
        <time>2019-08-30T08:08:18.000Z</time>
        <extensions>
          <ns3:TrackPointExtension/>
        </extensions>
      </trkpt>
      <trkpt lat="43.120809495449066162109375" lon="12.97171960584819316864013671875">
        <ele>893.5999755859375</ele>
        <time>2019-08-30T08:08:19.000Z</time>
        <extensions>
          <ns3:TrackPointExtension/>
        </extensions>
      </trkpt>
      <trkpt lat="43.1209508143365383148193359375" lon="12.97164919786155223846435546875">
        <ele>893.5999755859375</ele>
        <time>2019-08-30T08:08:23.000Z</time>
        <extensions>
          <ns3:TrackPointExtension/>
        </extensions>
      </trkpt>
      <trkpt lat="43.12102097086608409881591796875" lon="12.97161248512566089630126953125">
        <ele>893.5999755859375</ele>
        <time>2019-08-30T08:08:25.000Z</time>
        <extensions>
          <ns3:TrackPointExtension/>
        </extensions>
      </trkpt>
      <trkpt lat="43.12116379849612712860107421875" lon="12.97154492698609828948974609375">
        <ele>893.20001220703125</ele>
        <time>2019-08-30T08:08:29.000Z</time>
        <extensions>
          <ns3:TrackPointExtension/>
        </extensions>
      </trkpt>
      <trkpt lat="43.1212351284921169281005859375" lon="12.97150804661214351654052734375">
        <ele>893.20001220703125</ele>
        <time>2019-08-30T08:08:31.000Z</time>
        <extensions>
          <ns3:TrackPointExtension/>
        </extensions>
      </trkpt>
      <trkpt lat="43.12140922062098979949951171875" lon="12.97142095863819122314453125">
        <ele>892.79998779296875</ele>
        <time>2019-08-30T08:08:36.000Z</time>
        <extensions>
          <ns3:TrackPointExtension/>
        </extensions>
      </trkpt>
      <trkpt lat="43.1215861625969409942626953125" lon="12.97131760977208614349365234375">
        <ele>892.79998779296875</ele>
        <time>2019-08-30T08:08:41.000Z</time>
        <extensions>
          <ns3:TrackPointExtension/>
        </extensions>
      </trkpt>
      <trkpt lat="43.12176075764000415802001953125" lon="12.97120864503085613250732421875">
        <ele>892.5999755859375</ele>
        <time>2019-08-30T08:08:46.000Z</time>
        <extensions>
          <ns3:TrackPointExtension/>
        </extensions>
      </trkpt>
      <trkpt lat="43.12192923389375209808349609375" lon="12.97107704915106296539306640625">
        <ele>892.5999755859375</ele>
        <time>2019-08-30T08:08:51.000Z</time>
        <extensions>
          <ns3:TrackPointExtension/>
        </extensions>
      </trkpt>
      <trkpt lat="43.1220924295485019683837890625" lon="12.97094210051000118255615234375">
        <ele>892.4000244140625</ele>
        <time>2019-08-30T08:08:56.000Z</time>
        <extensions>
          <ns3:TrackPointExtension/>
        </extensions>
      </trkpt>
      <trkpt lat="43.12215386889874935150146484375" lon="12.97088275663554668426513671875">
        <ele>892.4000244140625</ele>
        <time>2019-08-30T08:08:58.000Z</time>
        <extensions>
          <ns3:TrackPointExtension/>
        </extensions>
      </trkpt>
      <trkpt lat="43.12228144146502017974853515625" lon="12.97076792456209659576416015625">
        <ele>892.4000244140625</ele>
        <time>2019-08-30T08:09:02.000Z</time>
        <extensions>
          <ns3:TrackPointExtension/>
        </extensions>
      </trkpt>
      <trkpt lat="43.12231346033513545989990234375" lon="12.9707401804625988006591796875">
        <ele>892.4000244140625</ele>
        <time>2019-08-30T08:09:03.000Z</time>
        <extensions>
          <ns3:TrackPointExtension/>
        </extensions>
      </trkpt>
      <trkpt lat="43.122445307672023773193359375" lon="12.9706178046762943267822265625">
        <ele>892.20001220703125</ele>
        <time>2019-08-30T08:09:07.000Z</time>
        <extensions>
          <ns3:TrackPointExtension/>
        </extensions>
      </trkpt>
      <trkpt lat="43.12251445837318897247314453125" lon="12.97056265175342559814453125">
        <ele>892.20001220703125</ele>
        <time>2019-08-30T08:09:09.000Z</time>
        <extensions>
          <ns3:TrackPointExtension/>
        </extensions>
      </trkpt>
      <trkpt lat="43.1226722896099090576171875" lon="12.9704310558736324310302734375">
        <ele>892</ele>
        <time>2019-08-30T08:09:14.000Z</time>
        <extensions>
          <ns3:TrackPointExtension/>
        </extensions>
      </trkpt>
      <trkpt lat="43.1226992793381214141845703125" lon="12.9704089276492595672607421875">
        <ele>892</ele>
        <time>2019-08-30T08:09:15.000Z</time>
        <extensions>
          <ns3:TrackPointExtension/>
        </extensions>
      </trkpt>
      <trkpt lat="43.1228682585060596466064453125" lon="12.9702999629080295562744140625">
        <ele>892.20001220703125</ele>
        <time>2019-08-30T08:09:21.000Z</time>
        <extensions>
          <ns3:TrackPointExtension/>
        </extensions>
      </trkpt>
      <trkpt lat="43.12304168008267879486083984375" lon="12.97022695653140544891357421875">
        <ele>893.20001220703125</ele>
        <time>2019-08-30T08:09:26.000Z</time>
        <extensions>
          <ns3:TrackPointExtension/>
        </extensions>
      </trkpt>
      <trkpt lat="43.12324938364326953887939453125" lon="12.97014548443257808685302734375">
        <ele>894</ele>
        <time>2019-08-30T08:09:32.000Z</time>
        <extensions>
          <ns3:TrackPointExtension/>
        </extensions>
      </trkpt>
      <trkpt lat="43.12343537807464599609375" lon="12.9700756631791591644287109375">
        <ele>895</ele>
        <time>2019-08-30T08:09:37.000Z</time>
        <extensions>
          <ns3:TrackPointExtension/>
        </extensions>
      </trkpt>
      <trkpt lat="43.12359086237847805023193359375" lon="12.97001925297081470489501953125">
        <ele>894.79998779296875</ele>
        <time>2019-08-30T08:09:41.000Z</time>
        <extensions>
          <ns3:TrackPointExtension/>
        </extensions>
      </trkpt>
      <trkpt lat="43.12363059259951114654541015625" lon="12.970008440315723419189453125">
        <ele>894.79998779296875</ele>
        <time>2019-08-30T08:09:42.000Z</time>
        <extensions>
          <ns3:TrackPointExtension/>
        </extensions>
      </trkpt>
      <trkpt lat="43.12374441884458065032958984375" lon="12.96998270787298679351806640625">
        <ele>894.79998779296875</ele>
        <time>2019-08-30T08:09:45.000Z</time>
        <extensions>
          <ns3:TrackPointExtension/>
        </extensions>
      </trkpt>
      <trkpt lat="43.1239377893507480621337890625" lon="12.969952784478664398193359375">
        <ele>894.5999755859375</ele>
        <time>2019-08-30T08:09:50.000Z</time>
        <extensions>
          <ns3:TrackPointExtension/>
        </extensions>
      </trkpt>
      <trkpt lat="43.12413719482719898223876953125" lon="12.96994582749903202056884765625">
        <ele>894.5999755859375</ele>
        <time>2019-08-30T08:09:55.000Z</time>
        <extensions>
          <ns3:TrackPointExtension/>
        </extensions>
      </trkpt>
      <trkpt lat="43.12433450482785701751708984375" lon="12.9699086956679821014404296875">
        <ele>895</ele>
        <time>2019-08-30T08:10:00.000Z</time>
        <extensions>
          <ns3:TrackPointExtension/>
        </extensions>
      </trkpt>
      <trkpt lat="43.1243756599724292755126953125" lon="12.96989738009870052337646484375">
        <ele>895.20001220703125</ele>
        <time>2019-08-30T08:10:01.000Z</time>
        <extensions>
          <ns3:TrackPointExtension/>
        </extensions>
      </trkpt>
      <trkpt lat="43.124456293880939483642578125" lon="12.96987122856080532073974609375">
        <ele>895.4000244140625</ele>
        <time>2019-08-30T08:10:03.000Z</time>
        <extensions>
          <ns3:TrackPointExtension/>
        </extensions>
      </trkpt>
      <trkpt lat="43.124653436243534088134765625" lon="12.96978070400655269622802734375">
        <ele>896</ele>
        <time>2019-08-30T08:10:08.000Z</time>
        <extensions>
          <ns3:TrackPointExtension/>
        </extensions>
      </trkpt>
      <trkpt lat="43.12472459860146045684814453125" lon="12.96974197961390018463134765625">
        <ele>896.20001220703125</ele>
        <time>2019-08-30T08:10:10.000Z</time>
        <extensions>
          <ns3:TrackPointExtension/>
        </extensions>
      </trkpt>
      <trkpt lat="43.12479852698743343353271484375" lon="12.96969973482191562652587890625">
        <ele>896.4000244140625</ele>
        <time>2019-08-30T08:10:12.000Z</time>
        <extensions>
          <ns3:TrackPointExtension/>
        </extensions>
      </trkpt>
      <trkpt lat="43.12497639097273349761962890625" lon="12.96957333572208881378173828125">
        <ele>896.4000244140625</ele>
        <time>2019-08-30T08:10:17.000Z</time>
        <extensions>
          <ns3:TrackPointExtension/>
        </extensions>
      </trkpt>
      <trkpt lat="43.125112764537334442138671875" lon="12.96946336515247821807861328125">
        <ele>896.5999755859375</ele>
        <time>2019-08-30T08:10:21.000Z</time>
        <extensions>
          <ns3:TrackPointExtension/>
        </extensions>
      </trkpt>
      <trkpt lat="43.125212676823139190673828125" lon="12.9693853296339511871337890625">
        <ele>897</ele>
        <time>2019-08-30T08:10:24.000Z</time>
        <extensions>
          <ns3:TrackPointExtension/>
        </extensions>
      </trkpt>
      <trkpt lat="43.1253291852772235870361328125" lon="12.9692891053855419158935546875">
        <ele>897.4000244140625</ele>
        <time>2019-08-30T08:10:28.000Z</time>
        <extensions>
          <ns3:TrackPointExtension/>
        </extensions>
      </trkpt>
      <trkpt lat="43.12543404288589954376220703125" lon="12.9692119918763637542724609375">
        <ele>898</ele>
        <time>2019-08-30T08:10:31.000Z</time>
        <extensions>
          <ns3:TrackPointExtension/>
        </extensions>
      </trkpt>
      <trkpt lat="43.12560855410993099212646484375" lon="12.969094477593898773193359375">
        <ele>899.4000244140625</ele>
        <time>2019-08-30T08:10:36.000Z</time>
        <extensions>
          <ns3:TrackPointExtension/>
        </extensions>
      </trkpt>
      <trkpt lat="43.1257124058902263641357421875" lon="12.96902599744498729705810546875">
        <ele>900.20001220703125</ele>
        <time>2019-08-30T08:10:39.000Z</time>
        <extensions>
          <ns3:TrackPointExtension/>
        </extensions>
      </trkpt>
      <trkpt lat="43.125816844403743743896484375" lon="12.9689566791057586669921875">
        <ele>900.5999755859375</ele>
        <time>2019-08-30T08:10:42.000Z</time>
        <extensions>
          <ns3:TrackPointExtension/>
        </extensions>
      </trkpt>
      <trkpt lat="43.1259132362902164459228515625" lon="12.96889255754649639129638671875">
        <ele>901</ele>
        <time>2019-08-30T08:10:45.000Z</time>
        <extensions>
          <ns3:TrackPointExtension/>
        </extensions>
      </trkpt>
      <trkpt lat="43.126098476350307464599609375" lon="12.96877873130142688751220703125">
        <ele>902.20001220703125</ele>
        <time>2019-08-30T08:10:52.000Z</time>
        <extensions>
          <ns3:TrackPointExtension/>
        </extensions>
      </trkpt>
      <trkpt lat="43.126129321753978729248046875" lon="12.968757860362529754638671875">
        <ele>902.4000244140625</ele>
        <time>2019-08-30T08:10:53.000Z</time>
        <extensions>
          <ns3:TrackPointExtension/>
        </extensions>
      </trkpt>
      <trkpt lat="43.12616142444312572479248046875" lon="12.9687372408807277679443359375">
        <ele>902.5999755859375</ele>
        <time>2019-08-30T08:10:54.000Z</time>
        <extensions>
          <ns3:TrackPointExtension/>
        </extensions>
      </trkpt>
      <trkpt lat="43.1262193433940410614013671875" lon="12.96870044432580471038818359375">
        <ele>903</ele>
        <time>2019-08-30T08:10:56.000Z</time>
        <extensions>
          <ns3:TrackPointExtension/>
        </extensions>
      </trkpt>
      <trkpt lat="43.1263625063002109527587890625" lon="12.96860036440193653106689453125">
        <ele>903.4000244140625</ele>
        <time>2019-08-30T08:11:01.000Z</time>
        <extensions>
          <ns3:TrackPointExtension/>
        </extensions>
      </trkpt>
      <trkpt lat="43.1263946928083896636962890625" lon="12.968579828739166259765625">
        <ele>903.5999755859375</ele>
        <time>2019-08-30T08:11:02.000Z</time>
        <extensions>
          <ns3:TrackPointExtension/>
        </extensions>
      </trkpt>
      <trkpt lat="43.12657029367983341217041015625" lon="12.9684800840914249420166015625">
        <ele>904.20001220703125</ele>
        <time>2019-08-30T08:11:07.000Z</time>
        <extensions>
          <ns3:TrackPointExtension/>
        </extensions>
      </trkpt>
      <trkpt lat="43.1266044080257415771484375" lon="12.96846072189509868621826171875">
        <ele>904.4000244140625</ele>
        <time>2019-08-30T08:11:08.000Z</time>
        <extensions>
          <ns3:TrackPointExtension/>
        </extensions>
      </trkpt>
      <trkpt lat="43.126763664186000823974609375" lon="12.96839416958391666412353515625">
        <ele>905</ele>
        <time>2019-08-30T08:11:13.000Z</time>
        <extensions>
          <ns3:TrackPointExtension/>
        </extensions>
      </trkpt>
      <trkpt lat="43.12679744325578212738037109375" lon="12.9683838598430156707763671875">
        <ele>905.20001220703125</ele>
        <time>2019-08-30T08:11:14.000Z</time>
        <extensions>
          <ns3:TrackPointExtension/>
        </extensions>
      </trkpt>
      <trkpt lat="43.12692518346011638641357421875" lon="12.96835251152515411376953125">
        <ele>905.4000244140625</ele>
        <time>2019-08-30T08:11:18.000Z</time>
        <extensions>
          <ns3:TrackPointExtension/>
        </extensions>
      </trkpt>
      <trkpt lat="43.12695686705410480499267578125" lon="12.96834739856421947479248046875">
        <ele>905.5999755859375</ele>
        <time>2019-08-30T08:11:19.000Z</time>
        <extensions>
          <ns3:TrackPointExtension/>
        </extensions>
      </trkpt>
      <trkpt lat="43.12702559866011142730712890625" lon="12.968337424099445343017578125">
        <ele>905.5999755859375</ele>
        <time>2019-08-30T08:11:21.000Z</time>
        <extensions>
          <ns3:TrackPointExtension/>
        </extensions>
      </trkpt>
      <trkpt lat="43.1271872855722904205322265625" lon="12.96831085346639156341552734375">
        <ele>906</ele>
        <time>2019-08-30T08:11:26.000Z</time>
        <extensions>
          <ns3:TrackPointExtension/>
        </extensions>
      </trkpt>
      <trkpt lat="43.12722106464207172393798828125" lon="12.968305908143520355224609375">
        <ele>906</ele>
        <time>2019-08-30T08:11:27.000Z</time>
        <extensions>
          <ns3:TrackPointExtension/>
        </extensions>
      </trkpt>
      <trkpt lat="43.12742155976593494415283203125" lon="12.96827984042465686798095703125">
        <ele>906.4000244140625</ele>
        <time>2019-08-30T08:11:33.000Z</time>
        <extensions>
          <ns3:TrackPointExtension/>
        </extensions>
      </trkpt>
      <trkpt lat="43.12745667994022369384765625" lon="12.96827330254018306732177734375">
        <ele>906.4000244140625</ele>
        <time>2019-08-30T08:11:34.000Z</time>
        <extensions>
          <ns3:TrackPointExtension/>
        </extensions>
      </trkpt>
      <trkpt lat="43.1276523135602474212646484375" lon="12.96821295283734798431396484375">
        <ele>906.5999755859375</ele>
        <time>2019-08-30T08:11:40.000Z</time>
        <extensions>
          <ns3:TrackPointExtension/>
        </extensions>
      </trkpt>
      <trkpt lat="43.12771526165306568145751953125" lon="12.96819384209811687469482421875">
        <ele>907</ele>
        <time>2019-08-30T08:11:42.000Z</time>
        <extensions>
          <ns3:TrackPointExtension/>
        </extensions>
      </trkpt>
      <trkpt lat="43.127898909151554107666015625" lon="12.96809979714453220367431640625">
        <ele>907.79998779296875</ele>
        <time>2019-08-30T08:11:48.000Z</time>
        <extensions>
          <ns3:TrackPointExtension/>
        </extensions>
      </trkpt>
      <trkpt lat="43.1279574148356914520263671875" lon="12.96806040219962596893310546875">
        <ele>908.20001220703125</ele>
        <time>2019-08-30T08:11:50.000Z</time>
        <extensions>
          <ns3:TrackPointExtension/>
        </extensions>
      </trkpt>
      <trkpt lat="43.1279862485826015472412109375" lon="12.96803860925137996673583984375">
        <ele>908.20001220703125</ele>
        <time>2019-08-30T08:11:51.000Z</time>
        <extensions>
          <ns3:TrackPointExtension/>
        </extensions>
      </trkpt>
      <trkpt lat="43.12814659439027309417724609375" lon="12.967895530164241790771484375">
        <ele>908.20001220703125</ele>
        <time>2019-08-30T08:11:57.000Z</time>
        <extensions>
          <ns3:TrackPointExtension/>
        </extensions>
      </trkpt>
      <trkpt lat="43.12816972844302654266357421875" lon="12.9678742401301860809326171875">
        <ele>908</ele>
        <time>2019-08-30T08:11:58.000Z</time>
        <extensions>
          <ns3:TrackPointExtension/>
        </extensions>
      </trkpt>
      <trkpt lat="43.1281914375722408294677734375" lon="12.96785102225840091705322265625">
        <ele>908</ele>
        <time>2019-08-30T08:11:59.000Z</time>
        <extensions>
          <ns3:TrackPointExtension/>
        </extensions>
      </trkpt>
      <trkpt lat="43.1282822974026203155517578125" lon="12.9677377827465534210205078125">
        <ele>907.5999755859375</ele>
        <time>2019-08-30T08:12:03.000Z</time>
        <extensions>
          <ns3:TrackPointExtension/>
        </extensions>
      </trkpt>
      <trkpt lat="43.12832630239427089691162109375" lon="12.96767584048211574554443359375">
        <ele>907.4000244140625</ele>
        <time>2019-08-30T08:12:05.000Z</time>
        <extensions>
          <ns3:TrackPointExtension/>
        </extensions>
      </trkpt>
      <trkpt lat="43.1284444034099578857421875" lon="12.96747685410082340240478515625">
        <ele>907.20001220703125</ele>
        <time>2019-08-30T08:12:11.000Z</time>
        <extensions>
          <ns3:TrackPointExtension/>
        </extensions>
      </trkpt>
      <trkpt lat="43.128483630716800689697265625" lon="12.9674008302390575408935546875">
        <ele>907.5999755859375</ele>
        <time>2019-08-30T08:12:13.000Z</time>
        <extensions>
          <ns3:TrackPointExtension/>
        </extensions>
      </trkpt>
      <trkpt lat="43.1285892426967620849609375" lon="12.967197485268115997314453125">
        <ele>908.79998779296875</ele>
        <time>2019-08-30T08:12:18.000Z</time>
        <extensions>
          <ns3:TrackPointExtension/>
        </extensions>
      </trkpt>
      <trkpt lat="43.1286081857979297637939453125" lon="12.96715490520000457763671875">
        <ele>909</ele>
        <time>2019-08-30T08:12:19.000Z</time>
        <extensions>
          <ns3:TrackPointExtension/>
        </extensions>
      </trkpt>
      <trkpt lat="43.12868370674550533294677734375" lon="12.96699975617229938507080078125">
        <ele>909.79998779296875</ele>
        <time>2019-08-30T08:12:23.000Z</time>
        <extensions>
          <ns3:TrackPointExtension/>
        </extensions>
      </trkpt>
      <trkpt lat="43.1288252770900726318359375" lon="12.96679222024977207183837890625">
        <ele>908</ele>
        <time>2019-08-30T08:12:29.000Z</time>
        <extensions>
          <ns3:TrackPointExtension/>
        </extensions>
      </trkpt>
      <trkpt lat="43.12895913608372211456298828125" lon="12.966703288257122039794921875">
        <ele>907.20001220703125</ele>
        <time>2019-08-30T08:12:34.000Z</time>
        <extensions>
          <ns3:TrackPointExtension/>
        </extensions>
      </trkpt>
      <trkpt lat="43.1289863772690296173095703125" lon="12.96669264324009418487548828125">
        <ele>907.20001220703125</ele>
        <time>2019-08-30T08:12:35.000Z</time>
        <extensions>
          <ns3:TrackPointExtension/>
        </extensions>
      </trkpt>
      <trkpt lat="43.12917287461459636688232421875" lon="12.96666766516864299774169921875">
        <ele>906.5999755859375</ele>
        <time>2019-08-30T08:12:43.000Z</time>
        <extensions>
          <ns3:TrackPointExtension/>
        </extensions>
      </trkpt>
      <trkpt lat="43.12920070253312587738037109375" lon="12.96666682697832584381103515625">
        <ele>906.4000244140625</ele>
        <time>2019-08-30T08:12:44.000Z</time>
        <extensions>
          <ns3:TrackPointExtension/>
        </extensions>
      </trkpt>
      <trkpt lat="43.12922920100390911102294921875" lon="12.96666565351188182830810546875">
        <ele>905.5999755859375</ele>
        <time>2019-08-30T08:12:45.000Z</time>
        <extensions>
          <ns3:TrackPointExtension/>
        </extensions>
      </trkpt>
      <trkpt lat="43.12929273582994937896728515625" lon="12.96665626578032970428466796875">
        <ele>904</ele>
        <time>2019-08-30T08:13:52.000Z</time>
        <extensions>
          <ns3:TrackPointExtension/>
        </extensions>
      </trkpt>
      <trkpt lat="43.12946297228336334228515625" lon="12.96673505567014217376708984375">
        <ele>901.20001220703125</ele>
        <time>2019-08-30T08:14:00.000Z</time>
        <extensions>
          <ns3:TrackPointExtension/>
        </extensions>
      </trkpt>
      <trkpt lat="43.1295816600322723388671875" lon="12.96676372177898883819580078125">
        <ele>899.20001220703125</ele>
        <time>2019-08-30T08:14:03.000Z</time>
        <extensions>
          <ns3:TrackPointExtension/>
        </extensions>
      </trkpt>
      <trkpt lat="43.12962247990071773529052734375" lon="12.96677964739501476287841796875">
        <ele>898.79998779296875</ele>
        <time>2019-08-30T08:14:04.000Z</time>
        <extensions>
          <ns3:TrackPointExtension/>
        </extensions>
      </trkpt>
      <trkpt lat="43.129702694714069366455078125" lon="12.96681535430252552032470703125">
        <ele>898</ele>
        <time>2019-08-30T08:14:06.000Z</time>
        <extensions>
          <ns3:TrackPointExtension/>
        </extensions>
      </trkpt>
      <trkpt lat="43.1298989988863468170166015625" lon="12.96694711782038211822509765625">
        <ele>897.5999755859375</ele>
        <time>2019-08-30T08:14:11.000Z</time>
        <extensions>
          <ns3:TrackPointExtension/>
        </extensions>
      </trkpt>
      <trkpt lat="43.1300778687000274658203125" lon="12.9670461080968379974365234375">
        <ele>896.4000244140625</ele>
        <time>2019-08-30T08:14:15.000Z</time>
        <extensions>
          <ns3:TrackPointExtension/>
        </extensions>
      </trkpt>
      <trkpt lat="43.130169399082660675048828125" lon="12.96710033901035785675048828125">
        <ele>896</ele>
        <time>2019-08-30T08:14:17.000Z</time>
        <extensions>
          <ns3:TrackPointExtension/>
        </extensions>
      </trkpt>
      <trkpt lat="43.130221031606197357177734375" lon="12.9671289213001728057861328125">
        <ele>895.5999755859375</ele>
        <time>2019-08-30T08:14:18.000Z</time>
        <extensions>
          <ns3:TrackPointExtension/>
        </extensions>
      </trkpt>
      <trkpt lat="43.13039881177246570587158203125" lon="12.96720176003873348236083984375">
        <ele>893.79998779296875</ele>
        <time>2019-08-30T08:14:21.000Z</time>
        <extensions>
          <ns3:TrackPointExtension/>
        </extensions>
      </trkpt>
      <trkpt lat="43.13046284951269626617431640625" lon="12.96722355298697948455810546875">
        <ele>893</ele>
        <time>2019-08-30T08:14:22.000Z</time>
        <extensions>
          <ns3:TrackPointExtension/>
        </extensions>
      </trkpt>
      <trkpt lat="43.13059310428798198699951171875" lon="12.967265546321868896484375">
        <ele>891.20001220703125</ele>
        <time>2019-08-30T08:14:24.000Z</time>
        <extensions>
          <ns3:TrackPointExtension/>
        </extensions>
      </trkpt>
      <trkpt lat="43.13079259358346462249755859375" lon="12.96732254326343536376953125">
        <ele>887</ele>
        <time>2019-08-30T08:14:27.000Z</time>
        <extensions>
          <ns3:TrackPointExtension/>
        </extensions>
      </trkpt>
      <trkpt lat="43.13086065463721752166748046875" lon="12.967343665659427642822265625">
        <ele>885.5999755859375</ele>
        <time>2019-08-30T08:14:28.000Z</time>
        <extensions>
          <ns3:TrackPointExtension/>
        </extensions>
      </trkpt>
      <trkpt lat="43.13105796463787555694580078125" lon="12.96742580831050872802734375">
        <ele>882.20001220703125</ele>
        <time>2019-08-30T08:14:31.000Z</time>
        <extensions>
          <ns3:TrackPointExtension/>
        </extensions>
      </trkpt>
      <trkpt lat="43.13124270178377628326416015625" lon="12.96754726208746433258056640625">
        <ele>880.79998779296875</ele>
        <time>2019-08-30T08:14:34.000Z</time>
        <extensions>
          <ns3:TrackPointExtension/>
        </extensions>
      </trkpt>
      <trkpt lat="43.13138653524219989776611328125" lon="12.9677066020667552947998046875">
        <ele>879.4000244140625</ele>
        <time>2019-08-30T08:14:37.000Z</time>
        <extensions>
          <ns3:TrackPointExtension/>
        </extensions>
      </trkpt>
      <trkpt lat="43.13148845918476581573486328125" lon="12.96792780049145221710205078125">
        <ele>880</ele>
        <time>2019-08-30T08:14:40.000Z</time>
        <extensions>
          <ns3:TrackPointExtension/>
        </extensions>
      </trkpt>
      <trkpt lat="43.1315485574305057525634765625" lon="12.96807448379695415496826171875">
        <ele>880.5999755859375</ele>
        <time>2019-08-30T08:14:42.000Z</time>
        <extensions>
          <ns3:TrackPointExtension/>
        </extensions>
      </trkpt>
      <trkpt lat="43.1316239945590496063232421875" lon="12.9681914113461971282958984375">
        <ele>880.20001220703125</ele>
        <time>2019-08-30T08:14:44.000Z</time>
        <extensions>
          <ns3:TrackPointExtension/>
        </extensions>
      </trkpt>
      <trkpt lat="43.1317138485610485076904296875" lon="12.96841554343700408935546875">
        <ele>881.4000244140625</ele>
        <time>2019-08-30T08:14:48.000Z</time>
        <extensions>
          <ns3:TrackPointExtension/>
        </extensions>
      </trkpt>
      <trkpt lat="43.131721056997776031494140625" lon="12.96849257312715053558349609375">
        <ele>882.4000244140625</ele>
        <time>2019-08-30T08:14:50.000Z</time>
        <extensions>
          <ns3:TrackPointExtension/>
        </extensions>
      </trkpt>
      <trkpt lat="43.1317275948822498321533203125" lon="12.968547977507114410400390625">
        <ele>883.20001220703125</ele>
        <time>2019-08-30T08:14:52.000Z</time>
        <extensions>
          <ns3:TrackPointExtension/>
        </extensions>
      </trkpt>
      <trkpt lat="43.13177101314067840576171875" lon="12.9687861911952495574951171875">
        <ele>885.79998779296875</ele>
        <time>2019-08-30T08:15:02.000Z</time>
        <extensions>
          <ns3:TrackPointExtension/>
        </extensions>
      </trkpt>
      <trkpt lat="43.13182541169226169586181640625" lon="12.96902080066502094268798828125">
        <ele>887</ele>
        <time>2019-08-30T08:15:12.000Z</time>
        <extensions>
          <ns3:TrackPointExtension/>
        </extensions>
      </trkpt>
      <trkpt lat="43.1318499706685543060302734375" lon="12.9690979979932308197021484375">
        <ele>887</ele>
        <time>2019-08-30T08:15:15.000Z</time>
        <extensions>
          <ns3:TrackPointExtension/>
        </extensions>
      </trkpt>
      <trkpt lat="43.13185541890561580657958984375" lon="12.96912322752177715301513671875">
        <ele>887.20001220703125</ele>
        <time>2019-08-30T08:15:16.000Z</time>
        <extensions>
          <ns3:TrackPointExtension/>
        </extensions>
      </trkpt>
      <trkpt lat="43.131936304271221160888671875" lon="12.9693699069321155548095703125">
        <ele>888.4000244140625</ele>
        <time>2019-08-30T08:15:26.000Z</time>
        <extensions>
          <ns3:TrackPointExtension/>
        </extensions>
      </trkpt>
      <trkpt lat="43.1319770403206348419189453125" lon="12.9695556499063968658447265625">
        <ele>890.20001220703125</ele>
        <time>2019-08-30T08:15:33.000Z</time>
        <extensions>
          <ns3:TrackPointExtension/>
        </extensions>
      </trkpt>
      <trkpt lat="43.131991289556026458740234375" lon="12.96960510313510894775390625">
        <ele>890.4000244140625</ele>
        <time>2019-08-30T08:15:35.000Z</time>
        <extensions>
          <ns3:TrackPointExtension/>
        </extensions>
      </trkpt>
      <trkpt lat="43.13208156265318393707275390625" lon="12.96983778476715087890625">
        <ele>890.5999755859375</ele>
        <time>2019-08-30T08:15:45.000Z</time>
        <extensions>
          <ns3:TrackPointExtension/>
        </extensions>
      </trkpt>
      <trkpt lat="43.132178373634815216064453125" lon="12.97004607506096363067626953125">
        <ele>889.79998779296875</ele>
        <time>2019-08-30T08:15:54.000Z</time>
        <extensions>
          <ns3:TrackPointExtension/>
        </extensions>
      </trkpt>
      <trkpt lat="43.1322113983333110809326171875" lon="12.97011715359985828399658203125">
        <ele>890</ele>
        <time>2019-08-30T08:15:57.000Z</time>
        <extensions>
          <ns3:TrackPointExtension/>
        </extensions>
      </trkpt>
      <trkpt lat="43.13222321681678295135498046875" lon="12.97014414332807064056396484375">
        <ele>890</ele>
        <time>2019-08-30T08:15:58.000Z</time>
        <extensions>
          <ns3:TrackPointExtension/>
        </extensions>
      </trkpt>
      <trkpt lat="43.13224299810826778411865234375" lon="12.97022125683724880218505859375">
        <ele>891.20001220703125</ele>
        <time>2019-08-30T08:16:01.000Z</time>
        <extensions>
          <ns3:TrackPointExtension/>
        </extensions>
      </trkpt>
      <trkpt lat="43.13226596452295780181884765625" lon="12.97036408446729183197021484375">
        <ele>893.5999755859375</ele>
        <time>2019-08-30T08:16:07.000Z</time>
        <extensions>
          <ns3:TrackPointExtension/>
        </extensions>
      </trkpt>
      <trkpt lat="43.13227166421711444854736328125" lon="12.97038738615810871124267578125">
        <ele>894</ele>
        <time>2019-08-30T08:16:08.000Z</time>
        <extensions>
          <ns3:TrackPointExtension/>
        </extensions>
      </trkpt>
      <trkpt lat="43.13229136168956756591796875" lon="12.97047992236912250518798828125">
        <ele>895.4000244140625</ele>
        <time>2019-08-30T08:16:12.000Z</time>
        <extensions>
          <ns3:TrackPointExtension/>
        </extensions>
      </trkpt>
      <trkpt lat="43.13229530118405818939208984375" lon="12.970503307878971099853515625">
        <ele>895.79998779296875</ele>
        <time>2019-08-30T08:16:13.000Z</time>
        <extensions>
          <ns3:TrackPointExtension/>
        </extensions>
      </trkpt>
      <trkpt lat="43.13234089873731136322021484375" lon="12.97065795399248600006103515625">
        <ele>897.5999755859375</ele>
        <time>2019-08-30T08:16:19.000Z</time>
        <extensions>
          <ns3:TrackPointExtension/>
        </extensions>
      </trkpt>
      <trkpt lat="43.13234944827854633331298828125" lon="12.97068360261619091033935546875">
        <ele>897.4000244140625</ele>
        <time>2019-08-30T08:16:20.000Z</time>
        <extensions>
          <ns3:TrackPointExtension/>
        </extensions>
      </trkpt>
      <trkpt lat="43.1323662959039211273193359375" lon="12.9707670025527477264404296875">
        <ele>897.79998779296875</ele>
        <time>2019-08-30T08:16:23.000Z</time>
        <extensions>
          <ns3:TrackPointExtension/>
        </extensions>
      </trkpt>
      <trkpt lat="43.13237744383513927459716796875" lon="12.97090656124055385589599609375">
        <ele>898.79998779296875</ele>
        <time>2019-08-30T08:16:28.000Z</time>
        <extensions>
          <ns3:TrackPointExtension/>
        </extensions>
      </trkpt>
      <trkpt lat="43.13237878493964672088623046875" lon="12.97093573026359081268310546875">
        <ele>899</ele>
        <time>2019-08-30T08:16:29.000Z</time>
        <extensions>
          <ns3:TrackPointExtension/>
        </extensions>
      </trkpt>
      <trkpt lat="43.13234173692762851715087890625" lon="12.9710751213133335113525390625">
        <ele>900.79998779296875</ele>
        <time>2019-08-30T08:16:34.000Z</time>
        <extensions>
          <ns3:TrackPointExtension/>
        </extensions>
      </trkpt>
      <trkpt lat="43.1323324330151081085205078125" lon="12.971100099384784698486328125">
        <ele>901.4000244140625</ele>
        <time>2019-08-30T08:16:35.000Z</time>
        <extensions>
          <ns3:TrackPointExtension/>
        </extensions>
      </trkpt>
      <trkpt lat="43.13229932449758052825927734375" lon="12.97117981128394603729248046875">
        <ele>902.79998779296875</ele>
        <time>2019-08-30T08:16:38.000Z</time>
        <extensions>
          <ns3:TrackPointExtension/>
        </extensions>
      </trkpt>
      <trkpt lat="43.13217066228389739990234375" lon="12.97135130502283573150634765625">
        <ele>907.4000244140625</ele>
        <time>2019-08-30T08:16:47.000Z</time>
        <extensions>
          <ns3:TrackPointExtension/>
        </extensions>
      </trkpt>
      <trkpt lat="43.13208022154867649078369140625" lon="12.97146161086857318878173828125">
        <ele>909.79998779296875</ele>
        <time>2019-08-30T08:16:53.000Z</time>
        <extensions>
          <ns3:TrackPointExtension/>
        </extensions>
      </trkpt>
      <trkpt lat="43.13206479884684085845947265625" lon="12.97148130834102630615234375">
        <ele>910.4000244140625</ele>
        <time>2019-08-30T08:16:54.000Z</time>
        <extensions>
          <ns3:TrackPointExtension/>
        </extensions>
      </trkpt>
      <trkpt lat="43.1319867633283138275146484375" lon="12.97159471549093723297119140625">
        <ele>912.4000244140625</ele>
        <time>2019-08-30T08:16:59.000Z</time>
        <extensions>
          <ns3:TrackPointExtension/>
        </extensions>
      </trkpt>
      <trkpt lat="43.13193957321345806121826171875" lon="12.97166998498141765594482421875">
        <ele>913.5999755859375</ele>
        <time>2019-08-30T08:17:02.000Z</time>
        <extensions>
          <ns3:TrackPointExtension/>
        </extensions>
      </trkpt>
      <trkpt lat="43.131903111934661865234375" lon="12.9717560671269893646240234375">
        <ele>914.5999755859375</ele>
        <time>2019-08-30T08:17:05.000Z</time>
        <extensions>
          <ns3:TrackPointExtension/>
        </extensions>
      </trkpt>
      <trkpt lat="43.13182859681546688079833984375" lon="12.97200509347021579742431640625">
        <ele>914.20001220703125</ele>
        <time>2019-08-30T08:17:13.000Z</time>
        <extensions>
          <ns3:TrackPointExtension/>
        </extensions>
      </trkpt>
      <trkpt lat="43.13181501813232898712158203125" lon="12.972069717943668365478515625">
        <ele>914</ele>
        <time>2019-08-30T08:17:15.000Z</time>
        <extensions>
          <ns3:TrackPointExtension/>
        </extensions>
      </trkpt>
      <trkpt lat="43.13181183300912380218505859375" lon="12.97210215590894222259521484375">
        <ele>913.79998779296875</ele>
        <time>2019-08-30T08:17:16.000Z</time>
        <extensions>
          <ns3:TrackPointExtension/>
        </extensions>
      </trkpt>
      <trkpt lat="43.13180722296237945556640625" lon="12.97216485254466533660888671875">
        <ele>913.4000244140625</ele>
        <time>2019-08-30T08:17:18.000Z</time>
        <extensions>
          <ns3:TrackPointExtension/>
        </extensions>
      </trkpt>
      <trkpt lat="43.13179917633533477783203125" lon="12.97229276038706302642822265625">
        <ele>912.5999755859375</ele>
        <time>2019-08-30T08:17:22.000Z</time>
        <extensions>
          <ns3:TrackPointExtension/>
        </extensions>
      </trkpt>
      <trkpt lat="43.13179858960211277008056640625" lon="12.972324527800083160400390625">
        <ele>912.4000244140625</ele>
        <time>2019-08-30T08:17:23.000Z</time>
        <extensions>
          <ns3:TrackPointExtension/>
        </extensions>
      </trkpt>
      <trkpt lat="43.13180814497172832489013671875" lon="12.97258897684514522552490234375">
        <ele>909.79998779296875</ele>
        <time>2019-08-30T08:17:31.000Z</time>
        <extensions>
          <ns3:TrackPointExtension/>
        </extensions>
      </trkpt>
      <trkpt lat="43.1318107433617115020751953125" lon="12.97262317501008510589599609375">
        <ele>909.5999755859375</ele>
        <time>2019-08-30T08:17:32.000Z</time>
        <extensions>
          <ns3:TrackPointExtension/>
        </extensions>
      </trkpt>
      <trkpt lat="43.131814934313297271728515625" lon="12.9726877994835376739501953125">
        <ele>909.79998779296875</ele>
        <time>2019-08-30T08:17:34.000Z</time>
        <extensions>
          <ns3:TrackPointExtension/>
        </extensions>
      </trkpt>
      <trkpt lat="43.131826333701610565185546875" lon="12.97283221967518329620361328125">
        <ele>910</ele>
        <time>2019-08-30T08:17:38.000Z</time>
        <extensions>
          <ns3:TrackPointExtension/>
        </extensions>
      </trkpt>
      <trkpt lat="43.13183865509927272796630859375" lon="12.97294990159571170806884765625">
        <ele>910.20001220703125</ele>
        <time>2019-08-30T08:17:41.000Z</time>
        <extensions>
          <ns3:TrackPointExtension/>
        </extensions>
      </trkpt>
      <trkpt lat="43.13184871338307857513427734375" lon="12.97315374948084354400634765625">
        <ele>911</ele>
        <time>2019-08-30T08:17:46.000Z</time>
        <extensions>
          <ns3:TrackPointExtension/>
        </extensions>
      </trkpt>
      <trkpt lat="43.13185072503983974456787109375" lon="12.973194234073162078857421875">
        <ele>911.20001220703125</ele>
        <time>2019-08-30T08:17:47.000Z</time>
        <extensions>
          <ns3:TrackPointExtension/>
        </extensions>
      </trkpt>
      <trkpt lat="43.13186530955135822296142578125" lon="12.97344527207314968109130859375">
        <ele>912.20001220703125</ele>
        <time>2019-08-30T08:17:53.000Z</time>
        <extensions>
          <ns3:TrackPointExtension/>
        </extensions>
      </trkpt>
      <trkpt lat="43.13188592903316020965576171875" lon="12.9735995829105377197265625">
        <ele>912.5999755859375</ele>
        <time>2019-08-30T08:17:57.000Z</time>
        <extensions>
          <ns3:TrackPointExtension/>
        </extensions>
      </trkpt>
      <trkpt lat="43.13188995234668254852294921875" lon="12.973637469112873077392578125">
        <ele>912.5999755859375</ele>
        <time>2019-08-30T08:17:58.000Z</time>
        <extensions>
          <ns3:TrackPointExtension/>
        </extensions>
      </trkpt>
      <trkpt lat="43.13191945664584636688232421875" lon="12.97388448379933834075927734375">
        <ele>912.5999755859375</ele>
        <time>2019-08-30T08:18:05.000Z</time>
        <extensions>
          <ns3:TrackPointExtension/>
        </extensions>
      </trkpt>
      <trkpt lat="43.13192917965352535247802734375" lon="12.9740671254694461822509765625">
        <ele>913.20001220703125</ele>
        <time>2019-08-30T08:18:10.000Z</time>
        <extensions>
          <ns3:TrackPointExtension/>
        </extensions>
      </trkpt>
      <trkpt lat="43.13192658126354217529296875" lon="12.97410476021468639373779296875">
        <ele>913.4000244140625</ele>
        <time>2019-08-30T08:18:11.000Z</time>
        <extensions>
          <ns3:TrackPointExtension/>
        </extensions>
      </trkpt>
      <trkpt lat="43.1319099850952625274658203125" lon="12.9742485098540782928466796875">
        <ele>914.79998779296875</ele>
        <time>2019-08-30T08:18:15.000Z</time>
        <extensions>
          <ns3:TrackPointExtension/>
        </extensions>
      </trkpt>
      <trkpt lat="43.13189481385052204132080078125" lon="12.9743048362433910369873046875">
        <ele>916.20001220703125</ele>
        <time>2019-08-30T08:18:17.000Z</time>
        <extensions>
          <ns3:TrackPointExtension/>
        </extensions>
      </trkpt>
      <trkpt lat="43.1317990086972713470458984375" lon="12.97453743405640125274658203125">
        <ele>917.4000244140625</ele>
        <time>2019-08-30T08:18:27.000Z</time>
        <extensions>
          <ns3:TrackPointExtension/>
        </extensions>
      </trkpt>
      <trkpt lat="43.1316648982465267181396484375" lon="12.974677495658397674560546875">
        <ele>918</ele>
        <time>2019-08-30T08:18:33.000Z</time>
        <extensions>
          <ns3:TrackPointExtension/>
        </extensions>
      </trkpt>
      <trkpt lat="43.13161854632198810577392578125" lon="12.9747209139168262481689453125">
        <ele>918</ele>
        <time>2019-08-30T08:18:35.000Z</time>
        <extensions>
          <ns3:TrackPointExtension/>
        </extensions>
      </trkpt>
      <trkpt lat="43.1315566040575504302978515625" lon="12.9747903160750865936279296875">
        <ele>918.20001220703125</ele>
        <time>2019-08-30T08:18:38.000Z</time>
        <extensions>
          <ns3:TrackPointExtension/>
        </extensions>
      </trkpt>
      <trkpt lat="43.131397180259227752685546875" lon="12.97491009347140789031982421875">
        <ele>918.4000244140625</ele>
        <time>2019-08-30T08:18:45.000Z</time>
        <extensions>
          <ns3:TrackPointExtension/>
        </extensions>
      </trkpt>
      <trkpt lat="43.13132266514003276824951171875" lon="12.97493423335254192352294921875">
        <ele>918.5999755859375</ele>
        <time>2019-08-30T08:18:48.000Z</time>
        <extensions>
          <ns3:TrackPointExtension/>
        </extensions>
      </trkpt>
      <trkpt lat="43.131296932697296142578125" lon="12.97493943013250827789306640625">
        <ele>918.79998779296875</ele>
        <time>2019-08-30T08:18:49.000Z</time>
        <extensions>
          <ns3:TrackPointExtension/>
        </extensions>
      </trkpt>
      <trkpt lat="43.1311160512268543243408203125" lon="12.97491730190813541412353515625">
        <ele>920.20001220703125</ele>
        <time>2019-08-30T08:18:56.000Z</time>
        <extensions>
          <ns3:TrackPointExtension/>
        </extensions>
      </trkpt>
      <trkpt lat="43.1309852935373783111572265625" lon="12.974876649677753448486328125">
        <ele>921.5999755859375</ele>
        <time>2019-08-30T08:19:01.000Z</time>
        <extensions>
          <ns3:TrackPointExtension/>
        </extensions>
      </trkpt>
      <trkpt lat="43.130932152271270751953125" lon="12.9748627357184886932373046875">
        <ele>922.20001220703125</ele>
        <time>2019-08-30T08:19:03.000Z</time>
        <extensions>
          <ns3:TrackPointExtension/>
        </extensions>
      </trkpt>
      <trkpt lat="43.13073928467929363250732421875" lon="12.9747883044183254241943359375">
        <ele>923.79998779296875</ele>
        <time>2019-08-30T08:19:10.000Z</time>
        <extensions>
          <ns3:TrackPointExtension/>
        </extensions>
      </trkpt>
      <trkpt lat="43.13065295107662677764892578125" lon="12.97473759390413761138916015625">
        <ele>924.5999755859375</ele>
        <time>2019-08-30T08:19:13.000Z</time>
        <extensions>
          <ns3:TrackPointExtension/>
        </extensions>
      </trkpt>
      <trkpt lat="43.13062034547328948974609375" lon="12.9747215844690799713134765625">
        <ele>925</ele>
        <time>2019-08-30T08:19:14.000Z</time>
        <extensions>
          <ns3:TrackPointExtension/>
        </extensions>
      </trkpt>
      <trkpt lat="43.13043887726962566375732421875" lon="12.97474362887442111968994140625">
        <ele>926.79998779296875</ele>
        <time>2019-08-30T08:19:21.000Z</time>
        <extensions>
          <ns3:TrackPointExtension/>
        </extensions>
      </trkpt>
      <trkpt lat="43.13032756559550762176513671875" lon="12.97493758611381053924560546875">
        <ele>927.5999755859375</ele>
        <time>2019-08-30T08:19:27.000Z</time>
        <extensions>
          <ns3:TrackPointExtension/>
        </extensions>
      </trkpt>
      <trkpt lat="43.130276687443256378173828125" lon="12.9751846008002758026123046875">
        <ele>926.79998779296875</ele>
        <time>2019-08-30T08:19:33.000Z</time>
        <extensions>
          <ns3:TrackPointExtension/>
        </extensions>
      </trkpt>
      <trkpt lat="43.13026235438883304595947265625" lon="12.97536456026136875152587890625">
        <ele>925.5999755859375</ele>
        <time>2019-08-30T08:19:37.000Z</time>
        <extensions>
          <ns3:TrackPointExtension/>
        </extensions>
      </trkpt>
      <trkpt lat="43.1302570737898349761962890625" lon="12.97545575536787509918212890625">
        <ele>925.20001220703125</ele>
        <time>2019-08-30T08:19:39.000Z</time>
        <extensions>
          <ns3:TrackPointExtension/>
        </extensions>
      </trkpt>
      <trkpt lat="43.13025212846696376800537109375" lon="12.97563311643898487091064453125">
        <ele>924.20001220703125</ele>
        <time>2019-08-30T08:19:43.000Z</time>
        <extensions>
          <ns3:TrackPointExtension/>
        </extensions>
      </trkpt>
      <trkpt lat="43.13025229610502719879150390625" lon="12.9756774567067623138427734375">
        <ele>924</ele>
        <time>2019-08-30T08:19:44.000Z</time>
        <extensions>
          <ns3:TrackPointExtension/>
        </extensions>
      </trkpt>
      <trkpt lat="43.13025598414242267608642578125" lon="12.975895218551158905029296875">
        <ele>922.5999755859375</ele>
        <time>2019-08-30T08:19:49.000Z</time>
        <extensions>
          <ns3:TrackPointExtension/>
        </extensions>
      </trkpt>
      <trkpt lat="43.130257241427898406982421875" lon="12.97597627155482769012451171875">
        <ele>922.4000244140625</ele>
        <time>2019-08-30T08:19:51.000Z</time>
        <extensions>
          <ns3:TrackPointExtension/>
        </extensions>
      </trkpt>
      <trkpt lat="43.13025363720953464508056640625" lon="12.976223789155483245849609375">
        <ele>922.20001220703125</ele>
        <time>2019-08-30T08:19:57.000Z</time>
        <extensions>
          <ns3:TrackPointExtension/>
        </extensions>
      </trkpt>
      <trkpt lat="43.13025346957147121429443359375" lon="12.976265363395214080810546875">
        <ele>922</ele>
        <time>2019-08-30T08:19:58.000Z</time>
        <extensions>
          <ns3:TrackPointExtension/>
        </extensions>
      </trkpt>
      <trkpt lat="43.1302530504763126373291015625" lon="12.9763086140155792236328125">
        <ele>922</ele>
        <time>2019-08-30T08:19:59.000Z</time>
        <extensions>
          <ns3:TrackPointExtension/>
        </extensions>
      </trkpt>
      <trkpt lat="43.13024240545928478240966796875" lon="12.97646996565163135528564453125">
        <ele>922</ele>
        <time>2019-08-30T08:20:03.000Z</time>
        <extensions>
          <ns3:TrackPointExtension/>
        </extensions>
      </trkpt>
      <trkpt lat="43.13023184426128864288330078125" lon="12.97673567198216915130615234375">
        <ele>921.79998779296875</ele>
        <time>2019-08-30T08:20:09.000Z</time>
        <extensions>
          <ns3:TrackPointExtension/>
        </extensions>
      </trkpt>
      <trkpt lat="43.13022647984325885772705078125" lon="12.9768693633377552032470703125">
        <ele>922.5999755859375</ele>
        <time>2019-08-30T08:20:12.000Z</time>
        <extensions>
          <ns3:TrackPointExtension/>
        </extensions>
      </trkpt>
      <trkpt lat="43.13021876849234104156494140625" lon="12.9770805872976779937744140625">
        <ele>923.20001220703125</ele>
        <time>2019-08-30T08:20:17.000Z</time>
        <extensions>
          <ns3:TrackPointExtension/>
        </extensions>
      </trkpt>
      <trkpt lat="43.13021759502589702606201171875" lon="12.977167926728725433349609375">
        <ele>923.4000244140625</ele>
        <time>2019-08-30T08:20:19.000Z</time>
        <extensions>
          <ns3:TrackPointExtension/>
        </extensions>
      </trkpt>
      <trkpt lat="43.13023301772773265838623046875" lon="12.97738845460116863250732421875">
        <ele>923.79998779296875</ele>
        <time>2019-08-30T08:20:25.000Z</time>
        <extensions>
          <ns3:TrackPointExtension/>
        </extensions>
      </trkpt>
      <trkpt lat="43.13024885952472686767578125" lon="12.97751250676810741424560546875">
        <ele>923.79998779296875</ele>
        <time>2019-08-30T08:20:28.000Z</time>
        <extensions>
          <ns3:TrackPointExtension/>
        </extensions>
      </trkpt>
      <trkpt lat="43.130288757383823394775390625" lon="12.9776907898485660552978515625">
        <ele>924</ele>
        <time>2019-08-30T08:20:32.000Z</time>
        <extensions>
          <ns3:TrackPointExtension/>
        </extensions>
      </trkpt>
      <trkpt lat="43.130326978862285614013671875" lon="12.97787477262318134307861328125">
        <ele>924</ele>
        <time>2019-08-30T08:20:36.000Z</time>
        <extensions>
          <ns3:TrackPointExtension/>
        </extensions>
      </trkpt>
      <trkpt lat="43.130331672728061676025390625" lon="12.9779224656522274017333984375">
        <ele>924</ele>
        <time>2019-08-30T08:20:37.000Z</time>
        <extensions>
          <ns3:TrackPointExtension/>
        </extensions>
      </trkpt>
      <trkpt lat="43.13033745624125003814697265625" lon="12.97802631743252277374267578125">
        <ele>923.79998779296875</ele>
        <time>2019-08-30T08:20:39.000Z</time>
        <extensions>
          <ns3:TrackPointExtension/>
        </extensions>
      </trkpt>
      <trkpt lat="43.1303311698138713836669921875" lon="12.978289425373077392578125">
        <ele>923.5999755859375</ele>
        <time>2019-08-30T08:20:44.000Z</time>
        <extensions>
          <ns3:TrackPointExtension/>
        </extensions>
      </trkpt>
      <trkpt lat="43.130326978862285614013671875" lon="12.978341393172740936279296875">
        <ele>923.4000244140625</ele>
        <time>2019-08-30T08:20:45.000Z</time>
        <extensions>
          <ns3:TrackPointExtension/>
        </extensions>
      </trkpt>
      <trkpt lat="43.1302973069250583648681640625" lon="12.97850240953266620635986328125">
        <ele>923.5999755859375</ele>
        <time>2019-08-30T08:20:48.000Z</time>
        <extensions>
          <ns3:TrackPointExtension/>
        </extensions>
      </trkpt>
      <trkpt lat="43.1302322633564472198486328125" lon="12.97877767123281955718994140625">
        <ele>923.79998779296875</ele>
        <time>2019-08-30T08:20:53.000Z</time>
        <extensions>
          <ns3:TrackPointExtension/>
        </extensions>
      </trkpt>
      <trkpt lat="43.13022069633007049560546875" lon="12.9788297228515148162841796875">
        <ele>923.79998779296875</ele>
        <time>2019-08-30T08:20:54.000Z</time>
        <extensions>
          <ns3:TrackPointExtension/>
        </extensions>
      </trkpt>
      <trkpt lat="43.1301958858966827392578125" lon="12.97897674143314361572265625">
        <ele>923.79998779296875</ele>
        <time>2019-08-30T08:20:57.000Z</time>
        <extensions>
          <ns3:TrackPointExtension/>
        </extensions>
      </trkpt>
      <trkpt lat="43.130172751843929290771484375" lon="12.97925275750458240509033203125">
        <ele>923.5999755859375</ele>
        <time>2019-08-30T08:21:03.000Z</time>
        <extensions>
          <ns3:TrackPointExtension/>
        </extensions>
      </trkpt>
      <trkpt lat="43.13016227446496486663818359375" lon="12.97934127040207386016845703125">
        <ele>924.4000244140625</ele>
        <time>2019-08-30T08:21:05.000Z</time>
        <extensions>
          <ns3:TrackPointExtension/>
        </extensions>
      </trkpt>
      <trkpt lat="43.13015590421855449676513671875" lon="12.97938686795532703399658203125">
        <ele>924.5999755859375</ele>
        <time>2019-08-30T08:21:06.000Z</time>
        <extensions>
          <ns3:TrackPointExtension/>
        </extensions>
      </trkpt>
      <trkpt lat="43.1301310099661350250244140625" lon="12.979573868215084075927734375">
        <ele>925.5999755859375</ele>
        <time>2019-08-30T08:21:10.000Z</time>
        <extensions>
          <ns3:TrackPointExtension/>
        </extensions>
      </trkpt>
      <trkpt lat="43.13009329140186309814453125" lon="12.97976799309253692626953125">
        <ele>926.5999755859375</ele>
        <time>2019-08-30T08:21:14.000Z</time>
        <extensions>
          <ns3:TrackPointExtension/>
        </extensions>
      </trkpt>
      <trkpt lat="43.13006085343658924102783203125" lon="12.98004853539168834686279296875">
        <ele>928</ele>
        <time>2019-08-30T08:21:20.000Z</time>
        <extensions>
          <ns3:TrackPointExtension/>
        </extensions>
      </trkpt>
      <trkpt lat="43.13005465082824230194091796875" lon="12.98009614460170269012451171875">
        <ele>928.20001220703125</ele>
        <time>2019-08-30T08:21:21.000Z</time>
        <extensions>
          <ns3:TrackPointExtension/>
        </extensions>
      </trkpt>
      <trkpt lat="43.130041994154453277587890625" lon="12.98019320704042911529541015625">
        <ele>928.5999755859375</ele>
        <time>2019-08-30T08:21:23.000Z</time>
        <extensions>
          <ns3:TrackPointExtension/>
        </extensions>
      </trkpt>
      <trkpt lat="43.1300086341798305511474609375" lon="12.98038490116596221923828125">
        <ele>929.4000244140625</ele>
        <time>2019-08-30T08:21:27.000Z</time>
        <extensions>
          <ns3:TrackPointExtension/>
        </extensions>
      </trkpt>
      <trkpt lat="43.12998600304126739501953125" lon="12.98053066246211528778076171875">
        <ele>930</ele>
        <time>2019-08-30T08:21:30.000Z</time>
        <extensions>
          <ns3:TrackPointExtension/>
        </extensions>
      </trkpt>
      <trkpt lat="43.1299861706793308258056640625" lon="12.980716489255428314208984375">
        <ele>930.5999755859375</ele>
        <time>2019-08-30T08:21:34.000Z</time>
        <extensions>
          <ns3:TrackPointExtension/>
        </extensions>
      </trkpt>
      <trkpt lat="43.12999145127832889556884765625" lon="12.9807625897228717803955078125">
        <ele>930.79998779296875</ele>
        <time>2019-08-30T08:21:35.000Z</time>
        <extensions>
          <ns3:TrackPointExtension/>
        </extensions>
      </trkpt>
      <trkpt lat="43.13006068579852581024169921875" lon="12.9810116998851299285888671875">
        <ele>931.4000244140625</ele>
        <time>2019-08-30T08:21:41.000Z</time>
        <extensions>
          <ns3:TrackPointExtension/>
        </extensions>
      </trkpt>
      <trkpt lat="43.1301725842058658599853515625" lon="12.98122837208211421966552734375">
        <ele>932.4000244140625</ele>
        <time>2019-08-30T08:21:47.000Z</time>
        <extensions>
          <ns3:TrackPointExtension/>
        </extensions>
      </trkpt>
      <trkpt lat="43.1301932036876678466796875" lon="12.98126340843737125396728515625">
        <ele>932.5999755859375</ele>
        <time>2019-08-30T08:21:48.000Z</time>
        <extensions>
          <ns3:TrackPointExtension/>
        </extensions>
      </trkpt>
      <trkpt lat="43.130257911980152130126953125" lon="12.981366254389286041259765625">
        <ele>933.5999755859375</ele>
        <time>2019-08-30T08:21:51.000Z</time>
        <extensions>
          <ns3:TrackPointExtension/>
        </extensions>
      </trkpt>
      <trkpt lat="43.13038791529834270477294921875" lon="12.9815535061061382293701171875">
        <ele>935.20001220703125</ele>
        <time>2019-08-30T08:21:57.000Z</time>
        <extensions>
          <ns3:TrackPointExtension/>
        </extensions>
      </trkpt>
      <trkpt lat="43.13050827942788600921630859375" lon="12.9816369898617267608642578125">
        <ele>936.5999755859375</ele>
        <time>2019-08-30T08:22:02.000Z</time>
        <extensions>
          <ns3:TrackPointExtension/>
        </extensions>
      </trkpt>
      <trkpt lat="43.13053459860384464263916015625" lon="12.98164813779294490814208984375">
        <ele>936.79998779296875</ele>
        <time>2019-08-30T08:22:03.000Z</time>
        <extensions>
          <ns3:TrackPointExtension/>
        </extensions>
      </trkpt>
      <trkpt lat="43.1306101195514202117919921875" lon="12.98166356049478054046630859375">
        <ele>937.5999755859375</ele>
        <time>2019-08-30T08:22:06.000Z</time>
        <extensions>
          <ns3:TrackPointExtension/>
        </extensions>
      </trkpt>
      <trkpt lat="43.13073995523154735565185546875" lon="12.98170312307775020599365234375">
        <ele>939</ele>
        <time>2019-08-30T08:22:11.000Z</time>
        <extensions>
          <ns3:TrackPointExtension/>
        </extensions>
      </trkpt>
      <trkpt lat="43.1307618319988250732421875" lon="12.98171083442866802215576171875">
        <ele>939.20001220703125</ele>
        <time>2019-08-30T08:22:12.000Z</time>
        <extensions>
          <ns3:TrackPointExtension/>
        </extensions>
      </trkpt>
      <trkpt lat="43.13079527579247951507568359375" lon="12.98172256909310817718505859375">
        <ele>939.5999755859375</ele>
        <time>2019-08-30T08:22:14.000Z</time>
        <extensions>
          <ns3:TrackPointExtension/>
        </extensions>
      </trkpt>
      <trkpt lat="43.13080633990466594696044921875" lon="12.98175140284001827239990234375">
        <ele>939.79998779296875</ele>
        <time>2019-08-30T08:22:51.000Z</time>
        <extensions>
          <ns3:TrackPointExtension/>
        </extensions>
      </trkpt>
      <trkpt lat="43.1307871453464031219482421875" lon="12.98180387355387210845947265625">
        <ele>940</ele>
        <time>2019-08-30T08:22:55.000Z</time>
        <extensions>
          <ns3:TrackPointExtension/>
        </extensions>
      </trkpt>
      <trkpt lat="43.1307824514806270599365234375" lon="12.98182181082665920257568359375">
        <ele>940</ele>
        <time>2019-08-30T08:22:56.000Z</time>
        <extensions>
          <ns3:TrackPointExtension/>
        </extensions>
      </trkpt>
      <trkpt lat="43.13075420446693897247314453125" lon="12.98190680332481861114501953125">
        <ele>940.4000244140625</ele>
        <time>2019-08-30T08:23:00.000Z</time>
        <extensions>
          <ns3:TrackPointExtension/>
        </extensions>
      </trkpt>
      <trkpt lat="43.13067667186260223388671875" lon="12.9821600206196308135986328125">
        <ele>941.4000244140625</ele>
        <time>2019-08-30T08:23:09.000Z</time>
        <extensions>
          <ns3:TrackPointExtension/>
        </extensions>
      </trkpt>
      <trkpt lat="43.13062193803489208221435546875" lon="12.98231600783765316009521484375">
        <ele>942.20001220703125</ele>
        <time>2019-08-30T08:23:14.000Z</time>
        <extensions>
          <ns3:TrackPointExtension/>
        </extensions>
      </trkpt>
      <trkpt lat="43.130612634122371673583984375" lon="12.982345931231975555419921875">
        <ele>942.20001220703125</ele>
        <time>2019-08-30T08:23:15.000Z</time>
        <extensions>
          <ns3:TrackPointExtension/>
        </extensions>
      </trkpt>
      <trkpt lat="43.1305725686252117156982421875" lon="12.98246839083731174468994140625">
        <ele>943</ele>
        <time>2019-08-30T08:23:19.000Z</time>
        <extensions>
          <ns3:TrackPointExtension/>
        </extensions>
      </trkpt>
      <trkpt lat="43.1305400468409061431884765625" lon="12.982565201818943023681640625">
        <ele>943.5999755859375</ele>
        <time>2019-08-30T08:23:22.000Z</time>
        <extensions>
          <ns3:TrackPointExtension/>
        </extensions>
      </trkpt>
      <trkpt lat="43.13049562275409698486328125" lon="12.9826585762202739715576171875">
        <ele>943.5999755859375</ele>
        <time>2019-08-30T08:23:25.000Z</time>
        <extensions>
          <ns3:TrackPointExtension/>
        </extensions>
      </trkpt>
      <trkpt lat="43.13036997802555561065673828125" lon="12.98283836804330348968505859375">
        <ele>943.20001220703125</ele>
        <time>2019-08-30T08:23:32.000Z</time>
        <extensions>
          <ns3:TrackPointExtension/>
        </extensions>
      </trkpt>
      <trkpt lat="43.1303058564662933349609375" lon="12.9828902520239353179931640625">
        <ele>943</ele>
        <time>2019-08-30T08:23:35.000Z</time>
        <extensions>
          <ns3:TrackPointExtension/>
        </extensions>
      </trkpt>
      <trkpt lat="43.13028599135577678680419921875" lon="12.98290743492543697357177734375">
        <ele>943</ele>
        <time>2019-08-30T08:23:36.000Z</time>
        <extensions>
          <ns3:TrackPointExtension/>
        </extensions>
      </trkpt>
      <trkpt lat="43.13022631220519542694091796875" lon="12.9829630069434642791748046875">
        <ele>943</ele>
        <time>2019-08-30T08:23:39.000Z</time>
        <extensions>
          <ns3:TrackPointExtension/>
        </extensions>
      </trkpt>
      <trkpt lat="43.1300790421664714813232421875" lon="12.9831088520586490631103515625">
        <ele>943.20001220703125</ele>
        <time>2019-08-30T08:23:46.000Z</time>
        <extensions>
          <ns3:TrackPointExtension/>
        </extensions>
      </trkpt>
      <trkpt lat="43.1300552375614643096923828125" lon="12.98313081264495849609375">
        <ele>943.20001220703125</ele>
        <time>2019-08-30T08:23:47.000Z</time>
        <extensions>
          <ns3:TrackPointExtension/>
        </extensions>
      </trkpt>
      <trkpt lat="43.12995607964694499969482421875" lon="12.9832221753895282745361328125">
        <ele>943.4000244140625</ele>
        <time>2019-08-30T08:23:51.000Z</time>
        <extensions>
          <ns3:TrackPointExtension/>
        </extensions>
      </trkpt>
      <trkpt lat="43.12986354343593120574951171875" lon="12.9833126999437808990478515625">
        <ele>943.79998779296875</ele>
        <time>2019-08-30T08:23:55.000Z</time>
        <extensions>
          <ns3:TrackPointExtension/>
        </extensions>
      </trkpt>
      <trkpt lat="43.129806630313396453857421875" lon="12.98340515233576297760009765625">
        <ele>944.20001220703125</ele>
        <time>2019-08-30T08:23:59.000Z</time>
        <extensions>
          <ns3:TrackPointExtension/>
        </extensions>
      </trkpt>
      <trkpt lat="43.12979648821055889129638671875" lon="12.98342577181756496429443359375">
        <ele>944.20001220703125</ele>
        <time>2019-08-30T08:24:00.000Z</time>
        <extensions>
          <ns3:TrackPointExtension/>
        </extensions>
      </trkpt>
      <trkpt lat="43.129702024161815643310546875" lon="12.98364269547164440155029296875">
        <ele>944.4000244140625</ele>
        <time>2019-08-30T08:24:08.000Z</time>
        <extensions>
          <ns3:TrackPointExtension/>
        </extensions>
      </trkpt>
      <trkpt lat="43.1296130083501338958740234375" lon="12.98382944427430629730224609375">
        <ele>944.5999755859375</ele>
        <time>2019-08-30T08:24:15.000Z</time>
        <extensions>
          <ns3:TrackPointExtension/>
        </extensions>
      </trkpt>
      <trkpt lat="43.129604123532772064208984375" lon="12.98385861329734325408935546875">
        <ele>944.79998779296875</ele>
        <time>2019-08-30T08:24:16.000Z</time>
        <extensions>
          <ns3:TrackPointExtension/>
        </extensions>
      </trkpt>
      <trkpt lat="43.1295791454613208770751953125" lon="12.9840211383998394012451171875">
        <ele>945.5999755859375</ele>
        <time>2019-08-30T08:24:21.000Z</time>
        <extensions>
          <ns3:TrackPointExtension/>
        </extensions>
      </trkpt>
      <trkpt lat="43.1295754574239253997802734375" lon="12.984155751764774322509765625">
        <ele>946.20001220703125</ele>
        <time>2019-08-30T08:24:25.000Z</time>
        <extensions>
          <ns3:TrackPointExtension/>
        </extensions>
      </trkpt>
      <trkpt lat="43.12954134307801723480224609375" lon="12.9844070412218570709228515625">
        <ele>949.4000244140625</ele>
        <time>2019-08-30T08:24:33.000Z</time>
        <extensions>
          <ns3:TrackPointExtension/>
        </extensions>
      </trkpt>
      <trkpt lat="43.12953472137451171875" lon="12.98443662934005260467529296875">
        <ele>949.79998779296875</ele>
        <time>2019-08-30T08:24:34.000Z</time>
        <extensions>
          <ns3:TrackPointExtension/>
        </extensions>
      </trkpt>
      <trkpt lat="43.1295281834900379180908203125" lon="12.98446613363921642303466796875">
        <ele>950.4000244140625</ele>
        <time>2019-08-30T08:24:35.000Z</time>
        <extensions>
          <ns3:TrackPointExtension/>
        </extensions>
      </trkpt>
      <trkpt lat="43.1294735334813594818115234375" lon="12.9847232066094875335693359375">
        <ele>951.79998779296875</ele>
        <time>2019-08-30T08:24:44.000Z</time>
        <extensions>
          <ns3:TrackPointExtension/>
        </extensions>
      </trkpt>
      <trkpt lat="43.1294574402272701263427734375" lon="12.9847776889801025390625">
        <ele>952</ele>
        <time>2019-08-30T08:24:46.000Z</time>
        <extensions>
          <ns3:TrackPointExtension/>
        </extensions>
      </trkpt>
      <trkpt lat="43.12944863922894001007080078125" lon="12.98480425961315631866455078125">
        <ele>952</ele>
        <time>2019-08-30T08:24:47.000Z</time>
        <extensions>
          <ns3:TrackPointExtension/>
        </extensions>
      </trkpt>
      <trkpt lat="43.12934118323028087615966796875" lon="12.98500542528927326202392578125">
        <ele>952.20001220703125</ele>
        <time>2019-08-30T08:24:56.000Z</time>
        <extensions>
          <ns3:TrackPointExtension/>
        </extensions>
      </trkpt>
      <trkpt lat="43.12928452156484127044677734375" lon="12.98512344248592853546142578125">
        <ele>952.79998779296875</ele>
        <time>2019-08-30T08:25:01.000Z</time>
        <extensions>
          <ns3:TrackPointExtension/>
        </extensions>
      </trkpt>
      <trkpt lat="43.12927312217652797698974609375" lon="12.98514992929995059967041015625">
        <ele>952.79998779296875</ele>
        <time>2019-08-30T08:25:02.000Z</time>
        <extensions>
          <ns3:TrackPointExtension/>
        </extensions>
      </trkpt>
      <trkpt lat="43.12922752462327480316162109375" lon="12.985247410833835601806640625">
        <ele>954.20001220703125</ele>
        <time>2019-08-30T08:25:06.000Z</time>
        <extensions>
          <ns3:TrackPointExtension/>
        </extensions>
      </trkpt>
      <trkpt lat="43.1291335634887218475341796875" lon="12.985470034182071685791015625">
        <ele>957.20001220703125</ele>
        <time>2019-08-30T08:25:15.000Z</time>
        <extensions>
          <ns3:TrackPointExtension/>
        </extensions>
      </trkpt>
      <trkpt lat="43.1290309689939022064208984375" lon="12.98569877631962299346923828125">
        <ele>960.20001220703125</ele>
        <time>2019-08-30T08:25:25.000Z</time>
        <extensions>
          <ns3:TrackPointExtension/>
        </extensions>
      </trkpt>
      <trkpt lat="43.12902711331844329833984375" lon="12.98595249652862548828125">
        <ele>960.5999755859375</ele>
        <time>2019-08-30T08:25:35.000Z</time>
        <extensions>
          <ns3:TrackPointExtension/>
        </extensions>
      </trkpt>
      <trkpt lat="43.12905393540859222412109375" lon="12.98607411794364452362060546875">
        <ele>962.20001220703125</ele>
        <time>2019-08-30T08:25:40.000Z</time>
        <extensions>
          <ns3:TrackPointExtension/>
        </extensions>
      </trkpt>
      <trkpt lat="43.1290584616363048553466796875" lon="12.986100018024444580078125">
        <ele>962.4000244140625</ele>
        <time>2019-08-30T08:25:41.000Z</time>
        <extensions>
          <ns3:TrackPointExtension/>
        </extensions>
      </trkpt>
      <trkpt lat="43.12908553518354892730712890625" lon="12.986249886453151702880859375">
        <ele>964.4000244140625</ele>
        <time>2019-08-30T08:25:47.000Z</time>
        <extensions>
          <ns3:TrackPointExtension/>
        </extensions>
      </trkpt>
      <trkpt lat="43.12909039668738842010498046875" lon="12.98627980984747409820556640625">
        <ele>964.79998779296875</ele>
        <time>2019-08-30T08:25:48.000Z</time>
        <extensions>
          <ns3:TrackPointExtension/>
        </extensions>
      </trkpt>
      <trkpt lat="43.1291057355701923370361328125" lon="12.9865414090454578399658203125">
        <ele>968</ele>
        <time>2019-08-30T08:25:58.000Z</time>
        <extensions>
          <ns3:TrackPointExtension/>
        </extensions>
      </trkpt>
      <trkpt lat="43.1291057355701923370361328125" lon="12.9866436682641506195068359375">
        <ele>969.20001220703125</ele>
        <time>2019-08-30T08:26:01.000Z</time>
        <extensions>
          <ns3:TrackPointExtension/>
        </extensions>
      </trkpt>
      <trkpt lat="43.12910464592278003692626953125" lon="12.98667644150555133819580078125">
        <ele>969.79998779296875</ele>
        <time>2019-08-30T08:26:02.000Z</time>
        <extensions>
          <ns3:TrackPointExtension/>
        </extensions>
      </trkpt>
      <trkpt lat="43.12909391708672046661376953125" lon="12.98684902489185333251953125">
        <ele>970.5999755859375</ele>
        <time>2019-08-30T08:26:08.000Z</time>
        <extensions>
          <ns3:TrackPointExtension/>
        </extensions>
      </trkpt>
      <trkpt lat="43.1290862895548343658447265625" lon="12.9869139008224010467529296875">
        <ele>970.5999755859375</ele>
        <time>2019-08-30T08:26:10.000Z</time>
        <extensions>
          <ns3:TrackPointExtension/>
        </extensions>
      </trkpt>
      <trkpt lat="43.12907899729907512664794921875" lon="12.9869799502193927764892578125">
        <ele>970.4000244140625</ele>
        <time>2019-08-30T08:26:12.000Z</time>
        <extensions>
          <ns3:TrackPointExtension/>
        </extensions>
      </trkpt>
      <trkpt lat="43.1290742196142673492431640625" lon="12.98704708926379680633544921875">
        <ele>970.4000244140625</ele>
        <time>2019-08-30T08:26:14.000Z</time>
        <extensions>
          <ns3:TrackPointExtension/>
        </extensions>
      </trkpt>
      <trkpt lat="43.1290685199201107025146484375" lon="12.9871797747910022735595703125">
        <ele>970.20001220703125</ele>
        <time>2019-08-30T08:26:18.000Z</time>
        <extensions>
          <ns3:TrackPointExtension/>
        </extensions>
      </trkpt>
      <trkpt lat="43.1290701963007450103759765625" lon="12.98724465072154998779296875">
        <ele>970.20001220703125</ele>
        <time>2019-08-30T08:26:20.000Z</time>
        <extensions>
          <ns3:TrackPointExtension/>
        </extensions>
      </trkpt>
      <trkpt lat="43.129079751670360565185546875" lon="12.9874156415462493896484375">
        <ele>970.4000244140625</ele>
        <time>2019-08-30T08:26:25.000Z</time>
        <extensions>
          <ns3:TrackPointExtension/>
        </extensions>
      </trkpt>
      <trkpt lat="43.12908218242228031158447265625" lon="12.987451516091823577880859375">
        <ele>970.79998779296875</ele>
        <time>2019-08-30T08:26:26.000Z</time>
        <extensions>
          <ns3:TrackPointExtension/>
        </extensions>
      </trkpt>
      <trkpt lat="43.12910749576985836029052734375" lon="12.9875918291509151458740234375">
        <ele>972.4000244140625</ele>
        <time>2019-08-30T08:26:30.000Z</time>
        <extensions>
          <ns3:TrackPointExtension/>
        </extensions>
      </trkpt>
      <trkpt lat="43.12913440167903900146484375" lon="12.987672798335552215576171875">
        <ele>971.5999755859375</ele>
        <time>2019-08-30T08:26:34.000Z</time>
        <extensions>
          <ns3:TrackPointExtension/>
        </extensions>
      </trkpt>
      <trkpt lat="43.12914504669606685638427734375" lon="12.98770540393888950347900390625">
        <ele>971.4000244140625</ele>
        <time>2019-08-30T08:26:58.000Z</time>
        <extensions>
          <ns3:TrackPointExtension/>
        </extensions>
      </trkpt>
      <trkpt lat="43.12914974056184291839599609375" lon="12.98769802786409854888916015625">
        <ele>971.4000244140625</ele>
        <time>2019-08-30T08:27:03.000Z</time>
        <extensions>
          <ns3:TrackPointExtension/>
        </extensions>
      </trkpt>
      <trkpt lat="43.12914622016251087188720703125" lon="12.98770858906209468841552734375">
        <ele>971.4000244140625</ele>
        <time>2019-08-30T08:27:08.000Z</time>
        <extensions>
          <ns3:TrackPointExtension/>
        </extensions>
      </trkpt>
      <trkpt lat="43.12915208749473094940185546875" lon="12.98770624212920665740966796875">
        <ele>971.20001220703125</ele>
        <time>2019-08-30T08:27:21.000Z</time>
        <extensions>
          <ns3:TrackPointExtension/>
        </extensions>
      </trkpt>
      <trkpt lat="43.129161894321441650390625" lon="12.9877423681318759918212890625">
        <ele>971</ele>
        <time>2019-08-30T08:27:43.000Z</time>
        <extensions>
          <ns3:TrackPointExtension/>
        </extensions>
      </trkpt>
      <trkpt lat="43.12916181050240993499755859375" lon="12.98779777251183986663818359375">
        <ele>970.79998779296875</ele>
        <time>2019-08-30T08:28:58.000Z</time>
        <extensions>
          <ns3:TrackPointExtension/>
        </extensions>
      </trkpt>
      <trkpt lat="43.1291942484676837921142578125" lon="12.98786382190883159637451171875">
        <ele>970.20001220703125</ele>
        <time>2019-08-30T08:29:02.000Z</time>
        <extensions>
          <ns3:TrackPointExtension/>
        </extensions>
      </trkpt>
      <trkpt lat="43.12923657707870006561279296875" lon="12.987961135804653167724609375">
        <ele>969.20001220703125</ele>
        <time>2019-08-30T08:29:07.000Z</time>
        <extensions>
          <ns3:TrackPointExtension/>
        </extensions>
      </trkpt>
      <trkpt lat="43.1292452104389667510986328125" lon="12.9879817552864551544189453125">
        <ele>969</ele>
        <time>2019-08-30T08:29:08.000Z</time>
        <extensions>
          <ns3:TrackPointExtension/>
        </extensions>
      </trkpt>
      <trkpt lat="43.1293126009404659271240234375" lon="12.9881373234093189239501953125">
        <ele>969.5999755859375</ele>
        <time>2019-08-30T08:29:16.000Z</time>
        <extensions>
          <ns3:TrackPointExtension/>
        </extensions>
      </trkpt>
      <trkpt lat="43.1293280236423015594482421875" lon="12.98816976137459278106689453125">
        <ele>970</ele>
        <time>2019-08-30T08:29:18.000Z</time>
        <extensions>
          <ns3:TrackPointExtension/>
        </extensions>
      </trkpt>
      <trkpt lat="43.12934805639088153839111328125" lon="12.9882100783288478851318359375">
        <ele>970.5999755859375</ele>
        <time>2019-08-30T08:29:20.000Z</time>
        <extensions>
          <ns3:TrackPointExtension/>
        </extensions>
      </trkpt>
      <trkpt lat="43.12936649657785892486572265625" lon="12.9882429353892803192138671875">
        <ele>971.20001220703125</ele>
        <time>2019-08-30T08:29:22.000Z</time>
        <extensions>
          <ns3:TrackPointExtension/>
        </extensions>
      </trkpt>
      <trkpt lat="43.12937839888036251068115234375" lon="12.98825894482433795928955078125">
        <ele>971.5999755859375</ele>
        <time>2019-08-30T08:29:23.000Z</time>
        <extensions>
          <ns3:TrackPointExtension/>
        </extensions>
      </trkpt>
      <trkpt lat="43.1294058077037334442138671875" lon="12.98829398117959499359130859375">
        <ele>972.4000244140625</ele>
        <time>2019-08-30T08:29:25.000Z</time>
        <extensions>
          <ns3:TrackPointExtension/>
        </extensions>
      </trkpt>
      <trkpt lat="43.12943589873611927032470703125" lon="12.98835701309144496917724609375">
        <ele>973.4000244140625</ele>
        <time>2019-08-30T08:29:28.000Z</time>
        <extensions>
          <ns3:TrackPointExtension/>
        </extensions>
      </trkpt>
      <trkpt lat="43.12947059981524944305419921875" lon="12.98843085765838623046875">
        <ele>974.20001220703125</ele>
        <time>2019-08-30T08:29:32.000Z</time>
        <extensions>
          <ns3:TrackPointExtension/>
        </extensions>
      </trkpt>
      <trkpt lat="43.1294782273471355438232421875" lon="12.98845164477825164794921875">
        <ele>974.4000244140625</ele>
        <time>2019-08-30T08:29:33.000Z</time>
        <extensions>
          <ns3:TrackPointExtension/>
        </extensions>
      </trkpt>
      <trkpt lat="43.129536397755146026611328125" lon="12.98858148045837879180908203125">
        <ele>975.20001220703125</ele>
        <time>2019-08-30T08:29:39.000Z</time>
        <extensions>
          <ns3:TrackPointExtension/>
        </extensions>
      </trkpt>
      <trkpt lat="43.12954670749604701995849609375" lon="12.98860159702599048614501953125">
        <ele>975.4000244140625</ele>
        <time>2019-08-30T08:29:40.000Z</time>
        <extensions>
          <ns3:TrackPointExtension/>
        </extensions>
      </trkpt>
      <trkpt lat="43.12966740690171718597412109375" lon="12.98880561254918575286865234375">
        <ele>978</ele>
        <time>2019-08-30T08:29:50.000Z</time>
        <extensions>
          <ns3:TrackPointExtension/>
        </extensions>
      </trkpt>
      <trkpt lat="43.12974058091640472412109375" lon="12.9890516214072704315185546875">
        <ele>979.5999755859375</ele>
        <time>2019-08-30T08:30:00.000Z</time>
        <extensions>
          <ns3:TrackPointExtension/>
        </extensions>
      </trkpt>
      <trkpt lat="43.1297487951815128326416015625" lon="12.98907819204032421112060546875">
        <ele>979.79998779296875</ele>
        <time>2019-08-30T08:30:01.000Z</time>
        <extensions>
          <ns3:TrackPointExtension/>
        </extensions>
      </trkpt>
      <trkpt lat="43.129823394119739532470703125" lon="12.989318333566188812255859375">
        <ele>981</ele>
        <time>2019-08-30T08:30:10.000Z</time>
        <extensions>
          <ns3:TrackPointExtension/>
        </extensions>
      </trkpt>
      <trkpt lat="43.129832111299037933349609375" lon="12.9893453232944011688232421875">
        <ele>981</ele>
        <time>2019-08-30T08:30:11.000Z</time>
        <extensions>
          <ns3:TrackPointExtension/>
        </extensions>
      </trkpt>
      <trkpt lat="43.12985365279018878936767578125" lon="12.98939603380858898162841796875">
        <ele>981.20001220703125</ele>
        <time>2019-08-30T08:30:13.000Z</time>
        <extensions>
          <ns3:TrackPointExtension/>
        </extensions>
      </trkpt>
      <trkpt lat="43.12992087565362453460693359375" lon="12.98957188613712787628173828125">
        <ele>981.79998779296875</ele>
        <time>2019-08-30T08:30:20.000Z</time>
        <extensions>
          <ns3:TrackPointExtension/>
        </extensions>
      </trkpt>
      <trkpt lat="43.1299311853945255279541015625" lon="12.98959485255181789398193359375">
        <ele>981.79998779296875</ele>
        <time>2019-08-30T08:30:21.000Z</time>
        <extensions>
          <ns3:TrackPointExtension/>
        </extensions>
      </trkpt>
      <trkpt lat="43.12999815680086612701416015625" lon="12.989730052649974822998046875">
        <ele>982.79998779296875</ele>
        <time>2019-08-30T08:30:27.000Z</time>
        <extensions>
          <ns3:TrackPointExtension/>
        </extensions>
      </trkpt>
      <trkpt lat="43.1300089694559574127197265625" lon="12.98975377343595027923583984375">
        <ele>982.79998779296875</ele>
        <time>2019-08-30T08:30:28.000Z</time>
        <extensions>
          <ns3:TrackPointExtension/>
        </extensions>
      </trkpt>
      <trkpt lat="43.13011164776980876922607421875" lon="12.9899840243160724639892578125">
        <ele>984</ele>
        <time>2019-08-30T08:30:38.000Z</time>
        <extensions>
          <ns3:TrackPointExtension/>
        </extensions>
      </trkpt>
      <trkpt lat="43.130193538963794708251953125" lon="12.990203462541103363037109375">
        <ele>984.20001220703125</ele>
        <time>2019-08-30T08:30:46.000Z</time>
        <extensions>
          <ns3:TrackPointExtension/>
        </extensions>
      </trkpt>
      <trkpt lat="43.1302044354379177093505859375" lon="12.99023003317415714263916015625">
        <ele>984.20001220703125</ele>
        <time>2019-08-30T08:30:47.000Z</time>
        <extensions>
          <ns3:TrackPointExtension/>
        </extensions>
      </trkpt>
      <trkpt lat="43.13023687340319156646728515625" lon="12.9903352260589599609375">
        <ele>984.20001220703125</ele>
        <time>2019-08-30T08:30:51.000Z</time>
        <extensions>
          <ns3:TrackPointExtension/>
        </extensions>
      </trkpt>
      <trkpt lat="43.130245506763458251953125" lon="12.990361042320728302001953125">
        <ele>984.20001220703125</ele>
        <time>2019-08-30T08:30:52.000Z</time>
        <extensions>
          <ns3:TrackPointExtension/>
        </extensions>
      </trkpt>
      <trkpt lat="43.1303472630679607391357421875" lon="12.99058408476412296295166015625">
        <ele>985</ele>
        <time>2019-08-30T08:31:01.000Z</time>
        <extensions>
          <ns3:TrackPointExtension/>
        </extensions>
      </trkpt>
      <trkpt lat="43.13048464246094226837158203125" lon="12.99077888019382953643798828125">
        <ele>986.5999755859375</ele>
        <time>2019-08-30T08:31:11.000Z</time>
        <extensions>
          <ns3:TrackPointExtension/>
        </extensions>
      </trkpt>
      <trkpt lat="43.130514733493328094482421875" lon="12.990817688405513763427734375">
        <ele>987</ele>
        <time>2019-08-30T08:31:13.000Z</time>
        <extensions>
          <ns3:TrackPointExtension/>
        </extensions>
      </trkpt>
      <trkpt lat="43.13052873127162456512451171875" lon="12.990833781659603118896484375">
        <ele>987.20001220703125</ele>
        <time>2019-08-30T08:31:14.000Z</time>
        <extensions>
          <ns3:TrackPointExtension/>
        </extensions>
      </trkpt>
      <trkpt lat="43.13065529800951480865478515625" lon="12.9907662235200405120849609375">
        <ele>990.5999755859375</ele>
        <time>2019-08-30T08:31:24.000Z</time>
        <extensions>
          <ns3:TrackPointExtension/>
        </extensions>
      </trkpt>
      <trkpt lat="43.130658902227878570556640625" lon="12.99074116162955760955810546875">
        <ele>990.79998779296875</ele>
        <time>2019-08-30T08:31:25.000Z</time>
        <extensions>
          <ns3:TrackPointExtension/>
        </extensions>
      </trkpt>
      <trkpt lat="43.13066384755074977874755859375" lon="12.99071945250034332275390625">
        <ele>991.20001220703125</ele>
        <time>2019-08-30T08:31:26.000Z</time>
        <extensions>
          <ns3:TrackPointExtension/>
        </extensions>
      </trkpt>
      <trkpt lat="43.130739368498325347900390625" lon="12.99053312279284000396728515625">
        <ele>995.79998779296875</ele>
        <time>2019-08-30T08:31:46.000Z</time>
        <extensions>
          <ns3:TrackPointExtension/>
        </extensions>
      </trkpt>
      <trkpt lat="43.130768872797489166259765625" lon="12.9904433526098728179931640625">
        <ele>998</ele>
        <time>2019-08-30T08:32:04.000Z</time>
        <extensions>
          <ns3:TrackPointExtension/>
        </extensions>
      </trkpt>
      <trkpt lat="43.130762837827205657958984375" lon="12.9903970845043659210205078125">
        <ele>998.5999755859375</ele>
        <time>2019-08-30T08:32:12.000Z</time>
        <extensions>
          <ns3:TrackPointExtension/>
        </extensions>
      </trkpt>
      <trkpt lat="43.13080675899982452392578125" lon="12.99024729989469051361083984375">
        <ele>1002.4000244140625</ele>
        <time>2019-08-30T08:32:39.000Z</time>
        <extensions>
          <ns3:TrackPointExtension/>
        </extensions>
      </trkpt>
      <trkpt lat="43.13087917864322662353515625" lon="12.99006457440555095672607421875">
        <ele>1007.20001220703125</ele>
        <time>2019-08-30T08:32:48.000Z</time>
        <extensions>
          <ns3:TrackPointExtension/>
        </extensions>
      </trkpt>
      <trkpt lat="43.13089015893638134002685546875" lon="12.990036495029926300048828125">
        <ele>1007.79998779296875</ele>
        <time>2019-08-30T08:32:49.000Z</time>
        <extensions>
          <ns3:TrackPointExtension/>
        </extensions>
      </trkpt>
      <trkpt lat="43.13090977258980274200439453125" lon="12.98998259939253330230712890625">
        <ele>1009</ele>
        <time>2019-08-30T08:32:51.000Z</time>
        <extensions>
          <ns3:TrackPointExtension/>
        </extensions>
      </trkpt>
      <trkpt lat="43.1309635005891323089599609375" lon="12.98988989554345607757568359375">
        <ele>1011</ele>
        <time>2019-08-30T08:32:55.000Z</time>
        <extensions>
          <ns3:TrackPointExtension/>
        </extensions>
      </trkpt>
      <trkpt lat="43.13097699545323848724365234375" lon="12.98987011425197124481201171875">
        <ele>1011.4000244140625</ele>
        <time>2019-08-30T08:32:56.000Z</time>
        <extensions>
          <ns3:TrackPointExtension/>
        </extensions>
      </trkpt>
      <trkpt lat="43.13114362768828868865966796875" lon="12.989766597747802734375">
        <ele>1013.79998779296875</ele>
        <time>2019-08-30T08:33:04.000Z</time>
        <extensions>
          <ns3:TrackPointExtension/>
        </extensions>
      </trkpt>
      <trkpt lat="43.131168186664581298828125" lon="12.98976165242493152618408203125">
        <ele>1014</ele>
        <time>2019-08-30T08:33:05.000Z</time>
        <extensions>
          <ns3:TrackPointExtension/>
        </extensions>
      </trkpt>
      <trkpt lat="43.1311908178031444549560546875" lon="12.98975343815982341766357421875">
        <ele>1014.20001220703125</ele>
        <time>2019-08-30T08:33:06.000Z</time>
        <extensions>
          <ns3:TrackPointExtension/>
        </extensions>
      </trkpt>
      <trkpt lat="43.13136868178844451904296875" lon="12.98967816866934299468994140625">
        <ele>1016.4000244140625</ele>
        <time>2019-08-30T08:33:14.000Z</time>
        <extensions>
          <ns3:TrackPointExtension/>
        </extensions>
      </trkpt>
      <trkpt lat="43.13139022327959537506103515625" lon="12.989670373499393463134765625">
        <ele>1016.79998779296875</ele>
        <time>2019-08-30T08:33:15.000Z</time>
        <extensions>
          <ns3:TrackPointExtension/>
        </extensions>
      </trkpt>
      <trkpt lat="43.131436072289943695068359375" lon="12.98966341651976108551025390625">
        <ele>1017.4000244140625</ele>
        <time>2019-08-30T08:33:17.000Z</time>
        <extensions>
          <ns3:TrackPointExtension/>
        </extensions>
      </trkpt>
      <trkpt lat="43.1314885430037975311279296875" lon="12.98965788446366786956787109375">
        <ele>1018.20001220703125</ele>
        <time>2019-08-30T08:33:19.000Z</time>
        <extensions>
          <ns3:TrackPointExtension/>
        </extensions>
      </trkpt>
      <trkpt lat="43.1315891258418560028076171875" lon="12.98963290639221668243408203125">
        <ele>1019.79998779296875</ele>
        <time>2019-08-30T08:33:23.000Z</time>
        <extensions>
          <ns3:TrackPointExtension/>
        </extensions>
      </trkpt>
      <trkpt lat="43.13177444972097873687744140625" lon="12.9895828664302825927734375">
        <ele>1022.5999755859375</ele>
        <time>2019-08-30T08:33:31.000Z</time>
        <extensions>
          <ns3:TrackPointExtension/>
        </extensions>
      </trkpt>
      <trkpt lat="43.13179758377373218536376953125" lon="12.98957440070807933807373046875">
        <ele>1023</ele>
        <time>2019-08-30T08:33:32.000Z</time>
        <extensions>
          <ns3:TrackPointExtension/>
        </extensions>
      </trkpt>
      <trkpt lat="43.13182021491229534149169921875" lon="12.9895672760903835296630859375">
        <ele>1023.20001220703125</ele>
        <time>2019-08-30T08:33:33.000Z</time>
        <extensions>
          <ns3:TrackPointExtension/>
        </extensions>
      </trkpt>
      <trkpt lat="43.131996653974056243896484375" lon="12.9894512705504894256591796875">
        <ele>1026.4000244140625</ele>
        <time>2019-08-30T08:33:42.000Z</time>
        <extensions>
          <ns3:TrackPointExtension/>
        </extensions>
      </trkpt>
      <trkpt lat="43.1320169381797313690185546875" lon="12.98944096080958843231201171875">
        <ele>1026.4000244140625</ele>
        <time>2019-08-30T08:33:43.000Z</time>
        <extensions>
          <ns3:TrackPointExtension/>
        </extensions>
      </trkpt>
      <trkpt lat="43.13207720406353473663330078125" lon="12.9894110374152660369873046875">
        <ele>1027</ele>
        <time>2019-08-30T08:33:46.000Z</time>
        <extensions>
          <ns3:TrackPointExtension/>
        </extensions>
      </trkpt>
      <trkpt lat="43.132221288979053497314453125" lon="12.98934289254248142242431640625">
        <ele>1028</ele>
        <time>2019-08-30T08:33:53.000Z</time>
        <extensions>
          <ns3:TrackPointExtension/>
        </extensions>
      </trkpt>
      <trkpt lat="43.1322851590812206268310546875" lon="12.98931238241493701934814453125">
        <ele>1028.4000244140625</ele>
        <time>2019-08-30T08:33:56.000Z</time>
        <extensions>
          <ns3:TrackPointExtension/>
        </extensions>
      </trkpt>
      <trkpt lat="43.13238448463380336761474609375" lon="12.989245243370532989501953125">
        <ele>1029.199951171875</ele>
        <time>2019-08-30T08:34:01.000Z</time>
        <extensions>
          <ns3:TrackPointExtension/>
        </extensions>
      </trkpt>
      <trkpt lat="43.1324071995913982391357421875" lon="12.989232838153839111328125">
        <ele>1029.4000244140625</ele>
        <time>2019-08-30T08:34:02.000Z</time>
        <extensions>
          <ns3:TrackPointExtension/>
        </extensions>
      </trkpt>
      <trkpt lat="43.13258363865315914154052734375" lon="12.98914507962763309478759765625">
        <ele>1030</ele>
        <time>2019-08-30T08:34:10.000Z</time>
        <extensions>
          <ns3:TrackPointExtension/>
        </extensions>
      </trkpt>
      <trkpt lat="43.1326281465590000152587890625" lon="12.98912756145000457763671875">
        <ele>1030.199951171875</ele>
        <time>2019-08-30T08:34:12.000Z</time>
        <extensions>
          <ns3:TrackPointExtension/>
        </extensions>
      </trkpt>
      <trkpt lat="43.13265077769756317138671875" lon="12.98911758698523044586181640625">
        <ele>1030.5999755859375</ele>
        <time>2019-08-30T08:34:13.000Z</time>
        <extensions>
          <ns3:TrackPointExtension/>
        </extensions>
      </trkpt>
      <trkpt lat="43.1328256241977214813232421875" lon="12.9890529625117778778076171875">
        <ele>1032.5999755859375</ele>
        <time>2019-08-30T08:34:21.000Z</time>
        <extensions>
          <ns3:TrackPointExtension/>
        </extensions>
      </trkpt>
      <trkpt lat="43.1328470818698406219482421875" lon="12.98904516734182834625244140625">
        <ele>1032.800048828125</ele>
        <time>2019-08-30T08:34:22.000Z</time>
        <extensions>
          <ns3:TrackPointExtension/>
        </extensions>
      </trkpt>
      <trkpt lat="43.1329168193042278289794921875" lon="12.98903091810643672943115234375">
        <ele>1033.800048828125</ele>
        <time>2019-08-30T08:34:25.000Z</time>
        <extensions>
          <ns3:TrackPointExtension/>
        </extensions>
      </trkpt>
      <trkpt lat="43.13310951925814151763916015625" lon="12.989008538424968719482421875">
        <ele>1036</ele>
        <time>2019-08-30T08:34:34.000Z</time>
        <extensions>
          <ns3:TrackPointExtension/>
        </extensions>
      </trkpt>
      <trkpt lat="43.13315193168818950653076171875" lon="12.98900510184466838836669921875">
        <ele>1036.5999755859375</ele>
        <time>2019-08-30T08:34:36.000Z</time>
        <extensions>
          <ns3:TrackPointExtension/>
        </extensions>
      </trkpt>
      <trkpt lat="43.1333489902317523956298828125" lon="12.9890030063688755035400390625">
        <ele>1037.4000244140625</ele>
        <time>2019-08-30T08:34:46.000Z</time>
        <extensions>
          <ns3:TrackPointExtension/>
        </extensions>
      </trkpt>
      <trkpt lat="43.133407495915889739990234375" lon="12.9890169203281402587890625">
        <ele>1037.800048828125</ele>
        <time>2019-08-30T08:34:49.000Z</time>
        <extensions>
          <ns3:TrackPointExtension/>
        </extensions>
      </trkpt>
      <trkpt lat="43.1334257684648036956787109375" lon="12.989023290574550628662109375">
        <ele>1037.800048828125</ele>
        <time>2019-08-30T08:34:50.000Z</time>
        <extensions>
          <ns3:TrackPointExtension/>
        </extensions>
      </trkpt>
      <trkpt lat="43.13350095413625240325927734375" lon="12.98905220814049243927001953125">
        <ele>1038.800048828125</ele>
        <time>2019-08-30T08:35:05.000Z</time>
        <extensions>
          <ns3:TrackPointExtension/>
        </extensions>
      </trkpt>
      <trkpt lat="43.133685104548931121826171875" lon="12.98910434357821941375732421875">
        <ele>1041.199951171875</ele>
        <time>2019-08-30T08:35:14.000Z</time>
        <extensions>
          <ns3:TrackPointExtension/>
        </extensions>
      </trkpt>
      <trkpt lat="43.1338656507432460784912109375" lon="12.98918447457253932952880859375">
        <ele>1044</ele>
        <time>2019-08-30T08:35:23.000Z</time>
        <extensions>
          <ns3:TrackPointExtension/>
        </extensions>
      </trkpt>
      <trkpt lat="43.13404259271919727325439453125" lon="12.98926158808171749114990234375">
        <ele>1046.5999755859375</ele>
        <time>2019-08-30T08:35:32.000Z</time>
        <extensions>
          <ns3:TrackPointExtension/>
        </extensions>
      </trkpt>
      <trkpt lat="43.13406287692487239837646484375" lon="12.9892623424530029296875">
        <ele>1046.800048828125</ele>
        <time>2019-08-30T08:35:33.000Z</time>
        <extensions>
          <ns3:TrackPointExtension/>
        </extensions>
      </trkpt>
      <trkpt lat="43.1340829096734523773193359375" lon="12.9892608337104320526123046875">
        <ele>1047</ele>
        <time>2019-08-30T08:35:34.000Z</time>
        <extensions>
          <ns3:TrackPointExtension/>
        </extensions>
      </trkpt>
      <trkpt lat="43.1342247314751148223876953125" lon="12.98923007212579250335693359375">
        <ele>1048.4000244140625</ele>
        <time>2019-08-30T08:35:41.000Z</time>
        <extensions>
          <ns3:TrackPointExtension/>
        </extensions>
      </trkpt>
      <trkpt lat="43.1342448480427265167236328125" lon="12.98922403715550899505615234375">
        <ele>1048.4000244140625</ele>
        <time>2019-08-30T08:35:42.000Z</time>
        <extensions>
          <ns3:TrackPointExtension/>
        </extensions>
      </trkpt>
      <trkpt lat="43.1344346143305301666259765625" lon="12.98919369466602802276611328125">
        <ele>1051</ele>
        <time>2019-08-30T08:35:51.000Z</time>
        <extensions>
          <ns3:TrackPointExtension/>
        </extensions>
      </trkpt>
      <trkpt lat="43.1344952993094921112060546875" lon="12.98917558975517749786376953125">
        <ele>1051.800048828125</ele>
        <time>2019-08-30T08:35:54.000Z</time>
        <extensions>
          <ns3:TrackPointExtension/>
        </extensions>
      </trkpt>
      <trkpt lat="43.13451415859162807464599609375" lon="12.989170812070369720458984375">
        <ele>1052</ele>
        <time>2019-08-30T08:35:55.000Z</time>
        <extensions>
          <ns3:TrackPointExtension/>
        </extensions>
      </trkpt>
      <trkpt lat="43.134606778621673583984375" lon="12.989134602248668670654296875">
        <ele>1053.199951171875</ele>
        <time>2019-08-30T08:36:00.000Z</time>
        <extensions>
          <ns3:TrackPointExtension/>
        </extensions>
      </trkpt>
      <trkpt lat="43.134625218808650970458984375" lon="12.98912177793681621551513671875">
        <ele>1053.199951171875</ele>
        <time>2019-08-30T08:36:01.000Z</time>
        <extensions>
          <ns3:TrackPointExtension/>
        </extensions>
      </trkpt>
      <trkpt lat="43.13480115495622158050537109375" lon="12.98905069939792156219482421875">
        <ele>1055.199951171875</ele>
        <time>2019-08-30T08:36:09.000Z</time>
        <extensions>
          <ns3:TrackPointExtension/>
        </extensions>
      </trkpt>
      <trkpt lat="43.13497717492282390594482421875" lon="12.98894441686570644378662109375">
        <ele>1057.199951171875</ele>
        <time>2019-08-30T08:36:18.000Z</time>
        <extensions>
          <ns3:TrackPointExtension/>
        </extensions>
      </trkpt>
      <trkpt lat="43.135035932064056396484375" lon="12.98891575075685977935791015625">
        <ele>1058</ele>
        <time>2019-08-30T08:36:21.000Z</time>
        <extensions>
          <ns3:TrackPointExtension/>
        </extensions>
      </trkpt>
      <trkpt lat="43.135055713355541229248046875" lon="12.988908290863037109375">
        <ele>1058.4000244140625</ele>
        <time>2019-08-30T08:36:22.000Z</time>
        <extensions>
          <ns3:TrackPointExtension/>
        </extensions>
      </trkpt>
      <trkpt lat="43.13513173721730709075927734375" lon="12.98887367360293865203857421875">
        <ele>1059.199951171875</ele>
        <time>2019-08-30T08:36:26.000Z</time>
        <extensions>
          <ns3:TrackPointExtension/>
        </extensions>
      </trkpt>
      <trkpt lat="43.13525226898491382598876953125" lon="12.98882874660193920135498046875">
        <ele>1060.199951171875</ele>
        <time>2019-08-30T08:36:32.000Z</time>
        <extensions>
          <ns3:TrackPointExtension/>
        </extensions>
      </trkpt>
      <trkpt lat="43.1352717988193035125732421875" lon="12.988822460174560546875">
        <ele>1060.4000244140625</ele>
        <time>2019-08-30T08:36:33.000Z</time>
        <extensions>
          <ns3:TrackPointExtension/>
        </extensions>
      </trkpt>
      <trkpt lat="43.135332651436328887939453125" lon="12.98879890702664852142333984375">
        <ele>1060.800048828125</ele>
        <time>2019-08-30T08:36:36.000Z</time>
        <extensions>
          <ns3:TrackPointExtension/>
        </extensions>
      </trkpt>
      <trkpt lat="43.13551428727805614471435546875" lon="12.98872615210711956024169921875">
        <ele>1063.199951171875</ele>
        <time>2019-08-30T08:36:45.000Z</time>
        <extensions>
          <ns3:TrackPointExtension/>
        </extensions>
      </trkpt>
      <trkpt lat="43.1356959231197834014892578125" lon="12.9886224679648876190185546875">
        <ele>1067</ele>
        <time>2019-08-30T08:36:54.000Z</time>
        <extensions>
          <ns3:TrackPointExtension/>
        </extensions>
      </trkpt>
      <trkpt lat="43.13571679405868053436279296875" lon="12.988610565662384033203125">
        <ele>1067.4000244140625</ele>
        <time>2019-08-30T08:36:55.000Z</time>
        <extensions>
          <ns3:TrackPointExtension/>
        </extensions>
      </trkpt>
      <trkpt lat="43.13573892228305339813232421875" lon="12.98859941773116588592529296875">
        <ele>1067.800048828125</ele>
        <time>2019-08-30T08:36:56.000Z</time>
        <extensions>
          <ns3:TrackPointExtension/>
        </extensions>
      </trkpt>
      <trkpt lat="43.13578217290341854095458984375" lon="12.988579384982585906982421875">
        <ele>1068.800048828125</ele>
        <time>2019-08-30T08:36:58.000Z</time>
        <extensions>
          <ns3:TrackPointExtension/>
        </extensions>
      </trkpt>
      <trkpt lat="43.13582517206668853759765625" lon="12.9885591007769107818603515625">
        <ele>1069.800048828125</ele>
        <time>2019-08-30T08:37:00.000Z</time>
        <extensions>
          <ns3:TrackPointExtension/>
        </extensions>
      </trkpt>
      <trkpt lat="43.13600596971809864044189453125" lon="12.98847637139260768890380859375">
        <ele>1073</ele>
        <time>2019-08-30T08:37:09.000Z</time>
        <extensions>
          <ns3:TrackPointExtension/>
        </extensions>
      </trkpt>
      <trkpt lat="43.1361951492726802825927734375" lon="12.9883988387882709503173828125">
        <ele>1077</ele>
        <time>2019-08-30T08:37:18.000Z</time>
        <extensions>
          <ns3:TrackPointExtension/>
        </extensions>
      </trkpt>
      <trkpt lat="43.1362174451351165771484375" lon="12.98839506693184375762939453125">
        <ele>1077.5999755859375</ele>
        <time>2019-08-30T08:37:19.000Z</time>
        <extensions>
          <ns3:TrackPointExtension/>
        </extensions>
      </trkpt>
      <trkpt lat="43.1362387351691722869873046875" lon="12.9883919656276702880859375">
        <ele>1078</ele>
        <time>2019-08-30T08:37:20.000Z</time>
        <extensions>
          <ns3:TrackPointExtension/>
        </extensions>
      </trkpt>
      <trkpt lat="43.13628022558987140655517578125" lon="12.98838031478226184844970703125">
        <ele>1078.5999755859375</ele>
        <time>2019-08-30T08:37:22.000Z</time>
        <extensions>
          <ns3:TrackPointExtension/>
        </extensions>
      </trkpt>
      <trkpt lat="43.1363611109554767608642578125" lon="12.988357432186603546142578125">
        <ele>1080.199951171875</ele>
        <time>2019-08-30T08:37:26.000Z</time>
        <extensions>
          <ns3:TrackPointExtension/>
        </extensions>
      </trkpt>
      <trkpt lat="43.13638198189437389373779296875" lon="12.98835776746273040771484375">
        <ele>1080.5999755859375</ele>
        <time>2019-08-30T08:37:27.000Z</time>
        <extensions>
          <ns3:TrackPointExtension/>
        </extensions>
      </trkpt>
      <trkpt lat="43.1364214606583118438720703125" lon="12.98836321569979190826416015625">
        <ele>1081.4000244140625</ele>
        <time>2019-08-30T08:37:29.000Z</time>
        <extensions>
          <ns3:TrackPointExtension/>
        </extensions>
      </trkpt>
      <trkpt lat="43.1364801339805126190185546875" lon="12.98837763257324695587158203125">
        <ele>1082.800048828125</ele>
        <time>2019-08-30T08:37:32.000Z</time>
        <extensions>
          <ns3:TrackPointExtension/>
        </extensions>
      </trkpt>
      <trkpt lat="43.136500082910060882568359375" lon="12.98838324844837188720703125">
        <ele>1083.199951171875</ele>
        <time>2019-08-30T08:37:33.000Z</time>
        <extensions>
          <ns3:TrackPointExtension/>
        </extensions>
      </trkpt>
      <trkpt lat="43.13658063299953937530517578125" lon="12.9884035326540470123291015625">
        <ele>1085</ele>
        <time>2019-08-30T08:37:37.000Z</time>
        <extensions>
          <ns3:TrackPointExtension/>
        </extensions>
      </trkpt>
      <trkpt lat="43.136776350438594818115234375" lon="12.988465726375579833984375">
        <ele>1088.800048828125</ele>
        <time>2019-08-30T08:37:47.000Z</time>
        <extensions>
          <ns3:TrackPointExtension/>
        </extensions>
      </trkpt>
      <trkpt lat="43.13688003458082675933837890625" lon="12.98848651349544525146484375">
        <ele>1089.800048828125</ele>
        <time>2019-08-30T08:37:52.000Z</time>
        <extensions>
          <ns3:TrackPointExtension/>
        </extensions>
      </trkpt>
      <trkpt lat="43.13690048642456531524658203125" lon="12.98849129118025302886962890625">
        <ele>1090</ele>
        <time>2019-08-30T08:37:53.000Z</time>
        <extensions>
          <ns3:TrackPointExtension/>
        </extensions>
      </trkpt>
      <trkpt lat="43.13694139011204242706298828125" lon="12.988499589264392852783203125">
        <ele>1090.4000244140625</ele>
        <time>2019-08-30T08:37:55.000Z</time>
        <extensions>
          <ns3:TrackPointExtension/>
        </extensions>
      </trkpt>
      <trkpt lat="43.137129731476306915283203125" lon="12.988539822399616241455078125">
        <ele>1092.199951171875</ele>
        <time>2019-08-30T08:38:05.000Z</time>
        <extensions>
          <ns3:TrackPointExtension/>
        </extensions>
      </trkpt>
      <trkpt lat="43.13718882389366626739501953125" lon="12.98855365253984928131103515625">
        <ele>1092.5999755859375</ele>
        <time>2019-08-30T08:38:08.000Z</time>
        <extensions>
          <ns3:TrackPointExtension/>
        </extensions>
      </trkpt>
      <trkpt lat="43.13722528517246246337890625" lon="12.988563962280750274658203125">
        <ele>1093</ele>
        <time>2019-08-30T08:38:10.000Z</time>
        <extensions>
          <ns3:TrackPointExtension/>
        </extensions>
      </trkpt>
      <trkpt lat="43.137416057288646697998046875" lon="12.988610900938510894775390625">
        <ele>1094.800048828125</ele>
        <time>2019-08-30T08:38:20.000Z</time>
        <extensions>
          <ns3:TrackPointExtension/>
        </extensions>
      </trkpt>
      <trkpt lat="43.1374953500926494598388671875" lon="12.9886358790099620819091796875">
        <ele>1095.4000244140625</ele>
        <time>2019-08-30T08:38:59.000Z</time>
        <extensions>
          <ns3:TrackPointExtension/>
        </extensions>
      </trkpt>
      <trkpt lat="43.13760775141417980194091796875" lon="12.98867250792682170867919921875">
        <ele>1096.4000244140625</ele>
        <time>2019-08-30T08:39:03.000Z</time>
        <extensions>
          <ns3:TrackPointExtension/>
        </extensions>
      </trkpt>
      <trkpt lat="43.137691654264926910400390625" lon="12.988681979477405548095703125">
        <ele>1097.5999755859375</ele>
        <time>2019-08-30T08:39:06.000Z</time>
        <extensions>
          <ns3:TrackPointExtension/>
        </extensions>
      </trkpt>
      <trkpt lat="43.13788108527660369873046875" lon="12.98868340440094470977783203125">
        <ele>1100.199951171875</ele>
        <time>2019-08-30T08:39:13.000Z</time>
        <extensions>
          <ns3:TrackPointExtension/>
        </extensions>
      </trkpt>
      <trkpt lat="43.13792995177209377288818359375" lon="12.98866814933717250823974609375">
        <ele>1100.4000244140625</ele>
        <time>2019-08-30T08:39:15.000Z</time>
        <extensions>
          <ns3:TrackPointExtension/>
        </extensions>
      </trkpt>
      <trkpt lat="43.13798007555305957794189453125" lon="12.9886566661298274993896484375">
        <ele>1100.5999755859375</ele>
        <time>2019-08-30T08:39:17.000Z</time>
        <extensions>
          <ns3:TrackPointExtension/>
        </extensions>
      </trkpt>
      <trkpt lat="43.13816581852734088897705078125" lon="12.988624311983585357666015625">
        <ele>1101.5999755859375</ele>
        <time>2019-08-30T08:39:24.000Z</time>
        <extensions>
          <ns3:TrackPointExtension/>
        </extensions>
      </trkpt>
      <trkpt lat="43.138191215693950653076171875" lon="12.98861852847039699554443359375">
        <ele>1101.800048828125</ele>
        <time>2019-08-30T08:39:25.000Z</time>
        <extensions>
          <ns3:TrackPointExtension/>
        </extensions>
      </trkpt>
      <trkpt lat="43.1382624618709087371826171875" lon="12.98859405331313610076904296875">
        <ele>1102</ele>
        <time>2019-08-30T08:39:28.000Z</time>
        <extensions>
          <ns3:TrackPointExtension/>
        </extensions>
      </trkpt>
      <trkpt lat="43.13835659064352512359619140625" lon="12.98854929395020008087158203125">
        <ele>1102.4000244140625</ele>
        <time>2019-08-30T08:39:32.000Z</time>
        <extensions>
          <ns3:TrackPointExtension/>
        </extensions>
      </trkpt>
      <trkpt lat="43.13855222426354885101318359375" lon="12.98847846686840057373046875">
        <ele>1104.199951171875</ele>
        <time>2019-08-30T08:39:40.000Z</time>
        <extensions>
          <ns3:TrackPointExtension/>
        </extensions>
      </trkpt>
      <trkpt lat="43.13862682320177555084228515625" lon="12.9884668998420238494873046875">
        <ele>1104.800048828125</ele>
        <time>2019-08-30T08:39:43.000Z</time>
        <extensions>
          <ns3:TrackPointExtension/>
        </extensions>
      </trkpt>
      <trkpt lat="43.13869806937873363494873046875" lon="12.98845943994820117950439453125">
        <ele>1105.4000244140625</ele>
        <time>2019-08-30T08:39:46.000Z</time>
        <extensions>
          <ns3:TrackPointExtension/>
        </extensions>
      </trkpt>
      <trkpt lat="43.1388538889586925506591796875" lon="12.9884590208530426025390625">
        <ele>1107.199951171875</ele>
        <time>2019-08-30T08:39:53.000Z</time>
        <extensions>
          <ns3:TrackPointExtension/>
        </extensions>
      </trkpt>
      <trkpt lat="43.1388753466308116912841796875" lon="12.98846212215721607208251953125">
        <ele>1107.4000244140625</ele>
        <time>2019-08-30T08:39:54.000Z</time>
        <extensions>
          <ns3:TrackPointExtension/>
        </extensions>
      </trkpt>
      <trkpt lat="43.13896201550960540771484375" lon="12.9884806461632251739501953125">
        <ele>1108.5999755859375</ele>
        <time>2019-08-30T08:39:58.000Z</time>
        <extensions>
          <ns3:TrackPointExtension/>
        </extensions>
      </trkpt>
      <trkpt lat="43.139072321355342864990234375" lon="12.98850537277758121490478515625">
        <ele>1110.199951171875</ele>
        <time>2019-08-30T08:40:03.000Z</time>
        <extensions>
          <ns3:TrackPointExtension/>
        </extensions>
      </trkpt>
      <trkpt lat="43.13909587450325489044189453125" lon="12.9885094799101352691650390625">
        <ele>1110.4000244140625</ele>
        <time>2019-08-30T08:40:04.000Z</time>
        <extensions>
          <ns3:TrackPointExtension/>
        </extensions>
      </trkpt>
      <trkpt lat="43.13919880427420139312744140625" lon="12.98855700530111789703369140625">
        <ele>1112.199951171875</ele>
        <time>2019-08-30T08:40:09.000Z</time>
        <extensions>
          <ns3:TrackPointExtension/>
        </extensions>
      </trkpt>
      <trkpt lat="43.1393628381192684173583984375" lon="12.98868625424802303314208984375">
        <ele>1116.199951171875</ele>
        <time>2019-08-30T08:40:18.000Z</time>
        <extensions>
          <ns3:TrackPointExtension/>
        </extensions>
      </trkpt>
      <trkpt lat="43.13937867991626262664794921875" lon="12.98870821483433246612548828125">
        <ele>1116.800048828125</ele>
        <time>2019-08-30T08:40:19.000Z</time>
        <extensions>
          <ns3:TrackPointExtension/>
        </extensions>
      </trkpt>
      <trkpt lat="43.13950491137802600860595703125" lon="12.9889034293591976165771484375">
        <ele>1121.4000244140625</ele>
        <time>2019-08-30T08:40:28.000Z</time>
        <extensions>
          <ns3:TrackPointExtension/>
        </extensions>
      </trkpt>
      <trkpt lat="43.139661066234111785888671875" lon="12.9890603385865688323974609375">
        <ele>1125.800048828125</ele>
        <time>2019-08-30T08:40:37.000Z</time>
        <extensions>
          <ns3:TrackPointExtension/>
        </extensions>
      </trkpt>
      <trkpt lat="43.13968084752559661865234375" lon="12.98907257616519927978515625">
        <ele>1126.4000244140625</ele>
        <time>2019-08-30T08:40:38.000Z</time>
        <extensions>
          <ns3:TrackPointExtension/>
        </extensions>
      </trkpt>
      <trkpt lat="43.13970121555030345916748046875" lon="12.98908472992479801177978515625">
        <ele>1126.800048828125</ele>
        <time>2019-08-30T08:40:39.000Z</time>
        <extensions>
          <ns3:TrackPointExtension/>
        </extensions>
      </trkpt>
      <trkpt lat="43.139809928834438323974609375" lon="12.989162094891071319580078125">
        <ele>1129.4000244140625</ele>
        <time>2019-08-30T08:40:45.000Z</time>
        <extensions>
          <ns3:TrackPointExtension/>
        </extensions>
      </trkpt>
      <trkpt lat="43.13982727937400341033935546875" lon="12.98917659558355808258056640625">
        <ele>1130</ele>
        <time>2019-08-30T08:40:46.000Z</time>
        <extensions>
          <ns3:TrackPointExtension/>
        </extensions>
      </trkpt>
      <trkpt lat="43.13986382447183132171630859375" lon="12.98920710571110248565673828125">
        <ele>1131</ele>
        <time>2019-08-30T08:40:48.000Z</time>
        <extensions>
          <ns3:TrackPointExtension/>
        </extensions>
      </trkpt>
      <trkpt lat="43.1399435363709926605224609375" lon="12.9892705567181110382080078125">
        <ele>1132.5999755859375</ele>
        <time>2019-08-30T08:40:52.000Z</time>
        <extensions>
          <ns3:TrackPointExtension/>
        </extensions>
      </trkpt>
      <trkpt lat="43.14002308063209056854248046875" lon="12.98932763747870922088623046875">
        <ele>1133.4000244140625</ele>
        <time>2019-08-30T08:40:56.000Z</time>
        <extensions>
          <ns3:TrackPointExtension/>
        </extensions>
      </trkpt>
      <trkpt lat="43.14004219137132167816162109375" lon="12.98934104852378368377685546875">
        <ele>1133.5999755859375</ele>
        <time>2019-08-30T08:40:57.000Z</time>
        <extensions>
          <ns3:TrackPointExtension/>
        </extensions>
      </trkpt>
      <trkpt lat="43.14008108340203762054443359375" lon="12.989369966089725494384765625">
        <ele>1133.800048828125</ele>
        <time>2019-08-30T08:40:59.000Z</time>
        <extensions>
          <ns3:TrackPointExtension/>
        </extensions>
      </trkpt>
      <trkpt lat="43.14017211087048053741455078125" lon="12.98943911679089069366455078125">
        <ele>1135.199951171875</ele>
        <time>2019-08-30T08:41:04.000Z</time>
        <extensions>
          <ns3:TrackPointExtension/>
        </extensions>
      </trkpt>
      <trkpt lat="43.14019155688583850860595703125" lon="12.989453785121440887451171875">
        <ele>1135.4000244140625</ele>
        <time>2019-08-30T08:41:05.000Z</time>
        <extensions>
          <ns3:TrackPointExtension/>
        </extensions>
      </trkpt>
      <trkpt lat="43.14036489464342594146728515625" lon="12.9895947687327861785888671875">
        <ele>1137.800048828125</ele>
        <time>2019-08-30T08:41:14.000Z</time>
        <extensions>
          <ns3:TrackPointExtension/>
        </extensions>
      </trkpt>
      <trkpt lat="43.1403857655823230743408203125" lon="12.989610023796558380126953125">
        <ele>1138.199951171875</ele>
        <time>2019-08-30T08:41:15.000Z</time>
        <extensions>
          <ns3:TrackPointExtension/>
        </extensions>
      </trkpt>
      <trkpt lat="43.1404514797031879425048828125" lon="12.98966123722493648529052734375">
        <ele>1139.199951171875</ele>
        <time>2019-08-30T08:41:18.000Z</time>
        <extensions>
          <ns3:TrackPointExtension/>
        </extensions>
      </trkpt>
      <trkpt lat="43.14061350189149379730224609375" lon="12.98976802267134189605712890625">
        <ele>1141.5999755859375</ele>
        <time>2019-08-30T08:41:25.000Z</time>
        <extensions>
          <ns3:TrackPointExtension/>
        </extensions>
      </trkpt>
      <trkpt lat="43.140658177435398101806640625" lon="12.9898012988269329071044921875">
        <ele>1142.199951171875</ele>
        <time>2019-08-30T08:41:27.000Z</time>
        <extensions>
          <ns3:TrackPointExtension/>
        </extensions>
      </trkpt>
      <trkpt lat="43.1407891027629375457763671875" lon="12.98989777453243732452392578125">
        <ele>1143.800048828125</ele>
        <time>2019-08-30T08:41:33.000Z</time>
        <extensions>
          <ns3:TrackPointExtension/>
        </extensions>
      </trkpt>
      <trkpt lat="43.14081114716827869415283203125" lon="12.989913113415241241455078125">
        <ele>1144.199951171875</ele>
        <time>2019-08-30T08:41:34.000Z</time>
        <extensions>
          <ns3:TrackPointExtension/>
        </extensions>
      </trkpt>
      <trkpt lat="43.14098314382135868072509765625" lon="12.9900497384369373321533203125">
        <ele>1146.199951171875</ele>
        <time>2019-08-30T08:41:42.000Z</time>
        <extensions>
          <ns3:TrackPointExtension/>
        </extensions>
      </trkpt>
      <trkpt lat="43.14115916378796100616455078125" lon="12.9901798255741596221923828125">
        <ele>1147.5999755859375</ele>
        <time>2019-08-30T08:41:50.000Z</time>
        <extensions>
          <ns3:TrackPointExtension/>
        </extensions>
      </trkpt>
      <trkpt lat="43.14117894507944583892822265625" lon="12.99020119942724704742431640625">
        <ele>1147.5999755859375</ele>
        <time>2019-08-30T08:41:51.000Z</time>
        <extensions>
          <ns3:TrackPointExtension/>
        </extensions>
      </trkpt>
      <trkpt lat="43.1411991454660892486572265625" lon="12.99022181890904903411865234375">
        <ele>1147.5999755859375</ele>
        <time>2019-08-30T08:41:52.000Z</time>
        <extensions>
          <ns3:TrackPointExtension/>
        </extensions>
      </trkpt>
      <trkpt lat="43.1413500197231769561767578125" lon="12.99035609699785709381103515625">
        <ele>1148.199951171875</ele>
        <time>2019-08-30T08:41:59.000Z</time>
        <extensions>
          <ns3:TrackPointExtension/>
        </extensions>
      </trkpt>
      <trkpt lat="43.14151824451982975006103515625" lon="12.99048987217247486114501953125">
        <ele>1149</ele>
        <time>2019-08-30T08:42:07.000Z</time>
        <extensions>
          <ns3:TrackPointExtension/>
        </extensions>
      </trkpt>
      <trkpt lat="43.14168605022132396697998046875" lon="12.99062549136579036712646484375">
        <ele>1149.800048828125</ele>
        <time>2019-08-30T08:42:15.000Z</time>
        <extensions>
          <ns3:TrackPointExtension/>
        </extensions>
      </trkpt>
      <trkpt lat="43.1418371759355068206787109375" lon="12.99073965288698673248291015625">
        <ele>1150.5999755859375</ele>
        <time>2019-08-30T08:42:21.000Z</time>
        <extensions>
          <ns3:TrackPointExtension/>
        </extensions>
      </trkpt>
      <trkpt lat="43.14186156727373600006103515625" lon="12.99075700342655181884765625">
        <ele>1150.5999755859375</ele>
        <time>2019-08-30T08:42:22.000Z</time>
        <extensions>
          <ns3:TrackPointExtension/>
        </extensions>
      </trkpt>
      <trkpt lat="43.1419106014072895050048828125" lon="12.9907923750579357147216796875">
        <ele>1150.800048828125</ele>
        <time>2019-08-30T08:42:24.000Z</time>
        <extensions>
          <ns3:TrackPointExtension/>
        </extensions>
      </trkpt>
      <trkpt lat="43.14205057919025421142578125" lon="12.99088851548731327056884765625">
        <ele>1151.199951171875</ele>
        <time>2019-08-30T08:42:29.000Z</time>
        <extensions>
          <ns3:TrackPointExtension/>
        </extensions>
      </trkpt>
      <trkpt lat="43.14208804629743099212646484375" lon="12.99091248773038387298583984375">
        <ele>1151.199951171875</ele>
        <time>2019-08-30T08:42:30.000Z</time>
        <extensions>
          <ns3:TrackPointExtension/>
        </extensions>
      </trkpt>
      <trkpt lat="43.1422452069818973541259765625" lon="12.990995384752750396728515625">
        <ele>1151.4000244140625</ele>
        <time>2019-08-30T08:42:34.000Z</time>
        <extensions>
          <ns3:TrackPointExtension/>
        </extensions>
      </trkpt>
      <trkpt lat="43.14230916090309619903564453125" lon="12.9910227097570896148681640625">
        <ele>1151.5999755859375</ele>
        <time>2019-08-30T08:42:36.000Z</time>
        <extensions>
          <ns3:TrackPointExtension/>
        </extensions>
      </trkpt>
      <trkpt lat="43.14232123084366321563720703125" lon="12.99101105891168117523193359375">
        <ele>1151.800048828125</ele>
        <time>2019-08-30T08:43:02.000Z</time>
        <extensions>
          <ns3:TrackPointExtension/>
        </extensions>
      </trkpt>
      <trkpt lat="43.14250697381794452667236328125" lon="12.99110577441751956939697265625">
        <ele>1152</ele>
        <time>2019-08-30T08:43:08.000Z</time>
        <extensions>
          <ns3:TrackPointExtension/>
        </extensions>
      </trkpt>
      <trkpt lat="43.14270897768437862396240234375" lon="12.9911799542605876922607421875">
        <ele>1152</ele>
        <time>2019-08-30T08:43:12.000Z</time>
        <extensions>
          <ns3:TrackPointExtension/>
        </extensions>
      </trkpt>
      <trkpt lat="43.1427601911127567291259765625" lon="12.9911963827908039093017578125">
        <ele>1152</ele>
        <time>2019-08-30T08:43:13.000Z</time>
        <extensions>
          <ns3:TrackPointExtension/>
        </extensions>
      </trkpt>
      <trkpt lat="43.14281106926500797271728515625" lon="12.9912138171494007110595703125">
        <ele>1152</ele>
        <time>2019-08-30T08:43:14.000Z</time>
        <extensions>
          <ns3:TrackPointExtension/>
        </extensions>
      </trkpt>
      <trkpt lat="43.14301424659788608551025390625" lon="12.991319596767425537109375">
        <ele>1151.199951171875</ele>
        <time>2019-08-30T08:43:18.000Z</time>
        <extensions>
          <ns3:TrackPointExtension/>
        </extensions>
      </trkpt>
      <trkpt lat="43.1432292424142360687255859375" lon="12.99144121818244457244873046875">
        <ele>1149.800048828125</ele>
        <time>2019-08-30T08:43:22.000Z</time>
        <extensions>
          <ns3:TrackPointExtension/>
        </extensions>
      </trkpt>
      <trkpt lat="43.143388330936431884765625" lon="12.99152009189128875732421875">
        <ele>1149</ele>
        <time>2019-08-30T08:43:25.000Z</time>
        <extensions>
          <ns3:TrackPointExtension/>
        </extensions>
      </trkpt>
      <trkpt lat="43.1435501016676425933837890625" lon="12.9916052520275115966796875">
        <ele>1147.199951171875</ele>
        <time>2019-08-30T08:43:48.000Z</time>
        <extensions>
          <ns3:TrackPointExtension/>
        </extensions>
      </trkpt>
      <trkpt lat="43.1436647661030292510986328125" lon="12.9916508495807647705078125">
        <ele>1145.5999755859375</ele>
        <time>2019-08-30T08:43:53.000Z</time>
        <extensions>
          <ns3:TrackPointExtension/>
        </extensions>
      </trkpt>
      <trkpt lat="43.14372788183391094207763671875" lon="12.99168362282216548919677734375">
        <ele>1144.800048828125</ele>
        <time>2019-08-30T08:43:55.000Z</time>
        <extensions>
          <ns3:TrackPointExtension/>
        </extensions>
      </trkpt>
      <trkpt lat="43.143910355865955352783203125" lon="12.99179761670529842376708984375">
        <ele>1142.4000244140625</ele>
        <time>2019-08-30T08:44:00.000Z</time>
        <extensions>
          <ns3:TrackPointExtension/>
        </extensions>
      </trkpt>
      <trkpt lat="43.14398453570902347564697265625" lon="12.9918414540588855743408203125">
        <ele>1141.4000244140625</ele>
        <time>2019-08-30T08:44:02.000Z</time>
        <extensions>
          <ns3:TrackPointExtension/>
        </extensions>
      </trkpt>
      <trkpt lat="43.14416558481752872467041015625" lon="12.99198134802281856536865234375">
        <ele>1139.199951171875</ele>
        <time>2019-08-30T08:44:07.000Z</time>
        <extensions>
          <ns3:TrackPointExtension/>
        </extensions>
      </trkpt>
      <trkpt lat="43.1442038901150226593017578125" lon="12.99200582318007946014404296875">
        <ele>1138.800048828125</ele>
        <time>2019-08-30T08:44:08.000Z</time>
        <extensions>
          <ns3:TrackPointExtension/>
        </extensions>
      </trkpt>
      <trkpt lat="43.144242949783802032470703125" lon="12.99202744849026203155517578125">
        <ele>1138.199951171875</ele>
        <time>2019-08-30T08:44:09.000Z</time>
        <extensions>
          <ns3:TrackPointExtension/>
        </extensions>
      </trkpt>
      <trkpt lat="43.14442743547260761260986328125" lon="12.99213054589927196502685546875">
        <ele>1137.199951171875</ele>
        <time>2019-08-30T08:44:14.000Z</time>
        <extensions>
          <ns3:TrackPointExtension/>
        </extensions>
      </trkpt>
      <trkpt lat="43.14446314238011837005615234375" lon="12.99215083010494709014892578125">
        <ele>1137.199951171875</ele>
        <time>2019-08-30T08:44:15.000Z</time>
        <extensions>
          <ns3:TrackPointExtension/>
        </extensions>
      </trkpt>
      <trkpt lat="43.1445995159447193145751953125" lon="12.992239929735660552978515625">
        <ele>1136.4000244140625</ele>
        <time>2019-08-30T08:44:21.000Z</time>
        <extensions>
          <ns3:TrackPointExtension/>
        </extensions>
      </trkpt>
      <trkpt lat="43.14463756978511810302734375" lon="12.99223800189793109893798828125">
        <ele>1136.4000244140625</ele>
        <time>2019-08-30T08:45:38.000Z</time>
        <extensions>
          <ns3:TrackPointExtension/>
        </extensions>
      </trkpt>
      <trkpt lat="43.1446756236255168914794921875" lon="12.99225057475268840789794921875">
        <ele>1136.199951171875</ele>
        <time>2019-08-30T08:46:37.000Z</time>
        <extensions>
          <ns3:TrackPointExtension/>
        </extensions>
      </trkpt>
      <trkpt lat="43.14475147984921932220458984375" lon="12.99226499162614345550537109375">
        <ele>1136</ele>
        <time>2019-08-30T08:46:41.000Z</time>
        <extensions>
          <ns3:TrackPointExtension/>
        </extensions>
      </trkpt>
      <trkpt lat="43.1448932178318500518798828125" lon="12.99233238212764263153076171875">
        <ele>1135</ele>
        <time>2019-08-30T08:46:45.000Z</time>
        <extensions>
          <ns3:TrackPointExtension/>
        </extensions>
      </trkpt>
      <trkpt lat="43.14493722282350063323974609375" lon="12.99235451035201549530029296875">
        <ele>1134.5999755859375</ele>
        <time>2019-08-30T08:46:46.000Z</time>
        <extensions>
          <ns3:TrackPointExtension/>
        </extensions>
      </trkpt>
      <trkpt lat="43.14508960582315921783447265625" lon="12.99241192638874053955078125">
        <ele>1132.800048828125</ele>
        <time>2019-08-30T08:46:49.000Z</time>
        <extensions>
          <ns3:TrackPointExtension/>
        </extensions>
      </trkpt>
      <trkpt lat="43.1452636979520320892333984375" lon="12.99248174764215946197509765625">
        <ele>1130.800048828125</ele>
        <time>2019-08-30T08:46:52.000Z</time>
        <extensions>
          <ns3:TrackPointExtension/>
        </extensions>
      </trkpt>
      <trkpt lat="43.14542488195002079010009765625" lon="12.99254058860242366790771484375">
        <ele>1128.800048828125</ele>
        <time>2019-08-30T08:46:55.000Z</time>
        <extensions>
          <ns3:TrackPointExtension/>
        </extensions>
      </trkpt>
      <trkpt lat="43.145637698471546173095703125" lon="12.9926142655313014984130859375">
        <ele>1125.800048828125</ele>
        <time>2019-08-30T08:46:59.000Z</time>
        <extensions>
          <ns3:TrackPointExtension/>
        </extensions>
      </trkpt>
      <trkpt lat="43.14569679088890552520751953125" lon="12.9926320351660251617431640625">
        <ele>1124.800048828125</ele>
        <time>2019-08-30T08:47:00.000Z</time>
        <extensions>
          <ns3:TrackPointExtension/>
        </extensions>
      </trkpt>
      <trkpt lat="43.14588303677737712860107421875" lon="12.99268945120275020599365234375">
        <ele>1122</ele>
        <time>2019-08-30T08:47:03.000Z</time>
        <extensions>
          <ns3:TrackPointExtension/>
        </extensions>
      </trkpt>
      <trkpt lat="43.14594908617436885833740234375" lon="12.9927068017423152923583984375">
        <ele>1121</ele>
        <time>2019-08-30T08:47:04.000Z</time>
        <extensions>
          <ns3:TrackPointExtension/>
        </extensions>
      </trkpt>
      <trkpt lat="43.1460817717015743255615234375" lon="12.9927423410117626190185546875">
        <ele>1119</ele>
        <time>2019-08-30T08:47:06.000Z</time>
        <extensions>
          <ns3:TrackPointExtension/>
        </extensions>
      </trkpt>
      <trkpt lat="43.14621009863913059234619140625" lon="12.99278114922344684600830078125">
        <ele>1117.199951171875</ele>
        <time>2019-08-30T08:47:08.000Z</time>
        <extensions>
          <ns3:TrackPointExtension/>
        </extensions>
      </trkpt>
      <trkpt lat="43.146394081413745880126953125" lon="12.992841415107250213623046875">
        <ele>1114.4000244140625</ele>
        <time>2019-08-30T08:47:11.000Z</time>
        <extensions>
          <ns3:TrackPointExtension/>
        </extensions>
      </trkpt>
      <trkpt lat="43.14658359624445438385009765625" lon="12.99289070069789886474609375">
        <ele>1111.800048828125</ele>
        <time>2019-08-30T08:47:14.000Z</time>
        <extensions>
          <ns3:TrackPointExtension/>
        </extensions>
      </trkpt>
      <trkpt lat="43.1467799842357635498046875" lon="12.99294157885015010833740234375">
        <ele>1108.800048828125</ele>
        <time>2019-08-30T08:47:17.000Z</time>
        <extensions>
          <ns3:TrackPointExtension/>
        </extensions>
      </trkpt>
      <trkpt lat="43.14683924429118633270263671875" lon="12.992953397333621978759765625">
        <ele>1107.5999755859375</ele>
        <time>2019-08-30T08:47:18.000Z</time>
        <extensions>
          <ns3:TrackPointExtension/>
        </extensions>
      </trkpt>
      <trkpt lat="43.146896325051784515380859375" lon="12.992963455617427825927734375">
        <ele>1106.5999755859375</ele>
        <time>2019-08-30T08:47:19.000Z</time>
        <extensions>
          <ns3:TrackPointExtension/>
        </extensions>
      </trkpt>
      <trkpt lat="43.14706438221037387847900390625" lon="12.99299991689622402191162109375">
        <ele>1103</ele>
        <time>2019-08-30T08:47:22.000Z</time>
        <extensions>
          <ns3:TrackPointExtension/>
        </extensions>
      </trkpt>
      <trkpt lat="43.14728298224508762359619140625" lon="12.99306395463645458221435546875">
        <ele>1098.800048828125</ele>
        <time>2019-08-30T08:47:26.000Z</time>
        <extensions>
          <ns3:TrackPointExtension/>
        </extensions>
      </trkpt>
      <trkpt lat="43.147336877882480621337890625" lon="12.99307334236800670623779296875">
        <ele>1097.800048828125</ele>
        <time>2019-08-30T08:47:27.000Z</time>
        <extensions>
          <ns3:TrackPointExtension/>
        </extensions>
      </trkpt>
      <trkpt lat="43.147391192615032196044921875" lon="12.99308155663311481475830078125">
        <ele>1096.800048828125</ele>
        <time>2019-08-30T08:47:28.000Z</time>
        <extensions>
          <ns3:TrackPointExtension/>
        </extensions>
      </trkpt>
      <trkpt lat="43.14758087508380413055419921875" lon="12.9931180179119110107421875">
        <ele>1093.5999755859375</ele>
        <time>2019-08-30T08:47:31.000Z</time>
        <extensions>
          <ns3:TrackPointExtension/>
        </extensions>
      </trkpt>
      <trkpt lat="43.14764994196593761444091796875" lon="12.99312665127217769622802734375">
        <ele>1092.5999755859375</ele>
        <time>2019-08-30T08:47:32.000Z</time>
        <extensions>
          <ns3:TrackPointExtension/>
        </extensions>
      </trkpt>
      <trkpt lat="43.1478630937635898590087890625" lon="12.99314056523144245147705078125">
        <ele>1090.199951171875</ele>
        <time>2019-08-30T08:47:35.000Z</time>
        <extensions>
          <ns3:TrackPointExtension/>
        </extensions>
      </trkpt>
      <trkpt lat="43.1479385308921337127685546875" lon="12.9931461811065673828125">
        <ele>1089.4000244140625</ele>
        <time>2019-08-30T08:47:36.000Z</time>
        <extensions>
          <ns3:TrackPointExtension/>
        </extensions>
      </trkpt>
      <trkpt lat="43.14801505766808986663818359375" lon="12.993151210248470306396484375">
        <ele>1088.5999755859375</ele>
        <time>2019-08-30T08:47:37.000Z</time>
        <extensions>
          <ns3:TrackPointExtension/>
        </extensions>
      </trkpt>
      <trkpt lat="43.148169033229351043701171875" lon="12.99315816722810268402099609375">
        <ele>1086.800048828125</ele>
        <time>2019-08-30T08:47:39.000Z</time>
        <extensions>
          <ns3:TrackPointExtension/>
        </extensions>
      </trkpt>
      <trkpt lat="43.14840347506105899810791015625" lon="12.99316160380840301513671875">
        <ele>1083.199951171875</ele>
        <time>2019-08-30T08:47:42.000Z</time>
        <extensions>
          <ns3:TrackPointExtension/>
        </extensions>
      </trkpt>
      <trkpt lat="43.1484830193221569061279296875" lon="12.993159256875514984130859375">
        <ele>1082</ele>
        <time>2019-08-30T08:47:43.000Z</time>
        <extensions>
          <ns3:TrackPointExtension/>
        </extensions>
      </trkpt>
      <trkpt lat="43.14870958216488361358642578125" lon="12.99314794130623340606689453125">
        <ele>1078.4000244140625</ele>
        <time>2019-08-30T08:47:46.000Z</time>
        <extensions>
          <ns3:TrackPointExtension/>
        </extensions>
      </trkpt>
      <trkpt lat="43.1488407589495182037353515625" lon="12.99313469789922237396240234375">
        <ele>1076.4000244140625</ele>
        <time>2019-08-30T08:47:48.000Z</time>
        <extensions>
          <ns3:TrackPointExtension/>
        </extensions>
      </trkpt>
      <trkpt lat="43.14902306534349918365478515625" lon="12.99311843700706958770751953125">
        <ele>1073.800048828125</ele>
        <time>2019-08-30T08:47:51.000Z</time>
        <extensions>
          <ns3:TrackPointExtension/>
        </extensions>
      </trkpt>
      <trkpt lat="43.14912985078990459442138671875" lon="12.99310770817101001739501953125">
        <ele>1072.4000244140625</ele>
        <time>2019-08-30T08:47:53.000Z</time>
        <extensions>
          <ns3:TrackPointExtension/>
        </extensions>
      </trkpt>
      <trkpt lat="43.1492913700640201568603515625" lon="12.993084490299224853515625">
        <ele>1070.5999755859375</ele>
        <time>2019-08-30T08:47:56.000Z</time>
        <extensions>
          <ns3:TrackPointExtension/>
        </extensions>
      </trkpt>
      <trkpt lat="43.1495267339050769805908203125" lon="12.9930913634598255157470703125">
        <ele>1066.5999755859375</ele>
        <time>2019-08-30T08:47:59.000Z</time>
        <extensions>
          <ns3:TrackPointExtension/>
        </extensions>
      </trkpt>
      <trkpt lat="43.1497922725975513458251953125" lon="12.9931044392287731170654296875">
        <ele>1062</ele>
        <time>2019-08-30T08:48:02.000Z</time>
        <extensions>
          <ns3:TrackPointExtension/>
        </extensions>
      </trkpt>
      <trkpt lat="43.15004632808268070220947265625" lon="12.99306814558804035186767578125">
        <ele>1054.800048828125</ele>
        <time>2019-08-30T08:48:05.000Z</time>
        <extensions>
          <ns3:TrackPointExtension/>
        </extensions>
      </trkpt>
      <trkpt lat="43.150141127407550811767578125" lon="12.9930538125336170196533203125">
        <ele>1052.4000244140625</ele>
        <time>2019-08-30T08:48:06.000Z</time>
        <extensions>
          <ns3:TrackPointExtension/>
        </extensions>
      </trkpt>
      <trkpt lat="43.15033868886530399322509765625" lon="12.9930219613015651702880859375">
        <ele>1048.5999755859375</ele>
        <time>2019-08-30T08:48:08.000Z</time>
        <extensions>
          <ns3:TrackPointExtension/>
        </extensions>
      </trkpt>
      <trkpt lat="43.15043256618082523345947265625" lon="12.99300067126750946044921875">
        <ele>1046.5999755859375</ele>
        <time>2019-08-30T08:48:09.000Z</time>
        <extensions>
          <ns3:TrackPointExtension/>
        </extensions>
      </trkpt>
      <trkpt lat="43.150593079626560211181640625" lon="12.9929651319980621337890625">
        <ele>1044.199951171875</ele>
        <time>2019-08-30T08:48:11.000Z</time>
        <extensions>
          <ns3:TrackPointExtension/>
        </extensions>
      </trkpt>
      <trkpt lat="43.15084881149232387542724609375" lon="12.9929599352180957794189453125">
        <ele>1041.4000244140625</ele>
        <time>2019-08-30T08:48:14.000Z</time>
        <extensions>
          <ns3:TrackPointExtension/>
        </extensions>
      </trkpt>
      <trkpt lat="43.151094652712345123291015625" lon="12.99292062409222126007080078125">
        <ele>1040</ele>
        <time>2019-08-30T08:48:17.000Z</time>
        <extensions>
          <ns3:TrackPointExtension/>
        </extensions>
      </trkpt>
      <trkpt lat="43.15116112120449542999267578125" lon="12.99290536902844905853271484375">
        <ele>1039.800048828125</ele>
        <time>2019-08-30T08:48:18.000Z</time>
        <extensions>
          <ns3:TrackPointExtension/>
        </extensions>
      </trkpt>
      <trkpt lat="43.15133764408528804779052734375" lon="12.99286060966551303863525390625">
        <ele>1039.5999755859375</ele>
        <time>2019-08-30T08:48:21.000Z</time>
        <extensions>
          <ns3:TrackPointExtension/>
        </extensions>
      </trkpt>
      <trkpt lat="43.15153612755239009857177734375" lon="12.992826662957668304443359375">
        <ele>1039.199951171875</ele>
        <time>2019-08-30T08:48:25.000Z</time>
        <extensions>
          <ns3:TrackPointExtension/>
        </extensions>
      </trkpt>
      <trkpt lat="43.15175388939678668975830078125" lon="12.99279958941042423248291015625">
        <ele>1039</ele>
        <time>2019-08-30T08:48:29.000Z</time>
        <extensions>
          <ns3:TrackPointExtension/>
        </extensions>
      </trkpt>
      <trkpt lat="43.151814825832843780517578125" lon="12.9927907884120941162109375">
        <ele>1039</ele>
        <time>2019-08-30T08:48:30.000Z</time>
        <extensions>
          <ns3:TrackPointExtension/>
        </extensions>
      </trkpt>
      <trkpt lat="43.1518746726214885711669921875" lon="12.99278265796601772308349609375">
        <ele>1039.199951171875</ele>
        <time>2019-08-30T08:48:31.000Z</time>
        <extensions>
          <ns3:TrackPointExtension/>
        </extensions>
      </trkpt>
      <trkpt lat="43.1520558893680572509765625" lon="12.99274527467787265777587890625">
        <ele>1040.5999755859375</ele>
        <time>2019-08-30T08:48:35.000Z</time>
        <extensions>
          <ns3:TrackPointExtension/>
        </extensions>
      </trkpt>
      <trkpt lat="43.152084387838840484619140625" lon="12.99273706041276454925537109375">
        <ele>1041</ele>
        <time>2019-08-30T08:48:36.000Z</time>
        <extensions>
          <ns3:TrackPointExtension/>
        </extensions>
      </trkpt>
      <trkpt lat="43.15210894681513309478759765625" lon="12.9927296005189418792724609375">
        <ele>1041.4000244140625</ele>
        <time>2019-08-30T08:48:37.000Z</time>
        <extensions>
          <ns3:TrackPointExtension/>
        </extensions>
      </trkpt>
      <trkpt lat="43.15219310112297534942626953125" lon="12.992714010179042816162109375">
        <ele>1042.4000244140625</ele>
        <time>2019-08-30T08:48:41.000Z</time>
        <extensions>
          <ns3:TrackPointExtension/>
        </extensions>
      </trkpt>
      <trkpt lat="43.1522662751376628875732421875" lon="12.99270772375166416168212890625">
        <ele>1043.199951171875</ele>
        <time>2019-08-30T08:48:45.000Z</time>
        <extensions>
          <ns3:TrackPointExtension/>
        </extensions>
      </trkpt>
      <trkpt lat="43.1522847153246402740478515625" lon="12.9927078075706958770751953125">
        <ele>1043.4000244140625</ele>
        <time>2019-08-30T08:48:46.000Z</time>
        <extensions>
          <ns3:TrackPointExtension/>
        </extensions>
      </trkpt>
      <trkpt lat="43.15246316604316234588623046875" lon="12.99267000518739223480224609375">
        <ele>1045.5999755859375</ele>
        <time>2019-08-30T08:48:56.000Z</time>
        <extensions>
          <ns3:TrackPointExtension/>
        </extensions>
      </trkpt>
      <trkpt lat="43.1524825282394886016845703125" lon="12.9926665686070919036865234375">
        <ele>1046</ele>
        <time>2019-08-30T08:48:57.000Z</time>
        <extensions>
          <ns3:TrackPointExtension/>
        </extensions>
      </trkpt>
      <trkpt lat="43.15250121988356113433837890625" lon="12.99266531132161617279052734375">
        <ele>1046.199951171875</ele>
        <time>2019-08-30T08:48:58.000Z</time>
        <extensions>
          <ns3:TrackPointExtension/>
        </extensions>
      </trkpt>
      <trkpt lat="43.15262024290859699249267578125" lon="12.992639243602752685546875">
        <ele>1047.5999755859375</ele>
        <time>2019-08-30T08:49:04.000Z</time>
        <extensions>
          <ns3:TrackPointExtension/>
        </extensions>
      </trkpt>
      <trkpt lat="43.15264035947620868682861328125" lon="12.992635555565357208251953125">
        <ele>1047.5999755859375</ele>
        <time>2019-08-30T08:49:05.000Z</time>
        <extensions>
          <ns3:TrackPointExtension/>
        </extensions>
      </trkpt>
      <trkpt lat="43.1527869589626789093017578125" lon="12.992603369057178497314453125">
        <ele>1048.5999755859375</ele>
        <time>2019-08-30T08:49:12.000Z</time>
        <extensions>
          <ns3:TrackPointExtension/>
        </extensions>
      </trkpt>
      <trkpt lat="43.15280850045382976531982421875" lon="12.99259909428656101226806640625">
        <ele>1048.800048828125</ele>
        <time>2019-08-30T08:49:13.000Z</time>
        <extensions>
          <ns3:TrackPointExtension/>
        </extensions>
      </trkpt>
      <trkpt lat="43.1528774835169315338134765625" lon="12.99258895218372344970703125">
        <ele>1049.199951171875</ele>
        <time>2019-08-30T08:49:16.000Z</time>
        <extensions>
          <ns3:TrackPointExtension/>
        </extensions>
      </trkpt>
      <trkpt lat="43.15292291343212127685546875" lon="12.9925815761089324951171875">
        <ele>1049.5999755859375</ele>
        <time>2019-08-30T08:49:18.000Z</time>
        <extensions>
          <ns3:TrackPointExtension/>
        </extensions>
      </trkpt>
      <trkpt lat="43.15296440385282039642333984375" lon="12.992575205862522125244140625">
        <ele>1049.5999755859375</ele>
        <time>2019-08-30T08:49:20.000Z</time>
        <extensions>
          <ns3:TrackPointExtension/>
        </extensions>
      </trkpt>
      <trkpt lat="43.15313204191625118255615234375" lon="12.9925413429737091064453125">
        <ele>1050.199951171875</ele>
        <time>2019-08-30T08:49:28.000Z</time>
        <extensions>
          <ns3:TrackPointExtension/>
        </extensions>
      </trkpt>
      <trkpt lat="43.15315282903611660003662109375" lon="12.99253673292696475982666015625">
        <ele>1050.4000244140625</ele>
        <time>2019-08-30T08:49:29.000Z</time>
        <extensions>
          <ns3:TrackPointExtension/>
        </extensions>
      </trkpt>
      <trkpt lat="43.15323329530656337738037109375" lon="12.9925140179693698883056640625">
        <ele>1050.5999755859375</ele>
        <time>2019-08-30T08:49:33.000Z</time>
        <extensions>
          <ns3:TrackPointExtension/>
        </extensions>
      </trkpt>
      <trkpt lat="43.153255172073841094970703125" lon="12.99250739626586437225341796875">
        <ele>1050.5999755859375</ele>
        <time>2019-08-30T08:49:34.000Z</time>
        <extensions>
          <ns3:TrackPointExtension/>
        </extensions>
      </trkpt>
      <trkpt lat="43.1533420085906982421875" lon="12.99246883951127529144287109375">
        <ele>1051</ele>
        <time>2019-08-30T08:49:38.000Z</time>
        <extensions>
          <ns3:TrackPointExtension/>
        </extensions>
      </trkpt>
      <trkpt lat="43.15348441712558269500732421875" lon="12.99228611402213573455810546875">
        <ele>1053.5999755859375</ele>
        <time>2019-08-30T08:49:47.000Z</time>
        <extensions>
          <ns3:TrackPointExtension/>
        </extensions>
      </trkpt>
      <trkpt lat="43.1535483710467815399169921875" lon="12.9921502433717250823974609375">
        <ele>1054.5999755859375</ele>
        <time>2019-08-30T08:49:52.000Z</time>
        <extensions>
          <ns3:TrackPointExtension/>
        </extensions>
      </trkpt>
      <trkpt lat="43.15356337465345859527587890625" lon="12.992129623889923095703125">
        <ele>1055</ele>
        <time>2019-08-30T08:49:53.000Z</time>
        <extensions>
          <ns3:TrackPointExtension/>
        </extensions>
      </trkpt>
      <trkpt lat="43.15371257252991199493408203125" lon="12.9919832758605480194091796875">
        <ele>1057.4000244140625</ele>
        <time>2019-08-30T08:50:03.000Z</time>
        <extensions>
          <ns3:TrackPointExtension/>
        </extensions>
      </trkpt>
      <trkpt lat="43.15389295108616352081298828125" lon="12.99194882623851299285888671875">
        <ele>1061</ele>
        <time>2019-08-30T08:50:13.000Z</time>
        <extensions>
          <ns3:TrackPointExtension/>
        </extensions>
      </trkpt>
      <trkpt lat="43.15395816229283809661865234375" lon="12.9919219203293323516845703125">
        <ele>1062.4000244140625</ele>
        <time>2019-08-30T08:50:17.000Z</time>
        <extensions>
          <ns3:TrackPointExtension/>
        </extensions>
      </trkpt>
      <trkpt lat="43.1539711542427539825439453125" lon="12.9919205792248249053955078125">
        <ele>1062.5999755859375</ele>
        <time>2019-08-30T08:50:18.000Z</time>
        <extensions>
          <ns3:TrackPointExtension/>
        </extensions>
      </trkpt>
      <trkpt lat="43.1540995649993419647216796875" lon="12.99192267470061779022216796875">
        <ele>1065</ele>
        <time>2019-08-30T08:50:38.000Z</time>
        <extensions>
          <ns3:TrackPointExtension/>
        </extensions>
      </trkpt>
      <trkpt lat="43.1542873196303844451904296875" lon="12.99188780598342418670654296875">
        <ele>1068.800048828125</ele>
        <time>2019-08-30T08:50:48.000Z</time>
        <extensions>
          <ns3:TrackPointExtension/>
        </extensions>
      </trkpt>
      <trkpt lat="43.15436401404440402984619140625" lon="12.9918746463954448699951171875">
        <ele>1070.5999755859375</ele>
        <time>2019-08-30T08:50:52.000Z</time>
        <extensions>
          <ns3:TrackPointExtension/>
        </extensions>
      </trkpt>
      <trkpt lat="43.15438245423138141632080078125" lon="12.99186953343451023101806640625">
        <ele>1071</ele>
        <time>2019-08-30T08:50:53.000Z</time>
        <extensions>
          <ns3:TrackPointExtension/>
        </extensions>
      </trkpt>
      <trkpt lat="43.1544630043208599090576171875" lon="12.99185344018042087554931640625">
        <ele>1072.800048828125</ele>
        <time>2019-08-30T08:50:57.000Z</time>
        <extensions>
          <ns3:TrackPointExtension/>
        </extensions>
      </trkpt>
      <trkpt lat="43.1545002199709415435791015625" lon="12.9918431304395198822021484375">
        <ele>1073.5999755859375</ele>
        <time>2019-08-30T08:50:59.000Z</time>
        <extensions>
          <ns3:TrackPointExtension/>
        </extensions>
      </trkpt>
      <trkpt lat="43.15468084998428821563720703125" lon="12.991804741322994232177734375">
        <ele>1077.4000244140625</ele>
        <time>2019-08-30T08:51:08.000Z</time>
        <extensions>
          <ns3:TrackPointExtension/>
        </extensions>
      </trkpt>
      <trkpt lat="43.1548737175762653350830078125" lon="12.9917512647807598114013671875">
        <ele>1081.4000244140625</ele>
        <time>2019-08-30T08:51:18.000Z</time>
        <extensions>
          <ns3:TrackPointExtension/>
        </extensions>
      </trkpt>
      <trkpt lat="43.15496382303535938262939453125" lon="12.99169309437274932861328125">
        <ele>1082.199951171875</ele>
        <time>2019-08-30T08:52:06.000Z</time>
        <extensions>
          <ns3:TrackPointExtension/>
        </extensions>
      </trkpt>
      <trkpt lat="43.15509893931448459625244140625" lon="12.991585470736026763916015625">
        <ele>1084.800048828125</ele>
        <time>2019-08-30T08:52:18.000Z</time>
        <extensions>
          <ns3:TrackPointExtension/>
        </extensions>
      </trkpt>
      <trkpt lat="43.15516750328242778778076171875" lon="12.9915172420442104339599609375">
        <ele>1085.5999755859375</ele>
        <time>2019-08-30T08:52:23.000Z</time>
        <extensions>
          <ns3:TrackPointExtension/>
        </extensions>
      </trkpt>
      <trkpt lat="43.15518326126039028167724609375" lon="12.99151062034070491790771484375">
        <ele>1085.800048828125</ele>
        <time>2019-08-30T08:52:24.000Z</time>
        <extensions>
          <ns3:TrackPointExtension/>
        </extensions>
      </trkpt>
      <trkpt lat="43.15524344332516193389892578125" lon="12.99147994257509708404541015625">
        <ele>1086.4000244140625</ele>
        <time>2019-08-30T08:52:28.000Z</time>
        <extensions>
          <ns3:TrackPointExtension/>
        </extensions>
      </trkpt>
      <trkpt lat="43.15535693429410457611083984375" lon="12.99137935973703861236572265625">
        <ele>1087.199951171875</ele>
        <time>2019-08-30T08:52:36.000Z</time>
        <extensions>
          <ns3:TrackPointExtension/>
        </extensions>
      </trkpt>
      <trkpt lat="43.155384846031665802001953125" lon="12.991358824074268341064453125">
        <ele>1087.4000244140625</ele>
        <time>2019-08-30T08:52:38.000Z</time>
        <extensions>
          <ns3:TrackPointExtension/>
        </extensions>
      </trkpt>
      <trkpt lat="43.1554135121405124664306640625" lon="12.99133661203086376190185546875">
        <ele>1087.5999755859375</ele>
        <time>2019-08-30T08:52:40.000Z</time>
        <extensions>
          <ns3:TrackPointExtension/>
        </extensions>
      </trkpt>
      <trkpt lat="43.15547394566237926483154296875" lon="12.9912966303527355194091796875">
        <ele>1088.199951171875</ele>
        <time>2019-08-30T08:52:44.000Z</time>
        <extensions>
          <ns3:TrackPointExtension/>
        </extensions>
      </trkpt>
      <trkpt lat="43.15560914576053619384765625" lon="12.9912097938358783721923828125">
        <ele>1091.5999755859375</ele>
        <time>2019-08-30T08:52:52.000Z</time>
        <extensions>
          <ns3:TrackPointExtension/>
        </extensions>
      </trkpt>
      <trkpt lat="43.15565072000026702880859375" lon="12.99119110219180583953857421875">
        <ele>1092.5999755859375</ele>
        <time>2019-08-30T08:52:54.000Z</time>
        <extensions>
          <ns3:TrackPointExtension/>
        </extensions>
      </trkpt>
      <trkpt lat="43.1556938029825687408447265625" lon="12.99117232672870159149169921875">
        <ele>1093.800048828125</ele>
        <time>2019-08-30T08:52:56.000Z</time>
        <extensions>
          <ns3:TrackPointExtension/>
        </extensions>
      </trkpt>
      <trkpt lat="43.15577686764299869537353515625" lon="12.99115304835140705108642578125">
        <ele>1095.800048828125</ele>
        <time>2019-08-30T08:53:00.000Z</time>
        <extensions>
          <ns3:TrackPointExtension/>
        </extensions>
      </trkpt>
      <trkpt lat="43.15593637526035308837890625" lon="12.9910877533257007598876953125">
        <ele>1099.800048828125</ele>
        <time>2019-08-30T08:53:19.000Z</time>
        <extensions>
          <ns3:TrackPointExtension/>
        </extensions>
      </trkpt>
      <trkpt lat="43.155914247035980224609375" lon="12.99109856598079204559326171875">
        <ele>1099.199951171875</ele>
        <time>2019-08-30T08:54:01.000Z</time>
        <extensions>
          <ns3:TrackPointExtension/>
        </extensions>
      </trkpt>
      <trkpt lat="43.15591148100793361663818359375" lon="12.99108850769698619842529296875">
        <ele>1099.199951171875</ele>
        <time>2019-08-30T08:54:14.000Z</time>
        <extensions>
          <ns3:TrackPointExtension/>
        </extensions>
      </trkpt>
      <trkpt lat="43.15591986291110515594482421875" lon="12.9910954646766185760498046875">
        <ele>1099.4000244140625</ele>
        <time>2019-08-30T08:55:16.000Z</time>
        <extensions>
          <ns3:TrackPointExtension/>
        </extensions>
      </trkpt>
      <trkpt lat="43.1558684818446636199951171875" lon="12.991004101932048797607421875">
        <ele>1098.800048828125</ele>
        <time>2019-08-30T08:55:59.000Z</time>
        <extensions>
          <ns3:TrackPointExtension/>
        </extensions>
      </trkpt>
      <trkpt lat="43.1558594293892383575439453125" lon="12.9909828118979930877685546875">
        <ele>1098.5999755859375</ele>
        <time>2019-08-30T08:56:01.000Z</time>
        <extensions>
          <ns3:TrackPointExtension/>
        </extensions>
      </trkpt>
      <trkpt lat="43.15587175078690052032470703125" lon="12.9909574985504150390625">
        <ele>1099.199951171875</ele>
        <time>2019-08-30T08:57:42.000Z</time>
        <extensions>
          <ns3:TrackPointExtension/>
        </extensions>
      </trkpt>
      <trkpt lat="43.15586186014115810394287109375" lon="12.990949451923370361328125">
        <ele>1099</ele>
        <time>2019-08-30T08:59:21.000Z</time>
        <extensions>
          <ns3:TrackPointExtension/>
        </extensions>
      </trkpt>
      <trkpt lat="43.1558631174266338348388671875" lon="12.99096085131168365478515625">
        <ele>1099</ele>
        <time>2019-08-30T08:59:22.000Z</time>
        <extensions>
          <ns3:TrackPointExtension/>
        </extensions>
      </trkpt>
      <trkpt lat="43.1558725051581859588623046875" lon="12.9909801296889781951904296875">
        <ele>1099</ele>
        <time>2019-08-30T08:59:24.000Z</time>
        <extensions>
          <ns3:TrackPointExtension/>
        </extensions>
      </trkpt>
      <trkpt lat="43.1558808870613574981689453125" lon="12.99105741083621978759765625">
        <ele>1098.800048828125</ele>
        <time>2019-08-30T08:59:31.000Z</time>
        <extensions>
          <ns3:TrackPointExtension/>
        </extensions>
      </trkpt>
      <trkpt lat="43.15592832863330841064453125" lon="12.99110661260783672332763671875">
        <ele>1099.5999755859375</ele>
        <time>2019-08-30T09:00:50.000Z</time>
        <extensions>
          <ns3:TrackPointExtension/>
        </extensions>
      </trkpt>
      <trkpt lat="43.15588834695518016815185546875" lon="12.9910683073103427886962890625">
        <ele>1098.800048828125</ele>
        <time>2019-08-30T09:01:38.000Z</time>
        <extensions>
          <ns3:TrackPointExtension/>
        </extensions>
      </trkpt>
      <trkpt lat="43.155964203178882598876953125" lon="12.99105430953204631805419921875">
        <ele>1100</ele>
        <time>2019-08-30T09:02:05.000Z</time>
        <extensions>
          <ns3:TrackPointExtension/>
        </extensions>
      </trkpt>
      <trkpt lat="43.15608364529907703399658203125" lon="12.99099035561084747314453125">
        <ele>1099.5999755859375</ele>
        <time>2019-08-30T09:02:10.000Z</time>
        <extensions>
          <ns3:TrackPointExtension/>
        </extensions>
      </trkpt>
      <trkpt lat="43.15624960698187351226806640625" lon="12.99087502062320709228515625">
        <ele>1099.199951171875</ele>
        <time>2019-08-30T09:02:16.000Z</time>
        <extensions>
          <ns3:TrackPointExtension/>
        </extensions>
      </trkpt>
      <trkpt lat="43.15631113015115261077880859375" lon="12.9908279143273830413818359375">
        <ele>1098</ele>
        <time>2019-08-30T09:02:18.000Z</time>
        <extensions>
          <ns3:TrackPointExtension/>
        </extensions>
      </trkpt>
      <trkpt lat="43.1563395448029041290283203125" lon="12.9908077977597713470458984375">
        <ele>1097.4000244140625</ele>
        <time>2019-08-30T09:02:19.000Z</time>
        <extensions>
          <ns3:TrackPointExtension/>
        </extensions>
      </trkpt>
      <trkpt lat="43.1565360166132450103759765625" lon="12.990720458328723907470703125">
        <ele>1094.800048828125</ele>
        <time>2019-08-30T09:02:26.000Z</time>
        <extensions>
          <ns3:TrackPointExtension/>
        </extensions>
      </trkpt>
      <trkpt lat="43.15671849064528942108154296875" lon="12.990699000656604766845703125">
        <ele>1095.199951171875</ele>
        <time>2019-08-30T09:02:32.000Z</time>
        <extensions>
          <ns3:TrackPointExtension/>
        </extensions>
      </trkpt>
      <trkpt lat="43.1568248569965362548828125" lon="12.99081576056778430938720703125">
        <ele>1097</ele>
        <time>2019-08-30T09:02:43.000Z</time>
        <extensions>
          <ns3:TrackPointExtension/>
        </extensions>
      </trkpt>
      <trkpt lat="43.15686450339853763580322265625" lon="12.99106436781585216522216796875">
        <ele>1098.5999755859375</ele>
        <time>2019-08-30T09:02:51.000Z</time>
        <extensions>
          <ns3:TrackPointExtension/>
        </extensions>
      </trkpt>
      <trkpt lat="43.156863413751125335693359375" lon="12.99114701338112354278564453125">
        <ele>1097.5999755859375</ele>
        <time>2019-08-30T09:03:01.000Z</time>
        <extensions>
          <ns3:TrackPointExtension/>
        </extensions>
      </trkpt>
      <trkpt lat="43.15686634741723537445068359375" lon="12.9913382045924663543701171875">
        <ele>1095</ele>
        <time>2019-08-30T09:03:07.000Z</time>
        <extensions>
          <ns3:TrackPointExtension/>
        </extensions>
      </trkpt>
      <trkpt lat="43.1568830274045467376708984375" lon="12.991401739418506622314453125">
        <ele>1094.5999755859375</ele>
        <time>2019-08-30T09:03:09.000Z</time>
        <extensions>
          <ns3:TrackPointExtension/>
        </extensions>
      </trkpt>
      <trkpt lat="43.15694245509803295135498046875" lon="12.991450689733028411865234375">
        <ele>1095</ele>
        <time>2019-08-30T09:03:17.000Z</time>
        <extensions>
          <ns3:TrackPointExtension/>
        </extensions>
      </trkpt>
      <trkpt lat="43.157118223607540130615234375" lon="12.99152235500514507293701171875">
        <ele>1097.199951171875</ele>
        <time>2019-08-30T09:03:27.000Z</time>
        <extensions>
          <ns3:TrackPointExtension/>
        </extensions>
      </trkpt>
      <trkpt lat="43.157120235264301300048828125" lon="12.9915561340749263763427734375">
        <ele>1096.800048828125</ele>
        <time>2019-08-30T09:03:33.000Z</time>
        <extensions>
          <ns3:TrackPointExtension/>
        </extensions>
      </trkpt>
      <trkpt lat="43.1570744700729846954345703125" lon="12.9917167313396930694580078125">
        <ele>1093.800048828125</ele>
        <time>2019-08-30T09:03:39.000Z</time>
        <extensions>
          <ns3:TrackPointExtension/>
        </extensions>
      </trkpt>
      <trkpt lat="43.15706818364560604095458984375" lon="12.99175210297107696533203125">
        <ele>1093.199951171875</ele>
        <time>2019-08-30T09:03:40.000Z</time>
        <extensions>
          <ns3:TrackPointExtension/>
        </extensions>
      </trkpt>
      <trkpt lat="43.157035075128078460693359375" lon="12.99192267470061779022216796875">
        <ele>1094.800048828125</ele>
        <time>2019-08-30T09:03:45.000Z</time>
        <extensions>
          <ns3:TrackPointExtension/>
        </extensions>
      </trkpt>
      <trkpt lat="43.1570265255868434906005859375" lon="12.99195595085620880126953125">
        <ele>1095</ele>
        <time>2019-08-30T09:03:46.000Z</time>
        <extensions>
          <ns3:TrackPointExtension/>
        </extensions>
      </trkpt>
      <trkpt lat="43.1570137850940227508544921875" lon="12.99202694557607173919677734375">
        <ele>1095</ele>
        <time>2019-08-30T09:03:56.000Z</time>
        <extensions>
          <ns3:TrackPointExtension/>
        </extensions>
      </trkpt>
      <trkpt lat="43.15705125220119953155517578125" lon="12.99207002855837345123291015625">
        <ele>1096</ele>
        <time>2019-08-30T09:05:33.000Z</time>
        <extensions>
          <ns3:TrackPointExtension/>
        </extensions>
      </trkpt>
      <trkpt lat="43.15722249448299407958984375" lon="12.99197883345186710357666015625">
        <ele>1098.800048828125</ele>
        <time>2019-08-30T09:06:02.000Z</time>
        <extensions>
          <ns3:TrackPointExtension/>
        </extensions>
      </trkpt>
      <trkpt lat="43.157237581908702850341796875" lon="12.9919732175767421722412109375">
        <ele>1099</ele>
        <time>2019-08-30T09:06:04.000Z</time>
        <extensions>
          <ns3:TrackPointExtension/>
        </extensions>
      </trkpt>
      <trkpt lat="43.15731092356145381927490234375" lon="12.9919378459453582763671875">
        <ele>1099.800048828125</ele>
        <time>2019-08-30T09:06:15.000Z</time>
        <extensions>
          <ns3:TrackPointExtension/>
        </extensions>
      </trkpt>
      <trkpt lat="43.15735886804759502410888671875" lon="12.9919018037617206573486328125">
        <ele>1100.4000244140625</ele>
        <time>2019-08-30T09:06:28.000Z</time>
        <extensions>
          <ns3:TrackPointExtension/>
        </extensions>
      </trkpt>
      <trkpt lat="43.15737538039684295654296875" lon="12.99189417622983455657958984375">
        <ele>1100.5999755859375</ele>
        <time>2019-08-30T09:06:30.000Z</time>
        <extensions>
          <ns3:TrackPointExtension/>
        </extensions>
      </trkpt>
      <trkpt lat="43.1574697606265544891357421875" lon="12.99184254370629787445068359375">
        <ele>1101.5999755859375</ele>
        <time>2019-08-30T09:06:44.000Z</time>
        <extensions>
          <ns3:TrackPointExtension/>
        </extensions>
      </trkpt>
      <trkpt lat="43.15751544199883937835693359375" lon="12.99182460643351078033447265625">
        <ele>1102.199951171875</ele>
        <time>2019-08-30T09:06:50.000Z</time>
        <extensions>
          <ns3:TrackPointExtension/>
        </extensions>
      </trkpt>
      <trkpt lat="43.1575314514338970184326171875" lon="12.99182326532900333404541015625">
        <ele>1102.4000244140625</ele>
        <time>2019-08-30T09:06:52.000Z</time>
        <extensions>
          <ns3:TrackPointExtension/>
        </extensions>
      </trkpt>
      <trkpt lat="43.15754729323089122772216796875" lon="12.99182091839611530303955078125">
        <ele>1102.800048828125</ele>
        <time>2019-08-30T09:06:54.000Z</time>
        <extensions>
          <ns3:TrackPointExtension/>
        </extensions>
      </trkpt>
      <trkpt lat="43.15759129822254180908203125" lon="12.99181186594069004058837890625">
        <ele>1103.4000244140625</ele>
        <time>2019-08-30T09:06:59.000Z</time>
        <extensions>
          <ns3:TrackPointExtension/>
        </extensions>
      </trkpt>
      <trkpt lat="43.15760009922087192535400390625" lon="12.9918102733790874481201171875">
        <ele>1103.5999755859375</ele>
        <time>2019-08-30T09:07:00.000Z</time>
        <extensions>
          <ns3:TrackPointExtension/>
        </extensions>
      </trkpt>
      <trkpt lat="43.1576407514512538909912109375" lon="12.99180331639945507049560546875">
        <ele>1104.800048828125</ele>
        <time>2019-08-30T09:07:05.000Z</time>
        <extensions>
          <ns3:TrackPointExtension/>
        </extensions>
      </trkpt>
      <trkpt lat="43.15768123604357242584228515625" lon="12.99179392866790294647216796875">
        <ele>1106</ele>
        <time>2019-08-30T09:07:10.000Z</time>
        <extensions>
          <ns3:TrackPointExtension/>
        </extensions>
      </trkpt>
      <trkpt lat="43.157689534127712249755859375" lon="12.991793341934680938720703125">
        <ele>1106.199951171875</ele>
        <time>2019-08-30T09:07:11.000Z</time>
        <extensions>
          <ns3:TrackPointExtension/>
        </extensions>
      </trkpt>
      <trkpt lat="43.157827667891979217529296875" lon="12.99184991978108882904052734375">
        <ele>1111.4000244140625</ele>
        <time>2019-08-30T09:07:42.000Z</time>
        <extensions>
          <ns3:TrackPointExtension/>
        </extensions>
      </trkpt>
      <trkpt lat="43.15785205923020839691162109375" lon="12.9918753169476985931396484375">
        <ele>1112.5999755859375</ele>
        <time>2019-08-30T09:08:52.000Z</time>
        <extensions>
          <ns3:TrackPointExtension/>
        </extensions>
      </trkpt>
      <trkpt lat="43.1578529812395572662353515625" lon="12.9918949306011199951171875">
        <ele>1113</ele>
        <time>2019-08-30T09:09:14.000Z</time>
        <extensions>
          <ns3:TrackPointExtension/>
        </extensions>
      </trkpt>
      <trkpt lat="43.15790637396275997161865234375" lon="12.991981767117977142333984375">
        <ele>1116.4000244140625</ele>
        <time>2019-08-30T09:09:50.000Z</time>
        <extensions>
          <ns3:TrackPointExtension/>
        </extensions>
      </trkpt>
      <trkpt lat="43.157947696745395660400390625" lon="12.99207991920411586761474609375">
        <ele>1119.800048828125</ele>
        <time>2019-08-30T09:10:08.000Z</time>
        <extensions>
          <ns3:TrackPointExtension/>
        </extensions>
      </trkpt>
      <trkpt lat="43.15798080526292324066162109375" lon="12.99214412458240985870361328125">
        <ele>1122</ele>
        <time>2019-08-30T09:10:21.000Z</time>
        <extensions>
          <ns3:TrackPointExtension/>
        </extensions>
      </trkpt>
      <trkpt lat="43.1579760275781154632568359375" lon="12.99217564053833484649658203125">
        <ele>1122.199951171875</ele>
        <time>2019-08-30T09:10:53.000Z</time>
        <extensions>
          <ns3:TrackPointExtension/>
        </extensions>
      </trkpt>
      <trkpt lat="43.158058337867259979248046875" lon="12.99237596802413463592529296875">
        <ele>1127.800048828125</ele>
        <time>2019-08-30T09:11:31.000Z</time>
        <extensions>
          <ns3:TrackPointExtension/>
        </extensions>
      </trkpt>
      <trkpt lat="43.1580970622599124908447265625" lon="12.99245878122746944427490234375">
        <ele>1130.199951171875</ele>
        <time>2019-08-30T09:11:46.000Z</time>
        <extensions>
          <ns3:TrackPointExtension/>
        </extensions>
      </trkpt>
      <trkpt lat="43.1581289134919643402099609375" lon="12.9924984276294708251953125">
        <ele>1132</ele>
        <time>2019-08-30T09:12:01.000Z</time>
        <extensions>
          <ns3:TrackPointExtension/>
        </extensions>
      </trkpt>
      <trkpt lat="43.15818364731967449188232421875" lon="12.99257227219641208648681640625">
        <ele>1135</ele>
        <time>2019-08-30T09:12:15.000Z</time>
        <extensions>
          <ns3:TrackPointExtension/>
        </extensions>
      </trkpt>
      <trkpt lat="43.158186413347721099853515625" lon="12.99257864244282245635986328125">
        <ele>1135</ele>
        <time>2019-08-30T09:12:16.000Z</time>
        <extensions>
          <ns3:TrackPointExtension/>
        </extensions>
      </trkpt>
      <trkpt lat="43.1582938693463802337646484375" lon="12.99276958219707012176513671875">
        <ele>1141.199951171875</ele>
        <time>2019-08-30T09:12:53.000Z</time>
        <extensions>
          <ns3:TrackPointExtension/>
        </extensions>
      </trkpt>
      <trkpt lat="43.15838531590998172760009765625" lon="12.99297091551125049591064453125">
        <ele>1147</ele>
        <time>2019-08-30T09:13:30.000Z</time>
        <extensions>
          <ns3:TrackPointExtension/>
        </extensions>
      </trkpt>
      <trkpt lat="43.15849780105054378509521484375" lon="12.99315347336232662200927734375">
        <ele>1153.199951171875</ele>
        <time>2019-08-30T09:14:07.000Z</time>
        <extensions>
          <ns3:TrackPointExtension/>
        </extensions>
      </trkpt>
      <trkpt lat="43.1585872359573841094970703125" lon="12.9932707361876964569091796875">
        <ele>1157.5999755859375</ele>
        <time>2019-08-30T09:14:40.000Z</time>
        <extensions>
          <ns3:TrackPointExtension/>
        </extensions>
      </trkpt>
      <trkpt lat="43.15866242162883281707763671875" lon="12.9933451674878597259521484375">
        <ele>1161.199951171875</ele>
        <time>2019-08-30T09:15:07.000Z</time>
        <extensions>
          <ns3:TrackPointExtension/>
        </extensions>
      </trkpt>
      <trkpt lat="43.15867197699844837188720703125" lon="12.9933706484735012054443359375">
        <ele>1161.800048828125</ele>
        <time>2019-08-30T09:15:10.000Z</time>
        <extensions>
          <ns3:TrackPointExtension/>
        </extensions>
      </trkpt>
      <trkpt lat="43.15873467363417148590087890625" lon="12.9934970475733280181884765625">
        <ele>1165.4000244140625</ele>
        <time>2019-08-30T09:15:38.000Z</time>
        <extensions>
          <ns3:TrackPointExtension/>
        </extensions>
      </trkpt>
      <trkpt lat="43.15884581767022609710693359375" lon="12.99363761208951473236083984375">
        <ele>1171.199951171875</ele>
        <time>2019-08-30T09:16:21.000Z</time>
        <extensions>
          <ns3:TrackPointExtension/>
        </extensions>
      </trkpt>
      <trkpt lat="43.1589464843273162841796875" lon="12.99378999508917331695556640625">
        <ele>1176.5999755859375</ele>
        <time>2019-08-30T09:17:07.000Z</time>
        <extensions>
          <ns3:TrackPointExtension/>
        </extensions>
      </trkpt>
      <trkpt lat="43.1589550338685512542724609375" lon="12.99381866119801998138427734375">
        <ele>1177.199951171875</ele>
        <time>2019-08-30T09:17:11.000Z</time>
        <extensions>
          <ns3:TrackPointExtension/>
        </extensions>
      </trkpt>
      <trkpt lat="43.15897674299776554107666015625" lon="12.99385495483875274658203125">
        <ele>1178.4000244140625</ele>
        <time>2019-08-30T09:17:16.000Z</time>
        <extensions>
          <ns3:TrackPointExtension/>
        </extensions>
      </trkpt>
      <trkpt lat="43.15904849208891391754150390625" lon="12.994050085544586181640625">
        <ele>1183.4000244140625</ele>
        <time>2019-08-30T09:17:57.000Z</time>
        <extensions>
          <ns3:TrackPointExtension/>
        </extensions>
      </trkpt>
      <trkpt lat="43.15914941020309925079345703125" lon="12.99419333226978778839111328125">
        <ele>1188.5999755859375</ele>
        <time>2019-08-30T09:18:40.000Z</time>
        <extensions>
          <ns3:TrackPointExtension/>
        </extensions>
      </trkpt>
      <trkpt lat="43.15927932970225811004638671875" lon="12.99429659731686115264892578125">
        <ele>1194.5999755859375</ele>
        <time>2019-08-30T09:19:31.000Z</time>
        <extensions>
          <ns3:TrackPointExtension/>
        </extensions>
      </trkpt>
      <trkpt lat="43.1594145298004150390625" lon="12.99432526342570781707763671875">
        <ele>1199.800048828125</ele>
        <time>2019-08-30T09:20:09.000Z</time>
        <extensions>
          <ns3:TrackPointExtension/>
        </extensions>
      </trkpt>
      <trkpt lat="43.15951469354331493377685546875" lon="12.9944448731839656829833984375">
        <ele>1204.5999755859375</ele>
        <time>2019-08-30T09:20:47.000Z</time>
        <extensions>
          <ns3:TrackPointExtension/>
        </extensions>
      </trkpt>
      <trkpt lat="43.15960102714598178863525390625" lon="12.9945970885455608367919921875">
        <ele>1209</ele>
        <time>2019-08-30T09:21:13.000Z</time>
        <extensions>
          <ns3:TrackPointExtension/>
        </extensions>
      </trkpt>
      <trkpt lat="43.15976514481008052825927734375" lon="12.99464243464171886444091796875">
        <ele>1215.5999755859375</ele>
        <time>2019-08-30T09:21:44.000Z</time>
        <extensions>
          <ns3:TrackPointExtension/>
        </extensions>
      </trkpt>
      <trkpt lat="43.1599303521215915679931640625" lon="12.99466204829514026641845703125">
        <ele>1222</ele>
        <time>2019-08-30T09:22:26.000Z</time>
        <extensions>
          <ns3:TrackPointExtension/>
        </extensions>
      </trkpt>
      <trkpt lat="43.16010226495563983917236328125" lon="12.994696162641048431396484375">
        <ele>1229</ele>
        <time>2019-08-30T09:23:05.000Z</time>
        <extensions>
          <ns3:TrackPointExtension/>
        </extensions>
      </trkpt>
      <trkpt lat="43.16016613505780696868896484375" lon="12.99470948986709117889404296875">
        <ele>1231</ele>
        <time>2019-08-30T09:23:17.000Z</time>
        <extensions>
          <ns3:TrackPointExtension/>
        </extensions>
      </trkpt>
      <trkpt lat="43.16034366376698017120361328125" lon="12.99473077990114688873291015625">
        <ele>1236.800048828125</ele>
        <time>2019-08-30T09:23:50.000Z</time>
        <extensions>
          <ns3:TrackPointExtension/>
        </extensions>
      </trkpt>
      <trkpt lat="43.1604252196848392486572265625" lon="12.9947506450116634368896484375">
        <ele>1239.4000244140625</ele>
        <time>2019-08-30T09:24:06.000Z</time>
        <extensions>
          <ns3:TrackPointExtension/>
        </extensions>
      </trkpt>
      <trkpt lat="43.1604745052754878997802734375" lon="12.99476313404738903045654296875">
        <ele>1241</ele>
        <time>2019-08-30T09:24:13.000Z</time>
        <extensions>
          <ns3:TrackPointExtension/>
        </extensions>
      </trkpt>
      <trkpt lat="43.1605157442390918731689453125" lon="12.99476531334221363067626953125">
        <ele>1242.4000244140625</ele>
        <time>2019-08-30T09:24:18.000Z</time>
        <extensions>
          <ns3:TrackPointExtension/>
        </extensions>
      </trkpt>
      <trkpt lat="43.1606904231011867523193359375" lon="12.99481241963803768157958984375">
        <ele>1248.199951171875</ele>
        <time>2019-08-30T09:24:51.000Z</time>
        <extensions>
          <ns3:TrackPointExtension/>
        </extensions>
      </trkpt>
      <trkpt lat="43.16080056130886077880859375" lon="12.994873858988285064697265625">
        <ele>1252.5999755859375</ele>
        <time>2019-08-30T09:25:12.000Z</time>
        <extensions>
          <ns3:TrackPointExtension/>
        </extensions>
      </trkpt>
      <trkpt lat="43.16096417605876922607421875" lon="12.99492440186440944671630859375">
        <ele>1258.4000244140625</ele>
        <time>2019-08-30T09:25:41.000Z</time>
        <extensions>
          <ns3:TrackPointExtension/>
        </extensions>
      </trkpt>
      <trkpt lat="43.160996027290821075439453125" lon="12.9949353821575641632080078125">
        <ele>1259.199951171875</ele>
        <time>2019-08-30T09:25:46.000Z</time>
        <extensions>
          <ns3:TrackPointExtension/>
        </extensions>
      </trkpt>
      <trkpt lat="43.16112779080867767333984375" lon="12.99492892809212207794189453125">
        <ele>1262</ele>
        <time>2019-08-30T09:26:07.000Z</time>
        <extensions>
          <ns3:TrackPointExtension/>
        </extensions>
      </trkpt>
      <trkpt lat="43.1612020544707775115966796875" lon="12.99488492310047149658203125">
        <ele>1263.5999755859375</ele>
        <time>2019-08-30T09:26:19.000Z</time>
        <extensions>
          <ns3:TrackPointExtension/>
        </extensions>
      </trkpt>
      <trkpt lat="43.16129618324339389801025390625" lon="12.99484494142234325408935546875">
        <ele>1265.5999755859375</ele>
        <time>2019-08-30T09:26:34.000Z</time>
        <extensions>
          <ns3:TrackPointExtension/>
        </extensions>
      </trkpt>
      <trkpt lat="43.16133834421634674072265625" lon="12.99481845460832118988037109375">
        <ele>1266.5999755859375</ele>
        <time>2019-08-30T09:26:41.000Z</time>
        <extensions>
          <ns3:TrackPointExtension/>
        </extensions>
      </trkpt>
      <trkpt lat="43.161352761089801788330078125" lon="12.99481074325740337371826171875">
        <ele>1266.800048828125</ele>
        <time>2019-08-30T09:26:43.000Z</time>
        <extensions>
          <ns3:TrackPointExtension/>
        </extensions>
      </trkpt>
      <trkpt lat="43.16146935336291790008544921875" lon="12.99472826533019542694091796875">
        <ele>1269.5999755859375</ele>
        <time>2019-08-30T09:27:04.000Z</time>
        <extensions>
          <ns3:TrackPointExtension/>
        </extensions>
      </trkpt>
      <trkpt lat="43.16153992898762226104736328125" lon="12.994684092700481414794921875">
        <ele>1271.4000244140625</ele>
        <time>2019-08-30T09:27:15.000Z</time>
        <extensions>
          <ns3:TrackPointExtension/>
        </extensions>
      </trkpt>
      <trkpt lat="43.161561302840709686279296875" lon="12.99466858617961406707763671875">
        <ele>1272</ele>
        <time>2019-08-30T09:27:18.000Z</time>
        <extensions>
          <ns3:TrackPointExtension/>
        </extensions>
      </trkpt>
      <trkpt lat="43.161578066647052764892578125" lon="12.99465903080999851226806640625">
        <ele>1272.5999755859375</ele>
        <time>2019-08-30T09:27:20.000Z</time>
        <extensions>
          <ns3:TrackPointExtension/>
        </extensions>
      </trkpt>
      <trkpt lat="43.16163212992250919342041015625" lon="12.99462617374956607818603515625">
        <ele>1274</ele>
        <time>2019-08-30T09:27:26.000Z</time>
        <extensions>
          <ns3:TrackPointExtension/>
        </extensions>
      </trkpt>
      <trkpt lat="43.16164101473987102508544921875" lon="12.99462047405540943145751953125">
        <ele>1274.199951171875</ele>
        <time>2019-08-30T09:27:27.000Z</time>
        <extensions>
          <ns3:TrackPointExtension/>
        </extensions>
      </trkpt>
      <trkpt lat="43.16166247241199016571044921875" lon="12.99460605718195438385009765625">
        <ele>1274.800048828125</ele>
        <time>2019-08-30T09:27:30.000Z</time>
        <extensions>
          <ns3:TrackPointExtension/>
        </extensions>
      </trkpt>
      <trkpt lat="43.16171175800263881683349609375" lon="12.994586192071437835693359375">
        <ele>1276.199951171875</ele>
        <time>2019-08-30T09:27:37.000Z</time>
        <extensions>
          <ns3:TrackPointExtension/>
        </extensions>
      </trkpt>
      <trkpt lat="43.16172600723803043365478515625" lon="12.99457672052085399627685546875">
        <ele>1276.5999755859375</ele>
        <time>2019-08-30T09:27:39.000Z</time>
        <extensions>
          <ns3:TrackPointExtension/>
        </extensions>
      </trkpt>
      <trkpt lat="43.1618967466056346893310546875" lon="12.9945045523345470428466796875">
        <ele>1278.5999755859375</ele>
        <time>2019-08-30T09:28:10.000Z</time>
        <extensions>
          <ns3:TrackPointExtension/>
        </extensions>
      </trkpt>
      <trkpt lat="43.16194226033985614776611328125" lon="12.99447982572019100189208984375">
        <ele>1279</ele>
        <time>2019-08-30T09:28:17.000Z</time>
        <extensions>
          <ns3:TrackPointExtension/>
        </extensions>
      </trkpt>
      <trkpt lat="43.16196925006806850433349609375" lon="12.9944644868373870849609375">
        <ele>1279.199951171875</ele>
        <time>2019-08-30T09:28:21.000Z</time>
        <extensions>
          <ns3:TrackPointExtension/>
        </extensions>
      </trkpt>
      <trkpt lat="43.1620865128934383392333984375" lon="12.9943996109068393707275390625">
        <ele>1279.800048828125</ele>
        <time>2019-08-30T09:28:43.000Z</time>
        <extensions>
          <ns3:TrackPointExtension/>
        </extensions>
      </trkpt>
      <trkpt lat="43.1621689908206462860107421875" lon="12.9943178035318851470947265625">
        <ele>1280.199951171875</ele>
        <time>2019-08-30T09:28:57.000Z</time>
        <extensions>
          <ns3:TrackPointExtension/>
        </extensions>
      </trkpt>
      <trkpt lat="43.16219170577824115753173828125" lon="12.99429827369749546051025390625">
        <ele>1280.4000244140625</ele>
        <time>2019-08-30T09:29:00.000Z</time>
        <extensions>
          <ns3:TrackPointExtension/>
        </extensions>
      </trkpt>
      <trkpt lat="43.162346519529819488525390625" lon="12.99422451294958591461181640625">
        <ele>1280.5999755859375</ele>
        <time>2019-08-30T09:29:28.000Z</time>
        <extensions>
          <ns3:TrackPointExtension/>
        </extensions>
      </trkpt>
      <trkpt lat="43.16240661777555942535400390625" lon="12.99420305527746677398681640625">
        <ele>1280.4000244140625</ele>
        <time>2019-08-30T09:29:37.000Z</time>
        <extensions>
          <ns3:TrackPointExtension/>
        </extensions>
      </trkpt>
      <trkpt lat="43.16244869492948055267333984375" lon="12.99421378411352634429931640625">
        <ele>1280.800048828125</ele>
        <time>2019-08-30T09:29:42.000Z</time>
        <extensions>
          <ns3:TrackPointExtension/>
        </extensions>
      </trkpt>
      <trkpt lat="43.16247962415218353271484375" lon="12.9942229203879833221435546875">
        <ele>1281</ele>
        <time>2019-08-30T09:29:46.000Z</time>
        <extensions>
          <ns3:TrackPointExtension/>
        </extensions>
      </trkpt>
    </trkseg>
  </trk>
</gpx>
